<?xml version="1.0" encoding="utf-8"?>
<gpx xsi:schemaLocation="http://www.topografix.com/GPX/1/1 http://www.topografix.com/GPX/1/1/gpx.xsd http://www.garmin.com/xmlschemas/GpxExtensions/v3 http://www.garmin.com/xmlschemas/GpxExtensionsv3.xsd http://www.garmin.com/xmlschemas/TrackPointExtension/v1 http://www.garmin.com/xmlschemas/TrackPointExtensionv1.xsd" version="1.1" creator="Sports Tracker" xmlns="http://www.topografix.com/GPX/1/1" xmlns:xsi="http://www.w3.org/2001/XMLSchema-instance" xmlns:gpxtpx="http://www.garmin.com/xmlschemas/TrackPointExtension/v1" xmlns:gpxx="http://www.garmin.com/xmlschemas/GpxExtensions/v3">
  <metadata>
    <name>Mountain biking 7/01/2013/12:40:00</name>
    <desc>Dia 7 de Enero 2.013</desc>
    <author>
      <name>alberto gonzalez hernandez</name>
    </author>
    <link href="www.sports-tracker.com">
      <text>Sports Tracker</text>
    </link>
  </metadata>
  <trk>
    <trkseg>
      <trkpt lat="37.219163333333334" lon="-7.398675">
        <ele>34.5</ele>
        <time>2013-01-07T12:40:00</time>
      </trkpt>
      <trkpt lat="37.219163333333334" lon="-7.398675">
        <ele>34.5</ele>
        <time>2013-01-07T12:40:04.30</time>
      </trkpt>
      <trkpt lat="37.219091666666664" lon="-7.398685">
        <ele>45.9</ele>
        <time>2013-01-07T12:40:05.29</time>
      </trkpt>
      <trkpt lat="37.21904833333333" lon="-7.39869">
        <ele>51.1</ele>
        <time>2013-01-07T12:40:06.27</time>
      </trkpt>
      <trkpt lat="37.218988333333336" lon="-7.398696666666667">
        <ele>57.6</ele>
        <time>2013-01-07T12:40:07.37</time>
      </trkpt>
      <trkpt lat="37.218956666666664" lon="-7.3987066666666665">
        <ele>59.5</ele>
        <time>2013-01-07T12:40:08.28</time>
      </trkpt>
      <trkpt lat="37.21894833333333" lon="-7.398705">
        <ele>60.4</ele>
        <time>2013-01-07T12:40:09.31</time>
      </trkpt>
      <trkpt lat="37.21893166666667" lon="-7.398703333333334">
        <ele>63.3</ele>
        <time>2013-01-07T12:40:11.29</time>
      </trkpt>
      <trkpt lat="37.218925" lon="-7.398703333333334">
        <ele>64.4</ele>
        <time>2013-01-07T12:40:18.36</time>
      </trkpt>
      <trkpt lat="37.21881166666667" lon="-7.398883333333333">
        <ele>85.2</ele>
        <time>2013-01-07T12:40:22.32</time>
      </trkpt>
      <trkpt lat="37.21881333333334" lon="-7.39887">
        <ele>84.7</ele>
        <time>2013-01-07T12:40:24.55</time>
      </trkpt>
      <trkpt lat="37.218783333333334" lon="-7.398916666666667">
        <ele>83.6</ele>
        <time>2013-01-07T12:40:30.28</time>
      </trkpt>
      <trkpt lat="37.218743333333336" lon="-7.398938333333334">
        <ele>83.39999999999999</ele>
        <time>2013-01-07T12:40:31.28</time>
      </trkpt>
      <trkpt lat="37.21867833333334" lon="-7.398955">
        <ele>83.39999999999999</ele>
        <time>2013-01-07T12:40:32.29</time>
      </trkpt>
      <trkpt lat="37.21861333333333" lon="-7.398973333333333">
        <ele>83.99999999999999</ele>
        <time>2013-01-07T12:40:33.29</time>
      </trkpt>
      <trkpt lat="37.21855" lon="-7.398975">
        <ele>84.39999999999999</ele>
        <time>2013-01-07T12:40:34.29</time>
      </trkpt>
      <trkpt lat="37.218471666666666" lon="-7.398981666666667">
        <ele>84.89999999999999</ele>
        <time>2013-01-07T12:40:35.30</time>
      </trkpt>
      <trkpt lat="37.21839166666667" lon="-7.3989883333333335">
        <ele>85.49999999999999</ele>
        <time>2013-01-07T12:40:36.30</time>
      </trkpt>
      <trkpt lat="37.218311666666665" lon="-7.399">
        <ele>85.49999999999999</ele>
        <time>2013-01-07T12:40:37.29</time>
      </trkpt>
      <trkpt lat="37.21822" lon="-7.398996666666667">
        <ele>84.99999999999999</ele>
        <time>2013-01-07T12:40:38.30</time>
      </trkpt>
      <trkpt lat="37.21812333333333" lon="-7.398998333333333">
        <ele>84.89999999999999</ele>
        <time>2013-01-07T12:40:39.30</time>
      </trkpt>
      <trkpt lat="37.218041666666664" lon="-7.3990366666666665">
        <ele>83.6</ele>
        <time>2013-01-07T12:40:40.30</time>
      </trkpt>
      <trkpt lat="37.217953333333334" lon="-7.399026666666667">
        <ele>83</ele>
        <time>2013-01-07T12:40:41.30</time>
      </trkpt>
      <trkpt lat="37.21785833333333" lon="-7.399015">
        <ele>83.1</ele>
        <time>2013-01-07T12:40:42.30</time>
      </trkpt>
      <trkpt lat="37.21774666666666" lon="-7.399006666666667">
        <ele>82</ele>
        <time>2013-01-07T12:40:43.30</time>
      </trkpt>
      <trkpt lat="37.21765333333333" lon="-7.398995">
        <ele>81.8</ele>
        <time>2013-01-07T12:40:44.30</time>
      </trkpt>
      <trkpt lat="37.21755666666667" lon="-7.398975">
        <ele>81.7</ele>
        <time>2013-01-07T12:40:45.30</time>
      </trkpt>
      <trkpt lat="37.21747" lon="-7.398938333333334">
        <ele>80.7</ele>
        <time>2013-01-07T12:40:46.30</time>
      </trkpt>
      <trkpt lat="37.21738166666667" lon="-7.398911666666667">
        <ele>79.8</ele>
        <time>2013-01-07T12:40:47.30</time>
      </trkpt>
      <trkpt lat="37.217285" lon="-7.398883333333333">
        <ele>80.7</ele>
        <time>2013-01-07T12:40:48.31</time>
      </trkpt>
      <trkpt lat="37.217215" lon="-7.398853333333333">
        <ele>79.60000000000001</ele>
        <time>2013-01-07T12:40:49.31</time>
      </trkpt>
      <trkpt lat="37.217125" lon="-7.398821666666667">
        <ele>79.60000000000001</ele>
        <time>2013-01-07T12:40:50.30</time>
      </trkpt>
      <trkpt lat="37.21707333333333" lon="-7.3988016666666665">
        <ele>79.60000000000001</ele>
        <time>2013-01-07T12:40:51.30</time>
      </trkpt>
      <trkpt lat="37.21703333333333" lon="-7.398791666666667">
        <ele>79.2</ele>
        <time>2013-01-07T12:40:52.40</time>
      </trkpt>
      <trkpt lat="37.21702166666667" lon="-7.39878">
        <ele>79.4</ele>
        <time>2013-01-07T12:40:53.35</time>
      </trkpt>
      <trkpt lat="37.217013333333334" lon="-7.3987533333333335">
        <ele>77.30000000000001</ele>
        <time>2013-01-07T12:40:54.26</time>
      </trkpt>
      <trkpt lat="37.21698166666667" lon="-7.398741666666667">
        <ele>77.9</ele>
        <time>2013-01-07T12:40:55.29</time>
      </trkpt>
      <trkpt lat="37.21694166666666" lon="-7.398853333333333">
        <ele>72.2</ele>
        <time>2013-01-07T12:40:56.29</time>
      </trkpt>
      <trkpt lat="37.216903333333335" lon="-7.398925">
        <ele>74.4</ele>
        <time>2013-01-07T12:40:57.29</time>
      </trkpt>
      <trkpt lat="37.216865" lon="-7.398978333333333">
        <ele>73.7</ele>
        <time>2013-01-07T12:40:58.29</time>
      </trkpt>
      <trkpt lat="37.21682166666667" lon="-7.399031666666667">
        <ele>72.9</ele>
        <time>2013-01-07T12:40:59.29</time>
      </trkpt>
      <trkpt lat="37.216768333333334" lon="-7.399006666666667">
        <ele>72</ele>
        <time>2013-01-07T12:41:00.29</time>
      </trkpt>
      <trkpt lat="37.21672" lon="-7.398975">
        <ele>70.2</ele>
        <time>2013-01-07T12:41:01.29</time>
      </trkpt>
      <trkpt lat="37.21668666666667" lon="-7.398888333333334">
        <ele>70.7</ele>
        <time>2013-01-07T12:41:02.29</time>
      </trkpt>
      <trkpt lat="37.216651666666664" lon="-7.398838333333333">
        <ele>70.9</ele>
        <time>2013-01-07T12:41:03.26</time>
      </trkpt>
      <trkpt lat="37.21660333333333" lon="-7.398788333333333">
        <ele>71.80000000000001</ele>
        <time>2013-01-07T12:41:04.29</time>
      </trkpt>
      <trkpt lat="37.216548333333336" lon="-7.398733333333333">
        <ele>71.50000000000001</ele>
        <time>2013-01-07T12:41:05.29</time>
      </trkpt>
      <trkpt lat="37.21648166666667" lon="-7.398688333333333">
        <ele>71.10000000000001</ele>
        <time>2013-01-07T12:41:06.32</time>
      </trkpt>
      <trkpt lat="37.21642166666667" lon="-7.39865">
        <ele>70.9</ele>
        <time>2013-01-07T12:41:07.33</time>
      </trkpt>
      <trkpt lat="37.21635166666667" lon="-7.398606666666667">
        <ele>70.2</ele>
        <time>2013-01-07T12:41:08.32</time>
      </trkpt>
      <trkpt lat="37.216285" lon="-7.3985666666666665">
        <ele>69.8</ele>
        <time>2013-01-07T12:41:09.30</time>
      </trkpt>
      <trkpt lat="37.216258333333336" lon="-7.398561666666667">
        <ele>69.39999999999999</ele>
        <time>2013-01-07T12:41:10.30</time>
      </trkpt>
      <trkpt lat="37.216231666666665" lon="-7.3986">
        <ele>69.49999999999999</ele>
        <time>2013-01-07T12:41:12.30</time>
      </trkpt>
      <trkpt lat="37.21619666666667" lon="-7.398635">
        <ele>69.69999999999999</ele>
        <time>2013-01-07T12:41:13.29</time>
      </trkpt>
      <trkpt lat="37.216165" lon="-7.3987">
        <ele>69.79999999999998</ele>
        <time>2013-01-07T12:41:14.30</time>
      </trkpt>
      <trkpt lat="37.216141666666665" lon="-7.398758333333333">
        <ele>70.49999999999999</ele>
        <time>2013-01-07T12:41:15.29</time>
      </trkpt>
      <trkpt lat="37.21613" lon="-7.398815">
        <ele>70.39999999999999</ele>
        <time>2013-01-07T12:41:16.30</time>
      </trkpt>
      <trkpt lat="37.21610666666667" lon="-7.398888333333334">
        <ele>70.3</ele>
        <time>2013-01-07T12:41:17.30</time>
      </trkpt>
      <trkpt lat="37.21606" lon="-7.398956666666667">
        <ele>70.3</ele>
        <time>2013-01-07T12:41:18.30</time>
      </trkpt>
      <trkpt lat="37.21602" lon="-7.399008333333334">
        <ele>70.1</ele>
        <time>2013-01-07T12:41:19.30</time>
      </trkpt>
      <trkpt lat="37.215965" lon="-7.3990583333333335">
        <ele>69.39999999999999</ele>
        <time>2013-01-07T12:41:20.30</time>
      </trkpt>
      <trkpt lat="37.21589" lon="-7.399133333333333">
        <ele>69.39999999999999</ele>
        <time>2013-01-07T12:41:21.30</time>
      </trkpt>
      <trkpt lat="37.21586" lon="-7.399183333333333">
        <ele>69.39999999999999</ele>
        <time>2013-01-07T12:41:22.30</time>
      </trkpt>
      <trkpt lat="37.21581" lon="-7.399241666666667">
        <ele>69.1</ele>
        <time>2013-01-07T12:41:23.29</time>
      </trkpt>
      <trkpt lat="37.215781666666665" lon="-7.399288333333334">
        <ele>69</ele>
        <time>2013-01-07T12:41:24.31</time>
      </trkpt>
      <trkpt lat="37.215736666666665" lon="-7.399358333333334">
        <ele>69.2</ele>
        <time>2013-01-07T12:41:25.31</time>
      </trkpt>
      <trkpt lat="37.21570833333333" lon="-7.399401666666667">
        <ele>69</ele>
        <time>2013-01-07T12:41:26.29</time>
      </trkpt>
      <trkpt lat="37.21573333333333" lon="-7.399428333333334">
        <ele>68.9</ele>
        <time>2013-01-07T12:41:27.29</time>
      </trkpt>
      <trkpt lat="37.215671666666665" lon="-7.39948">
        <ele>69</ele>
        <time>2013-01-07T12:41:28.29</time>
      </trkpt>
      <trkpt lat="37.215608333333336" lon="-7.399548333333334">
        <ele>69.4</ele>
        <time>2013-01-07T12:41:29.29</time>
      </trkpt>
      <trkpt lat="37.21554666666667" lon="-7.399648333333333">
        <ele>70.30000000000001</ele>
        <time>2013-01-07T12:41:30.29</time>
      </trkpt>
      <trkpt lat="37.215491666666665" lon="-7.399755">
        <ele>70.70000000000002</ele>
        <time>2013-01-07T12:41:31.29</time>
      </trkpt>
      <trkpt lat="37.21543166666667" lon="-7.39986">
        <ele>69.80000000000001</ele>
        <time>2013-01-07T12:41:32.30</time>
      </trkpt>
      <trkpt lat="37.21537333333333" lon="-7.399895">
        <ele>70.10000000000001</ele>
        <time>2013-01-07T12:41:33.30</time>
      </trkpt>
      <trkpt lat="37.21535" lon="-7.399943333333334">
        <ele>70.80000000000001</ele>
        <time>2013-01-07T12:41:34.31</time>
      </trkpt>
      <trkpt lat="37.215365" lon="-7.399921666666667">
        <ele>71.50000000000001</ele>
        <time>2013-01-07T12:41:35.30</time>
      </trkpt>
      <trkpt lat="37.215336666666666" lon="-7.399941666666667">
        <ele>72.30000000000001</ele>
        <time>2013-01-07T12:41:37.30</time>
      </trkpt>
      <trkpt lat="37.215248333333335" lon="-7.399985">
        <ele>68.20000000000002</ele>
        <time>2013-01-07T12:41:38.30</time>
      </trkpt>
      <trkpt lat="37.215156666666665" lon="-7.400153333333333">
        <ele>65.70000000000002</ele>
        <time>2013-01-07T12:41:39.30</time>
      </trkpt>
      <trkpt lat="37.215068333333335" lon="-7.400255">
        <ele>64.50000000000001</ele>
        <time>2013-01-07T12:41:40.30</time>
      </trkpt>
      <trkpt lat="37.215003333333335" lon="-7.40033">
        <ele>65.40000000000002</ele>
        <time>2013-01-07T12:41:41.30</time>
      </trkpt>
      <trkpt lat="37.21494" lon="-7.400413333333334">
        <ele>65.60000000000002</ele>
        <time>2013-01-07T12:41:42.30</time>
      </trkpt>
      <trkpt lat="37.214885" lon="-7.400486666666667">
        <ele>65.80000000000003</ele>
        <time>2013-01-07T12:41:43.30</time>
      </trkpt>
      <trkpt lat="37.214825" lon="-7.400556666666667">
        <ele>66.30000000000003</ele>
        <time>2013-01-07T12:41:44.29</time>
      </trkpt>
      <trkpt lat="37.21477" lon="-7.40063">
        <ele>66.60000000000002</ele>
        <time>2013-01-07T12:41:45.30</time>
      </trkpt>
      <trkpt lat="37.214713333333336" lon="-7.40071">
        <ele>66.60000000000002</ele>
        <time>2013-01-07T12:41:46.30</time>
      </trkpt>
      <trkpt lat="37.21467166666667" lon="-7.400765">
        <ele>67.30000000000003</ele>
        <time>2013-01-07T12:41:47.29</time>
      </trkpt>
      <trkpt lat="37.214625" lon="-7.4008416666666665">
        <ele>66.80000000000003</ele>
        <time>2013-01-07T12:41:48.29</time>
      </trkpt>
      <trkpt lat="37.21458166666667" lon="-7.400915">
        <ele>66.60000000000002</ele>
        <time>2013-01-07T12:41:49.30</time>
      </trkpt>
      <trkpt lat="37.21454" lon="-7.400991666666667">
        <ele>67.40000000000002</ele>
        <time>2013-01-07T12:41:50.30</time>
      </trkpt>
      <trkpt lat="37.214495" lon="-7.40106">
        <ele>67.60000000000002</ele>
        <time>2013-01-07T12:41:51.30</time>
      </trkpt>
      <trkpt lat="37.214461666666665" lon="-7.401131666666667">
        <ele>67.40000000000002</ele>
        <time>2013-01-07T12:41:52.30</time>
      </trkpt>
      <trkpt lat="37.214425" lon="-7.401203333333333">
        <ele>67.90000000000002</ele>
        <time>2013-01-07T12:41:53.32</time>
      </trkpt>
      <trkpt lat="37.21438333333333" lon="-7.401261666666667">
        <ele>67.90000000000002</ele>
        <time>2013-01-07T12:41:54.33</time>
      </trkpt>
      <trkpt lat="37.214335" lon="-7.401345">
        <ele>68.40000000000002</ele>
        <time>2013-01-07T12:41:55.29</time>
      </trkpt>
      <trkpt lat="37.214295" lon="-7.40142">
        <ele>68.40000000000002</ele>
        <time>2013-01-07T12:41:56.30</time>
      </trkpt>
      <trkpt lat="37.21424666666667" lon="-7.401501666666666">
        <ele>68.70000000000002</ele>
        <time>2013-01-07T12:41:57.31</time>
      </trkpt>
      <trkpt lat="37.214205" lon="-7.4015933333333335">
        <ele>69.80000000000001</ele>
        <time>2013-01-07T12:41:58.31</time>
      </trkpt>
      <trkpt lat="37.21416833333333" lon="-7.40169">
        <ele>70.80000000000001</ele>
        <time>2013-01-07T12:41:59.30</time>
      </trkpt>
      <trkpt lat="37.214126666666665" lon="-7.401753333333334">
        <ele>71.00000000000001</ele>
        <time>2013-01-07T12:42:00.30</time>
      </trkpt>
      <trkpt lat="37.214088333333336" lon="-7.401823333333334">
        <ele>72.10000000000001</ele>
        <time>2013-01-07T12:42:01.30</time>
      </trkpt>
      <trkpt lat="37.21404833333333" lon="-7.401906666666667">
        <ele>71.80000000000001</ele>
        <time>2013-01-07T12:42:02.30</time>
      </trkpt>
      <trkpt lat="37.21402833333333" lon="-7.40198">
        <ele>72.00000000000001</ele>
        <time>2013-01-07T12:42:03.30</time>
      </trkpt>
      <trkpt lat="37.21404" lon="-7.402036666666667">
        <ele>72.40000000000002</ele>
        <time>2013-01-07T12:42:04.29</time>
      </trkpt>
      <trkpt lat="37.214061666666666" lon="-7.40207">
        <ele>72.60000000000002</ele>
        <time>2013-01-07T12:42:05.31</time>
      </trkpt>
      <trkpt lat="37.21406" lon="-7.402101666666667">
        <ele>73.50000000000003</ele>
        <time>2013-01-07T12:42:06.29</time>
      </trkpt>
      <trkpt lat="37.214016666666666" lon="-7.402116666666666">
        <ele>74.00000000000003</ele>
        <time>2013-01-07T12:42:07.30</time>
      </trkpt>
      <trkpt lat="37.21396166666667" lon="-7.4021316666666666">
        <ele>74.80000000000003</ele>
        <time>2013-01-07T12:42:08.31</time>
      </trkpt>
      <trkpt lat="37.21388833333334" lon="-7.402151666666667">
        <ele>75.80000000000003</ele>
        <time>2013-01-07T12:42:09.31</time>
      </trkpt>
      <trkpt lat="37.21383333333333" lon="-7.402173333333334">
        <ele>76.00000000000003</ele>
        <time>2013-01-07T12:42:10.30</time>
      </trkpt>
      <trkpt lat="37.21379833333334" lon="-7.402186666666666">
        <ele>76.00000000000003</ele>
        <time>2013-01-07T12:42:11.29</time>
      </trkpt>
      <trkpt lat="37.213766666666665" lon="-7.402188333333333">
        <ele>76.00000000000003</ele>
        <time>2013-01-07T12:42:12.30</time>
      </trkpt>
      <trkpt lat="37.21376166666667" lon="-7.402201666666667">
        <ele>76.20000000000003</ele>
        <time>2013-01-07T12:42:13.30</time>
      </trkpt>
      <trkpt lat="37.21371" lon="-7.4022">
        <ele>76.10000000000004</ele>
        <time>2013-01-07T12:42:14.30</time>
      </trkpt>
      <trkpt lat="37.21368833333333" lon="-7.402221666666667">
        <ele>76.00000000000004</ele>
        <time>2013-01-07T12:42:15.29</time>
      </trkpt>
      <trkpt lat="37.21362666666667" lon="-7.402228333333333">
        <ele>76.30000000000004</ele>
        <time>2013-01-07T12:42:16.30</time>
      </trkpt>
      <trkpt lat="37.21356333333333" lon="-7.40224">
        <ele>76.90000000000003</ele>
        <time>2013-01-07T12:42:17.30</time>
      </trkpt>
      <trkpt lat="37.213555" lon="-7.402235">
        <ele>76.80000000000004</ele>
        <time>2013-01-07T12:42:18.29</time>
      </trkpt>
      <trkpt lat="37.213546666666666" lon="-7.402236666666667">
        <ele>76.00000000000004</ele>
        <time>2013-01-07T12:42:19.29</time>
      </trkpt>
      <trkpt lat="37.21355666666667" lon="-7.402238333333333">
        <ele>75.50000000000004</ele>
        <time>2013-01-07T12:42:20.29</time>
      </trkpt>
      <trkpt lat="37.213591666666666" lon="-7.402216666666667">
        <ele>74.40000000000005</ele>
        <time>2013-01-07T12:42:21.30</time>
      </trkpt>
      <trkpt lat="37.213606666666664" lon="-7.40221">
        <ele>74.00000000000004</ele>
        <time>2013-01-07T12:42:22.29</time>
      </trkpt>
      <trkpt lat="37.21364333333333" lon="-7.402166666666667">
        <ele>71.80000000000004</ele>
        <time>2013-01-07T12:42:23.30</time>
      </trkpt>
      <trkpt lat="37.21368" lon="-7.402123333333333">
        <ele>68.20000000000005</ele>
        <time>2013-01-07T12:42:24.30</time>
      </trkpt>
      <trkpt lat="37.21371666666667" lon="-7.402098333333333">
        <ele>67.30000000000004</ele>
        <time>2013-01-07T12:42:25.31</time>
      </trkpt>
      <trkpt lat="37.21376" lon="-7.402083333333334">
        <ele>67.50000000000004</ele>
        <time>2013-01-07T12:42:26.31</time>
      </trkpt>
      <trkpt lat="37.2138" lon="-7.40207">
        <ele>67.00000000000004</ele>
        <time>2013-01-07T12:42:27.29</time>
      </trkpt>
      <trkpt lat="37.213845" lon="-7.4020616666666665">
        <ele>66.30000000000004</ele>
        <time>2013-01-07T12:42:28.30</time>
      </trkpt>
      <trkpt lat="37.213881666666666" lon="-7.402098333333333">
        <ele>65.80000000000004</ele>
        <time>2013-01-07T12:42:29.29</time>
      </trkpt>
      <trkpt lat="37.213926666666666" lon="-7.402105">
        <ele>65.80000000000004</ele>
        <time>2013-01-07T12:42:30.29</time>
      </trkpt>
      <trkpt lat="37.21396333333333" lon="-7.402121666666667">
        <ele>65.40000000000003</ele>
        <time>2013-01-07T12:42:31.29</time>
      </trkpt>
      <trkpt lat="37.213973333333335" lon="-7.402153333333334">
        <ele>64.90000000000003</ele>
        <time>2013-01-07T12:42:32.30</time>
      </trkpt>
      <trkpt lat="37.21398833333333" lon="-7.402201666666667">
        <ele>65.30000000000004</ele>
        <time>2013-01-07T12:42:33.30</time>
      </trkpt>
      <trkpt lat="37.21399" lon="-7.402293333333334">
        <ele>65.70000000000005</ele>
        <time>2013-01-07T12:42:34.29</time>
      </trkpt>
      <trkpt lat="37.213971666666666" lon="-7.402408333333334">
        <ele>67.40000000000005</ele>
        <time>2013-01-07T12:42:35.30</time>
      </trkpt>
      <trkpt lat="37.213973333333335" lon="-7.402475">
        <ele>67.10000000000005</ele>
        <time>2013-01-07T12:42:36.30</time>
      </trkpt>
      <trkpt lat="37.21397833333333" lon="-7.402545">
        <ele>66.90000000000005</ele>
        <time>2013-01-07T12:42:37.30</time>
      </trkpt>
      <trkpt lat="37.21397" lon="-7.4026233333333336">
        <ele>68.00000000000004</ele>
        <time>2013-01-07T12:42:38.30</time>
      </trkpt>
      <trkpt lat="37.213965" lon="-7.402695">
        <ele>68.50000000000004</ele>
        <time>2013-01-07T12:42:39.30</time>
      </trkpt>
      <trkpt lat="37.21396166666667" lon="-7.4027666666666665">
        <ele>68.70000000000005</ele>
        <time>2013-01-07T12:42:40.30</time>
      </trkpt>
      <trkpt lat="37.21395666666667" lon="-7.4028366666666665">
        <ele>70.10000000000005</ele>
        <time>2013-01-07T12:42:41.30</time>
      </trkpt>
      <trkpt lat="37.21396166666667" lon="-7.402915">
        <ele>69.50000000000006</ele>
        <time>2013-01-07T12:42:42.30</time>
      </trkpt>
      <trkpt lat="37.21395666666667" lon="-7.403006666666666">
        <ele>69.30000000000005</ele>
        <time>2013-01-07T12:42:43.30</time>
      </trkpt>
      <trkpt lat="37.213955" lon="-7.403088333333334">
        <ele>69.20000000000006</ele>
        <time>2013-01-07T12:42:44.30</time>
      </trkpt>
      <trkpt lat="37.21395833333333" lon="-7.403161666666667">
        <ele>69.30000000000005</ele>
        <time>2013-01-07T12:42:45.30</time>
      </trkpt>
      <trkpt lat="37.21395666666667" lon="-7.403253333333334">
        <ele>69.40000000000005</ele>
        <time>2013-01-07T12:42:46.30</time>
      </trkpt>
      <trkpt lat="37.21395833333333" lon="-7.403345">
        <ele>69.20000000000005</ele>
        <time>2013-01-07T12:42:47.30</time>
      </trkpt>
      <trkpt lat="37.21395833333333" lon="-7.403431666666667">
        <ele>69.10000000000005</ele>
        <time>2013-01-07T12:42:48.30</time>
      </trkpt>
      <trkpt lat="37.21395666666667" lon="-7.403501666666667">
        <ele>69.10000000000005</ele>
        <time>2013-01-07T12:42:49.30</time>
      </trkpt>
      <trkpt lat="37.213953333333336" lon="-7.40357">
        <ele>69.10000000000005</ele>
        <time>2013-01-07T12:42:50.30</time>
      </trkpt>
      <trkpt lat="37.213946666666665" lon="-7.403648333333333">
        <ele>69.20000000000005</ele>
        <time>2013-01-07T12:42:51.30</time>
      </trkpt>
      <trkpt lat="37.21395166666667" lon="-7.403733333333333">
        <ele>69.20000000000005</ele>
        <time>2013-01-07T12:42:52.30</time>
      </trkpt>
      <trkpt lat="37.21394" lon="-7.403793333333334">
        <ele>69.20000000000005</ele>
        <time>2013-01-07T12:42:53.30</time>
      </trkpt>
      <trkpt lat="37.213923333333334" lon="-7.403833333333333">
        <ele>69.10000000000005</ele>
        <time>2013-01-07T12:42:54.30</time>
      </trkpt>
      <trkpt lat="37.21391166666667" lon="-7.403885">
        <ele>68.50000000000006</ele>
        <time>2013-01-07T12:42:55.28</time>
      </trkpt>
      <trkpt lat="37.2139" lon="-7.40396">
        <ele>68.10000000000005</ele>
        <time>2013-01-07T12:42:56.29</time>
      </trkpt>
      <trkpt lat="37.213875" lon="-7.40402">
        <ele>68.70000000000005</ele>
        <time>2013-01-07T12:42:57.29</time>
      </trkpt>
      <trkpt lat="37.21385333333333" lon="-7.404055">
        <ele>69.40000000000005</ele>
        <time>2013-01-07T12:42:58.29</time>
      </trkpt>
      <trkpt lat="37.213838333333335" lon="-7.4040816666666665">
        <ele>69.90000000000005</ele>
        <time>2013-01-07T12:42:59.29</time>
      </trkpt>
      <trkpt lat="37.213818333333336" lon="-7.4041266666666665">
        <ele>70.00000000000004</ele>
        <time>2013-01-07T12:43:00.29</time>
      </trkpt>
      <trkpt lat="37.21380833333333" lon="-7.404208333333333">
        <ele>70.20000000000005</ele>
        <time>2013-01-07T12:43:01.29</time>
      </trkpt>
      <trkpt lat="37.213786666666664" lon="-7.404276666666667">
        <ele>70.20000000000005</ele>
        <time>2013-01-07T12:43:02.29</time>
      </trkpt>
      <trkpt lat="37.213765" lon="-7.4043383333333335">
        <ele>70.40000000000005</ele>
        <time>2013-01-07T12:43:03.31</time>
      </trkpt>
      <trkpt lat="37.21375666666667" lon="-7.40441">
        <ele>68.20000000000005</ele>
        <time>2013-01-07T12:43:04.29</time>
      </trkpt>
      <trkpt lat="37.213735" lon="-7.40448">
        <ele>67.80000000000004</ele>
        <time>2013-01-07T12:43:05.29</time>
      </trkpt>
      <trkpt lat="37.21370833333334" lon="-7.404546666666667">
        <ele>67.90000000000003</ele>
        <time>2013-01-07T12:43:06.29</time>
      </trkpt>
      <trkpt lat="37.213681666666666" lon="-7.404635">
        <ele>67.00000000000003</ele>
        <time>2013-01-07T12:43:07.29</time>
      </trkpt>
      <trkpt lat="37.213663333333336" lon="-7.40471">
        <ele>66.10000000000002</ele>
        <time>2013-01-07T12:43:08.30</time>
      </trkpt>
      <trkpt lat="37.213645" lon="-7.404765">
        <ele>65.30000000000003</ele>
        <time>2013-01-07T12:43:09.31</time>
      </trkpt>
      <trkpt lat="37.213615" lon="-7.4048">
        <ele>64.70000000000003</ele>
        <time>2013-01-07T12:43:10.30</time>
      </trkpt>
      <trkpt lat="37.21357166666667" lon="-7.404816666666667">
        <ele>64.50000000000003</ele>
        <time>2013-01-07T12:43:11.30</time>
      </trkpt>
      <trkpt lat="37.213523333333335" lon="-7.40481">
        <ele>64.60000000000002</ele>
        <time>2013-01-07T12:43:12.30</time>
      </trkpt>
      <trkpt lat="37.21346833333333" lon="-7.404798333333333">
        <ele>64.60000000000002</ele>
        <time>2013-01-07T12:43:13.32</time>
      </trkpt>
      <trkpt lat="37.21340333333333" lon="-7.4047833333333335">
        <ele>64.80000000000003</ele>
        <time>2013-01-07T12:43:14.32</time>
      </trkpt>
      <trkpt lat="37.213346666666666" lon="-7.404768333333333">
        <ele>65.00000000000003</ele>
        <time>2013-01-07T12:43:15.30</time>
      </trkpt>
      <trkpt lat="37.213276666666665" lon="-7.40475">
        <ele>65.30000000000003</ele>
        <time>2013-01-07T12:43:16.30</time>
      </trkpt>
      <trkpt lat="37.213235" lon="-7.404723333333333">
        <ele>65.40000000000002</ele>
        <time>2013-01-07T12:43:17.30</time>
      </trkpt>
      <trkpt lat="37.2132" lon="-7.404725">
        <ele>65.50000000000001</ele>
        <time>2013-01-07T12:43:18.30</time>
      </trkpt>
      <trkpt lat="37.21315" lon="-7.404801666666667">
        <ele>65.10000000000001</ele>
        <time>2013-01-07T12:43:19.30</time>
      </trkpt>
      <trkpt lat="37.21309333333333" lon="-7.404813333333333">
        <ele>64.2</ele>
        <time>2013-01-07T12:43:20.30</time>
      </trkpt>
      <trkpt lat="37.21308" lon="-7.404838333333333">
        <ele>63.7</ele>
        <time>2013-01-07T12:43:21.37</time>
      </trkpt>
      <trkpt lat="37.21305" lon="-7.404875">
        <ele>64.10000000000001</ele>
        <time>2013-01-07T12:43:22.30</time>
      </trkpt>
      <trkpt lat="37.21303" lon="-7.40492">
        <ele>63.70000000000001</ele>
        <time>2013-01-07T12:43:23.30</time>
      </trkpt>
      <trkpt lat="37.21299333333333" lon="-7.404913333333333">
        <ele>64.00000000000001</ele>
        <time>2013-01-07T12:43:24.30</time>
      </trkpt>
      <trkpt lat="37.21297333333333" lon="-7.4049">
        <ele>64.20000000000002</ele>
        <time>2013-01-07T12:43:25.30</time>
      </trkpt>
      <trkpt lat="37.212975" lon="-7.404883333333333">
        <ele>64.30000000000001</ele>
        <time>2013-01-07T12:43:26.30</time>
      </trkpt>
      <trkpt lat="37.21296" lon="-7.404846666666667">
        <ele>64.20000000000002</ele>
        <time>2013-01-07T12:43:27.30</time>
      </trkpt>
      <trkpt lat="37.21290833333333" lon="-7.404838333333333">
        <ele>64.00000000000001</ele>
        <time>2013-01-07T12:43:28.30</time>
      </trkpt>
      <trkpt lat="37.21290666666667" lon="-7.40482">
        <ele>64.60000000000001</ele>
        <time>2013-01-07T12:43:29.29</time>
      </trkpt>
      <trkpt lat="37.21288" lon="-7.404811666666666">
        <ele>65.4</ele>
        <time>2013-01-07T12:43:30.27</time>
      </trkpt>
      <trkpt lat="37.21285666666667" lon="-7.4047583333333336">
        <ele>66.10000000000001</ele>
        <time>2013-01-07T12:43:31.27</time>
      </trkpt>
      <trkpt lat="37.212833333333336" lon="-7.404703333333333">
        <ele>66.60000000000001</ele>
        <time>2013-01-07T12:43:32.29</time>
      </trkpt>
      <trkpt lat="37.2128" lon="-7.404648333333333">
        <ele>66.80000000000001</ele>
        <time>2013-01-07T12:43:33.29</time>
      </trkpt>
      <trkpt lat="37.212805" lon="-7.404605">
        <ele>67.10000000000001</ele>
        <time>2013-01-07T12:43:34.29</time>
      </trkpt>
      <trkpt lat="37.212735" lon="-7.404566666666667">
        <ele>67.10000000000001</ele>
        <time>2013-01-07T12:43:35.29</time>
      </trkpt>
      <trkpt lat="37.21268333333333" lon="-7.40454">
        <ele>67.2</ele>
        <time>2013-01-07T12:43:36.29</time>
      </trkpt>
      <trkpt lat="37.21266833333333" lon="-7.404521666666667">
        <ele>67.60000000000001</ele>
        <time>2013-01-07T12:43:37.29</time>
      </trkpt>
      <trkpt lat="37.21259833333333" lon="-7.404555">
        <ele>68.00000000000001</ele>
        <time>2013-01-07T12:43:38.29</time>
      </trkpt>
      <trkpt lat="37.212561666666666" lon="-7.40453">
        <ele>68.40000000000002</ele>
        <time>2013-01-07T12:43:39.29</time>
      </trkpt>
      <trkpt lat="37.21254" lon="-7.40449">
        <ele>68.70000000000002</ele>
        <time>2013-01-07T12:43:40.30</time>
      </trkpt>
      <trkpt lat="37.212493333333335" lon="-7.404441666666667">
        <ele>68.90000000000002</ele>
        <time>2013-01-07T12:43:41.29</time>
      </trkpt>
      <trkpt lat="37.21243333333334" lon="-7.404428333333334">
        <ele>68.80000000000003</ele>
        <time>2013-01-07T12:43:42.29</time>
      </trkpt>
      <trkpt lat="37.21239833333333" lon="-7.404411666666666">
        <ele>68.90000000000002</ele>
        <time>2013-01-07T12:43:43.29</time>
      </trkpt>
      <trkpt lat="37.212381666666666" lon="-7.404378333333334">
        <ele>69.00000000000001</ele>
        <time>2013-01-07T12:43:44.29</time>
      </trkpt>
      <trkpt lat="37.21236833333333" lon="-7.404333333333334">
        <ele>68.90000000000002</ele>
        <time>2013-01-07T12:43:45.29</time>
      </trkpt>
      <trkpt lat="37.212383333333335" lon="-7.404283333333334">
        <ele>69.10000000000002</ele>
        <time>2013-01-07T12:43:46.29</time>
      </trkpt>
      <trkpt lat="37.21236666666667" lon="-7.404258333333333">
        <ele>69.20000000000002</ele>
        <time>2013-01-07T12:43:47.29</time>
      </trkpt>
      <trkpt lat="37.21237" lon="-7.404236666666667">
        <ele>69.20000000000002</ele>
        <time>2013-01-07T12:43:48.29</time>
      </trkpt>
      <trkpt lat="37.21234833333333" lon="-7.404191666666667">
        <ele>68.40000000000002</ele>
        <time>2013-01-07T12:43:49.29</time>
      </trkpt>
      <trkpt lat="37.212325" lon="-7.404131666666666">
        <ele>67.50000000000001</ele>
        <time>2013-01-07T12:43:50.29</time>
      </trkpt>
      <trkpt lat="37.21228333333333" lon="-7.40407">
        <ele>66.60000000000001</ele>
        <time>2013-01-07T12:43:51.29</time>
      </trkpt>
      <trkpt lat="37.21226333333333" lon="-7.404001666666667">
        <ele>65.60000000000001</ele>
        <time>2013-01-07T12:43:52.29</time>
      </trkpt>
      <trkpt lat="37.21219" lon="-7.403945">
        <ele>64.30000000000001</ele>
        <time>2013-01-07T12:43:53.29</time>
      </trkpt>
      <trkpt lat="37.212105" lon="-7.403895">
        <ele>62.80000000000001</ele>
        <time>2013-01-07T12:43:54.30</time>
      </trkpt>
      <trkpt lat="37.21203666666667" lon="-7.403845">
        <ele>61.60000000000001</ele>
        <time>2013-01-07T12:43:55.30</time>
      </trkpt>
      <trkpt lat="37.21194833333333" lon="-7.40387">
        <ele>61.400000000000006</ele>
        <time>2013-01-07T12:43:56.29</time>
      </trkpt>
      <trkpt lat="37.21189833333333" lon="-7.403811666666667">
        <ele>59.900000000000006</ele>
        <time>2013-01-07T12:43:57.30</time>
      </trkpt>
      <trkpt lat="37.211843333333334" lon="-7.403775">
        <ele>59.00000000000001</ele>
        <time>2013-01-07T12:43:58.30</time>
      </trkpt>
      <trkpt lat="37.21176833333333" lon="-7.403738333333333">
        <ele>57.800000000000004</ele>
        <time>2013-01-07T12:43:59.29</time>
      </trkpt>
      <trkpt lat="37.21169166666667" lon="-7.403701666666667">
        <ele>58.2</ele>
        <time>2013-01-07T12:44:00.30</time>
      </trkpt>
      <trkpt lat="37.21164666666667" lon="-7.403668333333333">
        <ele>57.800000000000004</ele>
        <time>2013-01-07T12:44:01.33</time>
      </trkpt>
      <trkpt lat="37.21158666666667" lon="-7.403671666666667">
        <ele>57.6</ele>
        <time>2013-01-07T12:44:02.34</time>
      </trkpt>
      <trkpt lat="37.21151166666667" lon="-7.403796666666667">
        <ele>58.6</ele>
        <time>2013-01-07T12:44:03.30</time>
      </trkpt>
      <trkpt lat="37.21144833333334" lon="-7.40382">
        <ele>58.9</ele>
        <time>2013-01-07T12:44:04.30</time>
      </trkpt>
      <trkpt lat="37.21137" lon="-7.403861666666667">
        <ele>59.4</ele>
        <time>2013-01-07T12:44:05.30</time>
      </trkpt>
      <trkpt lat="37.21130333333333" lon="-7.403886666666667">
        <ele>60.3</ele>
        <time>2013-01-07T12:44:06.32</time>
      </trkpt>
      <trkpt lat="37.211265" lon="-7.403901666666667">
        <ele>62.599999999999994</ele>
        <time>2013-01-07T12:44:07.29</time>
      </trkpt>
      <trkpt lat="37.211215" lon="-7.403895">
        <ele>63.8</ele>
        <time>2013-01-07T12:44:08.29</time>
      </trkpt>
      <trkpt lat="37.211173333333335" lon="-7.403888333333334">
        <ele>64.6</ele>
        <time>2013-01-07T12:44:09.29</time>
      </trkpt>
      <trkpt lat="37.2111" lon="-7.403885">
        <ele>64.69999999999999</ele>
        <time>2013-01-07T12:44:10.29</time>
      </trkpt>
      <trkpt lat="37.211035" lon="-7.403866666666667">
        <ele>61.79999999999999</ele>
        <time>2013-01-07T12:44:11.29</time>
      </trkpt>
      <trkpt lat="37.210998333333336" lon="-7.403866666666667">
        <ele>61.89999999999999</ele>
        <time>2013-01-07T12:44:12.29</time>
      </trkpt>
      <trkpt lat="37.21094166666666" lon="-7.403913333333334">
        <ele>62.39999999999999</ele>
        <time>2013-01-07T12:44:13.29</time>
      </trkpt>
      <trkpt lat="37.210863333333336" lon="-7.403965">
        <ele>64.3</ele>
        <time>2013-01-07T12:44:14.29</time>
      </trkpt>
      <trkpt lat="37.21080333333333" lon="-7.404005">
        <ele>65.7</ele>
        <time>2013-01-07T12:44:15.29</time>
      </trkpt>
      <trkpt lat="37.21075833333333" lon="-7.404028333333334">
        <ele>68.3</ele>
        <time>2013-01-07T12:44:16.29</time>
      </trkpt>
      <trkpt lat="37.210683333333336" lon="-7.404041666666667">
        <ele>68.3</ele>
        <time>2013-01-07T12:44:17.29</time>
      </trkpt>
      <trkpt lat="37.210618333333336" lon="-7.404066666666667">
        <ele>69.2</ele>
        <time>2013-01-07T12:44:18.30</time>
      </trkpt>
      <trkpt lat="37.210528333333336" lon="-7.404086666666666">
        <ele>69.3</ele>
        <time>2013-01-07T12:44:19.30</time>
      </trkpt>
      <trkpt lat="37.21047166666666" lon="-7.404088333333333">
        <ele>69</ele>
        <time>2013-01-07T12:44:20.30</time>
      </trkpt>
      <trkpt lat="37.21038166666666" lon="-7.40411">
        <ele>68.6</ele>
        <time>2013-01-07T12:44:21.30</time>
      </trkpt>
      <trkpt lat="37.210301666666666" lon="-7.404133333333333">
        <ele>68.39999999999999</ele>
        <time>2013-01-07T12:44:22.30</time>
      </trkpt>
      <trkpt lat="37.21022" lon="-7.404141666666667">
        <ele>68.6</ele>
        <time>2013-01-07T12:44:23.30</time>
      </trkpt>
      <trkpt lat="37.21012666666667" lon="-7.404158333333333">
        <ele>68.89999999999999</ele>
        <time>2013-01-07T12:44:24.30</time>
      </trkpt>
      <trkpt lat="37.21007" lon="-7.404171666666667">
        <ele>68.89999999999999</ele>
        <time>2013-01-07T12:44:25.30</time>
      </trkpt>
      <trkpt lat="37.210006666666665" lon="-7.404176666666666">
        <ele>69.1</ele>
        <time>2013-01-07T12:44:26.30</time>
      </trkpt>
      <trkpt lat="37.20991333333333" lon="-7.404206666666667">
        <ele>70</ele>
        <time>2013-01-07T12:44:27.29</time>
      </trkpt>
      <trkpt lat="37.20986333333333" lon="-7.404216666666667">
        <ele>70.4</ele>
        <time>2013-01-07T12:44:28.30</time>
      </trkpt>
      <trkpt lat="37.20979833333333" lon="-7.404231666666667">
        <ele>70.4</ele>
        <time>2013-01-07T12:44:29.30</time>
      </trkpt>
      <trkpt lat="37.209765" lon="-7.40423">
        <ele>70.5</ele>
        <time>2013-01-07T12:44:30.30</time>
      </trkpt>
      <trkpt lat="37.209735" lon="-7.404235">
        <ele>70.7</ele>
        <time>2013-01-07T12:44:31.31</time>
      </trkpt>
      <trkpt lat="37.20968333333333" lon="-7.404233333333333">
        <ele>70.10000000000001</ele>
        <time>2013-01-07T12:44:32.30</time>
      </trkpt>
      <trkpt lat="37.20965" lon="-7.4042216666666665">
        <ele>70.10000000000001</ele>
        <time>2013-01-07T12:44:33.30</time>
      </trkpt>
      <trkpt lat="37.209601666666664" lon="-7.404253333333333">
        <ele>69.7</ele>
        <time>2013-01-07T12:44:34.30</time>
      </trkpt>
      <trkpt lat="37.20953333333333" lon="-7.404258333333333">
        <ele>69.9</ele>
        <time>2013-01-07T12:44:35.30</time>
      </trkpt>
      <trkpt lat="37.209493333333334" lon="-7.404248333333333">
        <ele>69.9</ele>
        <time>2013-01-07T12:44:36.30</time>
      </trkpt>
      <trkpt lat="37.20943333333334" lon="-7.404263333333334">
        <ele>71</ele>
        <time>2013-01-07T12:44:37.30</time>
      </trkpt>
      <trkpt lat="37.20935" lon="-7.40429">
        <ele>71.1</ele>
        <time>2013-01-07T12:44:38.30</time>
      </trkpt>
      <trkpt lat="37.20928833333333" lon="-7.404321666666666">
        <ele>70.3</ele>
        <time>2013-01-07T12:44:39.30</time>
      </trkpt>
      <trkpt lat="37.20923333333333" lon="-7.4043133333333335">
        <ele>69.6</ele>
        <time>2013-01-07T12:44:40.30</time>
      </trkpt>
      <trkpt lat="37.209181666666666" lon="-7.404308333333334">
        <ele>69.3</ele>
        <time>2013-01-07T12:44:41.30</time>
      </trkpt>
      <trkpt lat="37.209113333333335" lon="-7.404303333333333">
        <ele>69.1</ele>
        <time>2013-01-07T12:44:42.30</time>
      </trkpt>
      <trkpt lat="37.20902666666667" lon="-7.4043616666666665">
        <ele>69.8</ele>
        <time>2013-01-07T12:44:43.30</time>
      </trkpt>
      <trkpt lat="37.208911666666665" lon="-7.404415">
        <ele>71</ele>
        <time>2013-01-07T12:44:44.30</time>
      </trkpt>
      <trkpt lat="37.20882" lon="-7.404445">
        <ele>72</ele>
        <time>2013-01-07T12:44:45.27</time>
      </trkpt>
      <trkpt lat="37.20874" lon="-7.404471666666667">
        <ele>72.9</ele>
        <time>2013-01-07T12:44:46.29</time>
      </trkpt>
      <trkpt lat="37.20868" lon="-7.404481666666666">
        <ele>72.10000000000001</ele>
        <time>2013-01-07T12:44:47.29</time>
      </trkpt>
      <trkpt lat="37.208625" lon="-7.404465">
        <ele>71.50000000000001</ele>
        <time>2013-01-07T12:44:48.28</time>
      </trkpt>
      <trkpt lat="37.20856333333333" lon="-7.40446">
        <ele>71.70000000000002</ele>
        <time>2013-01-07T12:44:49.28</time>
      </trkpt>
      <trkpt lat="37.20848" lon="-7.404471666666667">
        <ele>72.00000000000001</ele>
        <time>2013-01-07T12:44:50.29</time>
      </trkpt>
      <trkpt lat="37.208423333333336" lon="-7.404471666666667">
        <ele>71.90000000000002</ele>
        <time>2013-01-07T12:44:51.29</time>
      </trkpt>
      <trkpt lat="37.20836" lon="-7.404461666666666">
        <ele>72.30000000000003</ele>
        <time>2013-01-07T12:44:52.29</time>
      </trkpt>
      <trkpt lat="37.208275" lon="-7.404458333333333">
        <ele>72.10000000000002</ele>
        <time>2013-01-07T12:44:53.29</time>
      </trkpt>
      <trkpt lat="37.208196666666666" lon="-7.404463333333333">
        <ele>71.90000000000002</ele>
        <time>2013-01-07T12:44:54.29</time>
      </trkpt>
      <trkpt lat="37.20813166666667" lon="-7.404451666666667">
        <ele>71.10000000000002</ele>
        <time>2013-01-07T12:44:55.29</time>
      </trkpt>
      <trkpt lat="37.20806" lon="-7.404451666666667">
        <ele>70.40000000000002</ele>
        <time>2013-01-07T12:44:56.29</time>
      </trkpt>
      <trkpt lat="37.207993333333334" lon="-7.404448333333334">
        <ele>70.20000000000002</ele>
        <time>2013-01-07T12:44:57.30</time>
      </trkpt>
      <trkpt lat="37.20793166666667" lon="-7.404466666666667">
        <ele>69.50000000000001</ele>
        <time>2013-01-07T12:44:58.30</time>
      </trkpt>
      <trkpt lat="37.20785" lon="-7.404475">
        <ele>69.00000000000001</ele>
        <time>2013-01-07T12:44:59.39</time>
      </trkpt>
      <trkpt lat="37.2078" lon="-7.404448333333334">
        <ele>68.50000000000001</ele>
        <time>2013-01-07T12:45:00.30</time>
      </trkpt>
      <trkpt lat="37.20771666666667" lon="-7.404455">
        <ele>69.70000000000002</ele>
        <time>2013-01-07T12:45:01.29</time>
      </trkpt>
      <trkpt lat="37.20765333333333" lon="-7.40443">
        <ele>68.60000000000002</ele>
        <time>2013-01-07T12:45:02.30</time>
      </trkpt>
      <trkpt lat="37.207585" lon="-7.404405">
        <ele>67.40000000000002</ele>
        <time>2013-01-07T12:45:03.30</time>
      </trkpt>
      <trkpt lat="37.207528333333336" lon="-7.404416666666667">
        <ele>67.90000000000002</ele>
        <time>2013-01-07T12:45:04.30</time>
      </trkpt>
      <trkpt lat="37.20748" lon="-7.404411666666666">
        <ele>67.90000000000002</ele>
        <time>2013-01-07T12:45:05.30</time>
      </trkpt>
      <trkpt lat="37.20741" lon="-7.404413333333333">
        <ele>68.30000000000003</ele>
        <time>2013-01-07T12:45:06.30</time>
      </trkpt>
      <trkpt lat="37.20736" lon="-7.404401666666667">
        <ele>66.10000000000002</ele>
        <time>2013-01-07T12:45:07.30</time>
      </trkpt>
      <trkpt lat="37.20733" lon="-7.404433333333333">
        <ele>66.60000000000002</ele>
        <time>2013-01-07T12:45:08.30</time>
      </trkpt>
      <trkpt lat="37.20730833333333" lon="-7.404518333333334">
        <ele>67.70000000000002</ele>
        <time>2013-01-07T12:45:09.30</time>
      </trkpt>
      <trkpt lat="37.20723666666667" lon="-7.404591666666667">
        <ele>69.80000000000001</ele>
        <time>2013-01-07T12:45:10.30</time>
      </trkpt>
      <trkpt lat="37.20720333333333" lon="-7.4046">
        <ele>71.00000000000001</ele>
        <time>2013-01-07T12:45:11.30</time>
      </trkpt>
      <trkpt lat="37.207205" lon="-7.404575">
        <ele>71.70000000000002</ele>
        <time>2013-01-07T12:45:12.30</time>
      </trkpt>
      <trkpt lat="37.20721833333333" lon="-7.404551666666666">
        <ele>72.80000000000001</ele>
        <time>2013-01-07T12:45:13.30</time>
      </trkpt>
      <trkpt lat="37.20720333333333" lon="-7.404515">
        <ele>73.9</ele>
        <time>2013-01-07T12:45:14.30</time>
      </trkpt>
      <trkpt lat="37.20717333333333" lon="-7.404483333333333">
        <ele>74.4</ele>
        <time>2013-01-07T12:45:15.30</time>
      </trkpt>
      <trkpt lat="37.20714666666667" lon="-7.40445">
        <ele>75.4</ele>
        <time>2013-01-07T12:45:16.31</time>
      </trkpt>
      <trkpt lat="37.20712666666667" lon="-7.4044">
        <ele>75.60000000000001</ele>
        <time>2013-01-07T12:45:17.30</time>
      </trkpt>
      <trkpt lat="37.207103333333336" lon="-7.404348333333333">
        <ele>75.80000000000001</ele>
        <time>2013-01-07T12:45:18.30</time>
      </trkpt>
      <trkpt lat="37.20706666666667" lon="-7.404306666666667">
        <ele>75.4</ele>
        <time>2013-01-07T12:45:19.30</time>
      </trkpt>
      <trkpt lat="37.207035" lon="-7.404258333333333">
        <ele>74.80000000000001</ele>
        <time>2013-01-07T12:45:20.30</time>
      </trkpt>
      <trkpt lat="37.206961666666665" lon="-7.404236666666667">
        <ele>74.4</ele>
        <time>2013-01-07T12:45:21.31</time>
      </trkpt>
      <trkpt lat="37.206918333333334" lon="-7.40421">
        <ele>73.7</ele>
        <time>2013-01-07T12:45:22.32</time>
      </trkpt>
      <trkpt lat="37.20686" lon="-7.404165">
        <ele>72.2</ele>
        <time>2013-01-07T12:45:23.30</time>
      </trkpt>
      <trkpt lat="37.206795" lon="-7.404133333333333">
        <ele>71.60000000000001</ele>
        <time>2013-01-07T12:45:24.30</time>
      </trkpt>
      <trkpt lat="37.20672166666667" lon="-7.404108333333333">
        <ele>72.00000000000001</ele>
        <time>2013-01-07T12:45:25.29</time>
      </trkpt>
      <trkpt lat="37.206665" lon="-7.404073333333334">
        <ele>72.20000000000002</ele>
        <time>2013-01-07T12:45:26.30</time>
      </trkpt>
      <trkpt lat="37.20659666666667" lon="-7.404031666666667">
        <ele>72.70000000000002</ele>
        <time>2013-01-07T12:45:27.30</time>
      </trkpt>
      <trkpt lat="37.20653166666666" lon="-7.404">
        <ele>72.40000000000002</ele>
        <time>2013-01-07T12:45:28.35</time>
      </trkpt>
      <trkpt lat="37.20645666666667" lon="-7.403973333333333">
        <ele>72.40000000000002</ele>
        <time>2013-01-07T12:45:29.30</time>
      </trkpt>
      <trkpt lat="37.20638" lon="-7.40397">
        <ele>72.50000000000001</ele>
        <time>2013-01-07T12:45:30.30</time>
      </trkpt>
      <trkpt lat="37.20630833333333" lon="-7.403943333333333">
        <ele>72.10000000000001</ele>
        <time>2013-01-07T12:45:31.31</time>
      </trkpt>
      <trkpt lat="37.206235" lon="-7.403918333333333">
        <ele>71.60000000000001</ele>
        <time>2013-01-07T12:45:32.30</time>
      </trkpt>
      <trkpt lat="37.20617333333333" lon="-7.40388">
        <ele>71.60000000000001</ele>
        <time>2013-01-07T12:45:33.30</time>
      </trkpt>
      <trkpt lat="37.20610666666666" lon="-7.4038683333333335">
        <ele>71.60000000000001</ele>
        <time>2013-01-07T12:45:34.30</time>
      </trkpt>
      <trkpt lat="37.20603333333333" lon="-7.403848333333333">
        <ele>70.9</ele>
        <time>2013-01-07T12:45:35.30</time>
      </trkpt>
      <trkpt lat="37.205956666666665" lon="-7.403811666666667">
        <ele>71</ele>
        <time>2013-01-07T12:45:36.30</time>
      </trkpt>
      <trkpt lat="37.20588166666667" lon="-7.403775">
        <ele>70.9</ele>
        <time>2013-01-07T12:45:37.30</time>
      </trkpt>
      <trkpt lat="37.205823333333335" lon="-7.403733333333333">
        <ele>70.5</ele>
        <time>2013-01-07T12:45:38.30</time>
      </trkpt>
      <trkpt lat="37.20576833333333" lon="-7.4037">
        <ele>71</ele>
        <time>2013-01-07T12:45:39.30</time>
      </trkpt>
      <trkpt lat="37.20570333333333" lon="-7.403668333333333">
        <ele>70.8</ele>
        <time>2013-01-07T12:45:40.30</time>
      </trkpt>
      <trkpt lat="37.205643333333335" lon="-7.403638333333333">
        <ele>70.8</ele>
        <time>2013-01-07T12:45:41.30</time>
      </trkpt>
      <trkpt lat="37.20558333333334" lon="-7.403608333333334">
        <ele>70.5</ele>
        <time>2013-01-07T12:45:42.30</time>
      </trkpt>
      <trkpt lat="37.205525" lon="-7.403588333333333">
        <ele>70.5</ele>
        <time>2013-01-07T12:45:43.30</time>
      </trkpt>
      <trkpt lat="37.20545666666667" lon="-7.403583333333334">
        <ele>70.8</ele>
        <time>2013-01-07T12:45:44.30</time>
      </trkpt>
      <trkpt lat="37.20539333333333" lon="-7.403535">
        <ele>71</ele>
        <time>2013-01-07T12:45:45.30</time>
      </trkpt>
      <trkpt lat="37.205328333333334" lon="-7.403503333333333">
        <ele>71</ele>
        <time>2013-01-07T12:45:46.30</time>
      </trkpt>
      <trkpt lat="37.205268333333336" lon="-7.403456666666667">
        <ele>71.2</ele>
        <time>2013-01-07T12:45:47.30</time>
      </trkpt>
      <trkpt lat="37.20518833333333" lon="-7.40344">
        <ele>71.2</ele>
        <time>2013-01-07T12:45:48.30</time>
      </trkpt>
      <trkpt lat="37.20513666666667" lon="-7.403401666666666">
        <ele>71.5</ele>
        <time>2013-01-07T12:45:49.30</time>
      </trkpt>
      <trkpt lat="37.205101666666664" lon="-7.403386666666667">
        <ele>71.7</ele>
        <time>2013-01-07T12:45:50.30</time>
      </trkpt>
      <trkpt lat="37.205065" lon="-7.403348333333334">
        <ele>72.4</ele>
        <time>2013-01-07T12:45:51.30</time>
      </trkpt>
      <trkpt lat="37.205025" lon="-7.40331">
        <ele>71.9</ele>
        <time>2013-01-07T12:45:52.30</time>
      </trkpt>
      <trkpt lat="37.20495" lon="-7.4033283333333335">
        <ele>72.60000000000001</ele>
        <time>2013-01-07T12:45:53.30</time>
      </trkpt>
      <trkpt lat="37.20489333333333" lon="-7.403325">
        <ele>72.9</ele>
        <time>2013-01-07T12:45:54.30</time>
      </trkpt>
      <trkpt lat="37.20487166666667" lon="-7.40329">
        <ele>73.2</ele>
        <time>2013-01-07T12:45:55.29</time>
      </trkpt>
      <trkpt lat="37.20482" lon="-7.403251666666667">
        <ele>72.4</ele>
        <time>2013-01-07T12:45:56.31</time>
      </trkpt>
      <trkpt lat="37.204765" lon="-7.403195">
        <ele>72</ele>
        <time>2013-01-07T12:45:57.29</time>
      </trkpt>
      <trkpt lat="37.20472" lon="-7.403153333333333">
        <ele>71.5</ele>
        <time>2013-01-07T12:45:58.30</time>
      </trkpt>
      <trkpt lat="37.20466833333333" lon="-7.403105">
        <ele>70.6</ele>
        <time>2013-01-07T12:45:59.30</time>
      </trkpt>
      <trkpt lat="37.20460666666666" lon="-7.403056666666667">
        <ele>69</ele>
        <time>2013-01-07T12:46:00.30</time>
      </trkpt>
      <trkpt lat="37.204573333333336" lon="-7.403018333333334">
        <ele>68.6</ele>
        <time>2013-01-07T12:46:01.30</time>
      </trkpt>
      <trkpt lat="37.204521666666665" lon="-7.40299">
        <ele>68.3</ele>
        <time>2013-01-07T12:46:02.30</time>
      </trkpt>
      <trkpt lat="37.20448" lon="-7.402951666666667">
        <ele>68.6</ele>
        <time>2013-01-07T12:46:03.30</time>
      </trkpt>
      <trkpt lat="37.20444" lon="-7.402911666666666">
        <ele>68.39999999999999</ele>
        <time>2013-01-07T12:46:04.30</time>
      </trkpt>
      <trkpt lat="37.204375" lon="-7.402913333333333">
        <ele>68.49999999999999</ele>
        <time>2013-01-07T12:46:05.29</time>
      </trkpt>
      <trkpt lat="37.204335" lon="-7.402905">
        <ele>68.59999999999998</ele>
        <time>2013-01-07T12:46:06.30</time>
      </trkpt>
      <trkpt lat="37.204283333333336" lon="-7.40292">
        <ele>68.29999999999998</ele>
        <time>2013-01-07T12:46:07.29</time>
      </trkpt>
      <trkpt lat="37.204245" lon="-7.402983333333333">
        <ele>68.79999999999998</ele>
        <time>2013-01-07T12:46:08.30</time>
      </trkpt>
      <trkpt lat="37.20421833333333" lon="-7.403041666666667">
        <ele>69.19999999999999</ele>
        <time>2013-01-07T12:46:09.30</time>
      </trkpt>
      <trkpt lat="37.204175" lon="-7.402993333333334">
        <ele>69.1</ele>
        <time>2013-01-07T12:46:10.30</time>
      </trkpt>
      <trkpt lat="37.20413833333333" lon="-7.402946666666667">
        <ele>69.5</ele>
        <time>2013-01-07T12:46:11.30</time>
      </trkpt>
      <trkpt lat="37.20411166666667" lon="-7.402903333333334">
        <ele>69.4</ele>
        <time>2013-01-07T12:46:12.30</time>
      </trkpt>
      <trkpt lat="37.20404166666667" lon="-7.402845">
        <ele>69.5</ele>
        <time>2013-01-07T12:46:13.30</time>
      </trkpt>
      <trkpt lat="37.20401" lon="-7.402773333333333">
        <ele>68.9</ele>
        <time>2013-01-07T12:46:14.29</time>
      </trkpt>
      <trkpt lat="37.20397" lon="-7.40271">
        <ele>69.4</ele>
        <time>2013-01-07T12:46:15.30</time>
      </trkpt>
      <trkpt lat="37.20390666666667" lon="-7.40266">
        <ele>69.80000000000001</ele>
        <time>2013-01-07T12:46:16.29</time>
      </trkpt>
      <trkpt lat="37.20385" lon="-7.40262">
        <ele>69.9</ele>
        <time>2013-01-07T12:46:17.30</time>
      </trkpt>
      <trkpt lat="37.203795" lon="-7.402581666666666">
        <ele>70.5</ele>
        <time>2013-01-07T12:46:18.30</time>
      </trkpt>
      <trkpt lat="37.20372666666667" lon="-7.402541666666667">
        <ele>70.1</ele>
        <time>2013-01-07T12:46:19.31</time>
      </trkpt>
      <trkpt lat="37.203675" lon="-7.402496666666667">
        <ele>70.19999999999999</ele>
        <time>2013-01-07T12:46:20.31</time>
      </trkpt>
      <trkpt lat="37.203625" lon="-7.402445">
        <ele>70.19999999999999</ele>
        <time>2013-01-07T12:46:21.29</time>
      </trkpt>
      <trkpt lat="37.20357166666667" lon="-7.402405">
        <ele>69.99999999999999</ele>
        <time>2013-01-07T12:46:22.30</time>
      </trkpt>
      <trkpt lat="37.20351" lon="-7.402375">
        <ele>69.89999999999999</ele>
        <time>2013-01-07T12:46:23.30</time>
      </trkpt>
      <trkpt lat="37.203453333333336" lon="-7.402331666666667">
        <ele>69.99999999999999</ele>
        <time>2013-01-07T12:46:24.30</time>
      </trkpt>
      <trkpt lat="37.203385" lon="-7.40228">
        <ele>70.09999999999998</ele>
        <time>2013-01-07T12:46:25.30</time>
      </trkpt>
      <trkpt lat="37.203325" lon="-7.40225">
        <ele>70.09999999999998</ele>
        <time>2013-01-07T12:46:26.30</time>
      </trkpt>
      <trkpt lat="37.20326333333333" lon="-7.4022">
        <ele>69.99999999999999</ele>
        <time>2013-01-07T12:46:27.30</time>
      </trkpt>
      <trkpt lat="37.20320666666667" lon="-7.40215">
        <ele>70.09999999999998</ele>
        <time>2013-01-07T12:46:28.30</time>
      </trkpt>
      <trkpt lat="37.20314666666667" lon="-7.402105">
        <ele>70.19999999999997</ele>
        <time>2013-01-07T12:46:29.30</time>
      </trkpt>
      <trkpt lat="37.20307666666667" lon="-7.402065">
        <ele>70.19999999999997</ele>
        <time>2013-01-07T12:46:30.30</time>
      </trkpt>
      <trkpt lat="37.20301333333333" lon="-7.402035">
        <ele>70.49999999999997</ele>
        <time>2013-01-07T12:46:31.30</time>
      </trkpt>
      <trkpt lat="37.202955" lon="-7.40202">
        <ele>70.09999999999997</ele>
        <time>2013-01-07T12:46:32.30</time>
      </trkpt>
      <trkpt lat="37.20288166666667" lon="-7.401981666666667">
        <ele>70.09999999999997</ele>
        <time>2013-01-07T12:46:33.30</time>
      </trkpt>
      <trkpt lat="37.20280833333333" lon="-7.401963333333334">
        <ele>69.49999999999997</ele>
        <time>2013-01-07T12:46:34.30</time>
      </trkpt>
      <trkpt lat="37.20274666666667" lon="-7.401948333333333">
        <ele>70.19999999999997</ele>
        <time>2013-01-07T12:46:35.30</time>
      </trkpt>
      <trkpt lat="37.202705" lon="-7.4019">
        <ele>70.19999999999997</ele>
        <time>2013-01-07T12:46:36.29</time>
      </trkpt>
      <trkpt lat="37.20265666666667" lon="-7.401848333333334">
        <ele>69.79999999999997</ele>
        <time>2013-01-07T12:46:37.30</time>
      </trkpt>
      <trkpt lat="37.2026" lon="-7.401806666666666">
        <ele>69.39999999999996</ele>
        <time>2013-01-07T12:46:38.30</time>
      </trkpt>
      <trkpt lat="37.20255" lon="-7.401768333333333">
        <ele>69.29999999999997</ele>
        <time>2013-01-07T12:46:39.30</time>
      </trkpt>
      <trkpt lat="37.20250333333333" lon="-7.401738333333333">
        <ele>69.19999999999997</ele>
        <time>2013-01-07T12:46:40.30</time>
      </trkpt>
      <trkpt lat="37.20244833333334" lon="-7.40171">
        <ele>68.69999999999997</ele>
        <time>2013-01-07T12:46:41.30</time>
      </trkpt>
      <trkpt lat="37.20239" lon="-7.40168">
        <ele>68.29999999999997</ele>
        <time>2013-01-07T12:46:42.30</time>
      </trkpt>
      <trkpt lat="37.20234" lon="-7.4016416666666665">
        <ele>67.69999999999997</ele>
        <time>2013-01-07T12:46:43.30</time>
      </trkpt>
      <trkpt lat="37.202286666666666" lon="-7.401598333333333">
        <ele>67.39999999999998</ele>
        <time>2013-01-07T12:46:44.30</time>
      </trkpt>
      <trkpt lat="37.202243333333335" lon="-7.401563333333334">
        <ele>68.09999999999998</ele>
        <time>2013-01-07T12:46:45.30</time>
      </trkpt>
      <trkpt lat="37.202191666666664" lon="-7.401525">
        <ele>68.19999999999997</ele>
        <time>2013-01-07T12:46:46.30</time>
      </trkpt>
      <trkpt lat="37.202145" lon="-7.40148">
        <ele>67.79999999999997</ele>
        <time>2013-01-07T12:46:47.30</time>
      </trkpt>
      <trkpt lat="37.2021" lon="-7.40144">
        <ele>67.99999999999997</ele>
        <time>2013-01-07T12:46:48.30</time>
      </trkpt>
      <trkpt lat="37.202056666666664" lon="-7.401398333333334">
        <ele>67.89999999999998</ele>
        <time>2013-01-07T12:46:49.30</time>
      </trkpt>
      <trkpt lat="37.202011666666664" lon="-7.401365">
        <ele>67.69999999999997</ele>
        <time>2013-01-07T12:46:50.30</time>
      </trkpt>
      <trkpt lat="37.20195666666667" lon="-7.40133">
        <ele>67.99999999999997</ele>
        <time>2013-01-07T12:46:51.35</time>
      </trkpt>
      <trkpt lat="37.20189666666667" lon="-7.40129">
        <ele>68.19999999999997</ele>
        <time>2013-01-07T12:46:52.30</time>
      </trkpt>
      <trkpt lat="37.201836666666665" lon="-7.401261666666667">
        <ele>67.79999999999997</ele>
        <time>2013-01-07T12:46:53.30</time>
      </trkpt>
      <trkpt lat="37.201791666666665" lon="-7.401231666666667">
        <ele>68.19999999999997</ele>
        <time>2013-01-07T12:46:54.30</time>
      </trkpt>
      <trkpt lat="37.20175" lon="-7.401215">
        <ele>67.89999999999998</ele>
        <time>2013-01-07T12:46:55.30</time>
      </trkpt>
      <trkpt lat="37.201726666666666" lon="-7.401173333333333">
        <ele>66.59999999999998</ele>
        <time>2013-01-07T12:46:56.30</time>
      </trkpt>
      <trkpt lat="37.20168666666667" lon="-7.401136666666667">
        <ele>66.79999999999998</ele>
        <time>2013-01-07T12:46:57.30</time>
      </trkpt>
      <trkpt lat="37.20165333333333" lon="-7.401108333333333">
        <ele>66.59999999999998</ele>
        <time>2013-01-07T12:46:58.30</time>
      </trkpt>
      <trkpt lat="37.20162666666667" lon="-7.401078333333333">
        <ele>66.39999999999998</ele>
        <time>2013-01-07T12:46:59.30</time>
      </trkpt>
      <trkpt lat="37.20157833333333" lon="-7.401051666666667">
        <ele>67.19999999999997</ele>
        <time>2013-01-07T12:47:00.30</time>
      </trkpt>
      <trkpt lat="37.201521666666665" lon="-7.40105">
        <ele>66.89999999999998</ele>
        <time>2013-01-07T12:47:01.30</time>
      </trkpt>
      <trkpt lat="37.20147333333333" lon="-7.401038333333333">
        <ele>67.19999999999997</ele>
        <time>2013-01-07T12:47:02.31</time>
      </trkpt>
      <trkpt lat="37.20142666666667" lon="-7.4010283333333335">
        <ele>67.99999999999997</ele>
        <time>2013-01-07T12:47:03.30</time>
      </trkpt>
      <trkpt lat="37.20138" lon="-7.401013333333333">
        <ele>68.19999999999997</ele>
        <time>2013-01-07T12:47:04.30</time>
      </trkpt>
      <trkpt lat="37.201323333333335" lon="-7.400993333333333">
        <ele>68.59999999999998</ele>
        <time>2013-01-07T12:47:05.30</time>
      </trkpt>
      <trkpt lat="37.20126166666667" lon="-7.400965">
        <ele>68.89999999999998</ele>
        <time>2013-01-07T12:47:06.30</time>
      </trkpt>
      <trkpt lat="37.201205" lon="-7.400956666666667">
        <ele>68.99999999999997</ele>
        <time>2013-01-07T12:47:07.30</time>
      </trkpt>
      <trkpt lat="37.201155" lon="-7.400961666666666">
        <ele>68.79999999999997</ele>
        <time>2013-01-07T12:47:08.30</time>
      </trkpt>
      <trkpt lat="37.201105" lon="-7.400966666666666">
        <ele>68.29999999999997</ele>
        <time>2013-01-07T12:47:09.30</time>
      </trkpt>
      <trkpt lat="37.201058333333336" lon="-7.40098">
        <ele>68.49999999999997</ele>
        <time>2013-01-07T12:47:10.30</time>
      </trkpt>
      <trkpt lat="37.20101833333333" lon="-7.400981666666667">
        <ele>68.99999999999997</ele>
        <time>2013-01-07T12:47:11.30</time>
      </trkpt>
      <trkpt lat="37.20097" lon="-7.400976666666667">
        <ele>69.19999999999997</ele>
        <time>2013-01-07T12:47:12.30</time>
      </trkpt>
      <trkpt lat="37.200921666666666" lon="-7.40098">
        <ele>68.99999999999997</ele>
        <time>2013-01-07T12:47:13.30</time>
      </trkpt>
      <trkpt lat="37.20088333333333" lon="-7.400986666666666">
        <ele>68.99999999999997</ele>
        <time>2013-01-07T12:47:14.30</time>
      </trkpt>
      <trkpt lat="37.200831666666666" lon="-7.4009833333333335">
        <ele>68.79999999999997</ele>
        <time>2013-01-07T12:47:15.30</time>
      </trkpt>
      <trkpt lat="37.200783333333334" lon="-7.400991666666667">
        <ele>69.49999999999997</ele>
        <time>2013-01-07T12:47:16.30</time>
      </trkpt>
      <trkpt lat="37.20073" lon="-7.4010066666666665">
        <ele>69.39999999999998</ele>
        <time>2013-01-07T12:47:17.30</time>
      </trkpt>
      <trkpt lat="37.20067" lon="-7.401003333333334">
        <ele>69.39999999999998</ele>
        <time>2013-01-07T12:47:18.30</time>
      </trkpt>
      <trkpt lat="37.20062" lon="-7.401013333333333">
        <ele>69.09999999999998</ele>
        <time>2013-01-07T12:47:19.30</time>
      </trkpt>
      <trkpt lat="37.200565" lon="-7.401013333333333">
        <ele>69.39999999999998</ele>
        <time>2013-01-07T12:47:20.30</time>
      </trkpt>
      <trkpt lat="37.20050666666667" lon="-7.401011666666666">
        <ele>68.99999999999997</ele>
        <time>2013-01-07T12:47:21.30</time>
      </trkpt>
      <trkpt lat="37.20045666666667" lon="-7.401015">
        <ele>68.99999999999997</ele>
        <time>2013-01-07T12:47:22.30</time>
      </trkpt>
      <trkpt lat="37.200405" lon="-7.401035">
        <ele>68.89999999999998</ele>
        <time>2013-01-07T12:47:23.30</time>
      </trkpt>
      <trkpt lat="37.20034833333333" lon="-7.401046666666667">
        <ele>69.19999999999997</ele>
        <time>2013-01-07T12:47:24.30</time>
      </trkpt>
      <trkpt lat="37.20028833333333" lon="-7.401045">
        <ele>68.69999999999997</ele>
        <time>2013-01-07T12:47:25.30</time>
      </trkpt>
      <trkpt lat="37.20023666666667" lon="-7.401043333333333">
        <ele>68.29999999999997</ele>
        <time>2013-01-07T12:47:26.30</time>
      </trkpt>
      <trkpt lat="37.20018" lon="-7.401048333333334">
        <ele>68.19999999999997</ele>
        <time>2013-01-07T12:47:27.30</time>
      </trkpt>
      <trkpt lat="37.200115" lon="-7.401058333333333">
        <ele>67.89999999999998</ele>
        <time>2013-01-07T12:47:28.30</time>
      </trkpt>
      <trkpt lat="37.200023333333334" lon="-7.401075">
        <ele>72.09999999999998</ele>
        <time>2013-01-07T12:47:29.30</time>
      </trkpt>
      <trkpt lat="37.19994833333333" lon="-7.4010766666666665">
        <ele>72.09999999999998</ele>
        <time>2013-01-07T12:47:30.30</time>
      </trkpt>
      <trkpt lat="37.19988166666667" lon="-7.401083333333333">
        <ele>71.89999999999998</ele>
        <time>2013-01-07T12:47:31.30</time>
      </trkpt>
      <trkpt lat="37.199823333333335" lon="-7.401088333333333">
        <ele>71.39999999999998</ele>
        <time>2013-01-07T12:47:32.30</time>
      </trkpt>
      <trkpt lat="37.19976833333333" lon="-7.401098333333334">
        <ele>70.89999999999998</ele>
        <time>2013-01-07T12:47:33.30</time>
      </trkpt>
      <trkpt lat="37.199691666666666" lon="-7.401106666666666">
        <ele>71.39999999999998</ele>
        <time>2013-01-07T12:47:34.29</time>
      </trkpt>
      <trkpt lat="37.19962" lon="-7.40113">
        <ele>71.49999999999997</ele>
        <time>2013-01-07T12:47:35.29</time>
      </trkpt>
      <trkpt lat="37.199555" lon="-7.401148333333333">
        <ele>72.29999999999997</ele>
        <time>2013-01-07T12:47:36.30</time>
      </trkpt>
      <trkpt lat="37.199508333333334" lon="-7.4011466666666665">
        <ele>73.99999999999997</ele>
        <time>2013-01-07T12:47:37.30</time>
      </trkpt>
      <trkpt lat="37.19945166666667" lon="-7.40116">
        <ele>74.29999999999997</ele>
        <time>2013-01-07T12:47:38.30</time>
      </trkpt>
      <trkpt lat="37.199375" lon="-7.401168333333334">
        <ele>74.89999999999996</ele>
        <time>2013-01-07T12:47:39.30</time>
      </trkpt>
      <trkpt lat="37.19930166666666" lon="-7.401175">
        <ele>73.99999999999996</ele>
        <time>2013-01-07T12:47:40.30</time>
      </trkpt>
      <trkpt lat="37.19922833333333" lon="-7.401191666666667">
        <ele>73.79999999999995</ele>
        <time>2013-01-07T12:47:41.30</time>
      </trkpt>
      <trkpt lat="37.19916333333333" lon="-7.401213333333334">
        <ele>73.49999999999996</ele>
        <time>2013-01-07T12:47:42.30</time>
      </trkpt>
      <trkpt lat="37.199131666666666" lon="-7.401281666666667">
        <ele>71.99999999999996</ele>
        <time>2013-01-07T12:47:43.38</time>
      </trkpt>
      <trkpt lat="37.19909833333333" lon="-7.40135">
        <ele>71.59999999999995</ele>
        <time>2013-01-07T12:47:44.30</time>
      </trkpt>
      <trkpt lat="37.19907" lon="-7.401411666666666">
        <ele>72.69999999999995</ele>
        <time>2013-01-07T12:47:45.31</time>
      </trkpt>
      <trkpt lat="37.199036666666665" lon="-7.401458333333333">
        <ele>71.89999999999995</ele>
        <time>2013-01-07T12:47:46.35</time>
      </trkpt>
      <trkpt lat="37.19900666666667" lon="-7.4015216666666666">
        <ele>73.19999999999995</ele>
        <time>2013-01-07T12:47:47.30</time>
      </trkpt>
      <trkpt lat="37.19897" lon="-7.401576666666666">
        <ele>72.89999999999995</ele>
        <time>2013-01-07T12:47:48.30</time>
      </trkpt>
      <trkpt lat="37.19893166666667" lon="-7.401595">
        <ele>71.09999999999995</ele>
        <time>2013-01-07T12:47:49.30</time>
      </trkpt>
      <trkpt lat="37.19889833333333" lon="-7.4016416666666665">
        <ele>70.09999999999995</ele>
        <time>2013-01-07T12:47:50.30</time>
      </trkpt>
      <trkpt lat="37.198865" lon="-7.401661666666667">
        <ele>69.89999999999995</ele>
        <time>2013-01-07T12:47:51.30</time>
      </trkpt>
      <trkpt lat="37.198838333333335" lon="-7.40167">
        <ele>69.79999999999995</ele>
        <time>2013-01-07T12:47:52.30</time>
      </trkpt>
      <trkpt lat="37.19881" lon="-7.4016416666666665">
        <ele>69.59999999999995</ele>
        <time>2013-01-07T12:47:53.30</time>
      </trkpt>
      <trkpt lat="37.198793333333334" lon="-7.401603333333333">
        <ele>69.69999999999995</ele>
        <time>2013-01-07T12:47:54.30</time>
      </trkpt>
      <trkpt lat="37.198771666666666" lon="-7.401565">
        <ele>69.69999999999995</ele>
        <time>2013-01-07T12:47:55.30</time>
      </trkpt>
      <trkpt lat="37.198721666666664" lon="-7.401543333333334">
        <ele>69.79999999999994</ele>
        <time>2013-01-07T12:47:56.30</time>
      </trkpt>
      <trkpt lat="37.198685" lon="-7.401518333333334">
        <ele>69.39999999999993</ele>
        <time>2013-01-07T12:47:57.30</time>
      </trkpt>
      <trkpt lat="37.19864333333334" lon="-7.401458333333333">
        <ele>65.69999999999993</ele>
        <time>2013-01-07T12:47:58.30</time>
      </trkpt>
      <trkpt lat="37.198595" lon="-7.401425">
        <ele>64.99999999999993</ele>
        <time>2013-01-07T12:47:59.30</time>
      </trkpt>
      <trkpt lat="37.19855" lon="-7.4014066666666665">
        <ele>64.19999999999993</ele>
        <time>2013-01-07T12:48:00.30</time>
      </trkpt>
      <trkpt lat="37.198501666666665" lon="-7.401401666666667">
        <ele>64.69999999999993</ele>
        <time>2013-01-07T12:48:01.31</time>
      </trkpt>
      <trkpt lat="37.19845" lon="-7.401408333333333">
        <ele>65.19999999999993</ele>
        <time>2013-01-07T12:48:02.35</time>
      </trkpt>
      <trkpt lat="37.19840166666667" lon="-7.401418333333333">
        <ele>65.39999999999993</ele>
        <time>2013-01-07T12:48:03.30</time>
      </trkpt>
      <trkpt lat="37.19836" lon="-7.401441666666667">
        <ele>65.29999999999994</ele>
        <time>2013-01-07T12:48:04.30</time>
      </trkpt>
      <trkpt lat="37.198303333333335" lon="-7.401443333333333">
        <ele>65.59999999999994</ele>
        <time>2013-01-07T12:48:05.30</time>
      </trkpt>
      <trkpt lat="37.19822833333333" lon="-7.401466666666667">
        <ele>68.99999999999994</ele>
        <time>2013-01-07T12:48:06.29</time>
      </trkpt>
      <trkpt lat="37.19817333333334" lon="-7.4014766666666665">
        <ele>69.19999999999995</ele>
        <time>2013-01-07T12:48:07.30</time>
      </trkpt>
      <trkpt lat="37.198123333333335" lon="-7.4015">
        <ele>69.39999999999995</ele>
        <time>2013-01-07T12:48:08.30</time>
      </trkpt>
      <trkpt lat="37.19808333333334" lon="-7.401518333333334">
        <ele>70.19999999999995</ele>
        <time>2013-01-07T12:48:09.30</time>
      </trkpt>
      <trkpt lat="37.198026666666664" lon="-7.401515">
        <ele>70.09999999999995</ele>
        <time>2013-01-07T12:48:10.30</time>
      </trkpt>
      <trkpt lat="37.19797833333333" lon="-7.401513333333333">
        <ele>69.99999999999996</ele>
        <time>2013-01-07T12:48:11.30</time>
      </trkpt>
      <trkpt lat="37.197925" lon="-7.4014983333333335">
        <ele>69.89999999999996</ele>
        <time>2013-01-07T12:48:12.30</time>
      </trkpt>
      <trkpt lat="37.19786333333333" lon="-7.401493333333334">
        <ele>70.09999999999997</ele>
        <time>2013-01-07T12:48:13.30</time>
      </trkpt>
      <trkpt lat="37.1978" lon="-7.401481666666666">
        <ele>69.99999999999997</ele>
        <time>2013-01-07T12:48:14.30</time>
      </trkpt>
      <trkpt lat="37.197738333333334" lon="-7.401481666666666">
        <ele>69.89999999999998</ele>
        <time>2013-01-07T12:48:15.30</time>
      </trkpt>
      <trkpt lat="37.19768" lon="-7.401485">
        <ele>70.39999999999998</ele>
        <time>2013-01-07T12:48:16.30</time>
      </trkpt>
      <trkpt lat="37.197615" lon="-7.401478333333333">
        <ele>70.29999999999998</ele>
        <time>2013-01-07T12:48:17.31</time>
      </trkpt>
      <trkpt lat="37.19755166666667" lon="-7.401471666666667">
        <ele>70.19999999999999</ele>
        <time>2013-01-07T12:48:18.31</time>
      </trkpt>
      <trkpt lat="37.19748333333333" lon="-7.40146">
        <ele>71.1</ele>
        <time>2013-01-07T12:48:19.30</time>
      </trkpt>
      <trkpt lat="37.19742166666666" lon="-7.401445">
        <ele>71.19999999999999</ele>
        <time>2013-01-07T12:48:20.30</time>
      </trkpt>
      <trkpt lat="37.197345" lon="-7.401433333333333">
        <ele>71.1</ele>
        <time>2013-01-07T12:48:21.30</time>
      </trkpt>
      <trkpt lat="37.19729" lon="-7.40141">
        <ele>71</ele>
        <time>2013-01-07T12:48:22.30</time>
      </trkpt>
      <trkpt lat="37.197225" lon="-7.401391666666667">
        <ele>71.2</ele>
        <time>2013-01-07T12:48:23.30</time>
      </trkpt>
      <trkpt lat="37.19717166666667" lon="-7.401365">
        <ele>71.2</ele>
        <time>2013-01-07T12:48:24.30</time>
      </trkpt>
      <trkpt lat="37.197125" lon="-7.40133">
        <ele>70.9</ele>
        <time>2013-01-07T12:48:25.29</time>
      </trkpt>
      <trkpt lat="37.19707" lon="-7.401305">
        <ele>70.7</ele>
        <time>2013-01-07T12:48:26.30</time>
      </trkpt>
      <trkpt lat="37.19702" lon="-7.401276666666667">
        <ele>70.8</ele>
        <time>2013-01-07T12:48:27.30</time>
      </trkpt>
      <trkpt lat="37.19696833333333" lon="-7.401246666666666">
        <ele>70.89999999999999</ele>
        <time>2013-01-07T12:48:28.30</time>
      </trkpt>
      <trkpt lat="37.19691666666667" lon="-7.4012166666666666">
        <ele>70.69999999999999</ele>
        <time>2013-01-07T12:48:29.37</time>
      </trkpt>
      <trkpt lat="37.19686" lon="-7.401173333333333">
        <ele>70.39999999999999</ele>
        <time>2013-01-07T12:48:30.30</time>
      </trkpt>
      <trkpt lat="37.19681333333333" lon="-7.4011466666666665">
        <ele>70.69999999999999</ele>
        <time>2013-01-07T12:48:31.32</time>
      </trkpt>
      <trkpt lat="37.19676" lon="-7.401106666666666">
        <ele>70.39999999999999</ele>
        <time>2013-01-07T12:48:32.32</time>
      </trkpt>
      <trkpt lat="37.196705" lon="-7.40107">
        <ele>70.3</ele>
        <time>2013-01-07T12:48:33.30</time>
      </trkpt>
      <trkpt lat="37.196665" lon="-7.401015">
        <ele>70.39999999999999</ele>
        <time>2013-01-07T12:48:34.29</time>
      </trkpt>
      <trkpt lat="37.196625" lon="-7.40097">
        <ele>70.39999999999999</ele>
        <time>2013-01-07T12:48:35.29</time>
      </trkpt>
      <trkpt lat="37.196578333333335" lon="-7.4009133333333335">
        <ele>70.19999999999999</ele>
        <time>2013-01-07T12:48:36.29</time>
      </trkpt>
      <trkpt lat="37.196531666666665" lon="-7.4008666666666665">
        <ele>70.19999999999999</ele>
        <time>2013-01-07T12:48:37.27</time>
      </trkpt>
      <trkpt lat="37.196481666666664" lon="-7.40082">
        <ele>70.39999999999999</ele>
        <time>2013-01-07T12:48:38.29</time>
      </trkpt>
      <trkpt lat="37.19644" lon="-7.400775">
        <ele>70.6</ele>
        <time>2013-01-07T12:48:39.27</time>
      </trkpt>
      <trkpt lat="37.196395" lon="-7.400718333333334">
        <ele>70.39999999999999</ele>
        <time>2013-01-07T12:48:40.29</time>
      </trkpt>
      <trkpt lat="37.196333333333335" lon="-7.400673333333334">
        <ele>70.6</ele>
        <time>2013-01-07T12:48:41.29</time>
      </trkpt>
      <trkpt lat="37.19629666666667" lon="-7.40064">
        <ele>70.69999999999999</ele>
        <time>2013-01-07T12:48:42.29</time>
      </trkpt>
      <trkpt lat="37.19625333333333" lon="-7.400648333333334">
        <ele>70.1</ele>
        <time>2013-01-07T12:48:43.29</time>
      </trkpt>
      <trkpt lat="37.19619333333333" lon="-7.400651666666667">
        <ele>70.5</ele>
        <time>2013-01-07T12:48:44.29</time>
      </trkpt>
      <trkpt lat="37.19616666666667" lon="-7.40065">
        <ele>69.6</ele>
        <time>2013-01-07T12:48:45.29</time>
      </trkpt>
      <trkpt lat="37.196128333333334" lon="-7.400625">
        <ele>68.89999999999999</ele>
        <time>2013-01-07T12:48:46.29</time>
      </trkpt>
      <trkpt lat="37.19612" lon="-7.400586666666666">
        <ele>67.89999999999999</ele>
        <time>2013-01-07T12:48:47.29</time>
      </trkpt>
      <trkpt lat="37.196101666666664" lon="-7.40055">
        <ele>67.19999999999999</ele>
        <time>2013-01-07T12:48:48.29</time>
      </trkpt>
      <trkpt lat="37.196075" lon="-7.400506666666667">
        <ele>66.99999999999999</ele>
        <time>2013-01-07T12:48:49.29</time>
      </trkpt>
      <trkpt lat="37.19606" lon="-7.400453333333333">
        <ele>66.99999999999999</ele>
        <time>2013-01-07T12:48:50.29</time>
      </trkpt>
      <trkpt lat="37.196036666666664" lon="-7.400383333333333">
        <ele>67.29999999999998</ele>
        <time>2013-01-07T12:48:51.29</time>
      </trkpt>
      <trkpt lat="37.19603" lon="-7.400288333333333">
        <ele>66.49999999999999</ele>
        <time>2013-01-07T12:48:52.29</time>
      </trkpt>
      <trkpt lat="37.19602" lon="-7.400211666666666">
        <ele>65.59999999999998</ele>
        <time>2013-01-07T12:48:53.29</time>
      </trkpt>
      <trkpt lat="37.196018333333335" lon="-7.400143333333333">
        <ele>65.49999999999999</ele>
        <time>2013-01-07T12:48:54.29</time>
      </trkpt>
      <trkpt lat="37.19601333333333" lon="-7.400083333333333">
        <ele>65.69999999999999</ele>
        <time>2013-01-07T12:48:55.29</time>
      </trkpt>
      <trkpt lat="37.19598833333333" lon="-7.400028333333333">
        <ele>65.89999999999999</ele>
        <time>2013-01-07T12:48:56.29</time>
      </trkpt>
      <trkpt lat="37.19596333333333" lon="-7.399948333333334">
        <ele>65.8</ele>
        <time>2013-01-07T12:48:57.29</time>
      </trkpt>
      <trkpt lat="37.195935" lon="-7.399876666666667">
        <ele>66.3</ele>
        <time>2013-01-07T12:48:58.29</time>
      </trkpt>
      <trkpt lat="37.19591833333333" lon="-7.39981">
        <ele>66.3</ele>
        <time>2013-01-07T12:48:59.29</time>
      </trkpt>
      <trkpt lat="37.19589333333333" lon="-7.399745">
        <ele>66.1</ele>
        <time>2013-01-07T12:49:00.29</time>
      </trkpt>
      <trkpt lat="37.19587166666667" lon="-7.399673333333333">
        <ele>66.1</ele>
        <time>2013-01-07T12:49:01.29</time>
      </trkpt>
      <trkpt lat="37.19583333333333" lon="-7.399606666666667">
        <ele>66.19999999999999</ele>
        <time>2013-01-07T12:49:02.34</time>
      </trkpt>
      <trkpt lat="37.195811666666664" lon="-7.399545">
        <ele>65.6</ele>
        <time>2013-01-07T12:49:03.29</time>
      </trkpt>
      <trkpt lat="37.19579" lon="-7.39948">
        <ele>65.39999999999999</ele>
        <time>2013-01-07T12:49:04.29</time>
      </trkpt>
      <trkpt lat="37.19576333333333" lon="-7.3994">
        <ele>64.8</ele>
        <time>2013-01-07T12:49:05.30</time>
      </trkpt>
      <trkpt lat="37.195735" lon="-7.399345">
        <ele>64.39999999999999</ele>
        <time>2013-01-07T12:49:06.30</time>
      </trkpt>
      <trkpt lat="37.195706666666666" lon="-7.399276666666666">
        <ele>64.49999999999999</ele>
        <time>2013-01-07T12:49:07.30</time>
      </trkpt>
      <trkpt lat="37.195685" lon="-7.399205">
        <ele>64.99999999999999</ele>
        <time>2013-01-07T12:49:08.30</time>
      </trkpt>
      <trkpt lat="37.19566" lon="-7.399141666666667">
        <ele>65.19999999999999</ele>
        <time>2013-01-07T12:49:09.30</time>
      </trkpt>
      <trkpt lat="37.195631666666664" lon="-7.399076666666667">
        <ele>65.1</ele>
        <time>2013-01-07T12:49:10.30</time>
      </trkpt>
      <trkpt lat="37.195598333333336" lon="-7.399008333333334">
        <ele>65.19999999999999</ele>
        <time>2013-01-07T12:49:11.30</time>
      </trkpt>
      <trkpt lat="37.195575" lon="-7.398938333333334">
        <ele>65.1</ele>
        <time>2013-01-07T12:49:12.30</time>
      </trkpt>
      <trkpt lat="37.195553333333336" lon="-7.398875">
        <ele>64.6</ele>
        <time>2013-01-07T12:49:13.30</time>
      </trkpt>
      <trkpt lat="37.19553333333333" lon="-7.398806666666666">
        <ele>64.3</ele>
        <time>2013-01-07T12:49:14.30</time>
      </trkpt>
      <trkpt lat="37.195515" lon="-7.398736666666666">
        <ele>64.3</ele>
        <time>2013-01-07T12:49:15.30</time>
      </trkpt>
      <trkpt lat="37.195495" lon="-7.39868">
        <ele>64.2</ele>
        <time>2013-01-07T12:49:16.30</time>
      </trkpt>
      <trkpt lat="37.195463333333336" lon="-7.398616666666666">
        <ele>64.2</ele>
        <time>2013-01-07T12:49:17.30</time>
      </trkpt>
      <trkpt lat="37.19544166666667" lon="-7.398561666666667">
        <ele>64.3</ele>
        <time>2013-01-07T12:49:18.30</time>
      </trkpt>
      <trkpt lat="37.195411666666665" lon="-7.398491666666667">
        <ele>63.9</ele>
        <time>2013-01-07T12:49:19.30</time>
      </trkpt>
      <trkpt lat="37.195388333333334" lon="-7.398441666666667">
        <ele>63.8</ele>
        <time>2013-01-07T12:49:20.30</time>
      </trkpt>
      <trkpt lat="37.195366666666665" lon="-7.398386666666666">
        <ele>63.8</ele>
        <time>2013-01-07T12:49:21.30</time>
      </trkpt>
      <trkpt lat="37.195343333333334" lon="-7.398341666666667">
        <ele>63.8</ele>
        <time>2013-01-07T12:49:22.30</time>
      </trkpt>
      <trkpt lat="37.195328333333336" lon="-7.398281666666667">
        <ele>63.699999999999996</ele>
        <time>2013-01-07T12:49:23.30</time>
      </trkpt>
      <trkpt lat="37.19530833333334" lon="-7.3982133333333335">
        <ele>63.8</ele>
        <time>2013-01-07T12:49:24.30</time>
      </trkpt>
      <trkpt lat="37.195285" lon="-7.398155">
        <ele>63.5</ele>
        <time>2013-01-07T12:49:25.30</time>
      </trkpt>
      <trkpt lat="37.195258333333335" lon="-7.39811">
        <ele>63.4</ele>
        <time>2013-01-07T12:49:26.30</time>
      </trkpt>
      <trkpt lat="37.195231666666665" lon="-7.398043333333334">
        <ele>63.5</ele>
        <time>2013-01-07T12:49:27.30</time>
      </trkpt>
      <trkpt lat="37.19520833333333" lon="-7.397985">
        <ele>63.6</ele>
        <time>2013-01-07T12:49:28.30</time>
      </trkpt>
      <trkpt lat="37.195186666666665" lon="-7.397918333333333">
        <ele>64</ele>
        <time>2013-01-07T12:49:29.30</time>
      </trkpt>
      <trkpt lat="37.19516" lon="-7.397873333333333">
        <ele>64.1</ele>
        <time>2013-01-07T12:49:30.30</time>
      </trkpt>
      <trkpt lat="37.195146666666666" lon="-7.397825">
        <ele>64.3</ele>
        <time>2013-01-07T12:49:31.30</time>
      </trkpt>
      <trkpt lat="37.195125" lon="-7.397765">
        <ele>64.5</ele>
        <time>2013-01-07T12:49:32.30</time>
      </trkpt>
      <trkpt lat="37.195103333333336" lon="-7.397696666666667">
        <ele>64.6</ele>
        <time>2013-01-07T12:49:33.30</time>
      </trkpt>
      <trkpt lat="37.19508166666667" lon="-7.397623333333334">
        <ele>64.8</ele>
        <time>2013-01-07T12:49:34.30</time>
      </trkpt>
      <trkpt lat="37.19506" lon="-7.397561666666666">
        <ele>64.39999999999999</ele>
        <time>2013-01-07T12:49:35.30</time>
      </trkpt>
      <trkpt lat="37.19503666666667" lon="-7.397495">
        <ele>63.69999999999999</ele>
        <time>2013-01-07T12:49:36.30</time>
      </trkpt>
      <trkpt lat="37.195005" lon="-7.397421666666666">
        <ele>63.999999999999986</ele>
        <time>2013-01-07T12:49:37.30</time>
      </trkpt>
      <trkpt lat="37.19497166666667" lon="-7.39734">
        <ele>63.79999999999998</ele>
        <time>2013-01-07T12:49:38.30</time>
      </trkpt>
      <trkpt lat="37.19495" lon="-7.397271666666667">
        <ele>63.79999999999998</ele>
        <time>2013-01-07T12:49:39.30</time>
      </trkpt>
      <trkpt lat="37.194925" lon="-7.397196666666667">
        <ele>64.29999999999998</ele>
        <time>2013-01-07T12:49:40.30</time>
      </trkpt>
      <trkpt lat="37.194898333333335" lon="-7.397131666666667">
        <ele>64.29999999999998</ele>
        <time>2013-01-07T12:49:41.30</time>
      </trkpt>
      <trkpt lat="37.19488166666667" lon="-7.397056666666667">
        <ele>64.19999999999999</ele>
        <time>2013-01-07T12:49:42.31</time>
      </trkpt>
      <trkpt lat="37.194853333333334" lon="-7.396995">
        <ele>64.39999999999999</ele>
        <time>2013-01-07T12:49:43.30</time>
      </trkpt>
      <trkpt lat="37.194825" lon="-7.396925">
        <ele>63.99999999999999</ele>
        <time>2013-01-07T12:49:44.30</time>
      </trkpt>
      <trkpt lat="37.194788333333335" lon="-7.396881666666666">
        <ele>64.1</ele>
        <time>2013-01-07T12:49:45.30</time>
      </trkpt>
      <trkpt lat="37.194743333333335" lon="-7.396816666666667">
        <ele>63.199999999999996</ele>
        <time>2013-01-07T12:49:46.30</time>
      </trkpt>
      <trkpt lat="37.19470333333334" lon="-7.396746666666667">
        <ele>62.8</ele>
        <time>2013-01-07T12:49:47.30</time>
      </trkpt>
      <trkpt lat="37.194665" lon="-7.396675">
        <ele>62.699999999999996</ele>
        <time>2013-01-07T12:49:48.30</time>
      </trkpt>
      <trkpt lat="37.194625" lon="-7.396608333333333">
        <ele>62.49999999999999</ele>
        <time>2013-01-07T12:49:49.30</time>
      </trkpt>
      <trkpt lat="37.194613333333336" lon="-7.3965266666666665">
        <ele>62.099999999999994</ele>
        <time>2013-01-07T12:49:50.30</time>
      </trkpt>
      <trkpt lat="37.19458" lon="-7.396451666666667">
        <ele>61.699999999999996</ele>
        <time>2013-01-07T12:49:51.30</time>
      </trkpt>
      <trkpt lat="37.194561666666665" lon="-7.396381666666667">
        <ele>61.3</ele>
        <time>2013-01-07T12:49:52.30</time>
      </trkpt>
      <trkpt lat="37.19454" lon="-7.39631">
        <ele>61.3</ele>
        <time>2013-01-07T12:49:53.30</time>
      </trkpt>
      <trkpt lat="37.19450833333333" lon="-7.396238333333334">
        <ele>60.9</ele>
        <time>2013-01-07T12:49:54.30</time>
      </trkpt>
      <trkpt lat="37.194475" lon="-7.396186666666667">
        <ele>61.199999999999996</ele>
        <time>2013-01-07T12:49:55.30</time>
      </trkpt>
      <trkpt lat="37.19443666666667" lon="-7.396113333333333">
        <ele>61.199999999999996</ele>
        <time>2013-01-07T12:49:56.30</time>
      </trkpt>
      <trkpt lat="37.1944" lon="-7.396043333333333">
        <ele>60.99999999999999</ele>
        <time>2013-01-07T12:49:57.30</time>
      </trkpt>
      <trkpt lat="37.19437166666667" lon="-7.3959616666666665">
        <ele>61.099999999999994</ele>
        <time>2013-01-07T12:49:58.30</time>
      </trkpt>
      <trkpt lat="37.19435" lon="-7.3959">
        <ele>61.199999999999996</ele>
        <time>2013-01-07T12:49:59.30</time>
      </trkpt>
      <trkpt lat="37.19432833333333" lon="-7.395831666666667">
        <ele>60.699999999999996</ele>
        <time>2013-01-07T12:50:00.30</time>
      </trkpt>
      <trkpt lat="37.194298333333336" lon="-7.395793333333334">
        <ele>61.599999999999994</ele>
        <time>2013-01-07T12:50:01.30</time>
      </trkpt>
      <trkpt lat="37.19425666666667" lon="-7.395758333333333">
        <ele>62.099999999999994</ele>
        <time>2013-01-07T12:50:02.30</time>
      </trkpt>
      <trkpt lat="37.19421" lon="-7.395718333333333">
        <ele>62.199999999999996</ele>
        <time>2013-01-07T12:50:03.30</time>
      </trkpt>
      <trkpt lat="37.194181666666665" lon="-7.395645">
        <ele>62.699999999999996</ele>
        <time>2013-01-07T12:50:04.30</time>
      </trkpt>
      <trkpt lat="37.194136666666665" lon="-7.3955866666666665">
        <ele>62.49999999999999</ele>
        <time>2013-01-07T12:50:05.30</time>
      </trkpt>
      <trkpt lat="37.194113333333334" lon="-7.395523333333333">
        <ele>63.49999999999999</ele>
        <time>2013-01-07T12:50:06.30</time>
      </trkpt>
      <trkpt lat="37.19410666666667" lon="-7.395443333333334">
        <ele>62.39999999999999</ele>
        <time>2013-01-07T12:50:07.30</time>
      </trkpt>
      <trkpt lat="37.194093333333335" lon="-7.395363333333333">
        <ele>62.69999999999999</ele>
        <time>2013-01-07T12:50:08.30</time>
      </trkpt>
      <trkpt lat="37.194085" lon="-7.395288333333333">
        <ele>62.499999999999986</ele>
        <time>2013-01-07T12:50:09.32</time>
      </trkpt>
      <trkpt lat="37.194066666666664" lon="-7.3952116666666665">
        <ele>62.499999999999986</ele>
        <time>2013-01-07T12:50:10.32</time>
      </trkpt>
      <trkpt lat="37.194041666666664" lon="-7.395138333333334">
        <ele>62.499999999999986</ele>
        <time>2013-01-07T12:50:11.30</time>
      </trkpt>
      <trkpt lat="37.19401666666667" lon="-7.395065">
        <ele>62.79999999999998</ele>
        <time>2013-01-07T12:50:12.30</time>
      </trkpt>
      <trkpt lat="37.19399333333333" lon="-7.394986666666667">
        <ele>62.79999999999998</ele>
        <time>2013-01-07T12:50:13.30</time>
      </trkpt>
      <trkpt lat="37.19397" lon="-7.394915">
        <ele>62.79999999999998</ele>
        <time>2013-01-07T12:50:14.30</time>
      </trkpt>
      <trkpt lat="37.19395333333333" lon="-7.394841666666666">
        <ele>62.69999999999998</ele>
        <time>2013-01-07T12:50:15.30</time>
      </trkpt>
      <trkpt lat="37.193931666666664" lon="-7.394768333333333">
        <ele>62.69999999999998</ele>
        <time>2013-01-07T12:50:16.30</time>
      </trkpt>
      <trkpt lat="37.19389833333334" lon="-7.394698333333333">
        <ele>63.09999999999998</ele>
        <time>2013-01-07T12:50:17.38</time>
      </trkpt>
      <trkpt lat="37.193871666666666" lon="-7.39463">
        <ele>63.09999999999998</ele>
        <time>2013-01-07T12:50:18.30</time>
      </trkpt>
      <trkpt lat="37.19384" lon="-7.39456">
        <ele>63.29999999999998</ele>
        <time>2013-01-07T12:50:19.31</time>
      </trkpt>
      <trkpt lat="37.19382" lon="-7.394486666666666">
        <ele>63.399999999999984</ele>
        <time>2013-01-07T12:50:20.30</time>
      </trkpt>
      <trkpt lat="37.19380666666667" lon="-7.39442">
        <ele>62.999999999999986</ele>
        <time>2013-01-07T12:50:21.30</time>
      </trkpt>
      <trkpt lat="37.193781666666666" lon="-7.394363333333334">
        <ele>62.899999999999984</ele>
        <time>2013-01-07T12:50:22.30</time>
      </trkpt>
      <trkpt lat="37.19376166666667" lon="-7.394298333333333">
        <ele>62.499999999999986</ele>
        <time>2013-01-07T12:50:23.30</time>
      </trkpt>
      <trkpt lat="37.193733333333334" lon="-7.394223333333334">
        <ele>62.899999999999984</ele>
        <time>2013-01-07T12:50:24.30</time>
      </trkpt>
      <trkpt lat="37.19370166666667" lon="-7.394146666666667">
        <ele>62.499999999999986</ele>
        <time>2013-01-07T12:50:25.30</time>
      </trkpt>
      <trkpt lat="37.193688333333334" lon="-7.394083333333334">
        <ele>62.59999999999999</ele>
        <time>2013-01-07T12:50:26.30</time>
      </trkpt>
      <trkpt lat="37.19365666666667" lon="-7.39402">
        <ele>63.09999999999999</ele>
        <time>2013-01-07T12:50:27.30</time>
      </trkpt>
      <trkpt lat="37.19363" lon="-7.393953333333333">
        <ele>63.29999999999999</ele>
        <time>2013-01-07T12:50:28.30</time>
      </trkpt>
      <trkpt lat="37.193605" lon="-7.393895">
        <ele>63.19999999999999</ele>
        <time>2013-01-07T12:50:29.30</time>
      </trkpt>
      <trkpt lat="37.193576666666665" lon="-7.393811666666666">
        <ele>62.69999999999999</ele>
        <time>2013-01-07T12:50:30.30</time>
      </trkpt>
      <trkpt lat="37.19354333333333" lon="-7.393731666666667">
        <ele>63.19999999999999</ele>
        <time>2013-01-07T12:50:31.30</time>
      </trkpt>
      <trkpt lat="37.193508333333334" lon="-7.393651666666667">
        <ele>63.19999999999999</ele>
        <time>2013-01-07T12:50:32.30</time>
      </trkpt>
      <trkpt lat="37.19347666666667" lon="-7.393586666666667">
        <ele>62.79999999999999</ele>
        <time>2013-01-07T12:50:33.30</time>
      </trkpt>
      <trkpt lat="37.193441666666665" lon="-7.393515">
        <ele>62.99999999999999</ele>
        <time>2013-01-07T12:50:34.30</time>
      </trkpt>
      <trkpt lat="37.19341333333333" lon="-7.393461666666667">
        <ele>63.599999999999994</ele>
        <time>2013-01-07T12:50:35.30</time>
      </trkpt>
      <trkpt lat="37.193375" lon="-7.393395">
        <ele>63.8</ele>
        <time>2013-01-07T12:50:36.30</time>
      </trkpt>
      <trkpt lat="37.19334166666667" lon="-7.393325">
        <ele>63</ele>
        <time>2013-01-07T12:50:37.30</time>
      </trkpt>
      <trkpt lat="37.19330166666666" lon="-7.393261666666667">
        <ele>62.9</ele>
        <time>2013-01-07T12:50:38.30</time>
      </trkpt>
      <trkpt lat="37.19327166666667" lon="-7.393203333333333">
        <ele>63.199999999999996</ele>
        <time>2013-01-07T12:50:39.32</time>
      </trkpt>
      <trkpt lat="37.193245" lon="-7.393125">
        <ele>62.99999999999999</ele>
        <time>2013-01-07T12:50:40.30</time>
      </trkpt>
      <trkpt lat="37.193216666666665" lon="-7.393063333333333">
        <ele>63.29999999999999</ele>
        <time>2013-01-07T12:50:41.30</time>
      </trkpt>
      <trkpt lat="37.193196666666665" lon="-7.393">
        <ele>63.39999999999999</ele>
        <time>2013-01-07T12:50:42.30</time>
      </trkpt>
      <trkpt lat="37.19316666666667" lon="-7.392933333333334">
        <ele>63.599999999999994</ele>
        <time>2013-01-07T12:50:43.30</time>
      </trkpt>
      <trkpt lat="37.19314333333333" lon="-7.392863333333334">
        <ele>63.699999999999996</ele>
        <time>2013-01-07T12:50:44.30</time>
      </trkpt>
      <trkpt lat="37.193113333333336" lon="-7.3927933333333335">
        <ele>63.49999999999999</ele>
        <time>2013-01-07T12:50:45.31</time>
      </trkpt>
      <trkpt lat="37.193081666666664" lon="-7.39271">
        <ele>62.89999999999999</ele>
        <time>2013-01-07T12:50:46.30</time>
      </trkpt>
      <trkpt lat="37.193045" lon="-7.392635">
        <ele>63.599999999999994</ele>
        <time>2013-01-07T12:50:47.30</time>
      </trkpt>
      <trkpt lat="37.193016666666665" lon="-7.392553333333334">
        <ele>63.599999999999994</ele>
        <time>2013-01-07T12:50:48.30</time>
      </trkpt>
      <trkpt lat="37.19298833333333" lon="-7.392493333333333">
        <ele>63.49999999999999</ele>
        <time>2013-01-07T12:50:49.30</time>
      </trkpt>
      <trkpt lat="37.19298" lon="-7.392423333333333">
        <ele>63.699999999999996</ele>
        <time>2013-01-07T12:50:50.30</time>
      </trkpt>
      <trkpt lat="37.192948333333334" lon="-7.392336666666667">
        <ele>63.599999999999994</ele>
        <time>2013-01-07T12:50:51.30</time>
      </trkpt>
      <trkpt lat="37.192908333333335" lon="-7.392255">
        <ele>63.199999999999996</ele>
        <time>2013-01-07T12:50:52.28</time>
      </trkpt>
      <trkpt lat="37.19289333333333" lon="-7.392175">
        <ele>63.4</ele>
        <time>2013-01-07T12:50:53.30</time>
      </trkpt>
      <trkpt lat="37.19287" lon="-7.392096666666666">
        <ele>63.4</ele>
        <time>2013-01-07T12:50:54.30</time>
      </trkpt>
      <trkpt lat="37.19285166666667" lon="-7.392016666666667">
        <ele>63.4</ele>
        <time>2013-01-07T12:50:55.30</time>
      </trkpt>
      <trkpt lat="37.192816666666666" lon="-7.391931666666666">
        <ele>63.9</ele>
        <time>2013-01-07T12:50:56.30</time>
      </trkpt>
      <trkpt lat="37.19280166666667" lon="-7.391853333333334">
        <ele>63.4</ele>
        <time>2013-01-07T12:50:57.29</time>
      </trkpt>
      <trkpt lat="37.19278166666667" lon="-7.391776666666667">
        <ele>63.3</ele>
        <time>2013-01-07T12:50:58.30</time>
      </trkpt>
      <trkpt lat="37.192746666666665" lon="-7.391698333333333">
        <ele>63.4</ele>
        <time>2013-01-07T12:50:59.30</time>
      </trkpt>
      <trkpt lat="37.192726666666665" lon="-7.391623333333333">
        <ele>62.9</ele>
        <time>2013-01-07T12:51:00.30</time>
      </trkpt>
      <trkpt lat="37.19269333333333" lon="-7.391555">
        <ele>62.9</ele>
        <time>2013-01-07T12:51:01.30</time>
      </trkpt>
      <trkpt lat="37.19266666666667" lon="-7.391493333333333">
        <ele>62.699999999999996</ele>
        <time>2013-01-07T12:51:02.30</time>
      </trkpt>
      <trkpt lat="37.192631666666664" lon="-7.391423333333333">
        <ele>62.49999999999999</ele>
        <time>2013-01-07T12:51:03.30</time>
      </trkpt>
      <trkpt lat="37.192613333333334" lon="-7.391346666666666">
        <ele>62.099999999999994</ele>
        <time>2013-01-07T12:51:04.30</time>
      </trkpt>
      <trkpt lat="37.19259" lon="-7.391276666666666">
        <ele>61.99999999999999</ele>
        <time>2013-01-07T12:51:05.30</time>
      </trkpt>
      <trkpt lat="37.192565" lon="-7.3912016666666664">
        <ele>61.89999999999999</ele>
        <time>2013-01-07T12:51:06.30</time>
      </trkpt>
      <trkpt lat="37.19254" lon="-7.391133333333333">
        <ele>62.19999999999999</ele>
        <time>2013-01-07T12:51:07.30</time>
      </trkpt>
      <trkpt lat="37.192515" lon="-7.391066666666666">
        <ele>61.999999999999986</ele>
        <time>2013-01-07T12:51:08.30</time>
      </trkpt>
      <trkpt lat="37.192483333333335" lon="-7.390998333333333">
        <ele>61.999999999999986</ele>
        <time>2013-01-07T12:51:09.30</time>
      </trkpt>
      <trkpt lat="37.19246" lon="-7.3909183333333335">
        <ele>61.79999999999998</ele>
        <time>2013-01-07T12:51:10.30</time>
      </trkpt>
      <trkpt lat="37.19242666666667" lon="-7.390833333333333">
        <ele>61.59999999999998</ele>
        <time>2013-01-07T12:51:11.31</time>
      </trkpt>
      <trkpt lat="37.192395" lon="-7.390766666666667">
        <ele>61.19999999999998</ele>
        <time>2013-01-07T12:51:12.30</time>
      </trkpt>
      <trkpt lat="37.19237833333333" lon="-7.390698333333333">
        <ele>61.399999999999984</ele>
        <time>2013-01-07T12:51:13.30</time>
      </trkpt>
      <trkpt lat="37.19235333333334" lon="-7.390623333333333">
        <ele>61.999999999999986</ele>
        <time>2013-01-07T12:51:14.30</time>
      </trkpt>
      <trkpt lat="37.19231" lon="-7.390565">
        <ele>62.19999999999999</ele>
        <time>2013-01-07T12:51:15.30</time>
      </trkpt>
      <trkpt lat="37.192276666666665" lon="-7.390488333333334">
        <ele>61.79999999999999</ele>
        <time>2013-01-07T12:51:16.30</time>
      </trkpt>
      <trkpt lat="37.19224666666667" lon="-7.39042">
        <ele>61.19999999999999</ele>
        <time>2013-01-07T12:51:17.29</time>
      </trkpt>
      <trkpt lat="37.19221666666667" lon="-7.390345">
        <ele>61.09999999999999</ele>
        <time>2013-01-07T12:51:18.29</time>
      </trkpt>
      <trkpt lat="37.19217666666667" lon="-7.390271666666667">
        <ele>61.59999999999999</ele>
        <time>2013-01-07T12:51:19.29</time>
      </trkpt>
      <trkpt lat="37.192145" lon="-7.390201666666667">
        <ele>62.09999999999999</ele>
        <time>2013-01-07T12:51:20.29</time>
      </trkpt>
      <trkpt lat="37.19211333333333" lon="-7.390136666666667">
        <ele>61.899999999999984</ele>
        <time>2013-01-07T12:51:21.29</time>
      </trkpt>
      <trkpt lat="37.19209" lon="-7.390078333333333">
        <ele>62.09999999999999</ele>
        <time>2013-01-07T12:51:22.30</time>
      </trkpt>
      <trkpt lat="37.19206833333333" lon="-7.39001">
        <ele>61.999999999999986</ele>
        <time>2013-01-07T12:51:23.29</time>
      </trkpt>
      <trkpt lat="37.192051666666664" lon="-7.389963333333333">
        <ele>62.19999999999999</ele>
        <time>2013-01-07T12:51:24.29</time>
      </trkpt>
      <trkpt lat="37.192031666666665" lon="-7.389896666666667">
        <ele>62.79999999999999</ele>
        <time>2013-01-07T12:51:25.29</time>
      </trkpt>
      <trkpt lat="37.19199666666667" lon="-7.38981">
        <ele>62.19999999999999</ele>
        <time>2013-01-07T12:51:26.29</time>
      </trkpt>
      <trkpt lat="37.191975" lon="-7.3897216666666665">
        <ele>61.79999999999999</ele>
        <time>2013-01-07T12:51:27.29</time>
      </trkpt>
      <trkpt lat="37.191945" lon="-7.389636666666667">
        <ele>61.69999999999999</ele>
        <time>2013-01-07T12:51:28.29</time>
      </trkpt>
      <trkpt lat="37.191916666666664" lon="-7.389543333333333">
        <ele>61.89999999999999</ele>
        <time>2013-01-07T12:51:29.29</time>
      </trkpt>
      <trkpt lat="37.191885" lon="-7.389456666666667">
        <ele>62.19999999999999</ele>
        <time>2013-01-07T12:51:30.29</time>
      </trkpt>
      <trkpt lat="37.19186166666667" lon="-7.3893933333333335">
        <ele>61.89999999999999</ele>
        <time>2013-01-07T12:51:31.29</time>
      </trkpt>
      <trkpt lat="37.191825" lon="-7.389326666666666">
        <ele>61.39999999999999</ele>
        <time>2013-01-07T12:51:32.29</time>
      </trkpt>
      <trkpt lat="37.19178" lon="-7.389266666666667">
        <ele>61.599999999999994</ele>
        <time>2013-01-07T12:51:33.29</time>
      </trkpt>
      <trkpt lat="37.19173166666667" lon="-7.389201666666667">
        <ele>61.39999999999999</ele>
        <time>2013-01-07T12:51:34.29</time>
      </trkpt>
      <trkpt lat="37.19169" lon="-7.3891366666666665">
        <ele>61.49999999999999</ele>
        <time>2013-01-07T12:51:35.35</time>
      </trkpt>
      <trkpt lat="37.19166333333333" lon="-7.389068333333333">
        <ele>62.099999999999994</ele>
        <time>2013-01-07T12:51:36.31</time>
      </trkpt>
      <trkpt lat="37.191655" lon="-7.388985">
        <ele>62.8</ele>
        <time>2013-01-07T12:51:37.31</time>
      </trkpt>
      <trkpt lat="37.19163" lon="-7.388911666666667">
        <ele>62.699999999999996</ele>
        <time>2013-01-07T12:51:38.30</time>
      </trkpt>
      <trkpt lat="37.191601666666664" lon="-7.388843333333333">
        <ele>62.199999999999996</ele>
        <time>2013-01-07T12:51:39.30</time>
      </trkpt>
      <trkpt lat="37.191575" lon="-7.388765">
        <ele>61.99999999999999</ele>
        <time>2013-01-07T12:51:40.30</time>
      </trkpt>
      <trkpt lat="37.191555" lon="-7.388701666666667">
        <ele>61.99999999999999</ele>
        <time>2013-01-07T12:51:41.30</time>
      </trkpt>
      <trkpt lat="37.191538333333334" lon="-7.388646666666666">
        <ele>62.39999999999999</ele>
        <time>2013-01-07T12:51:42.30</time>
      </trkpt>
      <trkpt lat="37.191523333333336" lon="-7.388576666666666">
        <ele>61.79999999999999</ele>
        <time>2013-01-07T12:51:43.30</time>
      </trkpt>
      <trkpt lat="37.19150166666667" lon="-7.38851">
        <ele>61.49999999999999</ele>
        <time>2013-01-07T12:51:44.30</time>
      </trkpt>
      <trkpt lat="37.191475" lon="-7.388446666666667">
        <ele>61.99999999999999</ele>
        <time>2013-01-07T12:51:45.31</time>
      </trkpt>
      <trkpt lat="37.19145666666667" lon="-7.388388333333333">
        <ele>61.79999999999999</ele>
        <time>2013-01-07T12:51:46.31</time>
      </trkpt>
      <trkpt lat="37.191446666666664" lon="-7.388325">
        <ele>62.39999999999999</ele>
        <time>2013-01-07T12:51:47.30</time>
      </trkpt>
      <trkpt lat="37.191426666666665" lon="-7.388273333333333">
        <ele>62.89999999999999</ele>
        <time>2013-01-07T12:51:48.30</time>
      </trkpt>
      <trkpt lat="37.19141666666667" lon="-7.388198333333333">
        <ele>62.99999999999999</ele>
        <time>2013-01-07T12:51:49.30</time>
      </trkpt>
      <trkpt lat="37.191415" lon="-7.388143333333334">
        <ele>63.199999999999996</ele>
        <time>2013-01-07T12:51:50.30</time>
      </trkpt>
      <trkpt lat="37.19139333333333" lon="-7.388073333333334">
        <ele>63.49999999999999</ele>
        <time>2013-01-07T12:51:51.30</time>
      </trkpt>
      <trkpt lat="37.19136833333334" lon="-7.387988333333333">
        <ele>63.599999999999994</ele>
        <time>2013-01-07T12:51:52.30</time>
      </trkpt>
      <trkpt lat="37.19135" lon="-7.3879133333333336">
        <ele>64.39999999999999</ele>
        <time>2013-01-07T12:51:53.31</time>
      </trkpt>
      <trkpt lat="37.191318333333335" lon="-7.387863333333334">
        <ele>64.6</ele>
        <time>2013-01-07T12:51:54.30</time>
      </trkpt>
      <trkpt lat="37.191295" lon="-7.3878216666666665">
        <ele>64.5</ele>
        <time>2013-01-07T12:51:55.28</time>
      </trkpt>
      <trkpt lat="37.19128166666667" lon="-7.3877733333333335">
        <ele>64.8</ele>
        <time>2013-01-07T12:51:56.30</time>
      </trkpt>
      <trkpt lat="37.19126" lon="-7.387725">
        <ele>64.6</ele>
        <time>2013-01-07T12:51:57.30</time>
      </trkpt>
      <trkpt lat="37.191225" lon="-7.387663333333333">
        <ele>64.19999999999999</ele>
        <time>2013-01-07T12:51:58.30</time>
      </trkpt>
      <trkpt lat="37.19119" lon="-7.3876083333333336">
        <ele>62.59999999999999</ele>
        <time>2013-01-07T12:51:59.30</time>
      </trkpt>
      <trkpt lat="37.19116833333333" lon="-7.38757">
        <ele>61.999999999999986</ele>
        <time>2013-01-07T12:52:00.30</time>
      </trkpt>
      <trkpt lat="37.191145" lon="-7.387513333333334">
        <ele>61.09999999999999</ele>
        <time>2013-01-07T12:52:01.30</time>
      </trkpt>
      <trkpt lat="37.19110166666667" lon="-7.387483333333333">
        <ele>60.19999999999999</ele>
        <time>2013-01-07T12:52:02.30</time>
      </trkpt>
      <trkpt lat="37.19107" lon="-7.387413333333333">
        <ele>59.79999999999999</ele>
        <time>2013-01-07T12:52:03.31</time>
      </trkpt>
      <trkpt lat="37.191066666666664" lon="-7.387356666666666">
        <ele>59.59999999999999</ele>
        <time>2013-01-07T12:52:04.30</time>
      </trkpt>
      <trkpt lat="37.191055" lon="-7.38729">
        <ele>59.09999999999999</ele>
        <time>2013-01-07T12:52:05.30</time>
      </trkpt>
      <trkpt lat="37.191028333333335" lon="-7.387218333333333">
        <ele>59.79999999999999</ele>
        <time>2013-01-07T12:52:06.30</time>
      </trkpt>
      <trkpt lat="37.190981666666666" lon="-7.387133333333334">
        <ele>60.09999999999999</ele>
        <time>2013-01-07T12:52:07.30</time>
      </trkpt>
      <trkpt lat="37.19094333333334" lon="-7.38706">
        <ele>61.09999999999999</ele>
        <time>2013-01-07T12:52:08.40</time>
      </trkpt>
      <trkpt lat="37.190931666666664" lon="-7.386973333333334">
        <ele>60.79999999999999</ele>
        <time>2013-01-07T12:52:09.30</time>
      </trkpt>
      <trkpt lat="37.190925" lon="-7.386893333333333">
        <ele>60.89999999999999</ele>
        <time>2013-01-07T12:52:10.30</time>
      </trkpt>
      <trkpt lat="37.190905" lon="-7.386823333333333">
        <ele>60.79999999999999</ele>
        <time>2013-01-07T12:52:11.30</time>
      </trkpt>
      <trkpt lat="37.190875" lon="-7.386751666666667">
        <ele>60.49999999999999</ele>
        <time>2013-01-07T12:52:12.30</time>
      </trkpt>
      <trkpt lat="37.19084333333333" lon="-7.386676666666666">
        <ele>60.29999999999999</ele>
        <time>2013-01-07T12:52:13.30</time>
      </trkpt>
      <trkpt lat="37.19081333333333" lon="-7.3866">
        <ele>60.29999999999999</ele>
        <time>2013-01-07T12:52:14.30</time>
      </trkpt>
      <trkpt lat="37.19077166666667" lon="-7.3865316666666665">
        <ele>60.19999999999999</ele>
        <time>2013-01-07T12:52:15.30</time>
      </trkpt>
      <trkpt lat="37.190735" lon="-7.386463333333333">
        <ele>59.69999999999999</ele>
        <time>2013-01-07T12:52:16.30</time>
      </trkpt>
      <trkpt lat="37.190718333333336" lon="-7.3863916666666665">
        <ele>59.19999999999999</ele>
        <time>2013-01-07T12:52:17.31</time>
      </trkpt>
      <trkpt lat="37.190691666666666" lon="-7.386336666666667">
        <ele>59.09999999999999</ele>
        <time>2013-01-07T12:52:18.31</time>
      </trkpt>
      <trkpt lat="37.190665" lon="-7.386286666666667">
        <ele>58.69999999999999</ele>
        <time>2013-01-07T12:52:19.30</time>
      </trkpt>
      <trkpt lat="37.190645" lon="-7.386208333333333">
        <ele>58.499999999999986</ele>
        <time>2013-01-07T12:52:20.30</time>
      </trkpt>
      <trkpt lat="37.190621666666665" lon="-7.386141666666667">
        <ele>58.19999999999999</ele>
        <time>2013-01-07T12:52:21.30</time>
      </trkpt>
      <trkpt lat="37.190576666666665" lon="-7.386075">
        <ele>58.59999999999999</ele>
        <time>2013-01-07T12:52:22.30</time>
      </trkpt>
      <trkpt lat="37.190545" lon="-7.386005">
        <ele>58.59999999999999</ele>
        <time>2013-01-07T12:52:23.30</time>
      </trkpt>
      <trkpt lat="37.190515" lon="-7.385945">
        <ele>58.69999999999999</ele>
        <time>2013-01-07T12:52:24.30</time>
      </trkpt>
      <trkpt lat="37.190486666666665" lon="-7.38588">
        <ele>58.79999999999999</ele>
        <time>2013-01-07T12:52:25.30</time>
      </trkpt>
      <trkpt lat="37.190461666666664" lon="-7.385816666666667">
        <ele>59.09999999999999</ele>
        <time>2013-01-07T12:52:26.30</time>
      </trkpt>
      <trkpt lat="37.190435" lon="-7.385736666666666">
        <ele>58.999999999999986</ele>
        <time>2013-01-07T12:52:27.30</time>
      </trkpt>
      <trkpt lat="37.190415" lon="-7.38568">
        <ele>58.999999999999986</ele>
        <time>2013-01-07T12:52:28.37</time>
      </trkpt>
      <trkpt lat="37.19038" lon="-7.3856166666666665">
        <ele>59.59999999999999</ele>
        <time>2013-01-07T12:52:29.30</time>
      </trkpt>
      <trkpt lat="37.19034666666667" lon="-7.385551666666666">
        <ele>60.19999999999999</ele>
        <time>2013-01-07T12:52:30.30</time>
      </trkpt>
      <trkpt lat="37.190306666666665" lon="-7.3854766666666665">
        <ele>60.29999999999999</ele>
        <time>2013-01-07T12:52:31.30</time>
      </trkpt>
      <trkpt lat="37.19027166666667" lon="-7.385415">
        <ele>60.59999999999999</ele>
        <time>2013-01-07T12:52:32.30</time>
      </trkpt>
      <trkpt lat="37.190241666666665" lon="-7.385348333333333">
        <ele>60.499999999999986</ele>
        <time>2013-01-07T12:52:33.30</time>
      </trkpt>
      <trkpt lat="37.19021166666667" lon="-7.385285">
        <ele>60.79999999999998</ele>
        <time>2013-01-07T12:52:34.30</time>
      </trkpt>
      <trkpt lat="37.190191666666664" lon="-7.385231666666667">
        <ele>61.19999999999998</ele>
        <time>2013-01-07T12:52:35.30</time>
      </trkpt>
      <trkpt lat="37.190151666666665" lon="-7.385153333333333">
        <ele>60.69999999999998</ele>
        <time>2013-01-07T12:52:36.30</time>
      </trkpt>
      <trkpt lat="37.190113333333336" lon="-7.385105">
        <ele>60.79999999999998</ele>
        <time>2013-01-07T12:52:37.30</time>
      </trkpt>
      <trkpt lat="37.19007166666667" lon="-7.385068333333333">
        <ele>61.399999999999984</ele>
        <time>2013-01-07T12:52:38.30</time>
      </trkpt>
      <trkpt lat="37.19004" lon="-7.385021666666667">
        <ele>61.79999999999998</ele>
        <time>2013-01-07T12:52:39.30</time>
      </trkpt>
      <trkpt lat="37.19000833333333" lon="-7.384966666666666">
        <ele>62.29999999999998</ele>
        <time>2013-01-07T12:52:40.30</time>
      </trkpt>
      <trkpt lat="37.18998333333333" lon="-7.384898333333333">
        <ele>62.59999999999998</ele>
        <time>2013-01-07T12:52:41.30</time>
      </trkpt>
      <trkpt lat="37.18997" lon="-7.384871666666666">
        <ele>63.19999999999998</ele>
        <time>2013-01-07T12:52:42.30</time>
      </trkpt>
      <trkpt lat="37.18996833333333" lon="-7.38485">
        <ele>62.79999999999998</ele>
        <time>2013-01-07T12:52:43.30</time>
      </trkpt>
      <trkpt lat="37.189951666666666" lon="-7.38479">
        <ele>62.69999999999998</ele>
        <time>2013-01-07T12:52:44.30</time>
      </trkpt>
      <trkpt lat="37.189901666666664" lon="-7.384746666666667">
        <ele>63.399999999999984</ele>
        <time>2013-01-07T12:52:45.30</time>
      </trkpt>
      <trkpt lat="37.189861666666665" lon="-7.384696666666667">
        <ele>63.79999999999998</ele>
        <time>2013-01-07T12:52:46.30</time>
      </trkpt>
      <trkpt lat="37.189816666666665" lon="-7.38464">
        <ele>64.49999999999999</ele>
        <time>2013-01-07T12:52:47.30</time>
      </trkpt>
      <trkpt lat="37.18977" lon="-7.384573333333333">
        <ele>64.89999999999999</ele>
        <time>2013-01-07T12:52:48.29</time>
      </trkpt>
      <trkpt lat="37.18973" lon="-7.384545">
        <ele>65.19999999999999</ele>
        <time>2013-01-07T12:52:49.31</time>
      </trkpt>
      <trkpt lat="37.18969833333333" lon="-7.38451">
        <ele>65.1</ele>
        <time>2013-01-07T12:52:50.31</time>
      </trkpt>
      <trkpt lat="37.189645" lon="-7.384475">
        <ele>65.19999999999999</ele>
        <time>2013-01-07T12:52:51.30</time>
      </trkpt>
      <trkpt lat="37.18957666666667" lon="-7.384438333333334">
        <ele>65.99999999999999</ele>
        <time>2013-01-07T12:52:52.30</time>
      </trkpt>
      <trkpt lat="37.189495" lon="-7.38441">
        <ele>65.09999999999998</ele>
        <time>2013-01-07T12:52:53.29</time>
      </trkpt>
      <trkpt lat="37.18947" lon="-7.3843483333333335">
        <ele>66.59999999999998</ele>
        <time>2013-01-07T12:52:54.29</time>
      </trkpt>
      <trkpt lat="37.18943" lon="-7.384303333333333">
        <ele>67.09999999999998</ele>
        <time>2013-01-07T12:52:55.30</time>
      </trkpt>
      <trkpt lat="37.189385" lon="-7.384271666666667">
        <ele>67.89999999999998</ele>
        <time>2013-01-07T12:52:56.30</time>
      </trkpt>
      <trkpt lat="37.18934" lon="-7.384251666666667">
        <ele>67.69999999999997</ele>
        <time>2013-01-07T12:52:57.30</time>
      </trkpt>
      <trkpt lat="37.18926833333333" lon="-7.384213333333333">
        <ele>68.29999999999997</ele>
        <time>2013-01-07T12:52:58.30</time>
      </trkpt>
      <trkpt lat="37.18919833333333" lon="-7.38421">
        <ele>69.19999999999997</ele>
        <time>2013-01-07T12:52:59.30</time>
      </trkpt>
      <trkpt lat="37.189123333333335" lon="-7.38419">
        <ele>69.79999999999997</ele>
        <time>2013-01-07T12:53:00.30</time>
      </trkpt>
      <trkpt lat="37.18906666666667" lon="-7.384163333333333">
        <ele>69.79999999999997</ele>
        <time>2013-01-07T12:53:01.30</time>
      </trkpt>
      <trkpt lat="37.189" lon="-7.384145">
        <ele>70.09999999999997</ele>
        <time>2013-01-07T12:53:02.30</time>
      </trkpt>
      <trkpt lat="37.188946666666666" lon="-7.384135">
        <ele>71.09999999999997</ele>
        <time>2013-01-07T12:53:03.30</time>
      </trkpt>
      <trkpt lat="37.18888" lon="-7.384126666666667">
        <ele>71.49999999999997</ele>
        <time>2013-01-07T12:53:04.30</time>
      </trkpt>
      <trkpt lat="37.18883" lon="-7.38411">
        <ele>71.69999999999997</ele>
        <time>2013-01-07T12:53:05.34</time>
      </trkpt>
      <trkpt lat="37.18879166666667" lon="-7.3841133333333335">
        <ele>71.29999999999997</ele>
        <time>2013-01-07T12:53:06.30</time>
      </trkpt>
      <trkpt lat="37.18873" lon="-7.3841133333333335">
        <ele>72.19999999999997</ele>
        <time>2013-01-07T12:53:07.30</time>
      </trkpt>
      <trkpt lat="37.18864833333333" lon="-7.384118333333333">
        <ele>72.99999999999997</ele>
        <time>2013-01-07T12:53:08.30</time>
      </trkpt>
      <trkpt lat="37.18858" lon="-7.38411">
        <ele>72.79999999999997</ele>
        <time>2013-01-07T12:53:09.30</time>
      </trkpt>
      <trkpt lat="37.188523333333336" lon="-7.384121666666666">
        <ele>73.29999999999997</ele>
        <time>2013-01-07T12:53:10.30</time>
      </trkpt>
      <trkpt lat="37.18846" lon="-7.384123333333333">
        <ele>73.69999999999997</ele>
        <time>2013-01-07T12:53:11.30</time>
      </trkpt>
      <trkpt lat="37.18839166666667" lon="-7.384125">
        <ele>73.69999999999997</ele>
        <time>2013-01-07T12:53:12.30</time>
      </trkpt>
      <trkpt lat="37.188325" lon="-7.384128333333333">
        <ele>74.29999999999997</ele>
        <time>2013-01-07T12:53:13.30</time>
      </trkpt>
      <trkpt lat="37.188275" lon="-7.38414">
        <ele>74.69999999999997</ele>
        <time>2013-01-07T12:53:14.30</time>
      </trkpt>
      <trkpt lat="37.18821" lon="-7.384133333333334">
        <ele>74.99999999999997</ele>
        <time>2013-01-07T12:53:15.30</time>
      </trkpt>
      <trkpt lat="37.188143333333336" lon="-7.384135">
        <ele>75.09999999999997</ele>
        <time>2013-01-07T12:53:16.30</time>
      </trkpt>
      <trkpt lat="37.18808666666666" lon="-7.38413">
        <ele>74.89999999999996</ele>
        <time>2013-01-07T12:53:17.30</time>
      </trkpt>
      <trkpt lat="37.18802" lon="-7.384118333333333">
        <ele>72.79999999999997</ele>
        <time>2013-01-07T12:53:18.29</time>
      </trkpt>
      <trkpt lat="37.187945" lon="-7.38411">
        <ele>72.29999999999997</ele>
        <time>2013-01-07T12:53:19.30</time>
      </trkpt>
      <trkpt lat="37.187885" lon="-7.3841133333333335">
        <ele>71.99999999999997</ele>
        <time>2013-01-07T12:53:20.30</time>
      </trkpt>
      <trkpt lat="37.18781833333333" lon="-7.384108333333334">
        <ele>71.89999999999998</ele>
        <time>2013-01-07T12:53:21.30</time>
      </trkpt>
      <trkpt lat="37.187756666666665" lon="-7.38411">
        <ele>72.29999999999998</ele>
        <time>2013-01-07T12:53:22.30</time>
      </trkpt>
      <trkpt lat="37.18769666666667" lon="-7.384111666666667">
        <ele>72.19999999999999</ele>
        <time>2013-01-07T12:53:23.30</time>
      </trkpt>
      <trkpt lat="37.18763" lon="-7.384123333333333">
        <ele>72.19999999999999</ele>
        <time>2013-01-07T12:53:24.30</time>
      </trkpt>
      <trkpt lat="37.187553333333334" lon="-7.384123333333333">
        <ele>72.49999999999999</ele>
        <time>2013-01-07T12:53:25.30</time>
      </trkpt>
      <trkpt lat="37.18748" lon="-7.384121666666666">
        <ele>72.29999999999998</ele>
        <time>2013-01-07T12:53:26.30</time>
      </trkpt>
      <trkpt lat="37.187421666666665" lon="-7.384111666666667">
        <ele>71.59999999999998</ele>
        <time>2013-01-07T12:53:27.30</time>
      </trkpt>
      <trkpt lat="37.18734333333333" lon="-7.384103333333333">
        <ele>71.39999999999998</ele>
        <time>2013-01-07T12:53:28.30</time>
      </trkpt>
      <trkpt lat="37.187268333333336" lon="-7.384108333333334">
        <ele>71.09999999999998</ele>
        <time>2013-01-07T12:53:29.30</time>
      </trkpt>
      <trkpt lat="37.187203333333336" lon="-7.3841">
        <ele>71.09999999999998</ele>
        <time>2013-01-07T12:53:30.30</time>
      </trkpt>
      <trkpt lat="37.18713833333333" lon="-7.384103333333333">
        <ele>71.19999999999997</ele>
        <time>2013-01-07T12:53:31.30</time>
      </trkpt>
      <trkpt lat="37.18708" lon="-7.384098333333333">
        <ele>70.99999999999997</ele>
        <time>2013-01-07T12:53:32.30</time>
      </trkpt>
      <trkpt lat="37.187021666666666" lon="-7.384095">
        <ele>70.99999999999997</ele>
        <time>2013-01-07T12:53:33.30</time>
      </trkpt>
      <trkpt lat="37.186955" lon="-7.384085">
        <ele>70.69999999999997</ele>
        <time>2013-01-07T12:53:34.30</time>
      </trkpt>
      <trkpt lat="37.186895" lon="-7.384088333333334">
        <ele>70.49999999999997</ele>
        <time>2013-01-07T12:53:35.30</time>
      </trkpt>
      <trkpt lat="37.18682333333334" lon="-7.384081666666667">
        <ele>70.39999999999998</ele>
        <time>2013-01-07T12:53:36.30</time>
      </trkpt>
      <trkpt lat="37.186753333333336" lon="-7.384078333333333">
        <ele>71.99999999999997</ele>
        <time>2013-01-07T12:53:37.30</time>
      </trkpt>
      <trkpt lat="37.186683333333335" lon="-7.384076666666667">
        <ele>71.49999999999997</ele>
        <time>2013-01-07T12:53:38.30</time>
      </trkpt>
      <trkpt lat="37.18662333333333" lon="-7.384071666666666">
        <ele>72.19999999999997</ele>
        <time>2013-01-07T12:53:39.30</time>
      </trkpt>
      <trkpt lat="37.186565" lon="-7.384071666666666">
        <ele>72.39999999999998</ele>
        <time>2013-01-07T12:53:40.29</time>
      </trkpt>
      <trkpt lat="37.186495" lon="-7.384063333333334">
        <ele>72.39999999999998</ele>
        <time>2013-01-07T12:53:41.30</time>
      </trkpt>
      <trkpt lat="37.18644" lon="-7.384063333333334">
        <ele>72.29999999999998</ele>
        <time>2013-01-07T12:53:42.29</time>
      </trkpt>
      <trkpt lat="37.186371666666666" lon="-7.384066666666667">
        <ele>70.29999999999998</ele>
        <time>2013-01-07T12:53:43.29</time>
      </trkpt>
      <trkpt lat="37.186305" lon="-7.384073333333333">
        <ele>71.29999999999998</ele>
        <time>2013-01-07T12:53:44.29</time>
      </trkpt>
      <trkpt lat="37.18624" lon="-7.38408">
        <ele>70.09999999999998</ele>
        <time>2013-01-07T12:53:45.29</time>
      </trkpt>
      <trkpt lat="37.186175" lon="-7.384076666666667">
        <ele>69.69999999999997</ele>
        <time>2013-01-07T12:53:46.29</time>
      </trkpt>
      <trkpt lat="37.186105" lon="-7.384066666666667">
        <ele>69.49999999999997</ele>
        <time>2013-01-07T12:53:47.28</time>
      </trkpt>
      <trkpt lat="37.186035" lon="-7.384063333333334">
        <ele>69.29999999999997</ele>
        <time>2013-01-07T12:53:48.30</time>
      </trkpt>
      <trkpt lat="37.18597833333333" lon="-7.384065">
        <ele>69.29999999999997</ele>
        <time>2013-01-07T12:53:49.28</time>
      </trkpt>
      <trkpt lat="37.18591833333333" lon="-7.384053333333333">
        <ele>68.49999999999997</ele>
        <time>2013-01-07T12:53:50.29</time>
      </trkpt>
      <trkpt lat="37.185853333333334" lon="-7.384041666666667">
        <ele>68.29999999999997</ele>
        <time>2013-01-07T12:53:51.29</time>
      </trkpt>
      <trkpt lat="37.185805" lon="-7.384041666666667">
        <ele>68.09999999999997</ele>
        <time>2013-01-07T12:53:52.29</time>
      </trkpt>
      <trkpt lat="37.18574" lon="-7.384041666666667">
        <ele>67.99999999999997</ele>
        <time>2013-01-07T12:53:53.29</time>
      </trkpt>
      <trkpt lat="37.18568833333333" lon="-7.38405">
        <ele>68.29999999999997</ele>
        <time>2013-01-07T12:53:54.29</time>
      </trkpt>
      <trkpt lat="37.185626666666664" lon="-7.384061666666667">
        <ele>68.49999999999997</ele>
        <time>2013-01-07T12:53:55.29</time>
      </trkpt>
      <trkpt lat="37.18555" lon="-7.384056666666667">
        <ele>68.49999999999997</ele>
        <time>2013-01-07T12:53:56.29</time>
      </trkpt>
      <trkpt lat="37.185491666666664" lon="-7.384073333333333">
        <ele>68.19999999999997</ele>
        <time>2013-01-07T12:53:57.29</time>
      </trkpt>
      <trkpt lat="37.18543833333333" lon="-7.384088333333334">
        <ele>68.29999999999997</ele>
        <time>2013-01-07T12:53:58.29</time>
      </trkpt>
      <trkpt lat="37.18538" lon="-7.384101666666667">
        <ele>68.39999999999996</ele>
        <time>2013-01-07T12:53:59.29</time>
      </trkpt>
      <trkpt lat="37.18532" lon="-7.384108333333334">
        <ele>67.99999999999996</ele>
        <time>2013-01-07T12:54:00.29</time>
      </trkpt>
      <trkpt lat="37.18526833333333" lon="-7.384103333333333">
        <ele>67.69999999999996</ele>
        <time>2013-01-07T12:54:01.29</time>
      </trkpt>
      <trkpt lat="37.185206666666666" lon="-7.38411">
        <ele>68.59999999999997</ele>
        <time>2013-01-07T12:54:02.29</time>
      </trkpt>
      <trkpt lat="37.185155" lon="-7.384108333333334">
        <ele>68.49999999999997</ele>
        <time>2013-01-07T12:54:03.29</time>
      </trkpt>
      <trkpt lat="37.18508833333333" lon="-7.3841">
        <ele>68.19999999999997</ele>
        <time>2013-01-07T12:54:04.28</time>
      </trkpt>
      <trkpt lat="37.18503" lon="-7.384098333333333">
        <ele>68.29999999999997</ele>
        <time>2013-01-07T12:54:05.30</time>
      </trkpt>
      <trkpt lat="37.184963333333336" lon="-7.384085">
        <ele>68.09999999999997</ele>
        <time>2013-01-07T12:54:06.30</time>
      </trkpt>
      <trkpt lat="37.18489833333334" lon="-7.384073333333333">
        <ele>67.99999999999997</ele>
        <time>2013-01-07T12:54:07.30</time>
      </trkpt>
      <trkpt lat="37.184846666666665" lon="-7.384063333333334">
        <ele>67.99999999999997</ele>
        <time>2013-01-07T12:54:08.30</time>
      </trkpt>
      <trkpt lat="37.18478833333333" lon="-7.384053333333333">
        <ele>67.99999999999997</ele>
        <time>2013-01-07T12:54:09.30</time>
      </trkpt>
      <trkpt lat="37.18473" lon="-7.384033333333333">
        <ele>67.09999999999997</ele>
        <time>2013-01-07T12:54:10.30</time>
      </trkpt>
      <trkpt lat="37.184675" lon="-7.384013333333334">
        <ele>66.89999999999996</ele>
        <time>2013-01-07T12:54:11.30</time>
      </trkpt>
      <trkpt lat="37.184615" lon="-7.383985">
        <ele>66.89999999999996</ele>
        <time>2013-01-07T12:54:12.30</time>
      </trkpt>
      <trkpt lat="37.184555" lon="-7.383961666666667">
        <ele>67.09999999999997</ele>
        <time>2013-01-07T12:54:13.30</time>
      </trkpt>
      <trkpt lat="37.184493333333336" lon="-7.383948333333334">
        <ele>67.09999999999997</ele>
        <time>2013-01-07T12:54:14.30</time>
      </trkpt>
      <trkpt lat="37.18443" lon="-7.383931666666666">
        <ele>66.79999999999997</ele>
        <time>2013-01-07T12:54:15.30</time>
      </trkpt>
      <trkpt lat="37.18437" lon="-7.383915">
        <ele>67.29999999999997</ele>
        <time>2013-01-07T12:54:16.30</time>
      </trkpt>
      <trkpt lat="37.18431" lon="-7.3838816666666665">
        <ele>67.59999999999997</ele>
        <time>2013-01-07T12:54:17.33</time>
      </trkpt>
      <trkpt lat="37.184261666666664" lon="-7.383851666666667">
        <ele>67.89999999999996</ele>
        <time>2013-01-07T12:54:18.32</time>
      </trkpt>
      <trkpt lat="37.18420666666667" lon="-7.3838333333333335">
        <ele>67.09999999999997</ele>
        <time>2013-01-07T12:54:19.30</time>
      </trkpt>
      <trkpt lat="37.184151666666665" lon="-7.383806666666667">
        <ele>67.09999999999997</ele>
        <time>2013-01-07T12:54:20.30</time>
      </trkpt>
      <trkpt lat="37.184088333333335" lon="-7.383768333333333">
        <ele>66.89999999999996</ele>
        <time>2013-01-07T12:54:21.30</time>
      </trkpt>
      <trkpt lat="37.18403" lon="-7.383721666666666">
        <ele>66.99999999999996</ele>
        <time>2013-01-07T12:54:22.31</time>
      </trkpt>
      <trkpt lat="37.183975" lon="-7.383678333333333">
        <ele>67.09999999999995</ele>
        <time>2013-01-07T12:54:23.30</time>
      </trkpt>
      <trkpt lat="37.18391166666667" lon="-7.38364">
        <ele>67.09999999999995</ele>
        <time>2013-01-07T12:54:24.30</time>
      </trkpt>
      <trkpt lat="37.18385833333333" lon="-7.383596666666667">
        <ele>66.49999999999996</ele>
        <time>2013-01-07T12:54:25.30</time>
      </trkpt>
      <trkpt lat="37.18380166666667" lon="-7.383563333333333">
        <ele>67.09999999999995</ele>
        <time>2013-01-07T12:54:26.30</time>
      </trkpt>
      <trkpt lat="37.18375833333333" lon="-7.383516666666667">
        <ele>67.29999999999995</ele>
        <time>2013-01-07T12:54:27.30</time>
      </trkpt>
      <trkpt lat="37.18371" lon="-7.383485">
        <ele>66.69999999999996</ele>
        <time>2013-01-07T12:54:28.30</time>
      </trkpt>
      <trkpt lat="37.18367" lon="-7.38344">
        <ele>66.99999999999996</ele>
        <time>2013-01-07T12:54:29.30</time>
      </trkpt>
      <trkpt lat="37.183618333333335" lon="-7.3834">
        <ele>66.29999999999995</ele>
        <time>2013-01-07T12:54:30.30</time>
      </trkpt>
      <trkpt lat="37.18357666666667" lon="-7.383355">
        <ele>66.19999999999996</ele>
        <time>2013-01-07T12:54:31.30</time>
      </trkpt>
      <trkpt lat="37.18352" lon="-7.383301666666667">
        <ele>65.59999999999997</ele>
        <time>2013-01-07T12:54:32.30</time>
      </trkpt>
      <trkpt lat="37.18346833333333" lon="-7.38327">
        <ele>65.99999999999997</ele>
        <time>2013-01-07T12:54:33.32</time>
      </trkpt>
      <trkpt lat="37.183416666666666" lon="-7.383225">
        <ele>66.09999999999997</ele>
        <time>2013-01-07T12:54:34.33</time>
      </trkpt>
      <trkpt lat="37.183373333333336" lon="-7.383173333333334">
        <ele>66.29999999999997</ele>
        <time>2013-01-07T12:54:35.30</time>
      </trkpt>
      <trkpt lat="37.183328333333336" lon="-7.383133333333333">
        <ele>66.39999999999996</ele>
        <time>2013-01-07T12:54:36.30</time>
      </trkpt>
      <trkpt lat="37.183281666666666" lon="-7.383088333333333">
        <ele>66.19999999999996</ele>
        <time>2013-01-07T12:54:37.30</time>
      </trkpt>
      <trkpt lat="37.183245" lon="-7.38305">
        <ele>66.09999999999997</ele>
        <time>2013-01-07T12:54:38.30</time>
      </trkpt>
      <trkpt lat="37.183211666666665" lon="-7.383023333333333">
        <ele>65.89999999999996</ele>
        <time>2013-01-07T12:54:39.30</time>
      </trkpt>
      <trkpt lat="37.183168333333334" lon="-7.382975">
        <ele>65.99999999999996</ele>
        <time>2013-01-07T12:54:40.30</time>
      </trkpt>
      <trkpt lat="37.18313" lon="-7.382945">
        <ele>65.89999999999996</ele>
        <time>2013-01-07T12:54:41.30</time>
      </trkpt>
      <trkpt lat="37.183081666666666" lon="-7.382901666666666">
        <ele>65.29999999999997</ele>
        <time>2013-01-07T12:54:42.30</time>
      </trkpt>
      <trkpt lat="37.18304" lon="-7.38286">
        <ele>65.29999999999997</ele>
        <time>2013-01-07T12:54:43.30</time>
      </trkpt>
      <trkpt lat="37.18300166666667" lon="-7.38282">
        <ele>65.29999999999997</ele>
        <time>2013-01-07T12:54:44.30</time>
      </trkpt>
      <trkpt lat="37.182955" lon="-7.382778333333333">
        <ele>65.09999999999997</ele>
        <time>2013-01-07T12:54:45.30</time>
      </trkpt>
      <trkpt lat="37.182915" lon="-7.3827533333333335">
        <ele>64.79999999999997</ele>
        <time>2013-01-07T12:54:46.30</time>
      </trkpt>
      <trkpt lat="37.182876666666665" lon="-7.382721666666667">
        <ele>65.49999999999997</ele>
        <time>2013-01-07T12:54:47.30</time>
      </trkpt>
      <trkpt lat="37.18282333333333" lon="-7.382675">
        <ele>65.19999999999997</ele>
        <time>2013-01-07T12:54:48.30</time>
      </trkpt>
      <trkpt lat="37.182765" lon="-7.382626666666667">
        <ele>64.99999999999997</ele>
        <time>2013-01-07T12:54:49.33</time>
      </trkpt>
      <trkpt lat="37.182715" lon="-7.38258">
        <ele>64.19999999999997</ele>
        <time>2013-01-07T12:54:50.33</time>
      </trkpt>
      <trkpt lat="37.182658333333336" lon="-7.382528333333333">
        <ele>64.19999999999997</ele>
        <time>2013-01-07T12:54:51.30</time>
      </trkpt>
      <trkpt lat="37.182615" lon="-7.38248">
        <ele>63.699999999999974</ele>
        <time>2013-01-07T12:54:52.29</time>
      </trkpt>
      <trkpt lat="37.18258333333333" lon="-7.382431666666666">
        <ele>63.39999999999998</ele>
        <time>2013-01-07T12:54:53.29</time>
      </trkpt>
      <trkpt lat="37.182535" lon="-7.382385">
        <ele>63.09999999999998</ele>
        <time>2013-01-07T12:54:54.31</time>
      </trkpt>
      <trkpt lat="37.182491666666664" lon="-7.382336666666666">
        <ele>62.59999999999998</ele>
        <time>2013-01-07T12:54:55.30</time>
      </trkpt>
      <trkpt lat="37.182445" lon="-7.382293333333333">
        <ele>62.49999999999998</ele>
        <time>2013-01-07T12:54:56.31</time>
      </trkpt>
      <trkpt lat="37.1824" lon="-7.3822383333333335">
        <ele>62.69999999999998</ele>
        <time>2013-01-07T12:54:57.30</time>
      </trkpt>
      <trkpt lat="37.18236" lon="-7.382176666666667">
        <ele>61.899999999999984</ele>
        <time>2013-01-07T12:54:58.30</time>
      </trkpt>
      <trkpt lat="37.182316666666665" lon="-7.382131666666667">
        <ele>61.999999999999986</ele>
        <time>2013-01-07T12:54:59.30</time>
      </trkpt>
      <trkpt lat="37.182273333333335" lon="-7.382076666666666">
        <ele>61.899999999999984</ele>
        <time>2013-01-07T12:55:00.30</time>
      </trkpt>
      <trkpt lat="37.18224" lon="-7.38202">
        <ele>61.09999999999999</ele>
        <time>2013-01-07T12:55:01.30</time>
      </trkpt>
      <trkpt lat="37.18219666666667" lon="-7.381966666666667">
        <ele>60.79999999999999</ele>
        <time>2013-01-07T12:55:02.30</time>
      </trkpt>
      <trkpt lat="37.182155" lon="-7.381918333333333">
        <ele>60.89999999999999</ele>
        <time>2013-01-07T12:55:03.30</time>
      </trkpt>
      <trkpt lat="37.182113333333334" lon="-7.38186">
        <ele>61.099999999999994</ele>
        <time>2013-01-07T12:55:04.30</time>
      </trkpt>
      <trkpt lat="37.182075" lon="-7.381811666666667">
        <ele>60.99999999999999</ele>
        <time>2013-01-07T12:55:05.33</time>
      </trkpt>
      <trkpt lat="37.18203" lon="-7.381758333333333">
        <ele>61.39999999999999</ele>
        <time>2013-01-07T12:55:06.34</time>
      </trkpt>
      <trkpt lat="37.18199166666667" lon="-7.381718333333334">
        <ele>61.99999999999999</ele>
        <time>2013-01-07T12:55:07.30</time>
      </trkpt>
      <trkpt lat="37.18195166666667" lon="-7.381665">
        <ele>61.49999999999999</ele>
        <time>2013-01-07T12:55:08.30</time>
      </trkpt>
      <trkpt lat="37.18192" lon="-7.381606666666666">
        <ele>61.29999999999999</ele>
        <time>2013-01-07T12:55:09.30</time>
      </trkpt>
      <trkpt lat="37.18188" lon="-7.381553333333334">
        <ele>61.09999999999999</ele>
        <time>2013-01-07T12:55:10.31</time>
      </trkpt>
      <trkpt lat="37.18185666666667" lon="-7.381496666666667">
        <ele>60.499999999999986</ele>
        <time>2013-01-07T12:55:11.30</time>
      </trkpt>
      <trkpt lat="37.181821666666664" lon="-7.3814416666666665">
        <ele>60.999999999999986</ele>
        <time>2013-01-07T12:55:12.30</time>
      </trkpt>
      <trkpt lat="37.181785" lon="-7.381396666666666">
        <ele>61.09999999999999</ele>
        <time>2013-01-07T12:55:13.30</time>
      </trkpt>
      <trkpt lat="37.18174833333333" lon="-7.38134">
        <ele>61.399999999999984</ele>
        <time>2013-01-07T12:55:14.30</time>
      </trkpt>
      <trkpt lat="37.181718333333336" lon="-7.381285">
        <ele>61.19999999999998</ele>
        <time>2013-01-07T12:55:15.30</time>
      </trkpt>
      <trkpt lat="37.18168333333333" lon="-7.38123">
        <ele>61.49999999999998</ele>
        <time>2013-01-07T12:55:16.30</time>
      </trkpt>
      <trkpt lat="37.181648333333335" lon="-7.381178333333334">
        <ele>61.799999999999976</ele>
        <time>2013-01-07T12:55:17.30</time>
      </trkpt>
      <trkpt lat="37.181621666666665" lon="-7.381115">
        <ele>62.09999999999997</ele>
        <time>2013-01-07T12:55:18.30</time>
      </trkpt>
      <trkpt lat="37.18159333333333" lon="-7.381061666666667">
        <ele>62.39999999999997</ele>
        <time>2013-01-07T12:55:19.28</time>
      </trkpt>
      <trkpt lat="37.18156333333334" lon="-7.380998333333333">
        <ele>62.59999999999997</ele>
        <time>2013-01-07T12:55:20.29</time>
      </trkpt>
      <trkpt lat="37.18152166666667" lon="-7.380931666666666">
        <ele>62.799999999999976</ele>
        <time>2013-01-07T12:55:21.31</time>
      </trkpt>
      <trkpt lat="37.18149" lon="-7.3808766666666665">
        <ele>63.09999999999997</ele>
        <time>2013-01-07T12:55:22.30</time>
      </trkpt>
      <trkpt lat="37.181443333333334" lon="-7.380818333333333">
        <ele>63.39999999999997</ele>
        <time>2013-01-07T12:55:23.30</time>
      </trkpt>
      <trkpt lat="37.18141166666667" lon="-7.38075">
        <ele>63.39999999999997</ele>
        <time>2013-01-07T12:55:24.30</time>
      </trkpt>
      <trkpt lat="37.181383333333336" lon="-7.380686666666667">
        <ele>63.29999999999997</ele>
        <time>2013-01-07T12:55:25.29</time>
      </trkpt>
      <trkpt lat="37.18136333333333" lon="-7.380616666666667">
        <ele>63.099999999999966</ele>
        <time>2013-01-07T12:55:26.30</time>
      </trkpt>
      <trkpt lat="37.181335" lon="-7.380551666666666">
        <ele>63.29999999999997</ele>
        <time>2013-01-07T12:55:27.30</time>
      </trkpt>
      <trkpt lat="37.18129833333333" lon="-7.380491666666667">
        <ele>63.39999999999997</ele>
        <time>2013-01-07T12:55:28.30</time>
      </trkpt>
      <trkpt lat="37.18127333333333" lon="-7.380435">
        <ele>63.19999999999997</ele>
        <time>2013-01-07T12:55:29.30</time>
      </trkpt>
      <trkpt lat="37.18124" lon="-7.380373333333333">
        <ele>63.29999999999997</ele>
        <time>2013-01-07T12:55:30.30</time>
      </trkpt>
      <trkpt lat="37.181203333333336" lon="-7.380308333333334">
        <ele>63.099999999999966</ele>
        <time>2013-01-07T12:55:31.30</time>
      </trkpt>
      <trkpt lat="37.18116666666667" lon="-7.380251666666667">
        <ele>63.19999999999997</ele>
        <time>2013-01-07T12:55:32.30</time>
      </trkpt>
      <trkpt lat="37.181133333333335" lon="-7.380185">
        <ele>63.099999999999966</ele>
        <time>2013-01-07T12:55:33.30</time>
      </trkpt>
      <trkpt lat="37.18109833333333" lon="-7.38012">
        <ele>63.099999999999966</ele>
        <time>2013-01-07T12:55:34.30</time>
      </trkpt>
      <trkpt lat="37.181075" lon="-7.380053333333334">
        <ele>63.099999999999966</ele>
        <time>2013-01-07T12:55:35.30</time>
      </trkpt>
      <trkpt lat="37.18104" lon="-7.38">
        <ele>62.89999999999996</ele>
        <time>2013-01-07T12:55:36.31</time>
      </trkpt>
      <trkpt lat="37.18100833333333" lon="-7.379953333333333">
        <ele>62.999999999999964</ele>
        <time>2013-01-07T12:55:37.30</time>
      </trkpt>
      <trkpt lat="37.18098" lon="-7.379893333333333">
        <ele>62.89999999999996</ele>
        <time>2013-01-07T12:55:38.30</time>
      </trkpt>
      <trkpt lat="37.180951666666665" lon="-7.379826666666666">
        <ele>62.89999999999996</ele>
        <time>2013-01-07T12:55:39.30</time>
      </trkpt>
      <trkpt lat="37.180926666666664" lon="-7.379766666666667">
        <ele>62.79999999999996</ele>
        <time>2013-01-07T12:55:40.30</time>
      </trkpt>
      <trkpt lat="37.1809" lon="-7.379695">
        <ele>62.79999999999996</ele>
        <time>2013-01-07T12:55:41.32</time>
      </trkpt>
      <trkpt lat="37.18086666666667" lon="-7.379621666666667">
        <ele>62.999999999999964</ele>
        <time>2013-01-07T12:55:42.32</time>
      </trkpt>
      <trkpt lat="37.18083166666667" lon="-7.379556666666667">
        <ele>64.09999999999997</ele>
        <time>2013-01-07T12:55:43.30</time>
      </trkpt>
      <trkpt lat="37.18080666666667" lon="-7.3795">
        <ele>64.69999999999996</ele>
        <time>2013-01-07T12:55:44.30</time>
      </trkpt>
      <trkpt lat="37.180778333333336" lon="-7.379426666666666">
        <ele>64.49999999999996</ele>
        <time>2013-01-07T12:55:45.30</time>
      </trkpt>
      <trkpt lat="37.18075" lon="-7.379368333333334">
        <ele>64.19999999999996</ele>
        <time>2013-01-07T12:55:46.30</time>
      </trkpt>
      <trkpt lat="37.18071" lon="-7.379316666666667">
        <ele>64.19999999999996</ele>
        <time>2013-01-07T12:55:47.30</time>
      </trkpt>
      <trkpt lat="37.18066666666667" lon="-7.379273333333333">
        <ele>64.19999999999996</ele>
        <time>2013-01-07T12:55:48.30</time>
      </trkpt>
      <trkpt lat="37.18064" lon="-7.3792116666666665">
        <ele>63.39999999999996</ele>
        <time>2013-01-07T12:55:49.30</time>
      </trkpt>
      <trkpt lat="37.180615" lon="-7.3791633333333335">
        <ele>63.69999999999996</ele>
        <time>2013-01-07T12:55:50.30</time>
      </trkpt>
      <trkpt lat="37.18059" lon="-7.379103333333333">
        <ele>63.79999999999996</ele>
        <time>2013-01-07T12:55:51.30</time>
      </trkpt>
      <trkpt lat="37.18055833333333" lon="-7.379041666666667">
        <ele>63.19999999999996</ele>
        <time>2013-01-07T12:55:52.29</time>
      </trkpt>
      <trkpt lat="37.18052333333333" lon="-7.378986666666667">
        <ele>63.49999999999996</ele>
        <time>2013-01-07T12:55:53.30</time>
      </trkpt>
      <trkpt lat="37.18048833333334" lon="-7.378926666666667">
        <ele>63.899999999999956</ele>
        <time>2013-01-07T12:55:54.30</time>
      </trkpt>
      <trkpt lat="37.18046" lon="-7.378863333333333">
        <ele>63.99999999999996</ele>
        <time>2013-01-07T12:55:55.30</time>
      </trkpt>
      <trkpt lat="37.18044166666667" lon="-7.3788">
        <ele>63.99999999999996</ele>
        <time>2013-01-07T12:55:56.31</time>
      </trkpt>
      <trkpt lat="37.18042833333333" lon="-7.378735">
        <ele>63.99999999999996</ele>
        <time>2013-01-07T12:55:57.30</time>
      </trkpt>
      <trkpt lat="37.180395" lon="-7.378683333333333">
        <ele>64.09999999999995</ele>
        <time>2013-01-07T12:55:58.30</time>
      </trkpt>
      <trkpt lat="37.18037" lon="-7.37862">
        <ele>63.99999999999995</ele>
        <time>2013-01-07T12:55:59.30</time>
      </trkpt>
      <trkpt lat="37.180335" lon="-7.378556666666666">
        <ele>64.39999999999995</ele>
        <time>2013-01-07T12:56:00.30</time>
      </trkpt>
      <trkpt lat="37.18030666666667" lon="-7.378501666666667">
        <ele>64.09999999999995</ele>
        <time>2013-01-07T12:56:01.30</time>
      </trkpt>
      <trkpt lat="37.18027166666667" lon="-7.378425">
        <ele>63.89999999999995</ele>
        <time>2013-01-07T12:56:02.30</time>
      </trkpt>
      <trkpt lat="37.180233333333334" lon="-7.378356666666667">
        <ele>63.99999999999995</ele>
        <time>2013-01-07T12:56:03.30</time>
      </trkpt>
      <trkpt lat="37.18020666666666" lon="-7.378295">
        <ele>64.49999999999994</ele>
        <time>2013-01-07T12:56:04.30</time>
      </trkpt>
      <trkpt lat="37.180171666666666" lon="-7.378233333333333">
        <ele>64.39999999999995</ele>
        <time>2013-01-07T12:56:05.30</time>
      </trkpt>
      <trkpt lat="37.18013833333333" lon="-7.378185">
        <ele>64.49999999999994</ele>
        <time>2013-01-07T12:56:06.30</time>
      </trkpt>
      <trkpt lat="37.180103333333335" lon="-7.378123333333333">
        <ele>64.69999999999995</ele>
        <time>2013-01-07T12:56:07.30</time>
      </trkpt>
      <trkpt lat="37.180078333333334" lon="-7.3780616666666665">
        <ele>64.59999999999995</ele>
        <time>2013-01-07T12:56:08.30</time>
      </trkpt>
      <trkpt lat="37.18004666666667" lon="-7.377995">
        <ele>64.39999999999995</ele>
        <time>2013-01-07T12:56:09.30</time>
      </trkpt>
      <trkpt lat="37.180006666666664" lon="-7.377936666666667">
        <ele>64.69999999999995</ele>
        <time>2013-01-07T12:56:10.30</time>
      </trkpt>
      <trkpt lat="37.179975" lon="-7.377875">
        <ele>64.69999999999995</ele>
        <time>2013-01-07T12:56:11.29</time>
      </trkpt>
      <trkpt lat="37.17994" lon="-7.377808333333333">
        <ele>64.39999999999995</ele>
        <time>2013-01-07T12:56:12.29</time>
      </trkpt>
      <trkpt lat="37.17990833333333" lon="-7.377753333333334">
        <ele>64.99999999999994</ele>
        <time>2013-01-07T12:56:13.30</time>
      </trkpt>
      <trkpt lat="37.17986833333333" lon="-7.377698333333333">
        <ele>65.19999999999995</ele>
        <time>2013-01-07T12:56:14.30</time>
      </trkpt>
      <trkpt lat="37.17984" lon="-7.37763">
        <ele>64.69999999999995</ele>
        <time>2013-01-07T12:56:15.30</time>
      </trkpt>
      <trkpt lat="37.17982166666667" lon="-7.377566666666667">
        <ele>64.59999999999995</ele>
        <time>2013-01-07T12:56:16.40</time>
      </trkpt>
      <trkpt lat="37.17979" lon="-7.377505">
        <ele>64.39999999999995</ele>
        <time>2013-01-07T12:56:17.30</time>
      </trkpt>
      <trkpt lat="37.17975166666667" lon="-7.377441666666667">
        <ele>64.39999999999995</ele>
        <time>2013-01-07T12:56:18.30</time>
      </trkpt>
      <trkpt lat="37.179725" lon="-7.37738">
        <ele>64.39999999999995</ele>
        <time>2013-01-07T12:56:19.30</time>
      </trkpt>
      <trkpt lat="37.17968833333333" lon="-7.377321666666667">
        <ele>64.49999999999994</ele>
        <time>2013-01-07T12:56:20.30</time>
      </trkpt>
      <trkpt lat="37.17966166666667" lon="-7.3772633333333335">
        <ele>64.49999999999994</ele>
        <time>2013-01-07T12:56:21.30</time>
      </trkpt>
      <trkpt lat="37.17963" lon="-7.377218333333333">
        <ele>63.89999999999994</ele>
        <time>2013-01-07T12:56:22.30</time>
      </trkpt>
      <trkpt lat="37.1796" lon="-7.377153333333333">
        <ele>63.69999999999994</ele>
        <time>2013-01-07T12:56:23.30</time>
      </trkpt>
      <trkpt lat="37.179565" lon="-7.377086666666667">
        <ele>64.19999999999993</ele>
        <time>2013-01-07T12:56:24.30</time>
      </trkpt>
      <trkpt lat="37.17955166666667" lon="-7.3770283333333335">
        <ele>63.899999999999935</ele>
        <time>2013-01-07T12:56:25.30</time>
      </trkpt>
      <trkpt lat="37.17952" lon="-7.376965">
        <ele>63.899999999999935</ele>
        <time>2013-01-07T12:56:26.30</time>
      </trkpt>
      <trkpt lat="37.17948166666667" lon="-7.376906666666667">
        <ele>63.79999999999993</ele>
        <time>2013-01-07T12:56:27.30</time>
      </trkpt>
      <trkpt lat="37.17944166666667" lon="-7.37685">
        <ele>63.999999999999936</ele>
        <time>2013-01-07T12:56:28.30</time>
      </trkpt>
      <trkpt lat="37.17941" lon="-7.376791666666667">
        <ele>63.69999999999994</ele>
        <time>2013-01-07T12:56:29.30</time>
      </trkpt>
      <trkpt lat="37.179361666666665" lon="-7.376735">
        <ele>64.09999999999994</ele>
        <time>2013-01-07T12:56:30.30</time>
      </trkpt>
      <trkpt lat="37.17931333333333" lon="-7.37668">
        <ele>64.09999999999994</ele>
        <time>2013-01-07T12:56:31.30</time>
      </trkpt>
      <trkpt lat="37.179271666666665" lon="-7.376633333333333">
        <ele>64.19999999999993</ele>
        <time>2013-01-07T12:56:32.30</time>
      </trkpt>
      <trkpt lat="37.17923166666667" lon="-7.376586666666666">
        <ele>63.79999999999993</ele>
        <time>2013-01-07T12:56:33.30</time>
      </trkpt>
      <trkpt lat="37.179181666666665" lon="-7.37655">
        <ele>64.29999999999993</ele>
        <time>2013-01-07T12:56:34.30</time>
      </trkpt>
      <trkpt lat="37.17913333333333" lon="-7.376496666666666">
        <ele>63.99999999999993</ele>
        <time>2013-01-07T12:56:35.30</time>
      </trkpt>
      <trkpt lat="37.17908333333333" lon="-7.376446666666666">
        <ele>63.99999999999993</ele>
        <time>2013-01-07T12:56:36.30</time>
      </trkpt>
      <trkpt lat="37.17903333333334" lon="-7.3763966666666665">
        <ele>64.29999999999993</ele>
        <time>2013-01-07T12:56:37.30</time>
      </trkpt>
      <trkpt lat="37.178981666666665" lon="-7.37635">
        <ele>63.99999999999993</ele>
        <time>2013-01-07T12:56:38.30</time>
      </trkpt>
      <trkpt lat="37.17893333333333" lon="-7.37631">
        <ele>63.49999999999993</ele>
        <time>2013-01-07T12:56:39.30</time>
      </trkpt>
      <trkpt lat="37.17889666666667" lon="-7.3762783333333335">
        <ele>63.299999999999926</ele>
        <time>2013-01-07T12:56:40.30</time>
      </trkpt>
      <trkpt lat="37.178846666666665" lon="-7.3762566666666665">
        <ele>63.199999999999925</ele>
        <time>2013-01-07T12:56:41.30</time>
      </trkpt>
      <trkpt lat="37.178795" lon="-7.376226666666667">
        <ele>62.89999999999993</ele>
        <time>2013-01-07T12:56:42.30</time>
      </trkpt>
      <trkpt lat="37.17874666666667" lon="-7.376205">
        <ele>63.09999999999993</ele>
        <time>2013-01-07T12:56:43.30</time>
      </trkpt>
      <trkpt lat="37.178688333333334" lon="-7.376175">
        <ele>63.29999999999993</ele>
        <time>2013-01-07T12:56:44.30</time>
      </trkpt>
      <trkpt lat="37.17863833333333" lon="-7.37615">
        <ele>63.499999999999936</ele>
        <time>2013-01-07T12:56:45.30</time>
      </trkpt>
      <trkpt lat="37.17859333333333" lon="-7.376146666666667">
        <ele>63.59999999999994</ele>
        <time>2013-01-07T12:56:46.30</time>
      </trkpt>
      <trkpt lat="37.17854833333333" lon="-7.37613">
        <ele>63.69999999999994</ele>
        <time>2013-01-07T12:56:47.30</time>
      </trkpt>
      <trkpt lat="37.178495" lon="-7.376108333333334">
        <ele>63.89999999999994</ele>
        <time>2013-01-07T12:56:48.30</time>
      </trkpt>
      <trkpt lat="37.17843333333333" lon="-7.3760916666666665">
        <ele>64.29999999999994</ele>
        <time>2013-01-07T12:56:49.30</time>
      </trkpt>
      <trkpt lat="37.178378333333335" lon="-7.376086666666667">
        <ele>64.09999999999994</ele>
        <time>2013-01-07T12:56:50.30</time>
      </trkpt>
      <trkpt lat="37.17832333333333" lon="-7.376071666666666">
        <ele>64.59999999999994</ele>
        <time>2013-01-07T12:56:51.30</time>
      </trkpt>
      <trkpt lat="37.17827166666667" lon="-7.376065">
        <ele>64.69999999999993</ele>
        <time>2013-01-07T12:56:52.29</time>
      </trkpt>
      <trkpt lat="37.178215" lon="-7.37605">
        <ele>64.69999999999993</ele>
        <time>2013-01-07T12:56:53.29</time>
      </trkpt>
      <trkpt lat="37.17814833333333" lon="-7.376041666666667">
        <ele>64.89999999999993</ele>
        <time>2013-01-07T12:56:54.30</time>
      </trkpt>
      <trkpt lat="37.178095" lon="-7.376045">
        <ele>64.89999999999993</ele>
        <time>2013-01-07T12:56:55.30</time>
      </trkpt>
      <trkpt lat="37.17803333333333" lon="-7.376051666666666">
        <ele>65.19999999999993</ele>
        <time>2013-01-07T12:56:56.30</time>
      </trkpt>
      <trkpt lat="37.17797" lon="-7.376051666666666">
        <ele>66.39999999999993</ele>
        <time>2013-01-07T12:56:57.30</time>
      </trkpt>
      <trkpt lat="37.17790166666666" lon="-7.376048333333333">
        <ele>66.79999999999994</ele>
        <time>2013-01-07T12:56:58.31</time>
      </trkpt>
      <trkpt lat="37.177845" lon="-7.376053333333333">
        <ele>66.69999999999995</ele>
        <time>2013-01-07T12:56:59.30</time>
      </trkpt>
      <trkpt lat="37.17779" lon="-7.376056666666667">
        <ele>66.69999999999995</ele>
        <time>2013-01-07T12:57:00.30</time>
      </trkpt>
      <trkpt lat="37.17774" lon="-7.37606">
        <ele>66.29999999999994</ele>
        <time>2013-01-07T12:57:01.30</time>
      </trkpt>
      <trkpt lat="37.177686666666666" lon="-7.3760666666666665">
        <ele>66.09999999999994</ele>
        <time>2013-01-07T12:57:02.30</time>
      </trkpt>
      <trkpt lat="37.17763333333333" lon="-7.376081666666667">
        <ele>66.39999999999993</ele>
        <time>2013-01-07T12:57:03.30</time>
      </trkpt>
      <trkpt lat="37.17757833333334" lon="-7.376078333333333">
        <ele>65.79999999999994</ele>
        <time>2013-01-07T12:57:04.30</time>
      </trkpt>
      <trkpt lat="37.17752" lon="-7.376073333333333">
        <ele>65.69999999999995</ele>
        <time>2013-01-07T12:57:05.30</time>
      </trkpt>
      <trkpt lat="37.17745166666667" lon="-7.37609">
        <ele>65.59999999999995</ele>
        <time>2013-01-07T12:57:06.30</time>
      </trkpt>
      <trkpt lat="37.1774" lon="-7.376101666666667">
        <ele>65.89999999999995</ele>
        <time>2013-01-07T12:57:07.30</time>
      </trkpt>
      <trkpt lat="37.17734" lon="-7.376101666666667">
        <ele>66.09999999999995</ele>
        <time>2013-01-07T12:57:08.30</time>
      </trkpt>
      <trkpt lat="37.17729333333333" lon="-7.376115">
        <ele>66.09999999999995</ele>
        <time>2013-01-07T12:57:09.30</time>
      </trkpt>
      <trkpt lat="37.17722833333333" lon="-7.376123333333333">
        <ele>65.99999999999996</ele>
        <time>2013-01-07T12:57:10.30</time>
      </trkpt>
      <trkpt lat="37.177165" lon="-7.376131666666667">
        <ele>66.49999999999996</ele>
        <time>2013-01-07T12:57:11.30</time>
      </trkpt>
      <trkpt lat="37.177096666666664" lon="-7.376143333333333">
        <ele>66.69999999999996</ele>
        <time>2013-01-07T12:57:12.30</time>
      </trkpt>
      <trkpt lat="37.17702666666667" lon="-7.376148333333333">
        <ele>66.99999999999996</ele>
        <time>2013-01-07T12:57:13.30</time>
      </trkpt>
      <trkpt lat="37.17697166666667" lon="-7.37616">
        <ele>66.69999999999996</ele>
        <time>2013-01-07T12:57:14.30</time>
      </trkpt>
      <trkpt lat="37.176915" lon="-7.376151666666667">
        <ele>66.59999999999997</ele>
        <time>2013-01-07T12:57:15.30</time>
      </trkpt>
      <trkpt lat="37.17687" lon="-7.376146666666667">
        <ele>66.79999999999997</ele>
        <time>2013-01-07T12:57:16.30</time>
      </trkpt>
      <trkpt lat="37.176815" lon="-7.376153333333333">
        <ele>66.99999999999997</ele>
        <time>2013-01-07T12:57:17.30</time>
      </trkpt>
      <trkpt lat="37.176768333333335" lon="-7.376156666666667">
        <ele>66.29999999999997</ele>
        <time>2013-01-07T12:57:18.30</time>
      </trkpt>
      <trkpt lat="37.176723333333335" lon="-7.376173333333333">
        <ele>66.69999999999997</ele>
        <time>2013-01-07T12:57:19.30</time>
      </trkpt>
      <trkpt lat="37.17666" lon="-7.376181666666667">
        <ele>66.79999999999997</ele>
        <time>2013-01-07T12:57:20.31</time>
      </trkpt>
      <trkpt lat="37.176606666666665" lon="-7.376196666666667">
        <ele>67.19999999999997</ele>
        <time>2013-01-07T12:57:21.30</time>
      </trkpt>
      <trkpt lat="37.176555" lon="-7.376196666666667">
        <ele>67.09999999999998</ele>
        <time>2013-01-07T12:57:22.30</time>
      </trkpt>
      <trkpt lat="37.17651166666667" lon="-7.3762">
        <ele>67.09999999999998</ele>
        <time>2013-01-07T12:57:23.30</time>
      </trkpt>
      <trkpt lat="37.17646" lon="-7.376196666666667">
        <ele>67.09999999999998</ele>
        <time>2013-01-07T12:57:24.30</time>
      </trkpt>
      <trkpt lat="37.17642166666667" lon="-7.3762083333333335">
        <ele>67.19999999999997</ele>
        <time>2013-01-07T12:57:25.30</time>
      </trkpt>
      <trkpt lat="37.176386666666666" lon="-7.37622">
        <ele>66.49999999999997</ele>
        <time>2013-01-07T12:57:26.30</time>
      </trkpt>
      <trkpt lat="37.17633166666667" lon="-7.376221666666667">
        <ele>66.29999999999997</ele>
        <time>2013-01-07T12:57:27.30</time>
      </trkpt>
      <trkpt lat="37.176293333333334" lon="-7.376221666666667">
        <ele>66.09999999999997</ele>
        <time>2013-01-07T12:57:28.30</time>
      </trkpt>
      <trkpt lat="37.176251666666666" lon="-7.376223333333333">
        <ele>66.89999999999996</ele>
        <time>2013-01-07T12:57:29.30</time>
      </trkpt>
      <trkpt lat="37.17620333333333" lon="-7.37622">
        <ele>66.99999999999996</ele>
        <time>2013-01-07T12:57:30.30</time>
      </trkpt>
      <trkpt lat="37.176155" lon="-7.37621">
        <ele>67.19999999999996</ele>
        <time>2013-01-07T12:57:31.30</time>
      </trkpt>
      <trkpt lat="37.176096666666666" lon="-7.376205">
        <ele>67.39999999999996</ele>
        <time>2013-01-07T12:57:32.30</time>
      </trkpt>
      <trkpt lat="37.17604" lon="-7.376196666666667">
        <ele>68.29999999999997</ele>
        <time>2013-01-07T12:57:33.30</time>
      </trkpt>
      <trkpt lat="37.17597333333333" lon="-7.3762">
        <ele>68.19999999999997</ele>
        <time>2013-01-07T12:57:34.30</time>
      </trkpt>
      <trkpt lat="37.17592" lon="-7.376201666666667">
        <ele>68.49999999999997</ele>
        <time>2013-01-07T12:57:35.37</time>
      </trkpt>
      <trkpt lat="37.17587" lon="-7.376198333333333">
        <ele>68.49999999999997</ele>
        <time>2013-01-07T12:57:36.30</time>
      </trkpt>
      <trkpt lat="37.175815" lon="-7.3762083333333335">
        <ele>68.29999999999997</ele>
        <time>2013-01-07T12:57:37.30</time>
      </trkpt>
      <trkpt lat="37.17574" lon="-7.376213333333333">
        <ele>68.69999999999997</ele>
        <time>2013-01-07T12:57:38.30</time>
      </trkpt>
      <trkpt lat="37.1757" lon="-7.376243333333333">
        <ele>68.69999999999997</ele>
        <time>2013-01-07T12:57:39.30</time>
      </trkpt>
      <trkpt lat="37.175648333333335" lon="-7.376251666666667">
        <ele>68.49999999999997</ele>
        <time>2013-01-07T12:57:40.30</time>
      </trkpt>
      <trkpt lat="37.175601666666665" lon="-7.3762533333333336">
        <ele>68.69999999999997</ele>
        <time>2013-01-07T12:57:41.30</time>
      </trkpt>
      <trkpt lat="37.175556666666665" lon="-7.376258333333333">
        <ele>68.69999999999997</ele>
        <time>2013-01-07T12:57:42.30</time>
      </trkpt>
      <trkpt lat="37.17550166666667" lon="-7.3762566666666665">
        <ele>69.09999999999998</ele>
        <time>2013-01-07T12:57:43.30</time>
      </trkpt>
      <trkpt lat="37.17543333333333" lon="-7.376251666666667">
        <ele>69.09999999999998</ele>
        <time>2013-01-07T12:57:44.30</time>
      </trkpt>
      <trkpt lat="37.175395" lon="-7.376245">
        <ele>68.99999999999999</ele>
        <time>2013-01-07T12:57:45.30</time>
      </trkpt>
      <trkpt lat="37.175353333333334" lon="-7.376248333333334">
        <ele>68.99999999999999</ele>
        <time>2013-01-07T12:57:46.30</time>
      </trkpt>
      <trkpt lat="37.175295" lon="-7.376245">
        <ele>69.39999999999999</ele>
        <time>2013-01-07T12:57:47.30</time>
      </trkpt>
      <trkpt lat="37.17525" lon="-7.376236666666666">
        <ele>69.69999999999999</ele>
        <time>2013-01-07T12:57:48.30</time>
      </trkpt>
      <trkpt lat="37.17518333333334" lon="-7.376235">
        <ele>70.19999999999999</ele>
        <time>2013-01-07T12:57:49.30</time>
      </trkpt>
      <trkpt lat="37.17514333333333" lon="-7.37625">
        <ele>70.19999999999999</ele>
        <time>2013-01-07T12:57:50.30</time>
      </trkpt>
      <trkpt lat="37.175086666666665" lon="-7.376285">
        <ele>70.89999999999999</ele>
        <time>2013-01-07T12:57:51.30</time>
      </trkpt>
      <trkpt lat="37.175048333333336" lon="-7.376321666666667">
        <ele>71.39999999999999</ele>
        <time>2013-01-07T12:57:52.29</time>
      </trkpt>
      <trkpt lat="37.17503833333333" lon="-7.376378333333333">
        <ele>70.99999999999999</ele>
        <time>2013-01-07T12:57:53.29</time>
      </trkpt>
      <trkpt lat="37.17503" lon="-7.37645">
        <ele>71.09999999999998</ele>
        <time>2013-01-07T12:57:54.30</time>
      </trkpt>
      <trkpt lat="37.17502666666667" lon="-7.376498333333333">
        <ele>70.69999999999997</ele>
        <time>2013-01-07T12:57:55.30</time>
      </trkpt>
      <trkpt lat="37.175025" lon="-7.376571666666667">
        <ele>70.99999999999997</ele>
        <time>2013-01-07T12:57:56.30</time>
      </trkpt>
      <trkpt lat="37.175023333333336" lon="-7.376658333333333">
        <ele>70.49999999999997</ele>
        <time>2013-01-07T12:57:57.30</time>
      </trkpt>
      <trkpt lat="37.17503333333333" lon="-7.376721666666667">
        <ele>70.69999999999997</ele>
        <time>2013-01-07T12:57:58.30</time>
      </trkpt>
      <trkpt lat="37.175041666666665" lon="-7.376803333333333">
        <ele>70.79999999999997</ele>
        <time>2013-01-07T12:57:59.30</time>
      </trkpt>
      <trkpt lat="37.175036666666664" lon="-7.3768666666666665">
        <ele>71.29999999999997</ele>
        <time>2013-01-07T12:58:00.30</time>
      </trkpt>
      <trkpt lat="37.175045" lon="-7.37693">
        <ele>71.49999999999997</ele>
        <time>2013-01-07T12:58:01.30</time>
      </trkpt>
      <trkpt lat="37.17505166666667" lon="-7.376986666666666">
        <ele>71.89999999999998</ele>
        <time>2013-01-07T12:58:02.30</time>
      </trkpt>
      <trkpt lat="37.17505" lon="-7.377041666666667">
        <ele>72.29999999999998</ele>
        <time>2013-01-07T12:58:03.30</time>
      </trkpt>
      <trkpt lat="37.175048333333336" lon="-7.37712">
        <ele>71.49999999999999</ele>
        <time>2013-01-07T12:58:04.30</time>
      </trkpt>
      <trkpt lat="37.175045" lon="-7.37719">
        <ele>71.19999999999999</ele>
        <time>2013-01-07T12:58:05.30</time>
      </trkpt>
      <trkpt lat="37.17505666666667" lon="-7.3772633333333335">
        <ele>71.1</ele>
        <time>2013-01-07T12:58:06.30</time>
      </trkpt>
      <trkpt lat="37.175066666666666" lon="-7.37733">
        <ele>71</ele>
        <time>2013-01-07T12:58:07.30</time>
      </trkpt>
      <trkpt lat="37.175081666666664" lon="-7.377413333333333">
        <ele>71</ele>
        <time>2013-01-07T12:58:08.30</time>
      </trkpt>
      <trkpt lat="37.175088333333335" lon="-7.3774983333333335">
        <ele>71</ele>
        <time>2013-01-07T12:58:09.30</time>
      </trkpt>
      <trkpt lat="37.175085" lon="-7.377565">
        <ele>71.7</ele>
        <time>2013-01-07T12:58:10.30</time>
      </trkpt>
      <trkpt lat="37.175106666666665" lon="-7.37765">
        <ele>71.8</ele>
        <time>2013-01-07T12:58:11.30</time>
      </trkpt>
      <trkpt lat="37.17511" lon="-7.377736666666666">
        <ele>72.3</ele>
        <time>2013-01-07T12:58:12.30</time>
      </trkpt>
      <trkpt lat="37.17512" lon="-7.377815">
        <ele>72.3</ele>
        <time>2013-01-07T12:58:13.30</time>
      </trkpt>
      <trkpt lat="37.17508" lon="-7.377908333333333">
        <ele>71.5</ele>
        <time>2013-01-07T12:58:14.30</time>
      </trkpt>
      <trkpt lat="37.175055" lon="-7.378055">
        <ele>72.2</ele>
        <time>2013-01-07T12:58:15.30</time>
      </trkpt>
      <trkpt lat="37.175021666666666" lon="-7.378121666666667">
        <ele>71.7</ele>
        <time>2013-01-07T12:58:16.28</time>
      </trkpt>
      <trkpt lat="37.17498166666667" lon="-7.378155">
        <ele>72.10000000000001</ele>
        <time>2013-01-07T12:58:17.29</time>
      </trkpt>
      <trkpt lat="37.17494166666667" lon="-7.3782016666666665">
        <ele>72.00000000000001</ele>
        <time>2013-01-07T12:58:18.30</time>
      </trkpt>
      <trkpt lat="37.174933333333335" lon="-7.378293333333334">
        <ele>70.90000000000002</ele>
        <time>2013-01-07T12:58:19.30</time>
      </trkpt>
      <trkpt lat="37.17491666666667" lon="-7.378368333333333">
        <ele>70.10000000000002</ele>
        <time>2013-01-07T12:58:20.30</time>
      </trkpt>
      <trkpt lat="37.174913333333336" lon="-7.3784366666666665">
        <ele>70.20000000000002</ele>
        <time>2013-01-07T12:58:21.30</time>
      </trkpt>
      <trkpt lat="37.17492333333333" lon="-7.378511666666666">
        <ele>70.40000000000002</ele>
        <time>2013-01-07T12:58:22.29</time>
      </trkpt>
      <trkpt lat="37.174933333333335" lon="-7.378583333333333">
        <ele>70.30000000000003</ele>
        <time>2013-01-07T12:58:23.29</time>
      </trkpt>
      <trkpt lat="37.17494166666667" lon="-7.37866">
        <ele>70.30000000000003</ele>
        <time>2013-01-07T12:58:24.30</time>
      </trkpt>
      <trkpt lat="37.174945" lon="-7.378745">
        <ele>70.40000000000002</ele>
        <time>2013-01-07T12:58:25.30</time>
      </trkpt>
      <trkpt lat="37.174953333333335" lon="-7.378816666666666">
        <ele>70.20000000000002</ele>
        <time>2013-01-07T12:58:26.28</time>
      </trkpt>
      <trkpt lat="37.17496166666667" lon="-7.378881666666667">
        <ele>70.10000000000002</ele>
        <time>2013-01-07T12:58:27.29</time>
      </trkpt>
      <trkpt lat="37.174973333333334" lon="-7.378958333333333">
        <ele>70.50000000000003</ele>
        <time>2013-01-07T12:58:28.29</time>
      </trkpt>
      <trkpt lat="37.17498" lon="-7.379038333333333">
        <ele>70.30000000000003</ele>
        <time>2013-01-07T12:58:29.30</time>
      </trkpt>
      <trkpt lat="37.17499333333333" lon="-7.37911">
        <ele>70.40000000000002</ele>
        <time>2013-01-07T12:58:30.29</time>
      </trkpt>
      <trkpt lat="37.175" lon="-7.379191666666666">
        <ele>70.10000000000002</ele>
        <time>2013-01-07T12:58:31.30</time>
      </trkpt>
      <trkpt lat="37.175003333333336" lon="-7.379273333333333">
        <ele>70.10000000000002</ele>
        <time>2013-01-07T12:58:32.31</time>
      </trkpt>
      <trkpt lat="37.17501333333333" lon="-7.37934">
        <ele>70.30000000000003</ele>
        <time>2013-01-07T12:58:33.30</time>
      </trkpt>
      <trkpt lat="37.175015" lon="-7.37942">
        <ele>70.10000000000002</ele>
        <time>2013-01-07T12:58:34.30</time>
      </trkpt>
      <trkpt lat="37.17501333333333" lon="-7.379496666666666">
        <ele>69.90000000000002</ele>
        <time>2013-01-07T12:58:35.30</time>
      </trkpt>
      <trkpt lat="37.174998333333335" lon="-7.37958">
        <ele>69.50000000000001</ele>
        <time>2013-01-07T12:58:36.29</time>
      </trkpt>
      <trkpt lat="37.174996666666665" lon="-7.379648333333333">
        <ele>69.40000000000002</ele>
        <time>2013-01-07T12:58:37.29</time>
      </trkpt>
      <trkpt lat="37.174978333333335" lon="-7.379713333333333">
        <ele>69.50000000000001</ele>
        <time>2013-01-07T12:58:38.30</time>
      </trkpt>
      <trkpt lat="37.174915" lon="-7.379786666666667">
        <ele>71.10000000000001</ele>
        <time>2013-01-07T12:58:39.29</time>
      </trkpt>
      <trkpt lat="37.174888333333335" lon="-7.37988">
        <ele>70.80000000000001</ele>
        <time>2013-01-07T12:58:40.31</time>
      </trkpt>
      <trkpt lat="37.17484833333334" lon="-7.379931666666667">
        <ele>70.9</ele>
        <time>2013-01-07T12:58:41.29</time>
      </trkpt>
      <trkpt lat="37.174795" lon="-7.379941666666666">
        <ele>71</ele>
        <time>2013-01-07T12:58:42.30</time>
      </trkpt>
      <trkpt lat="37.17474" lon="-7.379946666666667">
        <ele>71.2</ele>
        <time>2013-01-07T12:58:43.30</time>
      </trkpt>
      <trkpt lat="37.174685" lon="-7.379951666666667">
        <ele>71.3</ele>
        <time>2013-01-07T12:58:44.29</time>
      </trkpt>
      <trkpt lat="37.17463333333333" lon="-7.37995">
        <ele>71.3</ele>
        <time>2013-01-07T12:58:45.30</time>
      </trkpt>
      <trkpt lat="37.174566666666664" lon="-7.379951666666667">
        <ele>70.89999999999999</ele>
        <time>2013-01-07T12:58:46.30</time>
      </trkpt>
      <trkpt lat="37.17451333333333" lon="-7.37995">
        <ele>70.69999999999999</ele>
        <time>2013-01-07T12:58:47.30</time>
      </trkpt>
      <trkpt lat="37.17444666666667" lon="-7.37996">
        <ele>70.89999999999999</ele>
        <time>2013-01-07T12:58:48.30</time>
      </trkpt>
      <trkpt lat="37.174393333333335" lon="-7.3799616666666665">
        <ele>70.49999999999999</ele>
        <time>2013-01-07T12:58:49.30</time>
      </trkpt>
      <trkpt lat="37.17435166666667" lon="-7.37997">
        <ele>70.59999999999998</ele>
        <time>2013-01-07T12:58:50.31</time>
      </trkpt>
      <trkpt lat="37.174301666666665" lon="-7.379985">
        <ele>70.49999999999999</ele>
        <time>2013-01-07T12:58:51.29</time>
      </trkpt>
      <trkpt lat="37.17425166666666" lon="-7.379993333333333">
        <ele>70.39999999999999</ele>
        <time>2013-01-07T12:58:52.33</time>
      </trkpt>
      <trkpt lat="37.174155" lon="-7.380006666666667">
        <ele>70.69999999999999</ele>
        <time>2013-01-07T12:58:53.29</time>
      </trkpt>
      <trkpt lat="37.174075" lon="-7.380021666666667">
        <ele>70.69999999999999</ele>
        <time>2013-01-07T12:58:54.29</time>
      </trkpt>
      <trkpt lat="37.174013333333335" lon="-7.380035">
        <ele>71.1</ele>
        <time>2013-01-07T12:58:55.29</time>
      </trkpt>
      <trkpt lat="37.173966666666665" lon="-7.380043333333333">
        <ele>71.6</ele>
        <time>2013-01-07T12:58:56.27</time>
      </trkpt>
      <trkpt lat="37.17391833333333" lon="-7.380036666666666">
        <ele>73</ele>
        <time>2013-01-07T12:58:57.29</time>
      </trkpt>
      <trkpt lat="37.17386333333334" lon="-7.380035">
        <ele>72.9</ele>
        <time>2013-01-07T12:58:58.29</time>
      </trkpt>
      <trkpt lat="37.17381" lon="-7.3800333333333334">
        <ele>72.80000000000001</ele>
        <time>2013-01-07T12:58:59.26</time>
      </trkpt>
      <trkpt lat="37.17375166666667" lon="-7.380035">
        <ele>72.70000000000002</ele>
        <time>2013-01-07T12:59:00.29</time>
      </trkpt>
      <trkpt lat="37.17369333333333" lon="-7.3800316666666665">
        <ele>72.40000000000002</ele>
        <time>2013-01-07T12:59:01.30</time>
      </trkpt>
      <trkpt lat="37.173653333333334" lon="-7.380025">
        <ele>72.50000000000001</ele>
        <time>2013-01-07T12:59:02.30</time>
      </trkpt>
      <trkpt lat="37.17360166666667" lon="-7.38004">
        <ele>72.70000000000002</ele>
        <time>2013-01-07T12:59:03.30</time>
      </trkpt>
      <trkpt lat="37.17354" lon="-7.380048333333334">
        <ele>72.60000000000002</ele>
        <time>2013-01-07T12:59:04.30</time>
      </trkpt>
      <trkpt lat="37.17348666666667" lon="-7.380075">
        <ele>73.00000000000003</ele>
        <time>2013-01-07T12:59:05.33</time>
      </trkpt>
      <trkpt lat="37.173458333333336" lon="-7.380141666666667">
        <ele>72.80000000000003</ele>
        <time>2013-01-07T12:59:06.30</time>
      </trkpt>
      <trkpt lat="37.17344666666666" lon="-7.38022">
        <ele>72.70000000000003</ele>
        <time>2013-01-07T12:59:07.30</time>
      </trkpt>
      <trkpt lat="37.17344166666667" lon="-7.380275">
        <ele>70.90000000000003</ele>
        <time>2013-01-07T12:59:08.30</time>
      </trkpt>
      <trkpt lat="37.173453333333335" lon="-7.380348333333333">
        <ele>71.40000000000003</ele>
        <time>2013-01-07T12:59:09.30</time>
      </trkpt>
      <trkpt lat="37.17345" lon="-7.380411666666666">
        <ele>71.40000000000003</ele>
        <time>2013-01-07T12:59:10.30</time>
      </trkpt>
      <trkpt lat="37.173453333333335" lon="-7.380486666666667">
        <ele>71.10000000000004</ele>
        <time>2013-01-07T12:59:11.30</time>
      </trkpt>
      <trkpt lat="37.173445" lon="-7.380521666666667">
        <ele>71.50000000000004</ele>
        <time>2013-01-07T12:59:12.30</time>
      </trkpt>
      <trkpt lat="37.173445" lon="-7.380561666666667">
        <ele>70.40000000000005</ele>
        <time>2013-01-07T12:59:13.31</time>
      </trkpt>
      <trkpt lat="37.17345" lon="-7.380626666666666">
        <ele>69.80000000000005</ele>
        <time>2013-01-07T12:59:14.30</time>
      </trkpt>
      <trkpt lat="37.173445" lon="-7.38069">
        <ele>70.50000000000006</ele>
        <time>2013-01-07T12:59:15.30</time>
      </trkpt>
      <trkpt lat="37.173445" lon="-7.3807583333333335">
        <ele>69.60000000000005</ele>
        <time>2013-01-07T12:59:16.28</time>
      </trkpt>
      <trkpt lat="37.17344" lon="-7.38077">
        <ele>70.30000000000005</ele>
        <time>2013-01-07T12:59:17.29</time>
      </trkpt>
      <trkpt lat="37.17343833333333" lon="-7.380776666666667">
        <ele>70.70000000000006</ele>
        <time>2013-01-07T12:59:18.30</time>
      </trkpt>
      <trkpt lat="37.173433333333335" lon="-7.380795">
        <ele>71.30000000000005</ele>
        <time>2013-01-07T12:59:19.29</time>
      </trkpt>
      <trkpt lat="37.17343" lon="-7.380826666666667">
        <ele>71.50000000000006</ele>
        <time>2013-01-07T12:59:20.29</time>
      </trkpt>
      <trkpt lat="37.17345" lon="-7.380898333333334">
        <ele>71.10000000000005</ele>
        <time>2013-01-07T12:59:21.29</time>
      </trkpt>
      <trkpt lat="37.173458333333336" lon="-7.380978333333333">
        <ele>71.90000000000005</ele>
        <time>2013-01-07T12:59:22.29</time>
      </trkpt>
      <trkpt lat="37.17346333333333" lon="-7.381058333333334">
        <ele>71.70000000000005</ele>
        <time>2013-01-07T12:59:23.29</time>
      </trkpt>
      <trkpt lat="37.173473333333334" lon="-7.381141666666666">
        <ele>72.00000000000004</ele>
        <time>2013-01-07T12:59:24.29</time>
      </trkpt>
      <trkpt lat="37.17348333333333" lon="-7.38123">
        <ele>71.80000000000004</ele>
        <time>2013-01-07T12:59:25.29</time>
      </trkpt>
      <trkpt lat="37.17349" lon="-7.381305">
        <ele>72.20000000000005</ele>
        <time>2013-01-07T12:59:26.29</time>
      </trkpt>
      <trkpt lat="37.173495" lon="-7.381396666666666">
        <ele>71.90000000000005</ele>
        <time>2013-01-07T12:59:27.29</time>
      </trkpt>
      <trkpt lat="37.173498333333335" lon="-7.381458333333334">
        <ele>71.60000000000005</ele>
        <time>2013-01-07T12:59:28.29</time>
      </trkpt>
      <trkpt lat="37.17351" lon="-7.3815566666666665">
        <ele>72.10000000000005</ele>
        <time>2013-01-07T12:59:29.29</time>
      </trkpt>
      <trkpt lat="37.17352" lon="-7.381745">
        <ele>69.30000000000005</ele>
        <time>2013-01-07T12:59:30.34</time>
      </trkpt>
      <trkpt lat="37.173453333333335" lon="-7.381826666666667">
        <ele>67.20000000000006</ele>
        <time>2013-01-07T12:59:31.29</time>
      </trkpt>
      <trkpt lat="37.173406666666665" lon="-7.381895">
        <ele>65.60000000000007</ele>
        <time>2013-01-07T12:59:32.29</time>
      </trkpt>
      <trkpt lat="37.173355" lon="-7.38193">
        <ele>65.30000000000007</ele>
        <time>2013-01-07T12:59:33.34</time>
      </trkpt>
      <trkpt lat="37.17330333333334" lon="-7.381943333333333">
        <ele>64.20000000000007</ele>
        <time>2013-01-07T12:59:34.30</time>
      </trkpt>
      <trkpt lat="37.17325" lon="-7.381965">
        <ele>63.300000000000075</ele>
        <time>2013-01-07T12:59:35.30</time>
      </trkpt>
      <trkpt lat="37.17319833333333" lon="-7.381975">
        <ele>63.00000000000008</ele>
        <time>2013-01-07T12:59:36.30</time>
      </trkpt>
      <trkpt lat="37.17313333333333" lon="-7.38199">
        <ele>62.800000000000075</ele>
        <time>2013-01-07T12:59:37.28</time>
      </trkpt>
      <trkpt lat="37.17307" lon="-7.381993333333333">
        <ele>62.800000000000075</ele>
        <time>2013-01-07T12:59:38.29</time>
      </trkpt>
      <trkpt lat="37.173008333333335" lon="-7.382008333333333">
        <ele>62.800000000000075</ele>
        <time>2013-01-07T12:59:39.30</time>
      </trkpt>
      <trkpt lat="37.17294166666667" lon="-7.382021666666667">
        <ele>62.60000000000007</ele>
        <time>2013-01-07T12:59:40.30</time>
      </trkpt>
      <trkpt lat="37.17287" lon="-7.382036666666667">
        <ele>62.60000000000007</ele>
        <time>2013-01-07T12:59:41.30</time>
      </trkpt>
      <trkpt lat="37.17279666666666" lon="-7.382045">
        <ele>62.50000000000007</ele>
        <time>2013-01-07T12:59:42.30</time>
      </trkpt>
      <trkpt lat="37.172756666666665" lon="-7.382055">
        <ele>62.80000000000007</ele>
        <time>2013-01-07T12:59:43.30</time>
      </trkpt>
      <trkpt lat="37.17271" lon="-7.382061666666667">
        <ele>63.00000000000007</ele>
        <time>2013-01-07T12:59:44.34</time>
      </trkpt>
      <trkpt lat="37.17266333333333" lon="-7.3820266666666665">
        <ele>63.10000000000007</ele>
        <time>2013-01-07T12:59:45.31</time>
      </trkpt>
      <trkpt lat="37.172623333333334" lon="-7.381976666666667">
        <ele>63.00000000000007</ele>
        <time>2013-01-07T12:59:46.30</time>
      </trkpt>
      <trkpt lat="37.17259333333333" lon="-7.38193">
        <ele>63.10000000000007</ele>
        <time>2013-01-07T12:59:47.30</time>
      </trkpt>
      <trkpt lat="37.17256666666667" lon="-7.38188">
        <ele>62.90000000000007</ele>
        <time>2013-01-07T12:59:48.30</time>
      </trkpt>
      <trkpt lat="37.172536666666666" lon="-7.381831666666667">
        <ele>63.00000000000007</ele>
        <time>2013-01-07T12:59:49.30</time>
      </trkpt>
      <trkpt lat="37.172513333333335" lon="-7.381765">
        <ele>63.60000000000007</ele>
        <time>2013-01-07T12:59:50.30</time>
      </trkpt>
      <trkpt lat="37.17250166666667" lon="-7.381706666666667">
        <ele>64.90000000000008</ele>
        <time>2013-01-07T12:59:51.30</time>
      </trkpt>
      <trkpt lat="37.17249666666667" lon="-7.381635">
        <ele>66.10000000000008</ele>
        <time>2013-01-07T12:59:52.28</time>
      </trkpt>
      <trkpt lat="37.17250666666666" lon="-7.381558333333333">
        <ele>64.70000000000007</ele>
        <time>2013-01-07T12:59:53.29</time>
      </trkpt>
      <trkpt lat="37.172511666666665" lon="-7.381491666666666">
        <ele>64.90000000000008</ele>
        <time>2013-01-07T12:59:54.28</time>
      </trkpt>
      <trkpt lat="37.172505" lon="-7.381418333333333">
        <ele>65.30000000000008</ele>
        <time>2013-01-07T12:59:55.29</time>
      </trkpt>
      <trkpt lat="37.17250166666667" lon="-7.38135">
        <ele>65.00000000000009</ele>
        <time>2013-01-07T12:59:56.34</time>
      </trkpt>
      <trkpt lat="37.1725" lon="-7.381281666666666">
        <ele>64.70000000000009</ele>
        <time>2013-01-07T12:59:57.30</time>
      </trkpt>
      <trkpt lat="37.17250166666667" lon="-7.381213333333333">
        <ele>64.00000000000009</ele>
        <time>2013-01-07T12:59:58.30</time>
      </trkpt>
      <trkpt lat="37.1725" lon="-7.38115">
        <ele>64.20000000000009</ele>
        <time>2013-01-07T12:59:59.30</time>
      </trkpt>
      <trkpt lat="37.172486666666664" lon="-7.38109">
        <ele>65.1000000000001</ele>
        <time>2013-01-07T13:00:00.30</time>
      </trkpt>
      <trkpt lat="37.17247666666667" lon="-7.381028333333333">
        <ele>65.5000000000001</ele>
        <time>2013-01-07T13:00:01.31</time>
      </trkpt>
      <trkpt lat="37.172473333333336" lon="-7.380981666666667">
        <ele>66.8000000000001</ele>
        <time>2013-01-07T13:00:02.31</time>
      </trkpt>
      <trkpt lat="37.17247" lon="-7.380916666666667">
        <ele>67.5000000000001</ele>
        <time>2013-01-07T13:00:03.30</time>
      </trkpt>
      <trkpt lat="37.17245666666667" lon="-7.380868333333333">
        <ele>67.9000000000001</ele>
        <time>2013-01-07T13:00:04.30</time>
      </trkpt>
      <trkpt lat="37.17245" lon="-7.380805">
        <ele>68.60000000000011</ele>
        <time>2013-01-07T13:00:05.30</time>
      </trkpt>
      <trkpt lat="37.172448333333335" lon="-7.380741666666666">
        <ele>68.9000000000001</ele>
        <time>2013-01-07T13:00:06.30</time>
      </trkpt>
      <trkpt lat="37.172446666666666" lon="-7.380673333333333">
        <ele>68.9000000000001</ele>
        <time>2013-01-07T13:00:07.30</time>
      </trkpt>
      <trkpt lat="37.17243833333333" lon="-7.380606666666667">
        <ele>69.0000000000001</ele>
        <time>2013-01-07T13:00:08.30</time>
      </trkpt>
      <trkpt lat="37.172421666666665" lon="-7.380533333333333">
        <ele>69.3000000000001</ele>
        <time>2013-01-07T13:00:09.28</time>
      </trkpt>
      <trkpt lat="37.172421666666665" lon="-7.380458333333333">
        <ele>69.5000000000001</ele>
        <time>2013-01-07T13:00:10.29</time>
      </trkpt>
      <trkpt lat="37.17240833333334" lon="-7.380395">
        <ele>69.4000000000001</ele>
        <time>2013-01-07T13:00:11.30</time>
      </trkpt>
      <trkpt lat="37.17241166666667" lon="-7.380323333333333">
        <ele>69.2000000000001</ele>
        <time>2013-01-07T13:00:12.30</time>
      </trkpt>
      <trkpt lat="37.17241333333333" lon="-7.380253333333333">
        <ele>69.10000000000011</ele>
        <time>2013-01-07T13:00:13.30</time>
      </trkpt>
      <trkpt lat="37.172396666666664" lon="-7.380181666666667">
        <ele>69.60000000000011</ele>
        <time>2013-01-07T13:00:14.30</time>
      </trkpt>
      <trkpt lat="37.172385" lon="-7.380106666666666">
        <ele>69.80000000000011</ele>
        <time>2013-01-07T13:00:15.30</time>
      </trkpt>
      <trkpt lat="37.172381666666666" lon="-7.3800333333333334">
        <ele>70.00000000000011</ele>
        <time>2013-01-07T13:00:16.30</time>
      </trkpt>
      <trkpt lat="37.172376666666665" lon="-7.37996">
        <ele>70.20000000000012</ele>
        <time>2013-01-07T13:00:17.30</time>
      </trkpt>
      <trkpt lat="37.17237333333333" lon="-7.379888333333334">
        <ele>70.30000000000011</ele>
        <time>2013-01-07T13:00:18.30</time>
      </trkpt>
      <trkpt lat="37.17237333333333" lon="-7.379811666666667">
        <ele>70.80000000000011</ele>
        <time>2013-01-07T13:00:19.30</time>
      </trkpt>
      <trkpt lat="37.17237333333333" lon="-7.379748333333334">
        <ele>71.60000000000011</ele>
        <time>2013-01-07T13:00:20.31</time>
      </trkpt>
      <trkpt lat="37.172365" lon="-7.379685">
        <ele>72.2000000000001</ele>
        <time>2013-01-07T13:00:21.31</time>
      </trkpt>
      <trkpt lat="37.17236666666667" lon="-7.379598333333333">
        <ele>72.5000000000001</ele>
        <time>2013-01-07T13:00:22.30</time>
      </trkpt>
      <trkpt lat="37.17237" lon="-7.379531666666667">
        <ele>72.9000000000001</ele>
        <time>2013-01-07T13:00:23.30</time>
      </trkpt>
      <trkpt lat="37.17236666666667" lon="-7.379461666666667">
        <ele>72.9000000000001</ele>
        <time>2013-01-07T13:00:24.30</time>
      </trkpt>
      <trkpt lat="37.17237166666666" lon="-7.379396666666667">
        <ele>73.4000000000001</ele>
        <time>2013-01-07T13:00:25.30</time>
      </trkpt>
      <trkpt lat="37.17236833333333" lon="-7.379318333333333">
        <ele>74.10000000000011</ele>
        <time>2013-01-07T13:00:26.30</time>
      </trkpt>
      <trkpt lat="37.172365" lon="-7.379253333333334">
        <ele>74.00000000000011</ele>
        <time>2013-01-07T13:00:27.30</time>
      </trkpt>
      <trkpt lat="37.17237166666666" lon="-7.37918">
        <ele>71.90000000000012</ele>
        <time>2013-01-07T13:00:28.30</time>
      </trkpt>
      <trkpt lat="37.17237333333333" lon="-7.379108333333333">
        <ele>71.90000000000012</ele>
        <time>2013-01-07T13:00:29.30</time>
      </trkpt>
      <trkpt lat="37.17238" lon="-7.37904">
        <ele>72.50000000000011</ele>
        <time>2013-01-07T13:00:30.30</time>
      </trkpt>
      <trkpt lat="37.17238833333333" lon="-7.37897">
        <ele>72.50000000000011</ele>
        <time>2013-01-07T13:00:31.30</time>
      </trkpt>
      <trkpt lat="37.172396666666664" lon="-7.378893333333333">
        <ele>72.70000000000012</ele>
        <time>2013-01-07T13:00:32.29</time>
      </trkpt>
      <trkpt lat="37.17240833333334" lon="-7.378846666666667">
        <ele>73.00000000000011</ele>
        <time>2013-01-07T13:00:33.30</time>
      </trkpt>
      <trkpt lat="37.17241166666667" lon="-7.378776666666667">
        <ele>74.20000000000012</ele>
        <time>2013-01-07T13:00:34.30</time>
      </trkpt>
      <trkpt lat="37.17241666666666" lon="-7.378698333333333">
        <ele>74.60000000000012</ele>
        <time>2013-01-07T13:00:35.30</time>
      </trkpt>
      <trkpt lat="37.172423333333334" lon="-7.378635">
        <ele>75.80000000000013</ele>
        <time>2013-01-07T13:00:36.30</time>
      </trkpt>
      <trkpt lat="37.17243" lon="-7.378561666666666">
        <ele>76.00000000000013</ele>
        <time>2013-01-07T13:00:37.30</time>
      </trkpt>
      <trkpt lat="37.172435" lon="-7.378498333333333">
        <ele>76.10000000000012</ele>
        <time>2013-01-07T13:00:38.29</time>
      </trkpt>
      <trkpt lat="37.17243333333333" lon="-7.378425">
        <ele>75.90000000000012</ele>
        <time>2013-01-07T13:00:39.30</time>
      </trkpt>
      <trkpt lat="37.17243666666667" lon="-7.378355">
        <ele>74.80000000000013</ele>
        <time>2013-01-07T13:00:40.28</time>
      </trkpt>
      <trkpt lat="37.172445" lon="-7.378291666666667">
        <ele>74.70000000000013</ele>
        <time>2013-01-07T13:00:41.29</time>
      </trkpt>
      <trkpt lat="37.17245166666667" lon="-7.378221666666667">
        <ele>75.00000000000013</ele>
        <time>2013-01-07T13:00:42.28</time>
      </trkpt>
      <trkpt lat="37.17246" lon="-7.378138333333333">
        <ele>74.60000000000012</ele>
        <time>2013-01-07T13:00:43.29</time>
      </trkpt>
      <trkpt lat="37.17246166666666" lon="-7.378073333333333">
        <ele>74.80000000000013</ele>
        <time>2013-01-07T13:00:44.30</time>
      </trkpt>
      <trkpt lat="37.172468333333335" lon="-7.378005">
        <ele>74.50000000000013</ele>
        <time>2013-01-07T13:00:45.29</time>
      </trkpt>
      <trkpt lat="37.172485" lon="-7.37795">
        <ele>74.20000000000013</ele>
        <time>2013-01-07T13:00:46.29</time>
      </trkpt>
      <trkpt lat="37.172486666666664" lon="-7.377893333333334">
        <ele>74.40000000000013</ele>
        <time>2013-01-07T13:00:47.30</time>
      </trkpt>
      <trkpt lat="37.17248333333333" lon="-7.377835">
        <ele>74.90000000000013</ele>
        <time>2013-01-07T13:00:48.31</time>
      </trkpt>
      <trkpt lat="37.17248166666667" lon="-7.3777783333333335">
        <ele>75.10000000000014</ele>
        <time>2013-01-07T13:00:49.30</time>
      </trkpt>
      <trkpt lat="37.17248166666667" lon="-7.377725">
        <ele>75.50000000000014</ele>
        <time>2013-01-07T13:00:50.29</time>
      </trkpt>
      <trkpt lat="37.17247666666667" lon="-7.377665">
        <ele>76.00000000000014</ele>
        <time>2013-01-07T13:00:51.30</time>
      </trkpt>
      <trkpt lat="37.172493333333335" lon="-7.377596666666666">
        <ele>76.90000000000015</ele>
        <time>2013-01-07T13:00:52.28</time>
      </trkpt>
      <trkpt lat="37.17250833333333" lon="-7.377515">
        <ele>75.80000000000015</ele>
        <time>2013-01-07T13:00:53.30</time>
      </trkpt>
      <trkpt lat="37.17250666666666" lon="-7.377453333333333">
        <ele>76.00000000000016</ele>
        <time>2013-01-07T13:00:54.29</time>
      </trkpt>
      <trkpt lat="37.1725" lon="-7.377376666666667">
        <ele>75.10000000000015</ele>
        <time>2013-01-07T13:00:55.30</time>
      </trkpt>
      <trkpt lat="37.172495" lon="-7.3772883333333334">
        <ele>75.10000000000015</ele>
        <time>2013-01-07T13:00:56.30</time>
      </trkpt>
      <trkpt lat="37.17247833333333" lon="-7.377211666666667">
        <ele>74.80000000000015</ele>
        <time>2013-01-07T13:00:57.30</time>
      </trkpt>
      <trkpt lat="37.17246333333333" lon="-7.377141666666667">
        <ele>74.20000000000016</ele>
        <time>2013-01-07T13:00:58.31</time>
      </trkpt>
      <trkpt lat="37.172445" lon="-7.377088333333333">
        <ele>74.40000000000016</ele>
        <time>2013-01-07T13:00:59.35</time>
      </trkpt>
      <trkpt lat="37.17242" lon="-7.377021666666667">
        <ele>74.80000000000017</ele>
        <time>2013-01-07T13:01:00.29</time>
      </trkpt>
      <trkpt lat="37.172395" lon="-7.3769583333333335">
        <ele>74.30000000000017</ele>
        <time>2013-01-07T13:01:01.29</time>
      </trkpt>
      <trkpt lat="37.17236833333333" lon="-7.3769">
        <ele>74.40000000000016</ele>
        <time>2013-01-07T13:01:02.29</time>
      </trkpt>
      <trkpt lat="37.17234833333333" lon="-7.376828333333333">
        <ele>74.30000000000017</ele>
        <time>2013-01-07T13:01:03.29</time>
      </trkpt>
      <trkpt lat="37.17233" lon="-7.376758333333333">
        <ele>73.80000000000017</ele>
        <time>2013-01-07T13:01:04.29</time>
      </trkpt>
      <trkpt lat="37.17231666666667" lon="-7.376686666666667">
        <ele>73.90000000000016</ele>
        <time>2013-01-07T13:01:05.29</time>
      </trkpt>
      <trkpt lat="37.172305" lon="-7.37661">
        <ele>73.50000000000016</ele>
        <time>2013-01-07T13:01:06.29</time>
      </trkpt>
      <trkpt lat="37.1723" lon="-7.376541666666666">
        <ele>73.80000000000015</ele>
        <time>2013-01-07T13:01:07.34</time>
      </trkpt>
      <trkpt lat="37.172291666666666" lon="-7.37647">
        <ele>74.20000000000016</ele>
        <time>2013-01-07T13:01:08.30</time>
      </trkpt>
      <trkpt lat="37.17228333333333" lon="-7.376411666666667">
        <ele>78.60000000000016</ele>
        <time>2013-01-07T13:01:09.30</time>
      </trkpt>
      <trkpt lat="37.17229666666667" lon="-7.3763483333333335">
        <ele>78.70000000000016</ele>
        <time>2013-01-07T13:01:10.30</time>
      </trkpt>
      <trkpt lat="37.17232166666667" lon="-7.376283333333333">
        <ele>78.40000000000016</ele>
        <time>2013-01-07T13:01:11.30</time>
      </trkpt>
      <trkpt lat="37.172355" lon="-7.376223333333333">
        <ele>77.60000000000016</ele>
        <time>2013-01-07T13:01:12.30</time>
      </trkpt>
      <trkpt lat="37.17239" lon="-7.376166666666666">
        <ele>77.20000000000016</ele>
        <time>2013-01-07T13:01:13.34</time>
      </trkpt>
      <trkpt lat="37.172421666666665" lon="-7.3761133333333335">
        <ele>76.90000000000016</ele>
        <time>2013-01-07T13:01:14.34</time>
      </trkpt>
      <trkpt lat="37.172465" lon="-7.376048333333333">
        <ele>77.50000000000016</ele>
        <time>2013-01-07T13:01:15.30</time>
      </trkpt>
      <trkpt lat="37.172495" lon="-7.375978333333333">
        <ele>77.70000000000016</ele>
        <time>2013-01-07T13:01:16.30</time>
      </trkpt>
      <trkpt lat="37.17251" lon="-7.375915">
        <ele>77.80000000000015</ele>
        <time>2013-01-07T13:01:17.30</time>
      </trkpt>
      <trkpt lat="37.172535" lon="-7.375858333333333">
        <ele>77.90000000000015</ele>
        <time>2013-01-07T13:01:18.31</time>
      </trkpt>
      <trkpt lat="37.17256" lon="-7.375771666666667">
        <ele>77.30000000000015</ele>
        <time>2013-01-07T13:01:19.30</time>
      </trkpt>
      <trkpt lat="37.17257166666667" lon="-7.375698333333333">
        <ele>77.30000000000015</ele>
        <time>2013-01-07T13:01:20.29</time>
      </trkpt>
      <trkpt lat="37.17258833333333" lon="-7.375628333333333">
        <ele>77.00000000000016</ele>
        <time>2013-01-07T13:01:21.30</time>
      </trkpt>
      <trkpt lat="37.172601666666665" lon="-7.37556">
        <ele>76.90000000000016</ele>
        <time>2013-01-07T13:01:22.30</time>
      </trkpt>
      <trkpt lat="37.172608333333336" lon="-7.375506666666666">
        <ele>76.70000000000016</ele>
        <time>2013-01-07T13:01:23.30</time>
      </trkpt>
      <trkpt lat="37.17261" lon="-7.375435">
        <ele>76.60000000000016</ele>
        <time>2013-01-07T13:01:24.30</time>
      </trkpt>
      <trkpt lat="37.172626666666666" lon="-7.37538">
        <ele>76.80000000000017</ele>
        <time>2013-01-07T13:01:25.33</time>
      </trkpt>
      <trkpt lat="37.17262" lon="-7.375311666666667">
        <ele>76.50000000000017</ele>
        <time>2013-01-07T13:01:26.30</time>
      </trkpt>
      <trkpt lat="37.172608333333336" lon="-7.375248333333333">
        <ele>76.70000000000017</ele>
        <time>2013-01-07T13:01:27.30</time>
      </trkpt>
      <trkpt lat="37.172625" lon="-7.375178333333333">
        <ele>76.40000000000018</ele>
        <time>2013-01-07T13:01:28.30</time>
      </trkpt>
      <trkpt lat="37.17263833333333" lon="-7.3751">
        <ele>76.40000000000018</ele>
        <time>2013-01-07T13:01:29.33</time>
      </trkpt>
      <trkpt lat="37.17266" lon="-7.375006666666667">
        <ele>74.50000000000017</ele>
        <time>2013-01-07T13:01:30.32</time>
      </trkpt>
      <trkpt lat="37.172673333333336" lon="-7.374933333333333">
        <ele>73.80000000000017</ele>
        <time>2013-01-07T13:01:31.30</time>
      </trkpt>
      <trkpt lat="37.17268833333333" lon="-7.374851666666666">
        <ele>73.10000000000016</ele>
        <time>2013-01-07T13:01:32.30</time>
      </trkpt>
      <trkpt lat="37.172693333333335" lon="-7.374785">
        <ele>73.30000000000017</ele>
        <time>2013-01-07T13:01:33.30</time>
      </trkpt>
      <trkpt lat="37.172695" lon="-7.374708333333333">
        <ele>72.70000000000017</ele>
        <time>2013-01-07T13:01:34.30</time>
      </trkpt>
      <trkpt lat="37.172705" lon="-7.374631666666667">
        <ele>72.20000000000017</ele>
        <time>2013-01-07T13:01:35.30</time>
      </trkpt>
      <trkpt lat="37.172716666666666" lon="-7.37457">
        <ele>72.00000000000017</ele>
        <time>2013-01-07T13:01:36.30</time>
      </trkpt>
      <trkpt lat="37.172735" lon="-7.374511666666667">
        <ele>72.30000000000017</ele>
        <time>2013-01-07T13:01:37.29</time>
      </trkpt>
      <trkpt lat="37.172745" lon="-7.374451666666666">
        <ele>72.60000000000016</ele>
        <time>2013-01-07T13:01:38.31</time>
      </trkpt>
      <trkpt lat="37.17274666666667" lon="-7.374393333333333">
        <ele>72.90000000000016</ele>
        <time>2013-01-07T13:01:39.31</time>
      </trkpt>
      <trkpt lat="37.17274" lon="-7.3743316666666665">
        <ele>72.50000000000016</ele>
        <time>2013-01-07T13:01:40.30</time>
      </trkpt>
      <trkpt lat="37.172738333333335" lon="-7.374266666666666">
        <ele>72.00000000000016</ele>
        <time>2013-01-07T13:01:41.37</time>
      </trkpt>
      <trkpt lat="37.17274" lon="-7.374185">
        <ele>72.10000000000015</ele>
        <time>2013-01-07T13:01:42.29</time>
      </trkpt>
      <trkpt lat="37.17274666666667" lon="-7.374105">
        <ele>72.50000000000016</ele>
        <time>2013-01-07T13:01:43.30</time>
      </trkpt>
      <trkpt lat="37.17275166666667" lon="-7.374021666666667">
        <ele>72.50000000000016</ele>
        <time>2013-01-07T13:01:44.30</time>
      </trkpt>
      <trkpt lat="37.17276" lon="-7.37394">
        <ele>73.00000000000016</ele>
        <time>2013-01-07T13:01:45.30</time>
      </trkpt>
      <trkpt lat="37.17276833333333" lon="-7.373868333333333">
        <ele>73.10000000000015</ele>
        <time>2013-01-07T13:01:46.30</time>
      </trkpt>
      <trkpt lat="37.172776666666664" lon="-7.373801666666667">
        <ele>73.70000000000014</ele>
        <time>2013-01-07T13:01:47.30</time>
      </trkpt>
      <trkpt lat="37.17278833333334" lon="-7.37375">
        <ele>73.60000000000015</ele>
        <time>2013-01-07T13:01:48.30</time>
      </trkpt>
      <trkpt lat="37.17279166666667" lon="-7.373678333333333">
        <ele>73.90000000000015</ele>
        <time>2013-01-07T13:01:49.30</time>
      </trkpt>
      <trkpt lat="37.17279833333333" lon="-7.373616666666667">
        <ele>74.40000000000015</ele>
        <time>2013-01-07T13:01:50.30</time>
      </trkpt>
      <trkpt lat="37.17279666666666" lon="-7.373553333333334">
        <ele>74.30000000000015</ele>
        <time>2013-01-07T13:01:51.30</time>
      </trkpt>
      <trkpt lat="37.17279166666667" lon="-7.3734866666666665">
        <ele>74.60000000000015</ele>
        <time>2013-01-07T13:01:52.31</time>
      </trkpt>
      <trkpt lat="37.172795" lon="-7.373411666666667">
        <ele>74.50000000000016</ele>
        <time>2013-01-07T13:01:53.30</time>
      </trkpt>
      <trkpt lat="37.17281" lon="-7.373338333333334">
        <ele>74.50000000000016</ele>
        <time>2013-01-07T13:01:54.30</time>
      </trkpt>
      <trkpt lat="37.17281" lon="-7.373281666666666">
        <ele>74.60000000000015</ele>
        <time>2013-01-07T13:01:55.30</time>
      </trkpt>
      <trkpt lat="37.172821666666664" lon="-7.373205">
        <ele>75.10000000000015</ele>
        <time>2013-01-07T13:01:56.30</time>
      </trkpt>
      <trkpt lat="37.172825" lon="-7.373135">
        <ele>74.70000000000014</ele>
        <time>2013-01-07T13:01:57.30</time>
      </trkpt>
      <trkpt lat="37.172826666666666" lon="-7.373061666666667">
        <ele>75.80000000000014</ele>
        <time>2013-01-07T13:01:58.28</time>
      </trkpt>
      <trkpt lat="37.17282" lon="-7.3729933333333335">
        <ele>76.20000000000014</ele>
        <time>2013-01-07T13:01:59.29</time>
      </trkpt>
      <trkpt lat="37.172815" lon="-7.372938333333333">
        <ele>76.40000000000015</ele>
        <time>2013-01-07T13:02:00.30</time>
      </trkpt>
      <trkpt lat="37.172815" lon="-7.372875">
        <ele>76.20000000000014</ele>
        <time>2013-01-07T13:02:01.30</time>
      </trkpt>
      <trkpt lat="37.17281666666667" lon="-7.372825">
        <ele>77.30000000000014</ele>
        <time>2013-01-07T13:02:02.30</time>
      </trkpt>
      <trkpt lat="37.172815" lon="-7.372761666666666">
        <ele>78.30000000000014</ele>
        <time>2013-01-07T13:02:03.30</time>
      </trkpt>
      <trkpt lat="37.172808333333336" lon="-7.372691666666666">
        <ele>78.90000000000013</ele>
        <time>2013-01-07T13:02:04.30</time>
      </trkpt>
      <trkpt lat="37.17281333333333" lon="-7.372628333333333">
        <ele>79.30000000000014</ele>
        <time>2013-01-07T13:02:05.30</time>
      </trkpt>
      <trkpt lat="37.172808333333336" lon="-7.3725716666666665">
        <ele>79.80000000000014</ele>
        <time>2013-01-07T13:02:06.30</time>
      </trkpt>
      <trkpt lat="37.172806666666666" lon="-7.372505">
        <ele>80.20000000000014</ele>
        <time>2013-01-07T13:02:07.28</time>
      </trkpt>
      <trkpt lat="37.172806666666666" lon="-7.372443333333333">
        <ele>80.10000000000015</ele>
        <time>2013-01-07T13:02:08.29</time>
      </trkpt>
      <trkpt lat="37.172795" lon="-7.372418333333333">
        <ele>81.40000000000015</ele>
        <time>2013-01-07T13:02:09.31</time>
      </trkpt>
      <trkpt lat="37.17279166666667" lon="-7.372396666666667">
        <ele>82.00000000000014</ele>
        <time>2013-01-07T13:02:10.29</time>
      </trkpt>
      <trkpt lat="37.17279833333333" lon="-7.372381666666667">
        <ele>83.50000000000014</ele>
        <time>2013-01-07T13:02:11.29</time>
      </trkpt>
      <trkpt lat="37.17279833333333" lon="-7.37236">
        <ele>84.20000000000014</ele>
        <time>2013-01-07T13:02:12.30</time>
      </trkpt>
      <trkpt lat="37.172805" lon="-7.372325">
        <ele>84.20000000000014</ele>
        <time>2013-01-07T13:02:13.30</time>
      </trkpt>
      <trkpt lat="37.17279833333333" lon="-7.372296666666666">
        <ele>85.90000000000015</ele>
        <time>2013-01-07T13:02:14.30</time>
      </trkpt>
      <trkpt lat="37.172781666666666" lon="-7.372261666666667">
        <ele>88.20000000000014</ele>
        <time>2013-01-07T13:02:15.30</time>
      </trkpt>
      <trkpt lat="37.17278" lon="-7.372213333333334">
        <ele>88.40000000000015</ele>
        <time>2013-01-07T13:02:16.30</time>
      </trkpt>
      <trkpt lat="37.17278666666667" lon="-7.372141666666667">
        <ele>89.00000000000014</ele>
        <time>2013-01-07T13:02:17.30</time>
      </trkpt>
      <trkpt lat="37.17277833333333" lon="-7.372071666666667">
        <ele>88.80000000000014</ele>
        <time>2013-01-07T13:02:18.30</time>
      </trkpt>
      <trkpt lat="37.17277833333333" lon="-7.372003333333334">
        <ele>88.60000000000014</ele>
        <time>2013-01-07T13:02:19.30</time>
      </trkpt>
      <trkpt lat="37.17277333333333" lon="-7.371945">
        <ele>89.00000000000014</ele>
        <time>2013-01-07T13:02:20.30</time>
      </trkpt>
      <trkpt lat="37.17278" lon="-7.371873333333333">
        <ele>88.70000000000014</ele>
        <time>2013-01-07T13:02:21.28</time>
      </trkpt>
      <trkpt lat="37.172783333333335" lon="-7.371801666666666">
        <ele>88.80000000000014</ele>
        <time>2013-01-07T13:02:22.30</time>
      </trkpt>
      <trkpt lat="37.17279666666666" lon="-7.37175">
        <ele>89.10000000000014</ele>
        <time>2013-01-07T13:02:23.30</time>
      </trkpt>
      <trkpt lat="37.17279" lon="-7.37168">
        <ele>89.60000000000014</ele>
        <time>2013-01-07T13:02:24.30</time>
      </trkpt>
      <trkpt lat="37.172783333333335" lon="-7.371605">
        <ele>90.10000000000014</ele>
        <time>2013-01-07T13:02:25.30</time>
      </trkpt>
      <trkpt lat="37.172783333333335" lon="-7.371525">
        <ele>89.70000000000013</ele>
        <time>2013-01-07T13:02:26.29</time>
      </trkpt>
      <trkpt lat="37.17277833333333" lon="-7.371456666666667">
        <ele>89.40000000000013</ele>
        <time>2013-01-07T13:02:27.30</time>
      </trkpt>
      <trkpt lat="37.17278833333334" lon="-7.371385">
        <ele>89.50000000000013</ele>
        <time>2013-01-07T13:02:28.30</time>
      </trkpt>
      <trkpt lat="37.17279666666666" lon="-7.371308333333333">
        <ele>90.40000000000013</ele>
        <time>2013-01-07T13:02:29.30</time>
      </trkpt>
      <trkpt lat="37.1728" lon="-7.371236666666666">
        <ele>90.30000000000014</ele>
        <time>2013-01-07T13:02:30.30</time>
      </trkpt>
      <trkpt lat="37.172808333333336" lon="-7.37117">
        <ele>90.60000000000014</ele>
        <time>2013-01-07T13:02:31.30</time>
      </trkpt>
      <trkpt lat="37.17281833333333" lon="-7.371111666666667">
        <ele>91.00000000000014</ele>
        <time>2013-01-07T13:02:32.30</time>
      </trkpt>
      <trkpt lat="37.172826666666666" lon="-7.3710466666666665">
        <ele>91.30000000000014</ele>
        <time>2013-01-07T13:02:33.30</time>
      </trkpt>
      <trkpt lat="37.17284" lon="-7.370983333333333">
        <ele>90.90000000000013</ele>
        <time>2013-01-07T13:02:34.30</time>
      </trkpt>
      <trkpt lat="37.172855" lon="-7.370911666666666">
        <ele>90.60000000000014</ele>
        <time>2013-01-07T13:02:35.30</time>
      </trkpt>
      <trkpt lat="37.172871666666666" lon="-7.370851666666667">
        <ele>90.20000000000013</ele>
        <time>2013-01-07T13:02:36.30</time>
      </trkpt>
      <trkpt lat="37.17289" lon="-7.370796666666667">
        <ele>90.00000000000013</ele>
        <time>2013-01-07T13:02:37.28</time>
      </trkpt>
      <trkpt lat="37.17292666666667" lon="-7.370716666666667">
        <ele>87.50000000000013</ele>
        <time>2013-01-07T13:02:38.29</time>
      </trkpt>
      <trkpt lat="37.17295" lon="-7.370656666666667">
        <ele>86.60000000000012</ele>
        <time>2013-01-07T13:02:39.30</time>
      </trkpt>
      <trkpt lat="37.17297333333333" lon="-7.370598333333334">
        <ele>85.00000000000013</ele>
        <time>2013-01-07T13:02:40.30</time>
      </trkpt>
      <trkpt lat="37.17299666666667" lon="-7.37054">
        <ele>84.20000000000013</ele>
        <time>2013-01-07T13:02:41.30</time>
      </trkpt>
      <trkpt lat="37.173005" lon="-7.37049">
        <ele>84.40000000000013</ele>
        <time>2013-01-07T13:02:42.30</time>
      </trkpt>
      <trkpt lat="37.17301833333333" lon="-7.3704366666666665">
        <ele>84.60000000000014</ele>
        <time>2013-01-07T13:02:43.30</time>
      </trkpt>
      <trkpt lat="37.17303166666667" lon="-7.37037">
        <ele>83.80000000000014</ele>
        <time>2013-01-07T13:02:44.30</time>
      </trkpt>
      <trkpt lat="37.17305" lon="-7.370308333333333">
        <ele>83.90000000000013</ele>
        <time>2013-01-07T13:02:45.30</time>
      </trkpt>
      <trkpt lat="37.17306166666667" lon="-7.370238333333333">
        <ele>83.90000000000013</ele>
        <time>2013-01-07T13:02:46.30</time>
      </trkpt>
      <trkpt lat="37.17308333333333" lon="-7.37018">
        <ele>83.90000000000013</ele>
        <time>2013-01-07T13:02:47.30</time>
      </trkpt>
      <trkpt lat="37.17310666666667" lon="-7.370133333333333">
        <ele>83.40000000000013</ele>
        <time>2013-01-07T13:02:48.30</time>
      </trkpt>
      <trkpt lat="37.173111666666664" lon="-7.3700833333333335">
        <ele>85.90000000000013</ele>
        <time>2013-01-07T13:02:49.30</time>
      </trkpt>
      <trkpt lat="37.173125" lon="-7.370018333333333">
        <ele>86.20000000000013</ele>
        <time>2013-01-07T13:02:50.39</time>
      </trkpt>
      <trkpt lat="37.173141666666666" lon="-7.369958333333333">
        <ele>86.20000000000013</ele>
        <time>2013-01-07T13:02:51.30</time>
      </trkpt>
      <trkpt lat="37.17314833333333" lon="-7.369906666666667">
        <ele>86.30000000000013</ele>
        <time>2013-01-07T13:02:52.29</time>
      </trkpt>
      <trkpt lat="37.173161666666665" lon="-7.369846666666667">
        <ele>86.40000000000012</ele>
        <time>2013-01-07T13:02:53.29</time>
      </trkpt>
      <trkpt lat="37.17318" lon="-7.369785">
        <ele>86.60000000000012</ele>
        <time>2013-01-07T13:02:54.30</time>
      </trkpt>
      <trkpt lat="37.1732" lon="-7.369725">
        <ele>86.80000000000013</ele>
        <time>2013-01-07T13:02:55.30</time>
      </trkpt>
      <trkpt lat="37.17321333333334" lon="-7.369665">
        <ele>86.80000000000013</ele>
        <time>2013-01-07T13:02:56.30</time>
      </trkpt>
      <trkpt lat="37.173233333333336" lon="-7.369603333333333">
        <ele>86.90000000000012</ele>
        <time>2013-01-07T13:02:57.30</time>
      </trkpt>
      <trkpt lat="37.173253333333335" lon="-7.369538333333334">
        <ele>86.70000000000012</ele>
        <time>2013-01-07T13:02:58.31</time>
      </trkpt>
      <trkpt lat="37.173271666666665" lon="-7.369483333333333">
        <ele>86.50000000000011</ele>
        <time>2013-01-07T13:02:59.30</time>
      </trkpt>
      <trkpt lat="37.173295" lon="-7.369426666666667">
        <ele>86.20000000000012</ele>
        <time>2013-01-07T13:03:00.30</time>
      </trkpt>
      <trkpt lat="37.17333166666667" lon="-7.369346666666667">
        <ele>85.30000000000011</ele>
        <time>2013-01-07T13:03:01.30</time>
      </trkpt>
      <trkpt lat="37.17335166666667" lon="-7.369291666666666">
        <ele>85.00000000000011</ele>
        <time>2013-01-07T13:03:02.30</time>
      </trkpt>
      <trkpt lat="37.17337333333333" lon="-7.36923">
        <ele>84.80000000000011</ele>
        <time>2013-01-07T13:03:03.30</time>
      </trkpt>
      <trkpt lat="37.17339" lon="-7.36916">
        <ele>84.50000000000011</ele>
        <time>2013-01-07T13:03:04.30</time>
      </trkpt>
      <trkpt lat="37.173431666666666" lon="-7.369068333333334">
        <ele>82.30000000000011</ele>
        <time>2013-01-07T13:03:05.30</time>
      </trkpt>
      <trkpt lat="37.173465" lon="-7.368998333333334">
        <ele>81.30000000000011</ele>
        <time>2013-01-07T13:03:06.30</time>
      </trkpt>
      <trkpt lat="37.17348666666667" lon="-7.368928333333334">
        <ele>81.4000000000001</ele>
        <time>2013-01-07T13:03:07.30</time>
      </trkpt>
      <trkpt lat="37.17348833333333" lon="-7.368875">
        <ele>81.30000000000011</ele>
        <time>2013-01-07T13:03:08.30</time>
      </trkpt>
      <trkpt lat="37.173516666666664" lon="-7.3688183333333335">
        <ele>80.70000000000012</ele>
        <time>2013-01-07T13:03:09.30</time>
      </trkpt>
      <trkpt lat="37.17353333333333" lon="-7.368756666666667">
        <ele>80.20000000000012</ele>
        <time>2013-01-07T13:03:10.30</time>
      </trkpt>
      <trkpt lat="37.173548333333336" lon="-7.368698333333334">
        <ele>80.20000000000012</ele>
        <time>2013-01-07T13:03:11.30</time>
      </trkpt>
      <trkpt lat="37.173566666666666" lon="-7.36863">
        <ele>80.20000000000012</ele>
        <time>2013-01-07T13:03:12.32</time>
      </trkpt>
      <trkpt lat="37.17357333333333" lon="-7.3685583333333335">
        <ele>79.90000000000012</ele>
        <time>2013-01-07T13:03:13.30</time>
      </trkpt>
      <trkpt lat="37.17357333333333" lon="-7.3685">
        <ele>79.30000000000013</ele>
        <time>2013-01-07T13:03:14.28</time>
      </trkpt>
      <trkpt lat="37.17358" lon="-7.368425">
        <ele>79.00000000000013</ele>
        <time>2013-01-07T13:03:15.29</time>
      </trkpt>
      <trkpt lat="37.17357833333333" lon="-7.368365">
        <ele>78.80000000000013</ele>
        <time>2013-01-07T13:03:16.30</time>
      </trkpt>
      <trkpt lat="37.173585" lon="-7.3683">
        <ele>78.60000000000012</ele>
        <time>2013-01-07T13:03:17.31</time>
      </trkpt>
      <trkpt lat="37.17357833333333" lon="-7.368235">
        <ele>78.40000000000012</ele>
        <time>2013-01-07T13:03:18.30</time>
      </trkpt>
      <trkpt lat="37.17359166666667" lon="-7.368168333333333">
        <ele>78.00000000000011</ele>
        <time>2013-01-07T13:03:19.30</time>
      </trkpt>
      <trkpt lat="37.173615" lon="-7.368083333333334">
        <ele>77.50000000000011</ele>
        <time>2013-01-07T13:03:20.31</time>
      </trkpt>
      <trkpt lat="37.173625" lon="-7.368003333333333">
        <ele>78.00000000000011</ele>
        <time>2013-01-07T13:03:21.30</time>
      </trkpt>
      <trkpt lat="37.17363" lon="-7.3679483333333335">
        <ele>78.40000000000012</ele>
        <time>2013-01-07T13:03:22.30</time>
      </trkpt>
      <trkpt lat="37.17364166666667" lon="-7.367885">
        <ele>78.80000000000013</ele>
        <time>2013-01-07T13:03:23.30</time>
      </trkpt>
      <trkpt lat="37.173651666666665" lon="-7.367823333333333">
        <ele>78.50000000000013</ele>
        <time>2013-01-07T13:03:24.30</time>
      </trkpt>
      <trkpt lat="37.17365" lon="-7.367766666666666">
        <ele>79.30000000000013</ele>
        <time>2013-01-07T13:03:25.30</time>
      </trkpt>
      <trkpt lat="37.17366166666667" lon="-7.367711666666667">
        <ele>79.30000000000013</ele>
        <time>2013-01-07T13:03:26.30</time>
      </trkpt>
      <trkpt lat="37.17367" lon="-7.367648333333333">
        <ele>79.00000000000013</ele>
        <time>2013-01-07T13:03:27.30</time>
      </trkpt>
      <trkpt lat="37.173676666666665" lon="-7.36759">
        <ele>79.20000000000013</ele>
        <time>2013-01-07T13:03:28.30</time>
      </trkpt>
      <trkpt lat="37.173685" lon="-7.367518333333333">
        <ele>79.30000000000013</ele>
        <time>2013-01-07T13:03:29.30</time>
      </trkpt>
      <trkpt lat="37.173685" lon="-7.367448333333333">
        <ele>80.60000000000012</ele>
        <time>2013-01-07T13:03:30.30</time>
      </trkpt>
      <trkpt lat="37.173696666666665" lon="-7.367385">
        <ele>80.80000000000013</ele>
        <time>2013-01-07T13:03:31.30</time>
      </trkpt>
      <trkpt lat="37.17371166666667" lon="-7.3673166666666665">
        <ele>80.40000000000012</ele>
        <time>2013-01-07T13:03:32.30</time>
      </trkpt>
      <trkpt lat="37.173721666666665" lon="-7.367261666666667">
        <ele>80.40000000000012</ele>
        <time>2013-01-07T13:03:33.30</time>
      </trkpt>
      <trkpt lat="37.17373333333333" lon="-7.367188333333333">
        <ele>80.30000000000013</ele>
        <time>2013-01-07T13:03:34.30</time>
      </trkpt>
      <trkpt lat="37.17375" lon="-7.36713">
        <ele>80.10000000000012</ele>
        <time>2013-01-07T13:03:35.30</time>
      </trkpt>
      <trkpt lat="37.17376" lon="-7.36707">
        <ele>80.60000000000012</ele>
        <time>2013-01-07T13:03:36.30</time>
      </trkpt>
      <trkpt lat="37.173775" lon="-7.367016666666666">
        <ele>80.50000000000013</ele>
        <time>2013-01-07T13:03:37.31</time>
      </trkpt>
      <trkpt lat="37.173785" lon="-7.366955">
        <ele>80.20000000000013</ele>
        <time>2013-01-07T13:03:38.30</time>
      </trkpt>
      <trkpt lat="37.17379833333333" lon="-7.366888333333334">
        <ele>79.80000000000013</ele>
        <time>2013-01-07T13:03:39.30</time>
      </trkpt>
      <trkpt lat="37.173806666666664" lon="-7.366821666666667">
        <ele>80.40000000000012</ele>
        <time>2013-01-07T13:03:40.30</time>
      </trkpt>
      <trkpt lat="37.173825" lon="-7.36677">
        <ele>80.30000000000013</ele>
        <time>2013-01-07T13:03:41.30</time>
      </trkpt>
      <trkpt lat="37.17382666666666" lon="-7.366721666666667">
        <ele>80.20000000000013</ele>
        <time>2013-01-07T13:03:42.30</time>
      </trkpt>
      <trkpt lat="37.173836666666666" lon="-7.366678333333334">
        <ele>79.60000000000014</ele>
        <time>2013-01-07T13:03:43.30</time>
      </trkpt>
      <trkpt lat="37.17388" lon="-7.36665">
        <ele>79.20000000000013</ele>
        <time>2013-01-07T13:03:44.30</time>
      </trkpt>
      <trkpt lat="37.17395166666667" lon="-7.366626666666667">
        <ele>77.40000000000013</ele>
        <time>2013-01-07T13:03:45.30</time>
      </trkpt>
      <trkpt lat="37.17402666666667" lon="-7.366633333333334">
        <ele>74.40000000000013</ele>
        <time>2013-01-07T13:03:46.30</time>
      </trkpt>
      <trkpt lat="37.17408833333333" lon="-7.366643333333333">
        <ele>72.40000000000013</ele>
        <time>2013-01-07T13:03:47.30</time>
      </trkpt>
      <trkpt lat="37.17413666666667" lon="-7.366653333333334">
        <ele>70.70000000000013</ele>
        <time>2013-01-07T13:03:48.30</time>
      </trkpt>
      <trkpt lat="37.174186666666664" lon="-7.366635">
        <ele>70.10000000000014</ele>
        <time>2013-01-07T13:03:49.31</time>
      </trkpt>
      <trkpt lat="37.17422333333333" lon="-7.366623333333333">
        <ele>70.80000000000014</ele>
        <time>2013-01-07T13:03:50.30</time>
      </trkpt>
      <trkpt lat="37.17425" lon="-7.366598333333333">
        <ele>70.60000000000014</ele>
        <time>2013-01-07T13:03:51.30</time>
      </trkpt>
      <trkpt lat="37.174263333333336" lon="-7.366553333333333">
        <ele>70.50000000000014</ele>
        <time>2013-01-07T13:03:52.28</time>
      </trkpt>
      <trkpt lat="37.174263333333336" lon="-7.3665183333333335">
        <ele>70.60000000000014</ele>
        <time>2013-01-07T13:03:53.30</time>
      </trkpt>
      <trkpt lat="37.17426666666667" lon="-7.366485">
        <ele>70.70000000000013</ele>
        <time>2013-01-07T13:03:54.30</time>
      </trkpt>
      <trkpt lat="37.17427333333333" lon="-7.366446666666667">
        <ele>70.70000000000013</ele>
        <time>2013-01-07T13:03:55.29</time>
      </trkpt>
      <trkpt lat="37.17429666666666" lon="-7.366345">
        <ele>68.00000000000013</ele>
        <time>2013-01-07T13:03:56.29</time>
      </trkpt>
      <trkpt lat="37.17429333333333" lon="-7.366271666666667">
        <ele>69.50000000000013</ele>
        <time>2013-01-07T13:03:57.38</time>
      </trkpt>
      <trkpt lat="37.1743" lon="-7.366206666666667">
        <ele>69.80000000000013</ele>
        <time>2013-01-07T13:03:58.29</time>
      </trkpt>
      <trkpt lat="37.174295" lon="-7.366146666666666">
        <ele>70.60000000000012</ele>
        <time>2013-01-07T13:03:59.29</time>
      </trkpt>
      <trkpt lat="37.174285" lon="-7.3660966666666665">
        <ele>72.00000000000013</ele>
        <time>2013-01-07T13:04:00.29</time>
      </trkpt>
      <trkpt lat="37.174281666666666" lon="-7.366045">
        <ele>72.70000000000013</ele>
        <time>2013-01-07T13:04:01.29</time>
      </trkpt>
      <trkpt lat="37.174283333333335" lon="-7.365988333333333">
        <ele>72.80000000000013</ele>
        <time>2013-01-07T13:04:02.29</time>
      </trkpt>
      <trkpt lat="37.17429833333333" lon="-7.365926666666667">
        <ele>72.80000000000013</ele>
        <time>2013-01-07T13:04:03.29</time>
      </trkpt>
      <trkpt lat="37.17431666666667" lon="-7.365873333333333">
        <ele>73.00000000000013</ele>
        <time>2013-01-07T13:04:04.29</time>
      </trkpt>
      <trkpt lat="37.17433333333334" lon="-7.3658">
        <ele>72.90000000000013</ele>
        <time>2013-01-07T13:04:05.29</time>
      </trkpt>
      <trkpt lat="37.174348333333334" lon="-7.36573">
        <ele>73.10000000000014</ele>
        <time>2013-01-07T13:04:06.29</time>
      </trkpt>
      <trkpt lat="37.174366666666664" lon="-7.365661666666667">
        <ele>73.50000000000014</ele>
        <time>2013-01-07T13:04:07.29</time>
      </trkpt>
      <trkpt lat="37.17438166666667" lon="-7.365593333333333">
        <ele>73.80000000000014</ele>
        <time>2013-01-07T13:04:08.30</time>
      </trkpt>
      <trkpt lat="37.17440666666667" lon="-7.365545">
        <ele>73.60000000000014</ele>
        <time>2013-01-07T13:04:09.30</time>
      </trkpt>
      <trkpt lat="37.17444166666667" lon="-7.365468333333333">
        <ele>73.90000000000013</ele>
        <time>2013-01-07T13:04:10.30</time>
      </trkpt>
      <trkpt lat="37.17447" lon="-7.365401666666667">
        <ele>74.10000000000014</ele>
        <time>2013-01-07T13:04:11.29</time>
      </trkpt>
      <trkpt lat="37.174495" lon="-7.365336666666667">
        <ele>74.20000000000013</ele>
        <time>2013-01-07T13:04:12.29</time>
      </trkpt>
      <trkpt lat="37.1745" lon="-7.365261666666667">
        <ele>74.60000000000014</ele>
        <time>2013-01-07T13:04:13.30</time>
      </trkpt>
      <trkpt lat="37.17452333333333" lon="-7.365196666666667">
        <ele>74.70000000000013</ele>
        <time>2013-01-07T13:04:14.28</time>
      </trkpt>
      <trkpt lat="37.17453" lon="-7.365128333333334">
        <ele>74.50000000000013</ele>
        <time>2013-01-07T13:04:15.65</time>
      </trkpt>
      <trkpt lat="37.17453833333333" lon="-7.365065">
        <ele>74.60000000000012</ele>
        <time>2013-01-07T13:04:16.27</time>
      </trkpt>
      <trkpt lat="37.17456166666667" lon="-7.3649933333333335">
        <ele>74.50000000000013</ele>
        <time>2013-01-07T13:04:17.30</time>
      </trkpt>
      <trkpt lat="37.174575" lon="-7.364926666666666">
        <ele>74.90000000000013</ele>
        <time>2013-01-07T13:04:18.30</time>
      </trkpt>
      <trkpt lat="37.174593333333334" lon="-7.364855">
        <ele>74.90000000000013</ele>
        <time>2013-01-07T13:04:19.30</time>
      </trkpt>
      <trkpt lat="37.17460666666667" lon="-7.36479">
        <ele>74.90000000000013</ele>
        <time>2013-01-07T13:04:20.33</time>
      </trkpt>
      <trkpt lat="37.174616666666665" lon="-7.364725">
        <ele>75.00000000000013</ele>
        <time>2013-01-07T13:04:21.30</time>
      </trkpt>
      <trkpt lat="37.174618333333335" lon="-7.364658333333334">
        <ele>75.20000000000013</ele>
        <time>2013-01-07T13:04:22.31</time>
      </trkpt>
      <trkpt lat="37.17463" lon="-7.364601666666666">
        <ele>75.30000000000013</ele>
        <time>2013-01-07T13:04:23.30</time>
      </trkpt>
      <trkpt lat="37.17463333333333" lon="-7.364531666666666">
        <ele>75.20000000000013</ele>
        <time>2013-01-07T13:04:24.30</time>
      </trkpt>
      <trkpt lat="37.17464" lon="-7.364458333333333">
        <ele>75.10000000000014</ele>
        <time>2013-01-07T13:04:25.30</time>
      </trkpt>
      <trkpt lat="37.174655" lon="-7.364395">
        <ele>74.90000000000013</ele>
        <time>2013-01-07T13:04:26.30</time>
      </trkpt>
      <trkpt lat="37.17466" lon="-7.364331666666667">
        <ele>74.70000000000013</ele>
        <time>2013-01-07T13:04:27.30</time>
      </trkpt>
      <trkpt lat="37.17466666666667" lon="-7.36426">
        <ele>74.30000000000013</ele>
        <time>2013-01-07T13:04:28.30</time>
      </trkpt>
      <trkpt lat="37.17468" lon="-7.364188333333333">
        <ele>74.30000000000013</ele>
        <time>2013-01-07T13:04:29.30</time>
      </trkpt>
      <trkpt lat="37.17469166666667" lon="-7.36412">
        <ele>74.50000000000013</ele>
        <time>2013-01-07T13:04:30.30</time>
      </trkpt>
      <trkpt lat="37.17471333333334" lon="-7.364061666666666">
        <ele>74.90000000000013</ele>
        <time>2013-01-07T13:04:31.30</time>
      </trkpt>
      <trkpt lat="37.174733333333336" lon="-7.363988333333333">
        <ele>75.10000000000014</ele>
        <time>2013-01-07T13:04:32.30</time>
      </trkpt>
      <trkpt lat="37.17474333333333" lon="-7.363916666666666">
        <ele>75.30000000000014</ele>
        <time>2013-01-07T13:04:33.30</time>
      </trkpt>
      <trkpt lat="37.174746666666664" lon="-7.36384">
        <ele>75.40000000000013</ele>
        <time>2013-01-07T13:04:34.30</time>
      </trkpt>
      <trkpt lat="37.17475833333334" lon="-7.363758333333333">
        <ele>75.40000000000013</ele>
        <time>2013-01-07T13:04:35.30</time>
      </trkpt>
      <trkpt lat="37.17476833333333" lon="-7.3636816666666665">
        <ele>75.70000000000013</ele>
        <time>2013-01-07T13:04:36.30</time>
      </trkpt>
      <trkpt lat="37.174785" lon="-7.363606666666667">
        <ele>75.80000000000013</ele>
        <time>2013-01-07T13:04:37.30</time>
      </trkpt>
      <trkpt lat="37.174798333333335" lon="-7.363523333333333">
        <ele>76.30000000000013</ele>
        <time>2013-01-07T13:04:38.30</time>
      </trkpt>
      <trkpt lat="37.174818333333334" lon="-7.363451666666666">
        <ele>76.50000000000013</ele>
        <time>2013-01-07T13:04:39.30</time>
      </trkpt>
      <trkpt lat="37.174836666666664" lon="-7.3633766666666665">
        <ele>76.30000000000013</ele>
        <time>2013-01-07T13:04:40.30</time>
      </trkpt>
      <trkpt lat="37.174855" lon="-7.363295">
        <ele>76.30000000000013</ele>
        <time>2013-01-07T13:04:41.30</time>
      </trkpt>
      <trkpt lat="37.174875" lon="-7.363201666666667">
        <ele>76.60000000000012</ele>
        <time>2013-01-07T13:04:42.27</time>
      </trkpt>
      <trkpt lat="37.174908333333335" lon="-7.363111666666667">
        <ele>75.10000000000012</ele>
        <time>2013-01-07T13:04:43.30</time>
      </trkpt>
      <trkpt lat="37.174928333333334" lon="-7.36302">
        <ele>74.70000000000012</ele>
        <time>2013-01-07T13:04:44.30</time>
      </trkpt>
      <trkpt lat="37.17495" lon="-7.362948333333334">
        <ele>74.20000000000012</ele>
        <time>2013-01-07T13:04:45.30</time>
      </trkpt>
      <trkpt lat="37.174971666666664" lon="-7.3628583333333335">
        <ele>74.80000000000011</ele>
        <time>2013-01-07T13:04:46.30</time>
      </trkpt>
      <trkpt lat="37.17498666666667" lon="-7.362773333333333">
        <ele>74.30000000000011</ele>
        <time>2013-01-07T13:04:47.32</time>
      </trkpt>
      <trkpt lat="37.17500666666667" lon="-7.362681666666667">
        <ele>73.80000000000011</ele>
        <time>2013-01-07T13:04:48.30</time>
      </trkpt>
      <trkpt lat="37.17502" lon="-7.36259">
        <ele>73.70000000000012</ele>
        <time>2013-01-07T13:04:49.30</time>
      </trkpt>
      <trkpt lat="37.17503833333333" lon="-7.362498333333333">
        <ele>73.60000000000012</ele>
        <time>2013-01-07T13:04:50.30</time>
      </trkpt>
      <trkpt lat="37.175063333333334" lon="-7.36241">
        <ele>74.70000000000012</ele>
        <time>2013-01-07T13:04:51.29</time>
      </trkpt>
      <trkpt lat="37.17507833333333" lon="-7.36234">
        <ele>75.50000000000011</ele>
        <time>2013-01-07T13:04:52.30</time>
      </trkpt>
      <trkpt lat="37.17509833333333" lon="-7.362255">
        <ele>76.90000000000012</ele>
        <time>2013-01-07T13:04:53.29</time>
      </trkpt>
      <trkpt lat="37.17512333333333" lon="-7.362175">
        <ele>77.50000000000011</ele>
        <time>2013-01-07T13:04:54.30</time>
      </trkpt>
      <trkpt lat="37.175145" lon="-7.362101666666667">
        <ele>78.20000000000012</ele>
        <time>2013-01-07T13:04:55.30</time>
      </trkpt>
      <trkpt lat="37.175158333333336" lon="-7.362015">
        <ele>77.90000000000012</ele>
        <time>2013-01-07T13:04:56.30</time>
      </trkpt>
      <trkpt lat="37.17518166666667" lon="-7.361915">
        <ele>77.80000000000013</ele>
        <time>2013-01-07T13:04:57.31</time>
      </trkpt>
      <trkpt lat="37.175201666666666" lon="-7.361835">
        <ele>77.70000000000013</ele>
        <time>2013-01-07T13:04:58.30</time>
      </trkpt>
      <trkpt lat="37.17521333333333" lon="-7.361748333333333">
        <ele>77.00000000000013</ele>
        <time>2013-01-07T13:04:59.30</time>
      </trkpt>
      <trkpt lat="37.175223333333335" lon="-7.36167">
        <ele>77.30000000000013</ele>
        <time>2013-01-07T13:05:00.30</time>
      </trkpt>
      <trkpt lat="37.17523833333333" lon="-7.36159">
        <ele>77.30000000000013</ele>
        <time>2013-01-07T13:05:01.30</time>
      </trkpt>
      <trkpt lat="37.17526333333333" lon="-7.361486666666667">
        <ele>77.40000000000012</ele>
        <time>2013-01-07T13:05:02.30</time>
      </trkpt>
      <trkpt lat="37.17527" lon="-7.361423333333334">
        <ele>77.90000000000012</ele>
        <time>2013-01-07T13:05:03.30</time>
      </trkpt>
      <trkpt lat="37.17527333333334" lon="-7.361351666666667">
        <ele>78.60000000000012</ele>
        <time>2013-01-07T13:05:04.30</time>
      </trkpt>
      <trkpt lat="37.175285" lon="-7.361285">
        <ele>78.80000000000013</ele>
        <time>2013-01-07T13:05:05.30</time>
      </trkpt>
      <trkpt lat="37.17531666666667" lon="-7.361198333333333">
        <ele>78.80000000000013</ele>
        <time>2013-01-07T13:05:06.30</time>
      </trkpt>
      <trkpt lat="37.17535" lon="-7.361113333333333">
        <ele>78.20000000000013</ele>
        <time>2013-01-07T13:05:07.30</time>
      </trkpt>
      <trkpt lat="37.17537333333333" lon="-7.361048333333334">
        <ele>78.10000000000014</ele>
        <time>2013-01-07T13:05:08.30</time>
      </trkpt>
      <trkpt lat="37.175415" lon="-7.360985">
        <ele>77.70000000000013</ele>
        <time>2013-01-07T13:05:09.30</time>
      </trkpt>
      <trkpt lat="37.175443333333334" lon="-7.360908333333334">
        <ele>77.10000000000014</ele>
        <time>2013-01-07T13:05:10.30</time>
      </trkpt>
      <trkpt lat="37.175473333333336" lon="-7.360848333333333">
        <ele>77.00000000000014</ele>
        <time>2013-01-07T13:05:11.29</time>
      </trkpt>
      <trkpt lat="37.175513333333335" lon="-7.36079">
        <ele>77.10000000000014</ele>
        <time>2013-01-07T13:05:12.29</time>
      </trkpt>
      <trkpt lat="37.17555" lon="-7.36072">
        <ele>77.20000000000013</ele>
        <time>2013-01-07T13:05:13.29</time>
      </trkpt>
      <trkpt lat="37.175583333333336" lon="-7.36067">
        <ele>76.90000000000013</ele>
        <time>2013-01-07T13:05:14.29</time>
      </trkpt>
      <trkpt lat="37.17561666666667" lon="-7.360585">
        <ele>76.70000000000013</ele>
        <time>2013-01-07T13:05:15.29</time>
      </trkpt>
      <trkpt lat="37.175623333333334" lon="-7.360533333333334">
        <ele>77.20000000000013</ele>
        <time>2013-01-07T13:05:16.29</time>
      </trkpt>
      <trkpt lat="37.17565333333334" lon="-7.360485">
        <ele>77.50000000000013</ele>
        <time>2013-01-07T13:05:17.29</time>
      </trkpt>
      <trkpt lat="37.17568833333333" lon="-7.360435">
        <ele>77.60000000000012</ele>
        <time>2013-01-07T13:05:18.29</time>
      </trkpt>
      <trkpt lat="37.17572833333333" lon="-7.36039">
        <ele>77.70000000000012</ele>
        <time>2013-01-07T13:05:19.29</time>
      </trkpt>
      <trkpt lat="37.17579" lon="-7.36032">
        <ele>77.50000000000011</ele>
        <time>2013-01-07T13:05:20.29</time>
      </trkpt>
      <trkpt lat="37.175855" lon="-7.3602316666666665">
        <ele>77.20000000000012</ele>
        <time>2013-01-07T13:05:21.29</time>
      </trkpt>
      <trkpt lat="37.17592833333333" lon="-7.360153333333334">
        <ele>76.50000000000011</ele>
        <time>2013-01-07T13:05:22.30</time>
      </trkpt>
      <trkpt lat="37.17598" lon="-7.360115">
        <ele>75.30000000000011</ele>
        <time>2013-01-07T13:05:23.30</time>
      </trkpt>
      <trkpt lat="37.176006666666666" lon="-7.360038333333334">
        <ele>75.50000000000011</ele>
        <time>2013-01-07T13:05:24.30</time>
      </trkpt>
      <trkpt lat="37.176048333333334" lon="-7.359983333333333">
        <ele>75.00000000000011</ele>
        <time>2013-01-07T13:05:25.29</time>
      </trkpt>
      <trkpt lat="37.17608666666667" lon="-7.359913333333333">
        <ele>75.50000000000011</ele>
        <time>2013-01-07T13:05:26.31</time>
      </trkpt>
      <trkpt lat="37.17612" lon="-7.359836666666666">
        <ele>75.80000000000011</ele>
        <time>2013-01-07T13:05:27.31</time>
      </trkpt>
      <trkpt lat="37.17613333333333" lon="-7.359798333333333">
        <ele>76.60000000000011</ele>
        <time>2013-01-07T13:05:28.30</time>
      </trkpt>
      <trkpt lat="37.17615166666667" lon="-7.359733333333334">
        <ele>76.80000000000011</ele>
        <time>2013-01-07T13:05:29.29</time>
      </trkpt>
      <trkpt lat="37.176201666666664" lon="-7.359655">
        <ele>76.60000000000011</ele>
        <time>2013-01-07T13:05:30.30</time>
      </trkpt>
      <trkpt lat="37.17621833333333" lon="-7.359615">
        <ele>77.2000000000001</ele>
        <time>2013-01-07T13:05:31.29</time>
      </trkpt>
      <trkpt lat="37.176316666666665" lon="-7.3595283333333334">
        <ele>76.60000000000011</ele>
        <time>2013-01-07T13:05:32.29</time>
      </trkpt>
      <trkpt lat="37.176361666666665" lon="-7.359458333333333">
        <ele>76.30000000000011</ele>
        <time>2013-01-07T13:05:33.28</time>
      </trkpt>
      <trkpt lat="37.17639833333333" lon="-7.359401666666667">
        <ele>76.80000000000011</ele>
        <time>2013-01-07T13:05:34.34</time>
      </trkpt>
      <trkpt lat="37.17643833333333" lon="-7.359311666666667">
        <ele>77.00000000000011</ele>
        <time>2013-01-07T13:05:35.30</time>
      </trkpt>
      <trkpt lat="37.176473333333334" lon="-7.359233333333333">
        <ele>76.90000000000012</ele>
        <time>2013-01-07T13:05:36.30</time>
      </trkpt>
      <trkpt lat="37.17652833333333" lon="-7.359183333333333">
        <ele>76.70000000000012</ele>
        <time>2013-01-07T13:05:37.30</time>
      </trkpt>
      <trkpt lat="37.17658" lon="-7.359121666666667">
        <ele>76.10000000000012</ele>
        <time>2013-01-07T13:05:38.30</time>
      </trkpt>
      <trkpt lat="37.17661833333333" lon="-7.359091666666667">
        <ele>75.70000000000012</ele>
        <time>2013-01-07T13:05:39.30</time>
      </trkpt>
      <trkpt lat="37.17664833333333" lon="-7.359006666666667">
        <ele>76.30000000000011</ele>
        <time>2013-01-07T13:05:40.30</time>
      </trkpt>
      <trkpt lat="37.176651666666665" lon="-7.3589633333333335">
        <ele>76.20000000000012</ele>
        <time>2013-01-07T13:05:41.29</time>
      </trkpt>
      <trkpt lat="37.17664333333333" lon="-7.35891">
        <ele>74.90000000000012</ele>
        <time>2013-01-07T13:05:42.27</time>
      </trkpt>
      <trkpt lat="37.17662333333333" lon="-7.358866666666667">
        <ele>74.20000000000012</ele>
        <time>2013-01-07T13:05:43.29</time>
      </trkpt>
      <trkpt lat="37.17659166666667" lon="-7.358816666666667">
        <ele>73.50000000000011</ele>
        <time>2013-01-07T13:05:44.30</time>
      </trkpt>
      <trkpt lat="37.176566666666666" lon="-7.3587533333333335">
        <ele>73.50000000000011</ele>
        <time>2013-01-07T13:05:45.28</time>
      </trkpt>
      <trkpt lat="37.17653833333333" lon="-7.358693333333333">
        <ele>72.90000000000012</ele>
        <time>2013-01-07T13:05:46.29</time>
      </trkpt>
      <trkpt lat="37.17653166666667" lon="-7.358625">
        <ele>71.30000000000013</ele>
        <time>2013-01-07T13:05:47.30</time>
      </trkpt>
      <trkpt lat="37.1765" lon="-7.358576666666667">
        <ele>71.00000000000013</ele>
        <time>2013-01-07T13:05:48.30</time>
      </trkpt>
      <trkpt lat="37.176465" lon="-7.358513333333334">
        <ele>71.10000000000012</ele>
        <time>2013-01-07T13:05:49.30</time>
      </trkpt>
      <trkpt lat="37.176435" lon="-7.358445">
        <ele>71.00000000000013</ele>
        <time>2013-01-07T13:05:50.34</time>
      </trkpt>
      <trkpt lat="37.176408333333335" lon="-7.358375">
        <ele>71.00000000000013</ele>
        <time>2013-01-07T13:05:51.30</time>
      </trkpt>
      <trkpt lat="37.17639333333333" lon="-7.358285">
        <ele>71.40000000000013</ele>
        <time>2013-01-07T13:05:52.30</time>
      </trkpt>
      <trkpt lat="37.17636" lon="-7.3582133333333335">
        <ele>71.60000000000014</ele>
        <time>2013-01-07T13:05:53.31</time>
      </trkpt>
      <trkpt lat="37.176338333333334" lon="-7.35815">
        <ele>72.20000000000013</ele>
        <time>2013-01-07T13:05:54.30</time>
      </trkpt>
      <trkpt lat="37.17633333333333" lon="-7.358071666666667">
        <ele>71.60000000000014</ele>
        <time>2013-01-07T13:05:55.30</time>
      </trkpt>
      <trkpt lat="37.17631333333333" lon="-7.358">
        <ele>71.70000000000013</ele>
        <time>2013-01-07T13:05:56.30</time>
      </trkpt>
      <trkpt lat="37.176293333333334" lon="-7.35792">
        <ele>71.40000000000013</ele>
        <time>2013-01-07T13:05:57.30</time>
      </trkpt>
      <trkpt lat="37.176271666666665" lon="-7.35785">
        <ele>70.70000000000013</ele>
        <time>2013-01-07T13:05:58.30</time>
      </trkpt>
      <trkpt lat="37.17625833333334" lon="-7.357763333333334">
        <ele>70.70000000000013</ele>
        <time>2013-01-07T13:05:59.30</time>
      </trkpt>
      <trkpt lat="37.176255" lon="-7.357678333333333">
        <ele>70.40000000000013</ele>
        <time>2013-01-07T13:06:00.28</time>
      </trkpt>
      <trkpt lat="37.176265" lon="-7.3576033333333335">
        <ele>70.40000000000013</ele>
        <time>2013-01-07T13:06:01.29</time>
      </trkpt>
      <trkpt lat="37.176285" lon="-7.357528333333334">
        <ele>70.40000000000013</ele>
        <time>2013-01-07T13:06:02.30</time>
      </trkpt>
      <trkpt lat="37.17628833333333" lon="-7.357455">
        <ele>70.60000000000014</ele>
        <time>2013-01-07T13:06:03.30</time>
      </trkpt>
      <trkpt lat="37.17629" lon="-7.35738">
        <ele>70.70000000000013</ele>
        <time>2013-01-07T13:06:04.30</time>
      </trkpt>
      <trkpt lat="37.176285" lon="-7.357291666666667">
        <ele>70.90000000000013</ele>
        <time>2013-01-07T13:06:05.30</time>
      </trkpt>
      <trkpt lat="37.176291666666664" lon="-7.357216666666667">
        <ele>70.50000000000013</ele>
        <time>2013-01-07T13:06:06.30</time>
      </trkpt>
      <trkpt lat="37.1763" lon="-7.3571333333333335">
        <ele>70.60000000000012</ele>
        <time>2013-01-07T13:06:07.30</time>
      </trkpt>
      <trkpt lat="37.17630833333333" lon="-7.357046666666666">
        <ele>70.90000000000012</ele>
        <time>2013-01-07T13:06:08.30</time>
      </trkpt>
      <trkpt lat="37.176323333333336" lon="-7.356958333333333">
        <ele>70.80000000000013</ele>
        <time>2013-01-07T13:06:09.31</time>
      </trkpt>
      <trkpt lat="37.17633333333333" lon="-7.356871666666667">
        <ele>70.70000000000013</ele>
        <time>2013-01-07T13:06:10.31</time>
      </trkpt>
      <trkpt lat="37.17635" lon="-7.3567816666666666">
        <ele>70.50000000000013</ele>
        <time>2013-01-07T13:06:11.29</time>
      </trkpt>
      <trkpt lat="37.176365" lon="-7.356695">
        <ele>70.40000000000013</ele>
        <time>2013-01-07T13:06:12.30</time>
      </trkpt>
      <trkpt lat="37.17637166666667" lon="-7.35662">
        <ele>70.20000000000013</ele>
        <time>2013-01-07T13:06:13.30</time>
      </trkpt>
      <trkpt lat="37.17637833333333" lon="-7.356536666666667">
        <ele>69.90000000000013</ele>
        <time>2013-01-07T13:06:14.30</time>
      </trkpt>
      <trkpt lat="37.176386666666666" lon="-7.356463333333333">
        <ele>70.10000000000014</ele>
        <time>2013-01-07T13:06:15.30</time>
      </trkpt>
      <trkpt lat="37.17640333333333" lon="-7.356385">
        <ele>70.10000000000014</ele>
        <time>2013-01-07T13:06:16.30</time>
      </trkpt>
      <trkpt lat="37.176408333333335" lon="-7.356303333333333">
        <ele>69.90000000000013</ele>
        <time>2013-01-07T13:06:17.28</time>
      </trkpt>
      <trkpt lat="37.176425" lon="-7.356231666666667">
        <ele>69.80000000000014</ele>
        <time>2013-01-07T13:06:18.29</time>
      </trkpt>
      <trkpt lat="37.17643666666667" lon="-7.356161666666667">
        <ele>69.70000000000014</ele>
        <time>2013-01-07T13:06:19.30</time>
      </trkpt>
      <trkpt lat="37.176455" lon="-7.356081666666666">
        <ele>69.50000000000014</ele>
        <time>2013-01-07T13:06:20.30</time>
      </trkpt>
      <trkpt lat="37.176465" lon="-7.356">
        <ele>69.40000000000015</ele>
        <time>2013-01-07T13:06:21.30</time>
      </trkpt>
      <trkpt lat="37.176475" lon="-7.355925">
        <ele>69.20000000000014</ele>
        <time>2013-01-07T13:06:22.30</time>
      </trkpt>
      <trkpt lat="37.176503333333336" lon="-7.355861666666667">
        <ele>68.70000000000014</ele>
        <time>2013-01-07T13:06:23.30</time>
      </trkpt>
      <trkpt lat="37.17653833333333" lon="-7.355795">
        <ele>67.70000000000014</ele>
        <time>2013-01-07T13:06:24.30</time>
      </trkpt>
      <trkpt lat="37.17657" lon="-7.355741666666667">
        <ele>67.80000000000014</ele>
        <time>2013-01-07T13:06:25.30</time>
      </trkpt>
      <trkpt lat="37.176605" lon="-7.35567">
        <ele>66.70000000000014</ele>
        <time>2013-01-07T13:06:26.30</time>
      </trkpt>
      <trkpt lat="37.17663666666667" lon="-7.355601666666667">
        <ele>66.80000000000014</ele>
        <time>2013-01-07T13:06:27.30</time>
      </trkpt>
      <trkpt lat="37.17666166666667" lon="-7.355543333333333">
        <ele>66.70000000000014</ele>
        <time>2013-01-07T13:06:28.31</time>
      </trkpt>
      <trkpt lat="37.176698333333334" lon="-7.355466666666667">
        <ele>66.60000000000015</ele>
        <time>2013-01-07T13:06:29.31</time>
      </trkpt>
      <trkpt lat="37.17672833333334" lon="-7.355406666666667">
        <ele>66.80000000000015</ele>
        <time>2013-01-07T13:06:30.30</time>
      </trkpt>
      <trkpt lat="37.176763333333334" lon="-7.35533">
        <ele>66.40000000000015</ele>
        <time>2013-01-07T13:06:31.30</time>
      </trkpt>
      <trkpt lat="37.176795" lon="-7.35526">
        <ele>65.50000000000014</ele>
        <time>2013-01-07T13:06:32.30</time>
      </trkpt>
      <trkpt lat="37.17682833333333" lon="-7.355198333333333">
        <ele>65.20000000000014</ele>
        <time>2013-01-07T13:06:33.30</time>
      </trkpt>
      <trkpt lat="37.176865" lon="-7.3551416666666665">
        <ele>65.20000000000014</ele>
        <time>2013-01-07T13:06:34.30</time>
      </trkpt>
      <trkpt lat="37.17690833333333" lon="-7.355078333333333">
        <ele>65.10000000000015</ele>
        <time>2013-01-07T13:06:35.30</time>
      </trkpt>
      <trkpt lat="37.17693666666667" lon="-7.355016666666667">
        <ele>64.90000000000015</ele>
        <time>2013-01-07T13:06:36.30</time>
      </trkpt>
      <trkpt lat="37.176961666666664" lon="-7.354963333333333">
        <ele>65.20000000000014</ele>
        <time>2013-01-07T13:06:37.30</time>
      </trkpt>
      <trkpt lat="37.17700166666667" lon="-7.35489">
        <ele>65.00000000000014</ele>
        <time>2013-01-07T13:06:38.30</time>
      </trkpt>
      <trkpt lat="37.17703" lon="-7.354838333333333">
        <ele>65.30000000000014</ele>
        <time>2013-01-07T13:06:39.30</time>
      </trkpt>
      <trkpt lat="37.17706666666667" lon="-7.35478">
        <ele>66.00000000000014</ele>
        <time>2013-01-07T13:06:40.30</time>
      </trkpt>
      <trkpt lat="37.177103333333335" lon="-7.35472">
        <ele>66.00000000000014</ele>
        <time>2013-01-07T13:06:41.30</time>
      </trkpt>
      <trkpt lat="37.17715" lon="-7.3546466666666666">
        <ele>65.80000000000014</ele>
        <time>2013-01-07T13:06:42.30</time>
      </trkpt>
      <trkpt lat="37.17719" lon="-7.354558333333333">
        <ele>66.30000000000014</ele>
        <time>2013-01-07T13:06:43.30</time>
      </trkpt>
      <trkpt lat="37.17722833333333" lon="-7.354495">
        <ele>66.20000000000014</ele>
        <time>2013-01-07T13:06:44.31</time>
      </trkpt>
      <trkpt lat="37.177261666666666" lon="-7.354418333333333">
        <ele>65.70000000000014</ele>
        <time>2013-01-07T13:06:45.31</time>
      </trkpt>
      <trkpt lat="37.177281666666666" lon="-7.3543666666666665">
        <ele>65.50000000000014</ele>
        <time>2013-01-07T13:06:46.30</time>
      </trkpt>
      <trkpt lat="37.17731666666667" lon="-7.354306666666667">
        <ele>65.80000000000014</ele>
        <time>2013-01-07T13:06:47.30</time>
      </trkpt>
      <trkpt lat="37.17735666666667" lon="-7.354243333333334">
        <ele>65.80000000000014</ele>
        <time>2013-01-07T13:06:48.30</time>
      </trkpt>
      <trkpt lat="37.1774" lon="-7.354171666666667">
        <ele>66.10000000000014</ele>
        <time>2013-01-07T13:06:49.30</time>
      </trkpt>
      <trkpt lat="37.177435" lon="-7.354105">
        <ele>66.20000000000013</ele>
        <time>2013-01-07T13:06:50.30</time>
      </trkpt>
      <trkpt lat="37.17748" lon="-7.354028333333333">
        <ele>65.90000000000013</ele>
        <time>2013-01-07T13:06:51.29</time>
      </trkpt>
      <trkpt lat="37.17751833333333" lon="-7.353958333333333">
        <ele>66.70000000000013</ele>
        <time>2013-01-07T13:06:52.30</time>
      </trkpt>
      <trkpt lat="37.17756166666667" lon="-7.353898333333333">
        <ele>67.00000000000013</ele>
        <time>2013-01-07T13:06:53.30</time>
      </trkpt>
      <trkpt lat="37.177605" lon="-7.353838333333333">
        <ele>66.90000000000013</ele>
        <time>2013-01-07T13:06:54.30</time>
      </trkpt>
      <trkpt lat="37.177635" lon="-7.353781666666666">
        <ele>66.50000000000013</ele>
        <time>2013-01-07T13:06:55.30</time>
      </trkpt>
      <trkpt lat="37.17767666666666" lon="-7.353725">
        <ele>66.60000000000012</ele>
        <time>2013-01-07T13:06:56.30</time>
      </trkpt>
      <trkpt lat="37.177705" lon="-7.3536616666666665">
        <ele>66.80000000000013</ele>
        <time>2013-01-07T13:06:57.30</time>
      </trkpt>
      <trkpt lat="37.17774333333333" lon="-7.353598333333333">
        <ele>66.60000000000012</ele>
        <time>2013-01-07T13:06:58.30</time>
      </trkpt>
      <trkpt lat="37.17778666666667" lon="-7.353528333333333">
        <ele>66.70000000000012</ele>
        <time>2013-01-07T13:06:59.30</time>
      </trkpt>
      <trkpt lat="37.17782166666667" lon="-7.3534516666666665">
        <ele>66.30000000000011</ele>
        <time>2013-01-07T13:07:00.31</time>
      </trkpt>
      <trkpt lat="37.17784833333333" lon="-7.353378333333334">
        <ele>65.80000000000011</ele>
        <time>2013-01-07T13:07:01.32</time>
      </trkpt>
      <trkpt lat="37.17787833333333" lon="-7.35331">
        <ele>65.20000000000012</ele>
        <time>2013-01-07T13:07:02.29</time>
      </trkpt>
      <trkpt lat="37.177905" lon="-7.353225">
        <ele>64.60000000000012</ele>
        <time>2013-01-07T13:07:03.30</time>
      </trkpt>
      <trkpt lat="37.177931666666666" lon="-7.353133333333333">
        <ele>64.80000000000013</ele>
        <time>2013-01-07T13:07:04.29</time>
      </trkpt>
      <trkpt lat="37.17794333333333" lon="-7.353041666666667">
        <ele>65.00000000000013</ele>
        <time>2013-01-07T13:07:05.30</time>
      </trkpt>
      <trkpt lat="37.177955" lon="-7.352968333333333">
        <ele>65.20000000000013</ele>
        <time>2013-01-07T13:07:06.30</time>
      </trkpt>
      <trkpt lat="37.177978333333336" lon="-7.352886666666667">
        <ele>65.60000000000014</ele>
        <time>2013-01-07T13:07:07.30</time>
      </trkpt>
      <trkpt lat="37.17799" lon="-7.352806666666667">
        <ele>66.30000000000014</ele>
        <time>2013-01-07T13:07:08.31</time>
      </trkpt>
      <trkpt lat="37.178015" lon="-7.352728333333333">
        <ele>67.00000000000014</ele>
        <time>2013-01-07T13:07:09.29</time>
      </trkpt>
      <trkpt lat="37.17804" lon="-7.352638333333333">
        <ele>67.40000000000015</ele>
        <time>2013-01-07T13:07:10.30</time>
      </trkpt>
      <trkpt lat="37.178061666666665" lon="-7.352566666666666">
        <ele>67.70000000000014</ele>
        <time>2013-01-07T13:07:11.31</time>
      </trkpt>
      <trkpt lat="37.178088333333335" lon="-7.352493333333333">
        <ele>67.90000000000015</ele>
        <time>2013-01-07T13:07:12.30</time>
      </trkpt>
      <trkpt lat="37.17811" lon="-7.352421666666666">
        <ele>68.00000000000014</ele>
        <time>2013-01-07T13:07:13.30</time>
      </trkpt>
      <trkpt lat="37.17815" lon="-7.352361666666667">
        <ele>68.30000000000014</ele>
        <time>2013-01-07T13:07:14.30</time>
      </trkpt>
      <trkpt lat="37.17818833333333" lon="-7.352288333333333">
        <ele>68.30000000000014</ele>
        <time>2013-01-07T13:07:15.30</time>
      </trkpt>
      <trkpt lat="37.17823833333333" lon="-7.352225">
        <ele>68.30000000000014</ele>
        <time>2013-01-07T13:07:16.28</time>
      </trkpt>
      <trkpt lat="37.178288333333334" lon="-7.352158333333334">
        <ele>68.10000000000014</ele>
        <time>2013-01-07T13:07:17.29</time>
      </trkpt>
      <trkpt lat="37.178335" lon="-7.352098333333333">
        <ele>68.20000000000013</ele>
        <time>2013-01-07T13:07:18.30</time>
      </trkpt>
      <trkpt lat="37.17837333333333" lon="-7.3520433333333335">
        <ele>68.10000000000014</ele>
        <time>2013-01-07T13:07:19.30</time>
      </trkpt>
      <trkpt lat="37.17841" lon="-7.351985">
        <ele>68.00000000000014</ele>
        <time>2013-01-07T13:07:20.30</time>
      </trkpt>
      <trkpt lat="37.178461666666664" lon="-7.351911666666667">
        <ele>68.10000000000014</ele>
        <time>2013-01-07T13:07:21.34</time>
      </trkpt>
      <trkpt lat="37.17850333333333" lon="-7.351855">
        <ele>68.40000000000013</ele>
        <time>2013-01-07T13:07:22.33</time>
      </trkpt>
      <trkpt lat="37.178556666666665" lon="-7.351806666666667">
        <ele>68.70000000000013</ele>
        <time>2013-01-07T13:07:23.30</time>
      </trkpt>
      <trkpt lat="37.1786" lon="-7.351753333333333">
        <ele>69.50000000000013</ele>
        <time>2013-01-07T13:07:24.30</time>
      </trkpt>
      <trkpt lat="37.17863333333333" lon="-7.351703333333333">
        <ele>70.50000000000013</ele>
        <time>2013-01-07T13:07:25.30</time>
      </trkpt>
      <trkpt lat="37.17867833333333" lon="-7.35164">
        <ele>70.70000000000013</ele>
        <time>2013-01-07T13:07:26.31</time>
      </trkpt>
      <trkpt lat="37.178711666666665" lon="-7.351576666666666">
        <ele>70.70000000000013</ele>
        <time>2013-01-07T13:07:27.30</time>
      </trkpt>
      <trkpt lat="37.17875" lon="-7.351525">
        <ele>71.30000000000013</ele>
        <time>2013-01-07T13:07:28.27</time>
      </trkpt>
      <trkpt lat="37.17879833333333" lon="-7.351463333333333">
        <ele>70.20000000000013</ele>
        <time>2013-01-07T13:07:29.29</time>
      </trkpt>
      <trkpt lat="37.178846666666665" lon="-7.3514">
        <ele>71.00000000000013</ele>
        <time>2013-01-07T13:07:30.30</time>
      </trkpt>
      <trkpt lat="37.17888833333333" lon="-7.351325">
        <ele>69.90000000000013</ele>
        <time>2013-01-07T13:07:31.30</time>
      </trkpt>
      <trkpt lat="37.178935" lon="-7.351253333333333">
        <ele>69.60000000000014</ele>
        <time>2013-01-07T13:07:32.30</time>
      </trkpt>
      <trkpt lat="37.17897333333333" lon="-7.351191666666667">
        <ele>70.00000000000014</ele>
        <time>2013-01-07T13:07:33.30</time>
      </trkpt>
      <trkpt lat="37.17901" lon="-7.351138333333333">
        <ele>70.80000000000014</ele>
        <time>2013-01-07T13:07:34.30</time>
      </trkpt>
      <trkpt lat="37.17905" lon="-7.351088333333333">
        <ele>71.50000000000014</ele>
        <time>2013-01-07T13:07:35.29</time>
      </trkpt>
      <trkpt lat="37.179096666666666" lon="-7.351028333333334">
        <ele>71.80000000000014</ele>
        <time>2013-01-07T13:07:36.29</time>
      </trkpt>
      <trkpt lat="37.179145" lon="-7.350971666666666">
        <ele>71.90000000000013</ele>
        <time>2013-01-07T13:07:37.29</time>
      </trkpt>
      <trkpt lat="37.17919" lon="-7.35091">
        <ele>72.50000000000013</ele>
        <time>2013-01-07T13:07:38.29</time>
      </trkpt>
      <trkpt lat="37.17923833333333" lon="-7.3508466666666665">
        <ele>72.70000000000013</ele>
        <time>2013-01-07T13:07:39.29</time>
      </trkpt>
      <trkpt lat="37.17928833333333" lon="-7.350791666666667">
        <ele>72.90000000000013</ele>
        <time>2013-01-07T13:07:40.29</time>
      </trkpt>
      <trkpt lat="37.179345" lon="-7.350731666666666">
        <ele>73.30000000000014</ele>
        <time>2013-01-07T13:07:41.29</time>
      </trkpt>
      <trkpt lat="37.17939666666667" lon="-7.350661666666666">
        <ele>73.10000000000014</ele>
        <time>2013-01-07T13:07:42.29</time>
      </trkpt>
      <trkpt lat="37.179451666666665" lon="-7.350593333333333">
        <ele>72.50000000000014</ele>
        <time>2013-01-07T13:07:43.29</time>
      </trkpt>
      <trkpt lat="37.17949" lon="-7.35054">
        <ele>72.40000000000015</ele>
        <time>2013-01-07T13:07:44.29</time>
      </trkpt>
      <trkpt lat="37.17952" lon="-7.350485">
        <ele>73.10000000000015</ele>
        <time>2013-01-07T13:07:45.29</time>
      </trkpt>
      <trkpt lat="37.17956" lon="-7.3504233333333335">
        <ele>73.50000000000016</ele>
        <time>2013-01-07T13:07:46.40</time>
      </trkpt>
      <trkpt lat="37.179606666666665" lon="-7.350366666666667">
        <ele>73.50000000000016</ele>
        <time>2013-01-07T13:07:47.30</time>
      </trkpt>
      <trkpt lat="37.179676666666666" lon="-7.350301666666667">
        <ele>72.50000000000016</ele>
        <time>2013-01-07T13:07:48.30</time>
      </trkpt>
      <trkpt lat="37.179723333333335" lon="-7.350245">
        <ele>72.50000000000016</ele>
        <time>2013-01-07T13:07:49.30</time>
      </trkpt>
      <trkpt lat="37.179795" lon="-7.350175">
        <ele>71.50000000000016</ele>
        <time>2013-01-07T13:07:50.30</time>
      </trkpt>
      <trkpt lat="37.179865" lon="-7.35014">
        <ele>72.20000000000016</ele>
        <time>2013-01-07T13:07:51.28</time>
      </trkpt>
      <trkpt lat="37.17988166666667" lon="-7.350071666666667">
        <ele>72.20000000000016</ele>
        <time>2013-01-07T13:07:52.33</time>
      </trkpt>
      <trkpt lat="37.179915" lon="-7.350011666666667">
        <ele>72.30000000000015</ele>
        <time>2013-01-07T13:07:53.31</time>
      </trkpt>
      <trkpt lat="37.179946666666666" lon="-7.349958333333333">
        <ele>72.80000000000015</ele>
        <time>2013-01-07T13:07:54.30</time>
      </trkpt>
      <trkpt lat="37.179965" lon="-7.349895">
        <ele>72.90000000000015</ele>
        <time>2013-01-07T13:07:55.30</time>
      </trkpt>
      <trkpt lat="37.17999666666667" lon="-7.349828333333333">
        <ele>73.50000000000014</ele>
        <time>2013-01-07T13:07:56.30</time>
      </trkpt>
      <trkpt lat="37.18004" lon="-7.349753333333333">
        <ele>73.20000000000014</ele>
        <time>2013-01-07T13:07:57.30</time>
      </trkpt>
      <trkpt lat="37.18008" lon="-7.349703333333333">
        <ele>73.30000000000014</ele>
        <time>2013-01-07T13:07:58.30</time>
      </trkpt>
      <trkpt lat="37.18013" lon="-7.349633333333333">
        <ele>71.80000000000014</ele>
        <time>2013-01-07T13:07:59.30</time>
      </trkpt>
      <trkpt lat="37.18016" lon="-7.349566666666667">
        <ele>71.90000000000013</ele>
        <time>2013-01-07T13:08:00.30</time>
      </trkpt>
      <trkpt lat="37.180188333333334" lon="-7.3495">
        <ele>71.60000000000014</ele>
        <time>2013-01-07T13:08:01.30</time>
      </trkpt>
      <trkpt lat="37.18020166666667" lon="-7.349426666666667">
        <ele>71.30000000000014</ele>
        <time>2013-01-07T13:08:02.30</time>
      </trkpt>
      <trkpt lat="37.180238333333335" lon="-7.349355">
        <ele>71.90000000000013</ele>
        <time>2013-01-07T13:08:03.30</time>
      </trkpt>
      <trkpt lat="37.180278333333334" lon="-7.349275">
        <ele>71.10000000000014</ele>
        <time>2013-01-07T13:08:04.30</time>
      </trkpt>
      <trkpt lat="37.18031333333333" lon="-7.3492033333333335">
        <ele>71.00000000000014</ele>
        <time>2013-01-07T13:08:05.30</time>
      </trkpt>
      <trkpt lat="37.18033" lon="-7.34913">
        <ele>70.90000000000015</ele>
        <time>2013-01-07T13:08:06.30</time>
      </trkpt>
      <trkpt lat="37.180355" lon="-7.349053333333333">
        <ele>70.90000000000015</ele>
        <time>2013-01-07T13:08:07.30</time>
      </trkpt>
      <trkpt lat="37.180393333333335" lon="-7.348983333333333">
        <ele>71.20000000000014</ele>
        <time>2013-01-07T13:08:08.30</time>
      </trkpt>
      <trkpt lat="37.18043" lon="-7.348915">
        <ele>70.90000000000015</ele>
        <time>2013-01-07T13:08:09.31</time>
      </trkpt>
      <trkpt lat="37.18046666666667" lon="-7.348846666666667">
        <ele>71.10000000000015</ele>
        <time>2013-01-07T13:08:10.31</time>
      </trkpt>
      <trkpt lat="37.18049833333333" lon="-7.3487833333333334">
        <ele>71.30000000000015</ele>
        <time>2013-01-07T13:08:11.30</time>
      </trkpt>
      <trkpt lat="37.18054" lon="-7.348718333333333">
        <ele>71.00000000000016</ele>
        <time>2013-01-07T13:08:12.30</time>
      </trkpt>
      <trkpt lat="37.18058333333333" lon="-7.348651666666667">
        <ele>70.60000000000015</ele>
        <time>2013-01-07T13:08:13.30</time>
      </trkpt>
      <trkpt lat="37.18062" lon="-7.348581666666667">
        <ele>69.60000000000015</ele>
        <time>2013-01-07T13:08:14.30</time>
      </trkpt>
      <trkpt lat="37.180663333333335" lon="-7.348526666666666">
        <ele>70.30000000000015</ele>
        <time>2013-01-07T13:08:15.30</time>
      </trkpt>
      <trkpt lat="37.180708333333335" lon="-7.34847">
        <ele>70.30000000000015</ele>
        <time>2013-01-07T13:08:16.30</time>
      </trkpt>
      <trkpt lat="37.180748333333334" lon="-7.348401666666667">
        <ele>70.00000000000016</ele>
        <time>2013-01-07T13:08:17.30</time>
      </trkpt>
      <trkpt lat="37.18080333333333" lon="-7.348341666666666">
        <ele>70.30000000000015</ele>
        <time>2013-01-07T13:08:18.30</time>
      </trkpt>
      <trkpt lat="37.180856666666664" lon="-7.3482883333333335">
        <ele>70.80000000000015</ele>
        <time>2013-01-07T13:08:19.30</time>
      </trkpt>
      <trkpt lat="37.18091" lon="-7.348235">
        <ele>71.00000000000016</ele>
        <time>2013-01-07T13:08:20.30</time>
      </trkpt>
      <trkpt lat="37.18094833333333" lon="-7.348181666666667">
        <ele>71.10000000000015</ele>
        <time>2013-01-07T13:08:21.30</time>
      </trkpt>
      <trkpt lat="37.180996666666665" lon="-7.34812">
        <ele>70.70000000000014</ele>
        <time>2013-01-07T13:08:22.30</time>
      </trkpt>
      <trkpt lat="37.18104666666667" lon="-7.348066666666667">
        <ele>71.00000000000014</ele>
        <time>2013-01-07T13:08:23.30</time>
      </trkpt>
      <trkpt lat="37.181085" lon="-7.348015">
        <ele>70.60000000000014</ele>
        <time>2013-01-07T13:08:24.29</time>
      </trkpt>
      <trkpt lat="37.181133333333335" lon="-7.347955">
        <ele>70.40000000000013</ele>
        <time>2013-01-07T13:08:25.33</time>
      </trkpt>
      <trkpt lat="37.181175" lon="-7.34789">
        <ele>70.00000000000013</ele>
        <time>2013-01-07T13:08:26.33</time>
      </trkpt>
      <trkpt lat="37.181215" lon="-7.34783">
        <ele>70.10000000000012</ele>
        <time>2013-01-07T13:08:27.30</time>
      </trkpt>
      <trkpt lat="37.181245" lon="-7.347768333333334">
        <ele>70.00000000000013</ele>
        <time>2013-01-07T13:08:28.30</time>
      </trkpt>
      <trkpt lat="37.18128333333333" lon="-7.347705">
        <ele>70.00000000000013</ele>
        <time>2013-01-07T13:08:29.30</time>
      </trkpt>
      <trkpt lat="37.181313333333335" lon="-7.3476333333333335">
        <ele>70.40000000000013</ele>
        <time>2013-01-07T13:08:30.30</time>
      </trkpt>
      <trkpt lat="37.18134666666667" lon="-7.347555">
        <ele>70.10000000000014</ele>
        <time>2013-01-07T13:08:31.30</time>
      </trkpt>
      <trkpt lat="37.181371666666664" lon="-7.34748">
        <ele>70.20000000000013</ele>
        <time>2013-01-07T13:08:32.30</time>
      </trkpt>
      <trkpt lat="37.181398333333334" lon="-7.347408333333333">
        <ele>70.20000000000013</ele>
        <time>2013-01-07T13:08:33.30</time>
      </trkpt>
      <trkpt lat="37.18142666666667" lon="-7.347335">
        <ele>69.50000000000013</ele>
        <time>2013-01-07T13:08:34.30</time>
      </trkpt>
      <trkpt lat="37.18145833333333" lon="-7.3472583333333334">
        <ele>69.40000000000013</ele>
        <time>2013-01-07T13:08:35.30</time>
      </trkpt>
      <trkpt lat="37.181486666666665" lon="-7.347175">
        <ele>69.10000000000014</ele>
        <time>2013-01-07T13:08:36.30</time>
      </trkpt>
      <trkpt lat="37.18151833333334" lon="-7.347095">
        <ele>68.00000000000014</ele>
        <time>2013-01-07T13:08:37.30</time>
      </trkpt>
      <trkpt lat="37.18155" lon="-7.347011666666667">
        <ele>68.20000000000014</ele>
        <time>2013-01-07T13:08:38.30</time>
      </trkpt>
      <trkpt lat="37.18158666666667" lon="-7.346931666666666">
        <ele>68.10000000000015</ele>
        <time>2013-01-07T13:08:39.30</time>
      </trkpt>
      <trkpt lat="37.181621666666665" lon="-7.346848333333333">
        <ele>67.70000000000014</ele>
        <time>2013-01-07T13:08:40.30</time>
      </trkpt>
      <trkpt lat="37.181646666666666" lon="-7.346778333333333">
        <ele>67.70000000000014</ele>
        <time>2013-01-07T13:08:41.33</time>
      </trkpt>
      <trkpt lat="37.181675" lon="-7.346705">
        <ele>68.10000000000015</ele>
        <time>2013-01-07T13:08:42.33</time>
      </trkpt>
      <trkpt lat="37.18170166666667" lon="-7.346633333333333">
        <ele>68.30000000000015</ele>
        <time>2013-01-07T13:08:43.30</time>
      </trkpt>
      <trkpt lat="37.18172833333333" lon="-7.346561666666667">
        <ele>68.40000000000015</ele>
        <time>2013-01-07T13:08:44.30</time>
      </trkpt>
      <trkpt lat="37.18175333333333" lon="-7.346495">
        <ele>68.70000000000014</ele>
        <time>2013-01-07T13:08:45.30</time>
      </trkpt>
      <trkpt lat="37.181776666666664" lon="-7.346431666666667">
        <ele>69.10000000000015</ele>
        <time>2013-01-07T13:08:46.31</time>
      </trkpt>
      <trkpt lat="37.18179333333333" lon="-7.346365">
        <ele>69.30000000000015</ele>
        <time>2013-01-07T13:08:47.30</time>
      </trkpt>
      <trkpt lat="37.18181833333333" lon="-7.346283333333333">
        <ele>69.30000000000015</ele>
        <time>2013-01-07T13:08:48.30</time>
      </trkpt>
      <trkpt lat="37.181835" lon="-7.346205">
        <ele>69.30000000000015</ele>
        <time>2013-01-07T13:08:49.30</time>
      </trkpt>
      <trkpt lat="37.18186166666667" lon="-7.346135">
        <ele>69.40000000000015</ele>
        <time>2013-01-07T13:08:50.29</time>
      </trkpt>
      <trkpt lat="37.18189" lon="-7.346075">
        <ele>68.90000000000015</ele>
        <time>2013-01-07T13:08:51.29</time>
      </trkpt>
      <trkpt lat="37.18190666666667" lon="-7.345986666666667">
        <ele>68.60000000000015</ele>
        <time>2013-01-07T13:08:52.29</time>
      </trkpt>
      <trkpt lat="37.181931666666664" lon="-7.345908333333333">
        <ele>68.80000000000015</ele>
        <time>2013-01-07T13:08:53.34</time>
      </trkpt>
      <trkpt lat="37.181955" lon="-7.345833333333333">
        <ele>68.50000000000016</ele>
        <time>2013-01-07T13:08:54.29</time>
      </trkpt>
      <trkpt lat="37.18197833333333" lon="-7.345763333333333">
        <ele>68.60000000000015</ele>
        <time>2013-01-07T13:08:55.29</time>
      </trkpt>
      <trkpt lat="37.182005" lon="-7.345695">
        <ele>68.70000000000014</ele>
        <time>2013-01-07T13:08:56.29</time>
      </trkpt>
      <trkpt lat="37.18203" lon="-7.345623333333333">
        <ele>67.50000000000014</ele>
        <time>2013-01-07T13:08:57.29</time>
      </trkpt>
      <trkpt lat="37.18206" lon="-7.3455466666666664">
        <ele>67.10000000000014</ele>
        <time>2013-01-07T13:08:58.29</time>
      </trkpt>
      <trkpt lat="37.18208666666666" lon="-7.345468333333334">
        <ele>67.30000000000014</ele>
        <time>2013-01-07T13:08:59.29</time>
      </trkpt>
      <trkpt lat="37.182111666666664" lon="-7.345393333333333">
        <ele>67.70000000000014</ele>
        <time>2013-01-07T13:09:00.29</time>
      </trkpt>
      <trkpt lat="37.18213166666666" lon="-7.345326666666667">
        <ele>67.40000000000015</ele>
        <time>2013-01-07T13:09:01.29</time>
      </trkpt>
      <trkpt lat="37.182163333333335" lon="-7.345268333333333">
        <ele>67.70000000000014</ele>
        <time>2013-01-07T13:09:02.29</time>
      </trkpt>
      <trkpt lat="37.18219" lon="-7.345205">
        <ele>68.10000000000015</ele>
        <time>2013-01-07T13:09:03.29</time>
      </trkpt>
      <trkpt lat="37.18221166666667" lon="-7.3451466666666665">
        <ele>68.10000000000015</ele>
        <time>2013-01-07T13:09:04.29</time>
      </trkpt>
      <trkpt lat="37.18224" lon="-7.345081666666666">
        <ele>67.90000000000015</ele>
        <time>2013-01-07T13:09:05.29</time>
      </trkpt>
      <trkpt lat="37.18226" lon="-7.345021666666667">
        <ele>68.20000000000014</ele>
        <time>2013-01-07T13:09:06.29</time>
      </trkpt>
      <trkpt lat="37.18228" lon="-7.34494">
        <ele>68.40000000000015</ele>
        <time>2013-01-07T13:09:07.29</time>
      </trkpt>
      <trkpt lat="37.18230333333333" lon="-7.344873333333333">
        <ele>68.70000000000014</ele>
        <time>2013-01-07T13:09:08.29</time>
      </trkpt>
      <trkpt lat="37.18232833333333" lon="-7.344808333333333">
        <ele>68.30000000000014</ele>
        <time>2013-01-07T13:09:09.29</time>
      </trkpt>
      <trkpt lat="37.182361666666665" lon="-7.344745">
        <ele>68.10000000000014</ele>
        <time>2013-01-07T13:09:10.29</time>
      </trkpt>
      <trkpt lat="37.182386666666666" lon="-7.344673333333334">
        <ele>68.20000000000013</ele>
        <time>2013-01-07T13:09:11.29</time>
      </trkpt>
      <trkpt lat="37.182408333333335" lon="-7.344611666666666">
        <ele>68.40000000000013</ele>
        <time>2013-01-07T13:09:12.29</time>
      </trkpt>
      <trkpt lat="37.182433333333336" lon="-7.344546666666667">
        <ele>68.70000000000013</ele>
        <time>2013-01-07T13:09:13.33</time>
      </trkpt>
      <trkpt lat="37.18246" lon="-7.3444883333333335">
        <ele>68.30000000000013</ele>
        <time>2013-01-07T13:09:14.27</time>
      </trkpt>
      <trkpt lat="37.182476666666666" lon="-7.344431666666667">
        <ele>68.10000000000012</ele>
        <time>2013-01-07T13:09:15.31</time>
      </trkpt>
      <trkpt lat="37.18249" lon="-7.344368333333334">
        <ele>68.00000000000013</ele>
        <time>2013-01-07T13:09:16.33</time>
      </trkpt>
      <trkpt lat="37.182515" lon="-7.344303333333333">
        <ele>68.10000000000012</ele>
        <time>2013-01-07T13:09:17.30</time>
      </trkpt>
      <trkpt lat="37.182535" lon="-7.34423">
        <ele>67.90000000000012</ele>
        <time>2013-01-07T13:09:18.30</time>
      </trkpt>
      <trkpt lat="37.18256" lon="-7.34416">
        <ele>68.30000000000013</ele>
        <time>2013-01-07T13:09:19.30</time>
      </trkpt>
      <trkpt lat="37.182588333333335" lon="-7.3440883333333336">
        <ele>67.80000000000013</ele>
        <time>2013-01-07T13:09:20.30</time>
      </trkpt>
      <trkpt lat="37.18262" lon="-7.344013333333334">
        <ele>68.30000000000013</ele>
        <time>2013-01-07T13:09:21.30</time>
      </trkpt>
      <trkpt lat="37.18264333333333" lon="-7.343935">
        <ele>67.80000000000013</ele>
        <time>2013-01-07T13:09:22.30</time>
      </trkpt>
      <trkpt lat="37.182675" lon="-7.343845">
        <ele>67.70000000000013</ele>
        <time>2013-01-07T13:09:23.30</time>
      </trkpt>
      <trkpt lat="37.182695" lon="-7.34377">
        <ele>67.80000000000013</ele>
        <time>2013-01-07T13:09:24.30</time>
      </trkpt>
      <trkpt lat="37.182721666666666" lon="-7.343698333333333">
        <ele>68.40000000000012</ele>
        <time>2013-01-07T13:09:25.30</time>
      </trkpt>
      <trkpt lat="37.18275333333333" lon="-7.34363">
        <ele>68.30000000000013</ele>
        <time>2013-01-07T13:09:26.30</time>
      </trkpt>
      <trkpt lat="37.18278166666666" lon="-7.343553333333333">
        <ele>68.40000000000012</ele>
        <time>2013-01-07T13:09:27.30</time>
      </trkpt>
      <trkpt lat="37.182815" lon="-7.343473333333334">
        <ele>68.40000000000012</ele>
        <time>2013-01-07T13:09:28.30</time>
      </trkpt>
      <trkpt lat="37.182835" lon="-7.343405">
        <ele>68.40000000000012</ele>
        <time>2013-01-07T13:09:29.31</time>
      </trkpt>
      <trkpt lat="37.182858333333336" lon="-7.343323333333333">
        <ele>68.60000000000012</ele>
        <time>2013-01-07T13:09:30.31</time>
      </trkpt>
      <trkpt lat="37.182876666666665" lon="-7.343251666666666">
        <ele>68.60000000000012</ele>
        <time>2013-01-07T13:09:31.29</time>
      </trkpt>
      <trkpt lat="37.182898333333334" lon="-7.34319">
        <ele>68.60000000000012</ele>
        <time>2013-01-07T13:09:32.30</time>
      </trkpt>
      <trkpt lat="37.18292666666667" lon="-7.343111666666666">
        <ele>68.70000000000012</ele>
        <time>2013-01-07T13:09:33.30</time>
      </trkpt>
      <trkpt lat="37.18295666666667" lon="-7.3430333333333335">
        <ele>69.00000000000011</ele>
        <time>2013-01-07T13:09:34.30</time>
      </trkpt>
      <trkpt lat="37.182993333333336" lon="-7.342961666666667">
        <ele>69.40000000000012</ele>
        <time>2013-01-07T13:09:35.30</time>
      </trkpt>
      <trkpt lat="37.183038333333336" lon="-7.342896666666666">
        <ele>70.20000000000012</ele>
        <time>2013-01-07T13:09:36.37</time>
      </trkpt>
      <trkpt lat="37.18308" lon="-7.342848333333333">
        <ele>70.70000000000012</ele>
        <time>2013-01-07T13:09:37.30</time>
      </trkpt>
      <trkpt lat="37.183125" lon="-7.3427983333333335">
        <ele>69.80000000000011</ele>
        <time>2013-01-07T13:09:38.30</time>
      </trkpt>
      <trkpt lat="37.18317833333333" lon="-7.342723333333334">
        <ele>69.70000000000012</ele>
        <time>2013-01-07T13:09:39.30</time>
      </trkpt>
      <trkpt lat="37.183213333333335" lon="-7.342655">
        <ele>70.10000000000012</ele>
        <time>2013-01-07T13:09:40.30</time>
      </trkpt>
      <trkpt lat="37.18322666666667" lon="-7.342571666666666">
        <ele>70.40000000000012</ele>
        <time>2013-01-07T13:09:41.30</time>
      </trkpt>
      <trkpt lat="37.183231666666664" lon="-7.342488333333334">
        <ele>70.40000000000012</ele>
        <time>2013-01-07T13:09:42.30</time>
      </trkpt>
      <trkpt lat="37.183233333333334" lon="-7.342406666666666">
        <ele>70.30000000000013</ele>
        <time>2013-01-07T13:09:43.30</time>
      </trkpt>
      <trkpt lat="37.18325333333333" lon="-7.342335">
        <ele>70.20000000000013</ele>
        <time>2013-01-07T13:09:44.30</time>
      </trkpt>
      <trkpt lat="37.183296666666664" lon="-7.342275">
        <ele>70.60000000000014</ele>
        <time>2013-01-07T13:09:45.31</time>
      </trkpt>
      <trkpt lat="37.18335166666667" lon="-7.342215">
        <ele>70.40000000000013</ele>
        <time>2013-01-07T13:09:46.31</time>
      </trkpt>
      <trkpt lat="37.18338333333333" lon="-7.342145">
        <ele>69.90000000000013</ele>
        <time>2013-01-07T13:09:47.30</time>
      </trkpt>
      <trkpt lat="37.183413333333334" lon="-7.34208">
        <ele>69.50000000000013</ele>
        <time>2013-01-07T13:09:48.30</time>
      </trkpt>
      <trkpt lat="37.183431666666664" lon="-7.342008333333333">
        <ele>69.30000000000013</ele>
        <time>2013-01-07T13:09:49.30</time>
      </trkpt>
      <trkpt lat="37.183431666666664" lon="-7.341925">
        <ele>69.00000000000013</ele>
        <time>2013-01-07T13:09:50.30</time>
      </trkpt>
      <trkpt lat="37.183425" lon="-7.341851666666667">
        <ele>68.80000000000013</ele>
        <time>2013-01-07T13:09:51.30</time>
      </trkpt>
      <trkpt lat="37.18344" lon="-7.341773333333333">
        <ele>68.50000000000013</ele>
        <time>2013-01-07T13:09:52.30</time>
      </trkpt>
      <trkpt lat="37.18345" lon="-7.341695">
        <ele>68.40000000000013</ele>
        <time>2013-01-07T13:09:53.30</time>
      </trkpt>
      <trkpt lat="37.18348" lon="-7.34162">
        <ele>68.00000000000013</ele>
        <time>2013-01-07T13:09:54.30</time>
      </trkpt>
      <trkpt lat="37.18349" lon="-7.341548333333333">
        <ele>67.60000000000012</ele>
        <time>2013-01-07T13:09:55.30</time>
      </trkpt>
      <trkpt lat="37.183506666666666" lon="-7.34147">
        <ele>67.30000000000013</ele>
        <time>2013-01-07T13:09:56.30</time>
      </trkpt>
      <trkpt lat="37.183526666666666" lon="-7.341398333333333">
        <ele>67.20000000000013</ele>
        <time>2013-01-07T13:09:57.30</time>
      </trkpt>
      <trkpt lat="37.183553333333336" lon="-7.341316666666667">
        <ele>66.90000000000013</ele>
        <time>2013-01-07T13:09:58.30</time>
      </trkpt>
      <trkpt lat="37.18358166666667" lon="-7.341236666666667">
        <ele>66.60000000000014</ele>
        <time>2013-01-07T13:09:59.30</time>
      </trkpt>
      <trkpt lat="37.1836" lon="-7.34116">
        <ele>66.50000000000014</ele>
        <time>2013-01-07T13:10:00.30</time>
      </trkpt>
      <trkpt lat="37.18362166666667" lon="-7.341085">
        <ele>66.20000000000014</ele>
        <time>2013-01-07T13:10:01.31</time>
      </trkpt>
      <trkpt lat="37.18366" lon="-7.341006666666667">
        <ele>66.00000000000014</ele>
        <time>2013-01-07T13:10:02.31</time>
      </trkpt>
      <trkpt lat="37.183688333333336" lon="-7.340928333333333">
        <ele>65.90000000000015</ele>
        <time>2013-01-07T13:10:03.30</time>
      </trkpt>
      <trkpt lat="37.18372" lon="-7.340855">
        <ele>65.40000000000015</ele>
        <time>2013-01-07T13:10:04.30</time>
      </trkpt>
      <trkpt lat="37.183745" lon="-7.340775">
        <ele>65.40000000000015</ele>
        <time>2013-01-07T13:10:05.30</time>
      </trkpt>
      <trkpt lat="37.18376833333333" lon="-7.340706666666667">
        <ele>65.60000000000015</ele>
        <time>2013-01-07T13:10:06.30</time>
      </trkpt>
      <trkpt lat="37.18378833333333" lon="-7.340633333333333">
        <ele>65.90000000000015</ele>
        <time>2013-01-07T13:10:07.29</time>
      </trkpt>
      <trkpt lat="37.18381" lon="-7.340553333333333">
        <ele>65.40000000000015</ele>
        <time>2013-01-07T13:10:08.30</time>
      </trkpt>
      <trkpt lat="37.183835" lon="-7.340478333333333">
        <ele>65.40000000000015</ele>
        <time>2013-01-07T13:10:09.30</time>
      </trkpt>
      <trkpt lat="37.183868333333336" lon="-7.340416666666667">
        <ele>64.80000000000015</ele>
        <time>2013-01-07T13:10:10.30</time>
      </trkpt>
      <trkpt lat="37.183885" lon="-7.340351666666667">
        <ele>65.00000000000016</ele>
        <time>2013-01-07T13:10:11.30</time>
      </trkpt>
      <trkpt lat="37.18392166666667" lon="-7.34028">
        <ele>65.20000000000016</ele>
        <time>2013-01-07T13:10:12.45</time>
      </trkpt>
      <trkpt lat="37.183953333333335" lon="-7.340211666666667">
        <ele>65.50000000000016</ele>
        <time>2013-01-07T13:10:13.28</time>
      </trkpt>
      <trkpt lat="37.183976666666666" lon="-7.340138333333333">
        <ele>65.10000000000015</ele>
        <time>2013-01-07T13:10:14.30</time>
      </trkpt>
      <trkpt lat="37.18399" lon="-7.340061666666666">
        <ele>65.10000000000015</ele>
        <time>2013-01-07T13:10:15.30</time>
      </trkpt>
      <trkpt lat="37.18401" lon="-7.339993333333333">
        <ele>64.60000000000015</ele>
        <time>2013-01-07T13:10:16.30</time>
      </trkpt>
      <trkpt lat="37.18403333333333" lon="-7.339926666666667">
        <ele>64.60000000000015</ele>
        <time>2013-01-07T13:10:17.30</time>
      </trkpt>
      <trkpt lat="37.184065" lon="-7.339855">
        <ele>64.00000000000016</ele>
        <time>2013-01-07T13:10:18.30</time>
      </trkpt>
      <trkpt lat="37.184086666666666" lon="-7.339793333333334">
        <ele>64.00000000000016</ele>
        <time>2013-01-07T13:10:19.30</time>
      </trkpt>
      <trkpt lat="37.18411" lon="-7.33973">
        <ele>63.400000000000155</ele>
        <time>2013-01-07T13:10:20.30</time>
      </trkpt>
      <trkpt lat="37.18413" lon="-7.339658333333333">
        <ele>63.500000000000156</ele>
        <time>2013-01-07T13:10:21.32</time>
      </trkpt>
      <trkpt lat="37.18416" lon="-7.339588333333333">
        <ele>63.20000000000016</ele>
        <time>2013-01-07T13:10:22.27</time>
      </trkpt>
      <trkpt lat="37.18418" lon="-7.339518333333333">
        <ele>63.20000000000016</ele>
        <time>2013-01-07T13:10:23.30</time>
      </trkpt>
      <trkpt lat="37.184205" lon="-7.33944">
        <ele>62.500000000000156</ele>
        <time>2013-01-07T13:10:24.27</time>
      </trkpt>
      <trkpt lat="37.18422666666667" lon="-7.3393733333333335">
        <ele>62.400000000000155</ele>
        <time>2013-01-07T13:10:25.30</time>
      </trkpt>
      <trkpt lat="37.184245" lon="-7.339301666666667">
        <ele>62.900000000000155</ele>
        <time>2013-01-07T13:10:26.30</time>
      </trkpt>
      <trkpt lat="37.18427166666667" lon="-7.339236666666666">
        <ele>63.000000000000156</ele>
        <time>2013-01-07T13:10:27.30</time>
      </trkpt>
      <trkpt lat="37.184295" lon="-7.339175">
        <ele>63.20000000000016</ele>
        <time>2013-01-07T13:10:28.30</time>
      </trkpt>
      <trkpt lat="37.184313333333336" lon="-7.339108333333333">
        <ele>63.000000000000156</ele>
        <time>2013-01-07T13:10:29.30</time>
      </trkpt>
      <trkpt lat="37.18433666666667" lon="-7.339036666666667">
        <ele>63.000000000000156</ele>
        <time>2013-01-07T13:10:30.30</time>
      </trkpt>
      <trkpt lat="37.18436333333333" lon="-7.338963333333333">
        <ele>62.80000000000015</ele>
        <time>2013-01-07T13:10:31.30</time>
      </trkpt>
      <trkpt lat="37.18438666666667" lon="-7.338886666666666">
        <ele>62.30000000000015</ele>
        <time>2013-01-07T13:10:32.30</time>
      </trkpt>
      <trkpt lat="37.18442666666667" lon="-7.338816666666666">
        <ele>61.70000000000015</ele>
        <time>2013-01-07T13:10:33.30</time>
      </trkpt>
      <trkpt lat="37.18445666666667" lon="-7.338753333333333">
        <ele>61.60000000000015</ele>
        <time>2013-01-07T13:10:34.30</time>
      </trkpt>
      <trkpt lat="37.18447333333334" lon="-7.3386933333333335">
        <ele>61.40000000000015</ele>
        <time>2013-01-07T13:10:35.30</time>
      </trkpt>
      <trkpt lat="37.18450333333333" lon="-7.338631666666667">
        <ele>60.90000000000015</ele>
        <time>2013-01-07T13:10:36.30</time>
      </trkpt>
      <trkpt lat="37.18452833333333" lon="-7.338561666666667">
        <ele>60.50000000000015</ele>
        <time>2013-01-07T13:10:37.30</time>
      </trkpt>
      <trkpt lat="37.184553333333334" lon="-7.338493333333333">
        <ele>60.10000000000015</ele>
        <time>2013-01-07T13:10:38.30</time>
      </trkpt>
      <trkpt lat="37.18458" lon="-7.338428333333334">
        <ele>59.60000000000015</ele>
        <time>2013-01-07T13:10:39.30</time>
      </trkpt>
      <trkpt lat="37.1846" lon="-7.338356666666667">
        <ele>59.90000000000015</ele>
        <time>2013-01-07T13:10:40.30</time>
      </trkpt>
      <trkpt lat="37.18462666666667" lon="-7.338291666666667">
        <ele>60.10000000000015</ele>
        <time>2013-01-07T13:10:41.30</time>
      </trkpt>
      <trkpt lat="37.18465666666667" lon="-7.338225">
        <ele>60.20000000000015</ele>
        <time>2013-01-07T13:10:42.30</time>
      </trkpt>
      <trkpt lat="37.184688333333334" lon="-7.33815">
        <ele>60.900000000000155</ele>
        <time>2013-01-07T13:10:43.30</time>
      </trkpt>
      <trkpt lat="37.184715" lon="-7.338085">
        <ele>61.10000000000016</ele>
        <time>2013-01-07T13:10:44.30</time>
      </trkpt>
      <trkpt lat="37.18475" lon="-7.338021666666667">
        <ele>61.400000000000155</ele>
        <time>2013-01-07T13:10:45.30</time>
      </trkpt>
      <trkpt lat="37.184795" lon="-7.337958333333333">
        <ele>61.30000000000015</ele>
        <time>2013-01-07T13:10:46.30</time>
      </trkpt>
      <trkpt lat="37.184828333333336" lon="-7.337893333333334">
        <ele>60.80000000000015</ele>
        <time>2013-01-07T13:10:47.30</time>
      </trkpt>
      <trkpt lat="37.184855" lon="-7.337833333333333">
        <ele>60.400000000000155</ele>
        <time>2013-01-07T13:10:48.30</time>
      </trkpt>
      <trkpt lat="37.18488166666667" lon="-7.337765">
        <ele>60.400000000000155</ele>
        <time>2013-01-07T13:10:49.30</time>
      </trkpt>
      <trkpt lat="37.18490833333333" lon="-7.337695">
        <ele>60.400000000000155</ele>
        <time>2013-01-07T13:10:50.30</time>
      </trkpt>
      <trkpt lat="37.18494166666667" lon="-7.337628333333333">
        <ele>60.400000000000155</ele>
        <time>2013-01-07T13:10:51.30</time>
      </trkpt>
      <trkpt lat="37.184976666666664" lon="-7.33756">
        <ele>59.70000000000015</ele>
        <time>2013-01-07T13:10:52.28</time>
      </trkpt>
      <trkpt lat="37.18499166666667" lon="-7.337485">
        <ele>60.00000000000015</ele>
        <time>2013-01-07T13:10:53.31</time>
      </trkpt>
      <trkpt lat="37.185008333333336" lon="-7.337405">
        <ele>60.60000000000015</ele>
        <time>2013-01-07T13:10:54.30</time>
      </trkpt>
      <trkpt lat="37.18501666666667" lon="-7.337343333333333">
        <ele>60.90000000000015</ele>
        <time>2013-01-07T13:10:55.30</time>
      </trkpt>
      <trkpt lat="37.18502" lon="-7.337271666666667">
        <ele>60.800000000000146</ele>
        <time>2013-01-07T13:10:56.30</time>
      </trkpt>
      <trkpt lat="37.18504166666666" lon="-7.337198333333333">
        <ele>60.90000000000015</ele>
        <time>2013-01-07T13:10:57.28</time>
      </trkpt>
      <trkpt lat="37.185065" lon="-7.3371216666666665">
        <ele>60.40000000000015</ele>
        <time>2013-01-07T13:10:58.29</time>
      </trkpt>
      <trkpt lat="37.185098333333336" lon="-7.33706">
        <ele>59.50000000000015</ele>
        <time>2013-01-07T13:10:59.30</time>
      </trkpt>
      <trkpt lat="37.18512666666667" lon="-7.336991666666667">
        <ele>59.10000000000015</ele>
        <time>2013-01-07T13:11:00.31</time>
      </trkpt>
      <trkpt lat="37.18515166666667" lon="-7.336928333333334">
        <ele>59.00000000000015</ele>
        <time>2013-01-07T13:11:01.30</time>
      </trkpt>
      <trkpt lat="37.185175" lon="-7.336861666666667">
        <ele>58.800000000000146</ele>
        <time>2013-01-07T13:11:02.30</time>
      </trkpt>
      <trkpt lat="37.185195" lon="-7.336796666666666">
        <ele>58.50000000000015</ele>
        <time>2013-01-07T13:11:03.30</time>
      </trkpt>
      <trkpt lat="37.18521833333333" lon="-7.336728333333333">
        <ele>58.70000000000015</ele>
        <time>2013-01-07T13:11:04.30</time>
      </trkpt>
      <trkpt lat="37.18523" lon="-7.336648333333334">
        <ele>59.60000000000015</ele>
        <time>2013-01-07T13:11:05.30</time>
      </trkpt>
      <trkpt lat="37.185251666666666" lon="-7.336576666666667">
        <ele>60.10000000000015</ele>
        <time>2013-01-07T13:11:06.30</time>
      </trkpt>
      <trkpt lat="37.185265" lon="-7.336495">
        <ele>60.50000000000015</ele>
        <time>2013-01-07T13:11:07.30</time>
      </trkpt>
      <trkpt lat="37.185275" lon="-7.336428333333333">
        <ele>61.10000000000015</ele>
        <time>2013-01-07T13:11:08.30</time>
      </trkpt>
      <trkpt lat="37.1853" lon="-7.336365">
        <ele>61.30000000000015</ele>
        <time>2013-01-07T13:11:09.30</time>
      </trkpt>
      <trkpt lat="37.18532833333333" lon="-7.336288333333333">
        <ele>60.500000000000156</ele>
        <time>2013-01-07T13:11:10.30</time>
      </trkpt>
      <trkpt lat="37.18535" lon="-7.336218333333333">
        <ele>60.400000000000155</ele>
        <time>2013-01-07T13:11:11.30</time>
      </trkpt>
      <trkpt lat="37.18537666666667" lon="-7.336148333333333">
        <ele>60.30000000000015</ele>
        <time>2013-01-07T13:11:12.33</time>
      </trkpt>
      <trkpt lat="37.185406666666665" lon="-7.336076666666667">
        <ele>59.60000000000015</ele>
        <time>2013-01-07T13:11:13.30</time>
      </trkpt>
      <trkpt lat="37.185426666666665" lon="-7.336001666666666">
        <ele>60.20000000000015</ele>
        <time>2013-01-07T13:11:14.30</time>
      </trkpt>
      <trkpt lat="37.185445" lon="-7.335925">
        <ele>60.400000000000155</ele>
        <time>2013-01-07T13:11:15.30</time>
      </trkpt>
      <trkpt lat="37.185473333333334" lon="-7.335848333333334">
        <ele>60.000000000000156</ele>
        <time>2013-01-07T13:11:16.30</time>
      </trkpt>
      <trkpt lat="37.185505" lon="-7.335775">
        <ele>59.70000000000016</ele>
        <time>2013-01-07T13:11:17.30</time>
      </trkpt>
      <trkpt lat="37.185521666666666" lon="-7.335701666666667">
        <ele>59.20000000000016</ele>
        <time>2013-01-07T13:11:18.30</time>
      </trkpt>
      <trkpt lat="37.18552833333333" lon="-7.335631666666667">
        <ele>61.000000000000156</ele>
        <time>2013-01-07T13:11:19.30</time>
      </trkpt>
      <trkpt lat="37.18555833333333" lon="-7.335566666666667">
        <ele>60.30000000000015</ele>
        <time>2013-01-07T13:11:20.30</time>
      </trkpt>
      <trkpt lat="37.185581666666664" lon="-7.3355033333333335">
        <ele>60.400000000000155</ele>
        <time>2013-01-07T13:11:21.30</time>
      </trkpt>
      <trkpt lat="37.18561" lon="-7.33543">
        <ele>60.20000000000015</ele>
        <time>2013-01-07T13:11:22.30</time>
      </trkpt>
      <trkpt lat="37.185635" lon="-7.335358333333334">
        <ele>60.400000000000155</ele>
        <time>2013-01-07T13:11:23.31</time>
      </trkpt>
      <trkpt lat="37.185651666666665" lon="-7.335288333333334">
        <ele>60.30000000000015</ele>
        <time>2013-01-07T13:11:24.30</time>
      </trkpt>
      <trkpt lat="37.18568666666667" lon="-7.335215">
        <ele>59.70000000000015</ele>
        <time>2013-01-07T13:11:25.30</time>
      </trkpt>
      <trkpt lat="37.18571333333333" lon="-7.335148333333334">
        <ele>59.80000000000015</ele>
        <time>2013-01-07T13:11:26.30</time>
      </trkpt>
      <trkpt lat="37.18574" lon="-7.33507">
        <ele>59.30000000000015</ele>
        <time>2013-01-07T13:11:27.30</time>
      </trkpt>
      <trkpt lat="37.185766666666666" lon="-7.334995">
        <ele>58.70000000000015</ele>
        <time>2013-01-07T13:11:28.30</time>
      </trkpt>
      <trkpt lat="37.1858" lon="-7.334928333333333">
        <ele>58.70000000000015</ele>
        <time>2013-01-07T13:11:29.30</time>
      </trkpt>
      <trkpt lat="37.18582" lon="-7.334856666666667">
        <ele>58.900000000000155</ele>
        <time>2013-01-07T13:11:30.30</time>
      </trkpt>
      <trkpt lat="37.185845" lon="-7.33478">
        <ele>58.80000000000015</ele>
        <time>2013-01-07T13:11:31.30</time>
      </trkpt>
      <trkpt lat="37.18586666666667" lon="-7.334713333333333">
        <ele>59.000000000000156</ele>
        <time>2013-01-07T13:11:32.30</time>
      </trkpt>
      <trkpt lat="37.185895" lon="-7.334631666666667">
        <ele>58.30000000000015</ele>
        <time>2013-01-07T13:11:33.30</time>
      </trkpt>
      <trkpt lat="37.185915" lon="-7.334553333333333">
        <ele>58.20000000000015</ele>
        <time>2013-01-07T13:11:34.30</time>
      </trkpt>
      <trkpt lat="37.18593166666667" lon="-7.334476666666666">
        <ele>57.30000000000015</ele>
        <time>2013-01-07T13:11:35.30</time>
      </trkpt>
      <trkpt lat="37.185946666666666" lon="-7.334406666666666">
        <ele>56.80000000000015</ele>
        <time>2013-01-07T13:11:36.30</time>
      </trkpt>
      <trkpt lat="37.18596" lon="-7.334346666666667">
        <ele>56.70000000000015</ele>
        <time>2013-01-07T13:11:37.30</time>
      </trkpt>
      <trkpt lat="37.18599" lon="-7.334298333333333">
        <ele>56.900000000000155</ele>
        <time>2013-01-07T13:11:38.30</time>
      </trkpt>
      <trkpt lat="37.186038333333336" lon="-7.334273333333333">
        <ele>57.30000000000015</ele>
        <time>2013-01-07T13:11:39.30</time>
      </trkpt>
      <trkpt lat="37.18608166666667" lon="-7.33427">
        <ele>57.70000000000015</ele>
        <time>2013-01-07T13:11:40.30</time>
      </trkpt>
      <trkpt lat="37.18611666666666" lon="-7.334295">
        <ele>57.900000000000155</ele>
        <time>2013-01-07T13:11:41.30</time>
      </trkpt>
      <trkpt lat="37.186145" lon="-7.334301666666667">
        <ele>57.500000000000156</ele>
        <time>2013-01-07T13:11:42.30</time>
      </trkpt>
      <trkpt lat="37.18613" lon="-7.33431">
        <ele>57.500000000000156</ele>
        <time>2013-01-07T13:11:44.34</time>
      </trkpt>
      <trkpt lat="37.18615" lon="-7.3343">
        <ele>55.9</ele>
        <time>2013-01-07T13:11:51.29</time>
      </trkpt>
      <trkpt lat="37.18615666666667" lon="-7.334298333333333">
        <ele>55.8</ele>
        <time>2013-01-07T13:11:55.29</time>
      </trkpt>
      <trkpt lat="37.18615833333333" lon="-7.334303333333334">
        <ele>55.8</ele>
        <time>2013-01-07T13:12:02.41</time>
      </trkpt>
      <trkpt lat="37.18615166666667" lon="-7.334318333333333">
        <ele>54.8</ele>
        <time>2013-01-07T13:12:11.29</time>
      </trkpt>
      <trkpt lat="37.186143333333334" lon="-7.334328333333334">
        <ele>55.3</ele>
        <time>2013-01-07T13:12:12.29</time>
      </trkpt>
      <trkpt lat="37.18615333333333" lon="-7.334325">
        <ele>55.4</ele>
        <time>2013-01-07T13:12:14.28</time>
      </trkpt>
      <trkpt lat="37.18616166666666" lon="-7.33432">
        <ele>54.3</ele>
        <time>2013-01-07T13:12:21.29</time>
      </trkpt>
      <trkpt lat="37.186168333333335" lon="-7.334325">
        <ele>54.7</ele>
        <time>2013-01-07T13:12:37.30</time>
      </trkpt>
      <trkpt lat="37.186175" lon="-7.334336666666666">
        <ele>54.5</ele>
        <time>2013-01-07T13:12:38.30</time>
      </trkpt>
      <trkpt lat="37.186186666666664" lon="-7.334355">
        <ele>54.7</ele>
        <time>2013-01-07T13:12:39.30</time>
      </trkpt>
      <trkpt lat="37.18618333333333" lon="-7.334365">
        <ele>53.6</ele>
        <time>2013-01-07T13:12:40.30</time>
      </trkpt>
      <trkpt lat="37.1862" lon="-7.334398333333334">
        <ele>53.6</ele>
        <time>2013-01-07T13:12:41.30</time>
      </trkpt>
      <trkpt lat="37.186211666666665" lon="-7.334415">
        <ele>52.7</ele>
        <time>2013-01-07T13:12:42.29</time>
      </trkpt>
      <trkpt lat="37.18623" lon="-7.3344483333333335">
        <ele>53</ele>
        <time>2013-01-07T13:12:43.30</time>
      </trkpt>
      <trkpt lat="37.18624333333333" lon="-7.334481666666667">
        <ele>52.9</ele>
        <time>2013-01-07T13:12:44.30</time>
      </trkpt>
      <trkpt lat="37.186255" lon="-7.334515">
        <ele>52.8</ele>
        <time>2013-01-07T13:12:45.30</time>
      </trkpt>
      <trkpt lat="37.186263333333336" lon="-7.334548333333333">
        <ele>52.599999999999994</ele>
        <time>2013-01-07T13:12:46.29</time>
      </trkpt>
      <trkpt lat="37.186276666666664" lon="-7.334576666666667">
        <ele>52.3</ele>
        <time>2013-01-07T13:12:47.30</time>
      </trkpt>
      <trkpt lat="37.18629" lon="-7.3346116666666665">
        <ele>51.9</ele>
        <time>2013-01-07T13:12:48.30</time>
      </trkpt>
      <trkpt lat="37.186303333333335" lon="-7.334661666666666">
        <ele>51.9</ele>
        <time>2013-01-07T13:12:49.30</time>
      </trkpt>
      <trkpt lat="37.186321666666664" lon="-7.334716666666667">
        <ele>51.699999999999996</ele>
        <time>2013-01-07T13:12:50.30</time>
      </trkpt>
      <trkpt lat="37.186335" lon="-7.334768333333333">
        <ele>51.99999999999999</ele>
        <time>2013-01-07T13:12:51.31</time>
      </trkpt>
      <trkpt lat="37.186348333333335" lon="-7.3348233333333335">
        <ele>51.99999999999999</ele>
        <time>2013-01-07T13:12:52.30</time>
      </trkpt>
      <trkpt lat="37.186375" lon="-7.334895">
        <ele>51.79999999999999</ele>
        <time>2013-01-07T13:12:53.30</time>
      </trkpt>
      <trkpt lat="37.18639666666667" lon="-7.33495">
        <ele>51.49999999999999</ele>
        <time>2013-01-07T13:12:54.30</time>
      </trkpt>
      <trkpt lat="37.186415" lon="-7.335015">
        <ele>51.49999999999999</ele>
        <time>2013-01-07T13:12:55.30</time>
      </trkpt>
      <trkpt lat="37.186445" lon="-7.335076666666667">
        <ele>51.29999999999999</ele>
        <time>2013-01-07T13:12:56.30</time>
      </trkpt>
      <trkpt lat="37.186483333333335" lon="-7.3351516666666665">
        <ele>50.99999999999999</ele>
        <time>2013-01-07T13:12:57.30</time>
      </trkpt>
      <trkpt lat="37.18651833333333" lon="-7.335218333333334">
        <ele>51.099999999999994</ele>
        <time>2013-01-07T13:12:58.30</time>
      </trkpt>
      <trkpt lat="37.186546666666665" lon="-7.33527">
        <ele>50.99999999999999</ele>
        <time>2013-01-07T13:12:59.30</time>
      </trkpt>
      <trkpt lat="37.186573333333335" lon="-7.3353383333333335">
        <ele>51.199999999999996</ele>
        <time>2013-01-07T13:13:00.30</time>
      </trkpt>
      <trkpt lat="37.18660333333333" lon="-7.33541">
        <ele>50.699999999999996</ele>
        <time>2013-01-07T13:13:01.30</time>
      </trkpt>
      <trkpt lat="37.18663333333333" lon="-7.335476666666667">
        <ele>50.099999999999994</ele>
        <time>2013-01-07T13:13:02.30</time>
      </trkpt>
      <trkpt lat="37.18667666666666" lon="-7.335561666666667">
        <ele>49.99999999999999</ele>
        <time>2013-01-07T13:13:03.30</time>
      </trkpt>
      <trkpt lat="37.186708333333335" lon="-7.335623333333333">
        <ele>49.99999999999999</ele>
        <time>2013-01-07T13:13:04.30</time>
      </trkpt>
      <trkpt lat="37.18673" lon="-7.335685">
        <ele>50.29999999999999</ele>
        <time>2013-01-07T13:13:05.30</time>
      </trkpt>
      <trkpt lat="37.186765" lon="-7.335746666666667">
        <ele>50.79999999999999</ele>
        <time>2013-01-07T13:13:06.30</time>
      </trkpt>
      <trkpt lat="37.18680166666667" lon="-7.335803333333334">
        <ele>51.19999999999999</ele>
        <time>2013-01-07T13:13:07.30</time>
      </trkpt>
      <trkpt lat="37.18682833333333" lon="-7.335853333333334">
        <ele>51.19999999999999</ele>
        <time>2013-01-07T13:13:08.30</time>
      </trkpt>
      <trkpt lat="37.18685833333333" lon="-7.335925">
        <ele>50.999999999999986</ele>
        <time>2013-01-07T13:13:09.30</time>
      </trkpt>
      <trkpt lat="37.186881666666665" lon="-7.335988333333334">
        <ele>50.69999999999999</ele>
        <time>2013-01-07T13:13:10.30</time>
      </trkpt>
      <trkpt lat="37.186905" lon="-7.336051666666667">
        <ele>50.999999999999986</ele>
        <time>2013-01-07T13:13:11.30</time>
      </trkpt>
      <trkpt lat="37.186935" lon="-7.3361133333333335">
        <ele>50.69999999999999</ele>
        <time>2013-01-07T13:13:12.30</time>
      </trkpt>
      <trkpt lat="37.186955" lon="-7.336125">
        <ele>51.89999999999999</ele>
        <time>2013-01-07T13:13:13.30</time>
      </trkpt>
      <trkpt lat="37.186991666666664" lon="-7.336193333333333">
        <ele>51.69999999999999</ele>
        <time>2013-01-07T13:13:14.30</time>
      </trkpt>
      <trkpt lat="37.187015" lon="-7.336256666666666">
        <ele>51.69999999999999</ele>
        <time>2013-01-07T13:13:15.29</time>
      </trkpt>
      <trkpt lat="37.187038333333334" lon="-7.33632">
        <ele>51.69999999999999</ele>
        <time>2013-01-07T13:13:16.30</time>
      </trkpt>
      <trkpt lat="37.187045" lon="-7.336401666666666">
        <ele>51.09999999999999</ele>
        <time>2013-01-07T13:13:17.30</time>
      </trkpt>
      <trkpt lat="37.187061666666665" lon="-7.336483333333334">
        <ele>50.79999999999999</ele>
        <time>2013-01-07T13:13:18.30</time>
      </trkpt>
      <trkpt lat="37.18707833333333" lon="-7.336553333333334">
        <ele>50.59999999999999</ele>
        <time>2013-01-07T13:13:19.30</time>
      </trkpt>
      <trkpt lat="37.187095" lon="-7.336601666666667">
        <ele>50.79999999999999</ele>
        <time>2013-01-07T13:13:20.30</time>
      </trkpt>
      <trkpt lat="37.18711666666667" lon="-7.336646666666667">
        <ele>50.99999999999999</ele>
        <time>2013-01-07T13:13:21.30</time>
      </trkpt>
      <trkpt lat="37.18714333333333" lon="-7.3367">
        <ele>50.89999999999999</ele>
        <time>2013-01-07T13:13:22.30</time>
      </trkpt>
      <trkpt lat="37.18716833333333" lon="-7.336751666666666">
        <ele>51.19999999999999</ele>
        <time>2013-01-07T13:13:23.30</time>
      </trkpt>
      <trkpt lat="37.187185" lon="-7.336805">
        <ele>50.79999999999999</ele>
        <time>2013-01-07T13:13:24.30</time>
      </trkpt>
      <trkpt lat="37.18720166666667" lon="-7.33687">
        <ele>50.49999999999999</ele>
        <time>2013-01-07T13:13:25.31</time>
      </trkpt>
      <trkpt lat="37.187223333333336" lon="-7.336926666666667">
        <ele>50.79999999999999</ele>
        <time>2013-01-07T13:13:26.31</time>
      </trkpt>
      <trkpt lat="37.187236666666664" lon="-7.336963333333333">
        <ele>50.99999999999999</ele>
        <time>2013-01-07T13:13:27.29</time>
      </trkpt>
      <trkpt lat="37.187275" lon="-7.3370283333333335">
        <ele>51.29999999999999</ele>
        <time>2013-01-07T13:13:28.30</time>
      </trkpt>
      <trkpt lat="37.18731" lon="-7.337071666666667">
        <ele>51.09999999999999</ele>
        <time>2013-01-07T13:13:29.30</time>
      </trkpt>
      <trkpt lat="37.18733666666667" lon="-7.337158333333333">
        <ele>51.09999999999999</ele>
        <time>2013-01-07T13:13:30.30</time>
      </trkpt>
      <trkpt lat="37.18736666666667" lon="-7.337208333333334">
        <ele>50.79999999999999</ele>
        <time>2013-01-07T13:13:31.30</time>
      </trkpt>
      <trkpt lat="37.187358333333336" lon="-7.33728">
        <ele>50.69999999999999</ele>
        <time>2013-01-07T13:13:32.34</time>
      </trkpt>
      <trkpt lat="37.187371666666664" lon="-7.337336666666666">
        <ele>51.59999999999999</ele>
        <time>2013-01-07T13:13:33.29</time>
      </trkpt>
      <trkpt lat="37.187306666666665" lon="-7.337363333333333">
        <ele>51.29999999999999</ele>
        <time>2013-01-07T13:13:34.30</time>
      </trkpt>
      <trkpt lat="37.18727666666667" lon="-7.3373816666666665">
        <ele>51.39999999999999</ele>
        <time>2013-01-07T13:13:35.30</time>
      </trkpt>
      <trkpt lat="37.187236666666664" lon="-7.337373333333334">
        <ele>51.99999999999999</ele>
        <time>2013-01-07T13:13:36.30</time>
      </trkpt>
      <trkpt lat="37.18719166666666" lon="-7.337358333333333">
        <ele>51.79999999999999</ele>
        <time>2013-01-07T13:13:37.30</time>
      </trkpt>
      <trkpt lat="37.18715" lon="-7.3373566666666665">
        <ele>51.19999999999999</ele>
        <time>2013-01-07T13:13:38.30</time>
      </trkpt>
      <trkpt lat="37.18714833333333" lon="-7.337438333333333">
        <ele>51.89999999999999</ele>
        <time>2013-01-07T13:13:39.30</time>
      </trkpt>
      <trkpt lat="37.187125" lon="-7.337488333333333">
        <ele>51.89999999999999</ele>
        <time>2013-01-07T13:13:40.30</time>
      </trkpt>
      <trkpt lat="37.18711666666667" lon="-7.33753">
        <ele>50.89999999999999</ele>
        <time>2013-01-07T13:13:41.30</time>
      </trkpt>
      <trkpt lat="37.18711666666667" lon="-7.337573333333333">
        <ele>50.099999999999994</ele>
        <time>2013-01-07T13:13:42.30</time>
      </trkpt>
      <trkpt lat="37.18711666666667" lon="-7.337623333333333">
        <ele>49.99999999999999</ele>
        <time>2013-01-07T13:13:43.30</time>
      </trkpt>
      <trkpt lat="37.187126666666664" lon="-7.337675">
        <ele>50.79999999999999</ele>
        <time>2013-01-07T13:13:44.30</time>
      </trkpt>
      <trkpt lat="37.187171666666664" lon="-7.337706666666667">
        <ele>51.49999999999999</ele>
        <time>2013-01-07T13:13:45.30</time>
      </trkpt>
      <trkpt lat="37.18720833333333" lon="-7.337745">
        <ele>51.49999999999999</ele>
        <time>2013-01-07T13:13:46.29</time>
      </trkpt>
      <trkpt lat="37.18725666666667" lon="-7.33778">
        <ele>51.29999999999999</ele>
        <time>2013-01-07T13:13:47.30</time>
      </trkpt>
      <trkpt lat="37.1873" lon="-7.337805">
        <ele>51.39999999999999</ele>
        <time>2013-01-07T13:13:48.30</time>
      </trkpt>
      <trkpt lat="37.187356666666666" lon="-7.337828333333333">
        <ele>51.99999999999999</ele>
        <time>2013-01-07T13:13:49.30</time>
      </trkpt>
      <trkpt lat="37.18741333333333" lon="-7.337846666666667">
        <ele>52.39999999999999</ele>
        <time>2013-01-07T13:13:50.30</time>
      </trkpt>
      <trkpt lat="37.187465" lon="-7.337871666666667">
        <ele>52.79999999999999</ele>
        <time>2013-01-07T13:13:51.30</time>
      </trkpt>
      <trkpt lat="37.187515" lon="-7.3379">
        <ele>53.09999999999999</ele>
        <time>2013-01-07T13:13:52.30</time>
      </trkpt>
      <trkpt lat="37.187578333333335" lon="-7.337925">
        <ele>53.09999999999999</ele>
        <time>2013-01-07T13:13:53.30</time>
      </trkpt>
      <trkpt lat="37.18763333333333" lon="-7.337963333333334">
        <ele>53.09999999999999</ele>
        <time>2013-01-07T13:13:54.30</time>
      </trkpt>
      <trkpt lat="37.18767666666667" lon="-7.337998333333333">
        <ele>53.19999999999999</ele>
        <time>2013-01-07T13:13:55.29</time>
      </trkpt>
      <trkpt lat="37.187733333333334" lon="-7.33807">
        <ele>54.09999999999999</ele>
        <time>2013-01-07T13:13:56.30</time>
      </trkpt>
      <trkpt lat="37.187785" lon="-7.338125">
        <ele>52.999999999999986</ele>
        <time>2013-01-07T13:13:57.29</time>
      </trkpt>
      <trkpt lat="37.18783666666667" lon="-7.33819">
        <ele>52.59999999999999</ele>
        <time>2013-01-07T13:13:58.30</time>
      </trkpt>
      <trkpt lat="37.187873333333336" lon="-7.33827">
        <ele>52.29999999999999</ele>
        <time>2013-01-07T13:13:59.30</time>
      </trkpt>
      <trkpt lat="37.18784333333333" lon="-7.338346666666666">
        <ele>52.69999999999999</ele>
        <time>2013-01-07T13:14:00.30</time>
      </trkpt>
      <trkpt lat="37.18784333333333" lon="-7.3384116666666666">
        <ele>52.79999999999999</ele>
        <time>2013-01-07T13:14:01.30</time>
      </trkpt>
      <trkpt lat="37.187825" lon="-7.3384583333333335">
        <ele>53.19999999999999</ele>
        <time>2013-01-07T13:14:02.30</time>
      </trkpt>
      <trkpt lat="37.18780833333334" lon="-7.33852">
        <ele>53.19999999999999</ele>
        <time>2013-01-07T13:14:03.30</time>
      </trkpt>
      <trkpt lat="37.18778833333333" lon="-7.33859">
        <ele>53.59999999999999</ele>
        <time>2013-01-07T13:14:04.30</time>
      </trkpt>
      <trkpt lat="37.18777333333333" lon="-7.3386466666666665">
        <ele>53.79999999999999</ele>
        <time>2013-01-07T13:14:05.30</time>
      </trkpt>
      <trkpt lat="37.18775" lon="-7.338696666666666">
        <ele>53.69999999999999</ele>
        <time>2013-01-07T13:14:06.30</time>
      </trkpt>
      <trkpt lat="37.18772166666667" lon="-7.33874">
        <ele>54.09999999999999</ele>
        <time>2013-01-07T13:14:07.29</time>
      </trkpt>
      <trkpt lat="37.187693333333335" lon="-7.338783333333334">
        <ele>54.09999999999999</ele>
        <time>2013-01-07T13:14:08.29</time>
      </trkpt>
      <trkpt lat="37.187668333333335" lon="-7.338815">
        <ele>54.399999999999984</ele>
        <time>2013-01-07T13:14:09.31</time>
      </trkpt>
      <trkpt lat="37.187655" lon="-7.338851666666667">
        <ele>54.79999999999998</ele>
        <time>2013-01-07T13:14:10.29</time>
      </trkpt>
      <trkpt lat="37.18765333333333" lon="-7.33891">
        <ele>54.999999999999986</ele>
        <time>2013-01-07T13:14:11.31</time>
      </trkpt>
      <trkpt lat="37.187596666666664" lon="-7.338991666666667">
        <ele>53.499999999999986</ele>
        <time>2013-01-07T13:14:12.31</time>
      </trkpt>
      <trkpt lat="37.187558333333335" lon="-7.339063333333334">
        <ele>52.999999999999986</ele>
        <time>2013-01-07T13:14:13.29</time>
      </trkpt>
      <trkpt lat="37.187505" lon="-7.339118333333333">
        <ele>51.899999999999984</ele>
        <time>2013-01-07T13:14:14.29</time>
      </trkpt>
      <trkpt lat="37.187455" lon="-7.339125">
        <ele>51.19999999999998</ele>
        <time>2013-01-07T13:14:15.33</time>
      </trkpt>
      <trkpt lat="37.187396666666665" lon="-7.339133333333334">
        <ele>50.99999999999998</ele>
        <time>2013-01-07T13:14:16.33</time>
      </trkpt>
      <trkpt lat="37.18734666666667" lon="-7.33913">
        <ele>51.39999999999998</ele>
        <time>2013-01-07T13:14:17.30</time>
      </trkpt>
      <trkpt lat="37.18729166666667" lon="-7.3391166666666665">
        <ele>51.199999999999974</ele>
        <time>2013-01-07T13:14:18.30</time>
      </trkpt>
      <trkpt lat="37.187243333333335" lon="-7.3390933333333335">
        <ele>51.699999999999974</ele>
        <time>2013-01-07T13:14:19.30</time>
      </trkpt>
      <trkpt lat="37.187203333333336" lon="-7.339066666666667">
        <ele>52.199999999999974</ele>
        <time>2013-01-07T13:14:20.31</time>
      </trkpt>
      <trkpt lat="37.18715" lon="-7.339041666666667">
        <ele>51.99999999999997</ele>
        <time>2013-01-07T13:14:21.30</time>
      </trkpt>
      <trkpt lat="37.18710166666666" lon="-7.339018333333334">
        <ele>52.199999999999974</ele>
        <time>2013-01-07T13:14:22.30</time>
      </trkpt>
      <trkpt lat="37.18705" lon="-7.33901">
        <ele>52.39999999999998</ele>
        <time>2013-01-07T13:14:23.30</time>
      </trkpt>
      <trkpt lat="37.186996666666666" lon="-7.339005">
        <ele>52.39999999999998</ele>
        <time>2013-01-07T13:14:24.30</time>
      </trkpt>
      <trkpt lat="37.186946666666664" lon="-7.33901">
        <ele>52.59999999999998</ele>
        <time>2013-01-07T13:14:25.31</time>
      </trkpt>
      <trkpt lat="37.186886666666666" lon="-7.339015">
        <ele>52.59999999999998</ele>
        <time>2013-01-07T13:14:26.31</time>
      </trkpt>
      <trkpt lat="37.186841666666666" lon="-7.339031666666667">
        <ele>52.69999999999998</ele>
        <time>2013-01-07T13:14:27.31</time>
      </trkpt>
      <trkpt lat="37.186796666666666" lon="-7.339056666666667">
        <ele>53.19999999999998</ele>
        <time>2013-01-07T13:14:28.31</time>
      </trkpt>
      <trkpt lat="37.186755" lon="-7.33908">
        <ele>53.49999999999998</ele>
        <time>2013-01-07T13:14:29.31</time>
      </trkpt>
      <trkpt lat="37.18673666666667" lon="-7.339088333333334">
        <ele>53.59999999999998</ele>
        <time>2013-01-07T13:14:30.31</time>
      </trkpt>
      <trkpt lat="37.186685" lon="-7.339123333333333">
        <ele>53.59999999999998</ele>
        <time>2013-01-07T13:14:31.30</time>
      </trkpt>
      <trkpt lat="37.186635" lon="-7.339171666666667">
        <ele>54.09999999999998</ele>
        <time>2013-01-07T13:14:32.30</time>
      </trkpt>
      <trkpt lat="37.18656166666667" lon="-7.33923">
        <ele>54.09999999999998</ele>
        <time>2013-01-07T13:14:33.31</time>
      </trkpt>
      <trkpt lat="37.186521666666664" lon="-7.339288333333333">
        <ele>53.69999999999998</ele>
        <time>2013-01-07T13:14:34.31</time>
      </trkpt>
      <trkpt lat="37.18647833333333" lon="-7.339356666666666">
        <ele>54.09999999999998</ele>
        <time>2013-01-07T13:14:35.31</time>
      </trkpt>
      <trkpt lat="37.18645333333333" lon="-7.33942">
        <ele>57.19999999999998</ele>
        <time>2013-01-07T13:14:36.31</time>
      </trkpt>
      <trkpt lat="37.186416666666666" lon="-7.339481666666667">
        <ele>58.29999999999998</ele>
        <time>2013-01-07T13:14:37.31</time>
      </trkpt>
      <trkpt lat="37.186375" lon="-7.33953">
        <ele>58.899999999999984</ele>
        <time>2013-01-07T13:14:38.31</time>
      </trkpt>
      <trkpt lat="37.186335" lon="-7.339573333333333">
        <ele>59.29999999999998</ele>
        <time>2013-01-07T13:14:39.31</time>
      </trkpt>
      <trkpt lat="37.186296666666664" lon="-7.33963">
        <ele>59.499999999999986</ele>
        <time>2013-01-07T13:14:40.31</time>
      </trkpt>
      <trkpt lat="37.186265" lon="-7.339693333333333">
        <ele>59.899999999999984</ele>
        <time>2013-01-07T13:14:41.31</time>
      </trkpt>
      <trkpt lat="37.18622833333333" lon="-7.3397516666666665">
        <ele>59.69999999999998</ele>
        <time>2013-01-07T13:14:42.30</time>
      </trkpt>
      <trkpt lat="37.186215" lon="-7.3398216666666665">
        <ele>59.899999999999984</ele>
        <time>2013-01-07T13:14:43.31</time>
      </trkpt>
      <trkpt lat="37.186195" lon="-7.33989">
        <ele>58.399999999999984</ele>
        <time>2013-01-07T13:14:44.31</time>
      </trkpt>
      <trkpt lat="37.186168333333335" lon="-7.33997">
        <ele>58.79999999999998</ele>
        <time>2013-01-07T13:14:45.31</time>
      </trkpt>
      <trkpt lat="37.186143333333334" lon="-7.340028333333334">
        <ele>58.399999999999984</ele>
        <time>2013-01-07T13:14:46.31</time>
      </trkpt>
      <trkpt lat="37.186121666666665" lon="-7.340091666666667">
        <ele>58.499999999999986</ele>
        <time>2013-01-07T13:14:47.30</time>
      </trkpt>
      <trkpt lat="37.18609333333333" lon="-7.34016">
        <ele>58.899999999999984</ele>
        <time>2013-01-07T13:14:48.30</time>
      </trkpt>
      <trkpt lat="37.186065" lon="-7.34022">
        <ele>59.29999999999998</ele>
        <time>2013-01-07T13:14:49.31</time>
      </trkpt>
      <trkpt lat="37.186035" lon="-7.34028">
        <ele>59.399999999999984</ele>
        <time>2013-01-07T13:14:50.31</time>
      </trkpt>
      <trkpt lat="37.18601666666667" lon="-7.340348333333333">
        <ele>59.59999999999999</ele>
        <time>2013-01-07T13:14:51.31</time>
      </trkpt>
      <trkpt lat="37.18599" lon="-7.3404066666666665">
        <ele>59.499999999999986</ele>
        <time>2013-01-07T13:14:52.30</time>
      </trkpt>
      <trkpt lat="37.18596" lon="-7.340473333333334">
        <ele>58.59999999999999</ele>
        <time>2013-01-07T13:14:53.31</time>
      </trkpt>
      <trkpt lat="37.18593" lon="-7.34053">
        <ele>58.19999999999999</ele>
        <time>2013-01-07T13:14:54.31</time>
      </trkpt>
      <trkpt lat="37.185915" lon="-7.3405933333333335">
        <ele>58.499999999999986</ele>
        <time>2013-01-07T13:14:55.30</time>
      </trkpt>
      <trkpt lat="37.185898333333334" lon="-7.340661666666667">
        <ele>57.69999999999999</ele>
        <time>2013-01-07T13:14:56.31</time>
      </trkpt>
      <trkpt lat="37.185871666666664" lon="-7.340716666666666">
        <ele>57.69999999999999</ele>
        <time>2013-01-07T13:14:57.31</time>
      </trkpt>
      <trkpt lat="37.185831666666665" lon="-7.340776666666667">
        <ele>57.69999999999999</ele>
        <time>2013-01-07T13:14:58.31</time>
      </trkpt>
      <trkpt lat="37.185808333333334" lon="-7.340855">
        <ele>57.59999999999999</ele>
        <time>2013-01-07T13:14:59.30</time>
      </trkpt>
      <trkpt lat="37.18578" lon="-7.34092">
        <ele>56.999999999999986</ele>
        <time>2013-01-07T13:15:00.31</time>
      </trkpt>
      <trkpt lat="37.18575333333333" lon="-7.340981666666667">
        <ele>56.79999999999998</ele>
        <time>2013-01-07T13:15:01.31</time>
      </trkpt>
      <trkpt lat="37.18573666666666" lon="-7.341048333333333">
        <ele>56.399999999999984</ele>
        <time>2013-01-07T13:15:02.35</time>
      </trkpt>
      <trkpt lat="37.18571333333333" lon="-7.341118333333333">
        <ele>56.79999999999998</ele>
        <time>2013-01-07T13:15:03.31</time>
      </trkpt>
      <trkpt lat="37.18568666666667" lon="-7.341186666666666">
        <ele>56.499999999999986</ele>
        <time>2013-01-07T13:15:04.30</time>
      </trkpt>
      <trkpt lat="37.18566166666667" lon="-7.341258333333333">
        <ele>56.59999999999999</ele>
        <time>2013-01-07T13:15:05.33</time>
      </trkpt>
      <trkpt lat="37.185631666666666" lon="-7.341328333333333">
        <ele>56.399999999999984</ele>
        <time>2013-01-07T13:15:06.32</time>
      </trkpt>
      <trkpt lat="37.185605" lon="-7.341396666666666">
        <ele>56.19999999999998</ele>
        <time>2013-01-07T13:15:07.33</time>
      </trkpt>
      <trkpt lat="37.185575" lon="-7.34147">
        <ele>56.29999999999998</ele>
        <time>2013-01-07T13:15:08.31</time>
      </trkpt>
      <trkpt lat="37.18555833333333" lon="-7.341541666666667">
        <ele>56.19999999999998</ele>
        <time>2013-01-07T13:15:09.31</time>
      </trkpt>
      <trkpt lat="37.18553333333333" lon="-7.341616666666667">
        <ele>55.99999999999998</ele>
        <time>2013-01-07T13:15:10.31</time>
      </trkpt>
      <trkpt lat="37.18550333333334" lon="-7.341686666666667">
        <ele>55.39999999999998</ele>
        <time>2013-01-07T13:15:11.31</time>
      </trkpt>
      <trkpt lat="37.18548" lon="-7.341761666666667">
        <ele>54.49999999999998</ele>
        <time>2013-01-07T13:15:12.32</time>
      </trkpt>
      <trkpt lat="37.18546166666667" lon="-7.341836666666667">
        <ele>54.39999999999998</ele>
        <time>2013-01-07T13:15:13.31</time>
      </trkpt>
      <trkpt lat="37.18543833333333" lon="-7.341905">
        <ele>54.49999999999998</ele>
        <time>2013-01-07T13:15:14.31</time>
      </trkpt>
      <trkpt lat="37.18542" lon="-7.341973333333334">
        <ele>54.299999999999976</ele>
        <time>2013-01-07T13:15:15.31</time>
      </trkpt>
      <trkpt lat="37.18540333333333" lon="-7.342045">
        <ele>54.39999999999998</ele>
        <time>2013-01-07T13:15:16.31</time>
      </trkpt>
      <trkpt lat="37.18537166666667" lon="-7.342113333333334">
        <ele>54.39999999999998</ele>
        <time>2013-01-07T13:15:17.31</time>
      </trkpt>
      <trkpt lat="37.18535166666667" lon="-7.34219">
        <ele>54.89999999999998</ele>
        <time>2013-01-07T13:15:18.32</time>
      </trkpt>
      <trkpt lat="37.185325" lon="-7.342265">
        <ele>54.699999999999974</ele>
        <time>2013-01-07T13:15:19.31</time>
      </trkpt>
      <trkpt lat="37.18530333333333" lon="-7.342333333333333">
        <ele>54.49999999999997</ele>
        <time>2013-01-07T13:15:20.30</time>
      </trkpt>
      <trkpt lat="37.185278333333336" lon="-7.342406666666666">
        <ele>54.59999999999997</ele>
        <time>2013-01-07T13:15:21.33</time>
      </trkpt>
      <trkpt lat="37.18525" lon="-7.342476666666666">
        <ele>54.699999999999974</ele>
        <time>2013-01-07T13:15:22.34</time>
      </trkpt>
      <trkpt lat="37.18522" lon="-7.342545">
        <ele>54.49999999999997</ele>
        <time>2013-01-07T13:15:23.31</time>
      </trkpt>
      <trkpt lat="37.18519666666667" lon="-7.3426116666666665">
        <ele>54.49999999999997</ele>
        <time>2013-01-07T13:15:24.31</time>
      </trkpt>
      <trkpt lat="37.18517" lon="-7.342675">
        <ele>54.59999999999997</ele>
        <time>2013-01-07T13:15:25.31</time>
      </trkpt>
      <trkpt lat="37.18514166666667" lon="-7.342743333333333">
        <ele>54.39999999999997</ele>
        <time>2013-01-07T13:15:26.31</time>
      </trkpt>
      <trkpt lat="37.18508666666666" lon="-7.342795">
        <ele>54.39999999999997</ele>
        <time>2013-01-07T13:15:27.31</time>
      </trkpt>
      <trkpt lat="37.18504166666666" lon="-7.342851666666666">
        <ele>54.19999999999997</ele>
        <time>2013-01-07T13:15:28.31</time>
      </trkpt>
      <trkpt lat="37.18499333333333" lon="-7.3428683333333336">
        <ele>54.599999999999966</ele>
        <time>2013-01-07T13:15:29.31</time>
      </trkpt>
      <trkpt lat="37.184945" lon="-7.342878333333333">
        <ele>54.599999999999966</ele>
        <time>2013-01-07T13:15:30.31</time>
      </trkpt>
      <trkpt lat="37.18490166666667" lon="-7.342883333333333">
        <ele>54.69999999999997</ele>
        <time>2013-01-07T13:15:31.31</time>
      </trkpt>
      <trkpt lat="37.18487666666667" lon="-7.342881666666667">
        <ele>54.69999999999997</ele>
        <time>2013-01-07T13:15:32.32</time>
      </trkpt>
      <trkpt lat="37.18486166666667" lon="-7.342891666666667">
        <ele>54.599999999999966</ele>
        <time>2013-01-07T13:15:33.31</time>
      </trkpt>
      <trkpt lat="37.18485666666667" lon="-7.342895">
        <ele>54.999999999999964</ele>
        <time>2013-01-07T13:15:34.31</time>
      </trkpt>
      <trkpt lat="37.18485" lon="-7.3429166666666665">
        <ele>55.39999999999996</ele>
        <time>2013-01-07T13:15:35.31</time>
      </trkpt>
      <trkpt lat="37.184846666666665" lon="-7.34296">
        <ele>55.499999999999964</ele>
        <time>2013-01-07T13:15:36.31</time>
      </trkpt>
      <trkpt lat="37.18484" lon="-7.343006666666667">
        <ele>55.69999999999997</ele>
        <time>2013-01-07T13:15:37.34</time>
      </trkpt>
      <trkpt lat="37.184855" lon="-7.343036666666666">
        <ele>55.499999999999964</ele>
        <time>2013-01-07T13:15:38.33</time>
      </trkpt>
      <trkpt lat="37.18488166666667" lon="-7.34308">
        <ele>55.099999999999966</ele>
        <time>2013-01-07T13:15:39.30</time>
      </trkpt>
      <trkpt lat="37.184916666666666" lon="-7.3431066666666664">
        <ele>55.499999999999964</ele>
        <time>2013-01-07T13:15:40.30</time>
      </trkpt>
      <trkpt lat="37.184958333333334" lon="-7.343156666666666">
        <ele>55.499999999999964</ele>
        <time>2013-01-07T13:15:41.32</time>
      </trkpt>
      <trkpt lat="37.18503166666667" lon="-7.343248333333333">
        <ele>54.999999999999964</ele>
        <time>2013-01-07T13:15:42.32</time>
      </trkpt>
      <trkpt lat="37.18507833333334" lon="-7.343313333333334">
        <ele>55.099999999999966</ele>
        <time>2013-01-07T13:15:43.30</time>
      </trkpt>
      <trkpt lat="37.18510833333333" lon="-7.343376666666667">
        <ele>53.79999999999997</ele>
        <time>2013-01-07T13:15:44.30</time>
      </trkpt>
      <trkpt lat="37.185145" lon="-7.343448333333333">
        <ele>52.599999999999966</ele>
        <time>2013-01-07T13:15:45.30</time>
      </trkpt>
      <trkpt lat="37.18517666666666" lon="-7.343521666666667">
        <ele>52.19999999999997</ele>
        <time>2013-01-07T13:15:46.31</time>
      </trkpt>
      <trkpt lat="37.18521666666667" lon="-7.3435983333333334">
        <ele>52.39999999999997</ele>
        <time>2013-01-07T13:15:47.30</time>
      </trkpt>
      <trkpt lat="37.185253333333335" lon="-7.343656666666667">
        <ele>52.29999999999997</ele>
        <time>2013-01-07T13:15:48.30</time>
      </trkpt>
      <trkpt lat="37.1853" lon="-7.3437133333333335">
        <ele>51.99999999999997</ele>
        <time>2013-01-07T13:15:49.34</time>
      </trkpt>
      <trkpt lat="37.18534833333333" lon="-7.343765">
        <ele>51.89999999999997</ele>
        <time>2013-01-07T13:15:50.31</time>
      </trkpt>
      <trkpt lat="37.18539833333333" lon="-7.343806666666667">
        <ele>51.49999999999997</ele>
        <time>2013-01-07T13:15:51.30</time>
      </trkpt>
      <trkpt lat="37.18546833333333" lon="-7.343828333333334">
        <ele>51.09999999999997</ele>
        <time>2013-01-07T13:15:52.31</time>
      </trkpt>
      <trkpt lat="37.18552833333333" lon="-7.34385">
        <ele>51.09999999999997</ele>
        <time>2013-01-07T13:15:53.32</time>
      </trkpt>
      <trkpt lat="37.18559333333334" lon="-7.343863333333333">
        <ele>50.99999999999997</ele>
        <time>2013-01-07T13:15:54.32</time>
      </trkpt>
      <trkpt lat="37.18565666666667" lon="-7.34387">
        <ele>50.99999999999997</ele>
        <time>2013-01-07T13:15:55.31</time>
      </trkpt>
      <trkpt lat="37.185721666666666" lon="-7.3438783333333335">
        <ele>50.79999999999997</ele>
        <time>2013-01-07T13:15:56.31</time>
      </trkpt>
      <trkpt lat="37.185788333333335" lon="-7.3438783333333335">
        <ele>50.89999999999997</ele>
        <time>2013-01-07T13:15:57.31</time>
      </trkpt>
      <trkpt lat="37.185851666666665" lon="-7.343881666666666">
        <ele>50.99999999999997</ele>
        <time>2013-01-07T13:15:58.30</time>
      </trkpt>
      <trkpt lat="37.185916666666664" lon="-7.34388">
        <ele>50.99999999999997</ele>
        <time>2013-01-07T13:15:59.31</time>
      </trkpt>
      <trkpt lat="37.185985" lon="-7.343885">
        <ele>51.199999999999974</ele>
        <time>2013-01-07T13:16:00.30</time>
      </trkpt>
      <trkpt lat="37.186051666666664" lon="-7.3438783333333335">
        <ele>51.199999999999974</ele>
        <time>2013-01-07T13:16:01.30</time>
      </trkpt>
      <trkpt lat="37.18611166666667" lon="-7.343873333333334">
        <ele>51.39999999999998</ele>
        <time>2013-01-07T13:16:02.31</time>
      </trkpt>
      <trkpt lat="37.18618" lon="-7.343876666666667">
        <ele>51.299999999999976</ele>
        <time>2013-01-07T13:16:03.30</time>
      </trkpt>
      <trkpt lat="37.186236666666666" lon="-7.343868333333333">
        <ele>51.59999999999997</ele>
        <time>2013-01-07T13:16:04.31</time>
      </trkpt>
      <trkpt lat="37.186305" lon="-7.343861666666666">
        <ele>51.59999999999997</ele>
        <time>2013-01-07T13:16:05.31</time>
      </trkpt>
      <trkpt lat="37.18638" lon="-7.343865">
        <ele>51.699999999999974</ele>
        <time>2013-01-07T13:16:06.31</time>
      </trkpt>
      <trkpt lat="37.186445" lon="-7.3438783333333335">
        <ele>51.699999999999974</ele>
        <time>2013-01-07T13:16:07.30</time>
      </trkpt>
      <trkpt lat="37.186501666666665" lon="-7.343888333333333">
        <ele>51.89999999999998</ele>
        <time>2013-01-07T13:16:08.31</time>
      </trkpt>
      <trkpt lat="37.186568333333334" lon="-7.343888333333333">
        <ele>51.89999999999998</ele>
        <time>2013-01-07T13:16:09.32</time>
      </trkpt>
      <trkpt lat="37.18663166666666" lon="-7.3439">
        <ele>51.99999999999998</ele>
        <time>2013-01-07T13:16:10.32</time>
      </trkpt>
      <trkpt lat="37.18669666666667" lon="-7.343908333333333">
        <ele>51.49999999999998</ele>
        <time>2013-01-07T13:16:11.32</time>
      </trkpt>
      <trkpt lat="37.186745" lon="-7.343915">
        <ele>51.59999999999998</ele>
        <time>2013-01-07T13:16:12.31</time>
      </trkpt>
      <trkpt lat="37.186795" lon="-7.3439266666666665">
        <ele>51.99999999999998</ele>
        <time>2013-01-07T13:16:13.34</time>
      </trkpt>
      <trkpt lat="37.186855" lon="-7.34393">
        <ele>52.299999999999976</ele>
        <time>2013-01-07T13:16:14.32</time>
      </trkpt>
      <trkpt lat="37.18695666666667" lon="-7.344003333333333">
        <ele>52.49999999999998</ele>
        <time>2013-01-07T13:16:15.32</time>
      </trkpt>
      <trkpt lat="37.187018333333334" lon="-7.344015">
        <ele>51.59999999999998</ele>
        <time>2013-01-07T13:16:16.32</time>
      </trkpt>
      <trkpt lat="37.187065" lon="-7.344041666666667">
        <ele>51.29999999999998</ele>
        <time>2013-01-07T13:16:17.30</time>
      </trkpt>
      <trkpt lat="37.18712333333333" lon="-7.344058333333333">
        <ele>52.09999999999998</ele>
        <time>2013-01-07T13:16:18.32</time>
      </trkpt>
      <trkpt lat="37.187195" lon="-7.344081666666667">
        <ele>51.89999999999998</ele>
        <time>2013-01-07T13:16:19.30</time>
      </trkpt>
      <trkpt lat="37.18725166666667" lon="-7.344103333333333">
        <ele>51.699999999999974</ele>
        <time>2013-01-07T13:16:20.32</time>
      </trkpt>
      <trkpt lat="37.18731666666667" lon="-7.344146666666667">
        <ele>51.699999999999974</ele>
        <time>2013-01-07T13:16:21.32</time>
      </trkpt>
      <trkpt lat="37.187376666666665" lon="-7.344188333333333">
        <ele>51.199999999999974</ele>
        <time>2013-01-07T13:16:22.32</time>
      </trkpt>
      <trkpt lat="37.187423333333335" lon="-7.344205">
        <ele>50.99999999999997</ele>
        <time>2013-01-07T13:16:23.32</time>
      </trkpt>
      <trkpt lat="37.18748166666666" lon="-7.34423">
        <ele>50.79999999999997</ele>
        <time>2013-01-07T13:16:24.34</time>
      </trkpt>
      <trkpt lat="37.18754666666667" lon="-7.34424">
        <ele>51.19999999999997</ele>
        <time>2013-01-07T13:16:25.30</time>
      </trkpt>
      <trkpt lat="37.18760833333333" lon="-7.34424">
        <ele>51.39999999999997</ele>
        <time>2013-01-07T13:16:26.32</time>
      </trkpt>
      <trkpt lat="37.187666666666665" lon="-7.34422">
        <ele>51.49999999999997</ele>
        <time>2013-01-07T13:16:27.30</time>
      </trkpt>
      <trkpt lat="37.187731666666664" lon="-7.344226666666667">
        <ele>51.199999999999974</ele>
        <time>2013-01-07T13:16:28.31</time>
      </trkpt>
      <trkpt lat="37.187795" lon="-7.344235">
        <ele>50.89999999999998</ele>
        <time>2013-01-07T13:16:29.31</time>
      </trkpt>
      <trkpt lat="37.18784333333333" lon="-7.344288333333333">
        <ele>50.99999999999998</ele>
        <time>2013-01-07T13:16:30.31</time>
      </trkpt>
      <trkpt lat="37.18788166666667" lon="-7.344363333333333">
        <ele>52.49999999999998</ele>
        <time>2013-01-07T13:16:31.31</time>
      </trkpt>
      <trkpt lat="37.187905" lon="-7.344435">
        <ele>52.09999999999998</ele>
        <time>2013-01-07T13:16:32.31</time>
      </trkpt>
      <trkpt lat="37.18793" lon="-7.344518333333333">
        <ele>52.79999999999998</ele>
        <time>2013-01-07T13:16:33.31</time>
      </trkpt>
      <trkpt lat="37.187956666666665" lon="-7.344586666666666">
        <ele>52.69999999999998</ele>
        <time>2013-01-07T13:16:34.31</time>
      </trkpt>
      <trkpt lat="37.18799333333333" lon="-7.344655">
        <ele>53.19999999999998</ele>
        <time>2013-01-07T13:16:35.31</time>
      </trkpt>
      <trkpt lat="37.188023333333334" lon="-7.344711666666667">
        <ele>53.49999999999998</ele>
        <time>2013-01-07T13:16:36.31</time>
      </trkpt>
      <trkpt lat="37.188053333333336" lon="-7.344763333333334">
        <ele>53.69999999999998</ele>
        <time>2013-01-07T13:16:37.31</time>
      </trkpt>
      <trkpt lat="37.18813" lon="-7.34483">
        <ele>53.19999999999998</ele>
        <time>2013-01-07T13:16:38.31</time>
      </trkpt>
      <trkpt lat="37.188183333333335" lon="-7.34489">
        <ele>52.99999999999998</ele>
        <time>2013-01-07T13:16:39.30</time>
      </trkpt>
      <trkpt lat="37.188225" lon="-7.344948333333333">
        <ele>53.19999999999998</ele>
        <time>2013-01-07T13:16:40.31</time>
      </trkpt>
      <trkpt lat="37.18826833333333" lon="-7.345008333333333">
        <ele>53.29999999999998</ele>
        <time>2013-01-07T13:16:41.33</time>
      </trkpt>
      <trkpt lat="37.18832" lon="-7.345066666666667">
        <ele>53.09999999999998</ele>
        <time>2013-01-07T13:16:42.32</time>
      </trkpt>
      <trkpt lat="37.188365" lon="-7.345126666666666">
        <ele>52.69999999999998</ele>
        <time>2013-01-07T13:16:43.30</time>
      </trkpt>
      <trkpt lat="37.18841833333333" lon="-7.345191666666667">
        <ele>52.49999999999998</ele>
        <time>2013-01-07T13:16:44.31</time>
      </trkpt>
      <trkpt lat="37.18846666666666" lon="-7.345258333333334">
        <ele>51.89999999999998</ele>
        <time>2013-01-07T13:16:45.31</time>
      </trkpt>
      <trkpt lat="37.188516666666665" lon="-7.345328333333334">
        <ele>51.89999999999998</ele>
        <time>2013-01-07T13:16:46.31</time>
      </trkpt>
      <trkpt lat="37.18854833333334" lon="-7.345391666666667">
        <ele>51.699999999999974</ele>
        <time>2013-01-07T13:16:47.31</time>
      </trkpt>
      <trkpt lat="37.188585" lon="-7.345458333333333">
        <ele>51.99999999999997</ele>
        <time>2013-01-07T13:16:48.31</time>
      </trkpt>
      <trkpt lat="37.188625" lon="-7.345526666666666">
        <ele>51.89999999999997</ele>
        <time>2013-01-07T13:16:49.30</time>
      </trkpt>
      <trkpt lat="37.188665" lon="-7.345605">
        <ele>52.09999999999997</ele>
        <time>2013-01-07T13:16:50.31</time>
      </trkpt>
      <trkpt lat="37.18870166666667" lon="-7.345676666666667">
        <ele>52.09999999999997</ele>
        <time>2013-01-07T13:16:51.31</time>
      </trkpt>
      <trkpt lat="37.18873833333333" lon="-7.34575">
        <ele>52.39999999999997</ele>
        <time>2013-01-07T13:16:52.31</time>
      </trkpt>
      <trkpt lat="37.18877833333333" lon="-7.3458266666666665">
        <ele>52.39999999999997</ele>
        <time>2013-01-07T13:16:53.30</time>
      </trkpt>
      <trkpt lat="37.188805" lon="-7.345898333333333">
        <ele>52.49999999999997</ele>
        <time>2013-01-07T13:16:54.31</time>
      </trkpt>
      <trkpt lat="37.18882833333333" lon="-7.3459666666666665">
        <ele>52.49999999999997</ele>
        <time>2013-01-07T13:16:55.31</time>
      </trkpt>
      <trkpt lat="37.188855" lon="-7.346043333333333">
        <ele>52.699999999999974</ele>
        <time>2013-01-07T13:16:56.42</time>
      </trkpt>
      <trkpt lat="37.18888" lon="-7.346111666666666">
        <ele>52.699999999999974</ele>
        <time>2013-01-07T13:16:57.32</time>
      </trkpt>
      <trkpt lat="37.18890833333333" lon="-7.346185">
        <ele>52.89999999999998</ele>
        <time>2013-01-07T13:16:58.40</time>
      </trkpt>
      <trkpt lat="37.18893166666667" lon="-7.346246666666667">
        <ele>53.09999999999998</ele>
        <time>2013-01-07T13:16:59.31</time>
      </trkpt>
      <trkpt lat="37.18895333333333" lon="-7.3463183333333335">
        <ele>52.99999999999998</ele>
        <time>2013-01-07T13:17:00.30</time>
      </trkpt>
      <trkpt lat="37.18897333333334" lon="-7.346396666666666">
        <ele>52.89999999999998</ele>
        <time>2013-01-07T13:17:01.31</time>
      </trkpt>
      <trkpt lat="37.18899" lon="-7.346471666666667">
        <ele>52.699999999999974</ele>
        <time>2013-01-07T13:17:02.31</time>
      </trkpt>
      <trkpt lat="37.189005" lon="-7.346558333333333">
        <ele>52.49999999999997</ele>
        <time>2013-01-07T13:17:03.31</time>
      </trkpt>
      <trkpt lat="37.18902166666667" lon="-7.346625">
        <ele>52.59999999999997</ele>
        <time>2013-01-07T13:17:04.31</time>
      </trkpt>
      <trkpt lat="37.189038333333336" lon="-7.3466933333333335">
        <ele>52.699999999999974</ele>
        <time>2013-01-07T13:17:05.31</time>
      </trkpt>
      <trkpt lat="37.189045" lon="-7.34675">
        <ele>52.39999999999998</ele>
        <time>2013-01-07T13:17:06.31</time>
      </trkpt>
      <trkpt lat="37.189053333333334" lon="-7.346821666666667">
        <ele>51.799999999999976</ele>
        <time>2013-01-07T13:17:07.31</time>
      </trkpt>
      <trkpt lat="37.18907166666666" lon="-7.346918333333333">
        <ele>51.99999999999998</ele>
        <time>2013-01-07T13:17:08.31</time>
      </trkpt>
      <trkpt lat="37.189078333333335" lon="-7.346986666666667">
        <ele>51.99999999999998</ele>
        <time>2013-01-07T13:17:09.34</time>
      </trkpt>
      <trkpt lat="37.18908166666667" lon="-7.34706">
        <ele>51.89999999999998</ele>
        <time>2013-01-07T13:17:10.30</time>
      </trkpt>
      <trkpt lat="37.189095" lon="-7.347145">
        <ele>51.99999999999998</ele>
        <time>2013-01-07T13:17:11.31</time>
      </trkpt>
      <trkpt lat="37.1891" lon="-7.347216666666666">
        <ele>52.19999999999998</ele>
        <time>2013-01-07T13:17:12.31</time>
      </trkpt>
      <trkpt lat="37.18910666666667" lon="-7.347291666666667">
        <ele>51.99999999999998</ele>
        <time>2013-01-07T13:17:13.33</time>
      </trkpt>
      <trkpt lat="37.18911166666667" lon="-7.347365">
        <ele>52.09999999999998</ele>
        <time>2013-01-07T13:17:14.31</time>
      </trkpt>
      <trkpt lat="37.189121666666665" lon="-7.347435">
        <ele>51.99999999999998</ele>
        <time>2013-01-07T13:17:15.31</time>
      </trkpt>
      <trkpt lat="37.189128333333336" lon="-7.347513333333334">
        <ele>52.09999999999998</ele>
        <time>2013-01-07T13:17:16.31</time>
      </trkpt>
      <trkpt lat="37.189128333333336" lon="-7.3475866666666665">
        <ele>51.79999999999998</ele>
        <time>2013-01-07T13:17:17.31</time>
      </trkpt>
      <trkpt lat="37.18913333333333" lon="-7.34767">
        <ele>51.59999999999998</ele>
        <time>2013-01-07T13:17:18.32</time>
      </trkpt>
      <trkpt lat="37.18913833333333" lon="-7.34775">
        <ele>51.99999999999998</ele>
        <time>2013-01-07T13:17:19.31</time>
      </trkpt>
      <trkpt lat="37.189145" lon="-7.347825">
        <ele>52.19999999999998</ele>
        <time>2013-01-07T13:17:20.31</time>
      </trkpt>
      <trkpt lat="37.18915166666667" lon="-7.347896666666666">
        <ele>52.19999999999998</ele>
        <time>2013-01-07T13:17:21.31</time>
      </trkpt>
      <trkpt lat="37.18915666666667" lon="-7.347975">
        <ele>52.09999999999998</ele>
        <time>2013-01-07T13:17:22.31</time>
      </trkpt>
      <trkpt lat="37.189166666666665" lon="-7.348051666666667">
        <ele>52.19999999999998</ele>
        <time>2013-01-07T13:17:23.30</time>
      </trkpt>
      <trkpt lat="37.18917166666667" lon="-7.348125">
        <ele>52.49999999999998</ele>
        <time>2013-01-07T13:17:24.31</time>
      </trkpt>
      <trkpt lat="37.18917833333333" lon="-7.3482">
        <ele>52.49999999999998</ele>
        <time>2013-01-07T13:17:25.31</time>
      </trkpt>
      <trkpt lat="37.18918333333333" lon="-7.348273333333333">
        <ele>52.69999999999998</ele>
        <time>2013-01-07T13:17:26.30</time>
      </trkpt>
      <trkpt lat="37.18919" lon="-7.348356666666667">
        <ele>51.99999999999998</ele>
        <time>2013-01-07T13:17:27.31</time>
      </trkpt>
      <trkpt lat="37.18919833333333" lon="-7.348433333333333">
        <ele>51.99999999999998</ele>
        <time>2013-01-07T13:17:28.30</time>
      </trkpt>
      <trkpt lat="37.189205" lon="-7.348511666666667">
        <ele>52.19999999999998</ele>
        <time>2013-01-07T13:17:29.33</time>
      </trkpt>
      <trkpt lat="37.189213333333335" lon="-7.348588333333334">
        <ele>51.899999999999984</ele>
        <time>2013-01-07T13:17:30.34</time>
      </trkpt>
      <trkpt lat="37.18921666666667" lon="-7.3486666666666665">
        <ele>51.79999999999998</ele>
        <time>2013-01-07T13:17:31.32</time>
      </trkpt>
      <trkpt lat="37.18922333333333" lon="-7.348748333333333">
        <ele>51.29999999999998</ele>
        <time>2013-01-07T13:17:32.31</time>
      </trkpt>
      <trkpt lat="37.18922833333333" lon="-7.348826666666667">
        <ele>50.999999999999986</ele>
        <time>2013-01-07T13:17:33.30</time>
      </trkpt>
      <trkpt lat="37.189231666666664" lon="-7.348906666666666">
        <ele>50.899999999999984</ele>
        <time>2013-01-07T13:17:34.30</time>
      </trkpt>
      <trkpt lat="37.189236666666666" lon="-7.348981666666667">
        <ele>50.899999999999984</ele>
        <time>2013-01-07T13:17:35.30</time>
      </trkpt>
      <trkpt lat="37.18924333333333" lon="-7.349061666666667">
        <ele>50.499999999999986</ele>
        <time>2013-01-07T13:17:36.31</time>
      </trkpt>
      <trkpt lat="37.18924833333333" lon="-7.349146666666667">
        <ele>50.399999999999984</ele>
        <time>2013-01-07T13:17:37.30</time>
      </trkpt>
      <trkpt lat="37.18925" lon="-7.349231666666666">
        <ele>49.79999999999998</ele>
        <time>2013-01-07T13:17:38.30</time>
      </trkpt>
      <trkpt lat="37.189255" lon="-7.349311666666667">
        <ele>49.69999999999998</ele>
        <time>2013-01-07T13:17:39.30</time>
      </trkpt>
      <trkpt lat="37.189258333333335" lon="-7.3493933333333334">
        <ele>49.79999999999998</ele>
        <time>2013-01-07T13:17:40.30</time>
      </trkpt>
      <trkpt lat="37.189258333333335" lon="-7.349471666666667">
        <ele>49.79999999999998</ele>
        <time>2013-01-07T13:17:41.30</time>
      </trkpt>
      <trkpt lat="37.18926666666667" lon="-7.34956">
        <ele>49.79999999999998</ele>
        <time>2013-01-07T13:17:42.30</time>
      </trkpt>
      <trkpt lat="37.18927" lon="-7.349646666666667">
        <ele>49.499999999999986</ele>
        <time>2013-01-07T13:17:43.30</time>
      </trkpt>
      <trkpt lat="37.18927166666667" lon="-7.349736666666667">
        <ele>49.79999999999998</ele>
        <time>2013-01-07T13:17:44.30</time>
      </trkpt>
      <trkpt lat="37.18927166666667" lon="-7.349818333333333">
        <ele>49.69999999999998</ele>
        <time>2013-01-07T13:17:45.30</time>
      </trkpt>
      <trkpt lat="37.189278333333334" lon="-7.349906666666667">
        <ele>49.29999999999998</ele>
        <time>2013-01-07T13:17:46.30</time>
      </trkpt>
      <trkpt lat="37.189283333333336" lon="-7.34999">
        <ele>49.19999999999998</ele>
        <time>2013-01-07T13:17:47.30</time>
      </trkpt>
      <trkpt lat="37.189283333333336" lon="-7.35008">
        <ele>48.899999999999984</ele>
        <time>2013-01-07T13:17:48.30</time>
      </trkpt>
      <trkpt lat="37.18929166666667" lon="-7.350165">
        <ele>48.79999999999998</ele>
        <time>2013-01-07T13:17:49.27</time>
      </trkpt>
      <trkpt lat="37.189295" lon="-7.350243333333333">
        <ele>49.399999999999984</ele>
        <time>2013-01-07T13:17:50.29</time>
      </trkpt>
      <trkpt lat="37.189303333333335" lon="-7.350336666666666">
        <ele>49.09999999999999</ele>
        <time>2013-01-07T13:17:51.33</time>
      </trkpt>
      <trkpt lat="37.18930666666667" lon="-7.3504233333333335">
        <ele>48.59999999999999</ele>
        <time>2013-01-07T13:17:52.29</time>
      </trkpt>
      <trkpt lat="37.18931333333333" lon="-7.350513333333334">
        <ele>48.79999999999999</ele>
        <time>2013-01-07T13:17:53.29</time>
      </trkpt>
      <trkpt lat="37.18931833333333" lon="-7.350603333333333">
        <ele>48.59999999999999</ele>
        <time>2013-01-07T13:17:54.29</time>
      </trkpt>
      <trkpt lat="37.189326666666666" lon="-7.350693333333333">
        <ele>48.59999999999999</ele>
        <time>2013-01-07T13:17:55.30</time>
      </trkpt>
      <trkpt lat="37.189325" lon="-7.350771666666667">
        <ele>48.29999999999999</ele>
        <time>2013-01-07T13:17:56.30</time>
      </trkpt>
      <trkpt lat="37.189328333333336" lon="-7.350863333333334">
        <ele>48.29999999999999</ele>
        <time>2013-01-07T13:17:57.29</time>
      </trkpt>
      <trkpt lat="37.189335" lon="-7.350956666666667">
        <ele>47.99999999999999</ele>
        <time>2013-01-07T13:17:58.29</time>
      </trkpt>
      <trkpt lat="37.189348333333335" lon="-7.351051666666667">
        <ele>47.599999999999994</ele>
        <time>2013-01-07T13:17:59.29</time>
      </trkpt>
      <trkpt lat="37.18935833333333" lon="-7.351138333333333">
        <ele>47.49999999999999</ele>
        <time>2013-01-07T13:18:00.29</time>
      </trkpt>
      <trkpt lat="37.18936" lon="-7.351223333333333">
        <ele>47.39999999999999</ele>
        <time>2013-01-07T13:18:01.29</time>
      </trkpt>
      <trkpt lat="37.189366666666665" lon="-7.351318333333333">
        <ele>47.19999999999999</ele>
        <time>2013-01-07T13:18:02.28</time>
      </trkpt>
      <trkpt lat="37.189375" lon="-7.351405">
        <ele>46.79999999999999</ele>
        <time>2013-01-07T13:18:03.30</time>
      </trkpt>
      <trkpt lat="37.18938166666667" lon="-7.351496666666667">
        <ele>46.99999999999999</ele>
        <time>2013-01-07T13:18:04.30</time>
      </trkpt>
      <trkpt lat="37.189391666666666" lon="-7.35158">
        <ele>47.79999999999999</ele>
        <time>2013-01-07T13:18:05.34</time>
      </trkpt>
      <trkpt lat="37.189393333333335" lon="-7.351663333333334">
        <ele>47.89999999999999</ele>
        <time>2013-01-07T13:18:06.30</time>
      </trkpt>
      <trkpt lat="37.1894" lon="-7.35175">
        <ele>47.99999999999999</ele>
        <time>2013-01-07T13:18:07.30</time>
      </trkpt>
      <trkpt lat="37.1894" lon="-7.35184">
        <ele>47.599999999999994</ele>
        <time>2013-01-07T13:18:08.30</time>
      </trkpt>
      <trkpt lat="37.18940833333333" lon="-7.3519266666666665">
        <ele>47.99999999999999</ele>
        <time>2013-01-07T13:18:09.30</time>
      </trkpt>
      <trkpt lat="37.18942" lon="-7.352011666666667">
        <ele>48.099999999999994</ele>
        <time>2013-01-07T13:18:10.30</time>
      </trkpt>
      <trkpt lat="37.18942166666667" lon="-7.352096666666666">
        <ele>47.699999999999996</ele>
        <time>2013-01-07T13:18:11.30</time>
      </trkpt>
      <trkpt lat="37.18942333333333" lon="-7.352171666666667">
        <ele>48.099999999999994</ele>
        <time>2013-01-07T13:18:12.30</time>
      </trkpt>
      <trkpt lat="37.18942833333333" lon="-7.352258333333333">
        <ele>47.99999999999999</ele>
        <time>2013-01-07T13:18:13.30</time>
      </trkpt>
      <trkpt lat="37.18943" lon="-7.352346666666667">
        <ele>47.79999999999999</ele>
        <time>2013-01-07T13:18:14.30</time>
      </trkpt>
      <trkpt lat="37.189435" lon="-7.352435">
        <ele>48.09999999999999</ele>
        <time>2013-01-07T13:18:15.30</time>
      </trkpt>
      <trkpt lat="37.18944" lon="-7.352518333333333">
        <ele>48.29999999999999</ele>
        <time>2013-01-07T13:18:16.30</time>
      </trkpt>
      <trkpt lat="37.18944833333333" lon="-7.3526066666666665">
        <ele>48.79999999999999</ele>
        <time>2013-01-07T13:18:17.31</time>
      </trkpt>
      <trkpt lat="37.189455" lon="-7.352695">
        <ele>48.49999999999999</ele>
        <time>2013-01-07T13:18:18.30</time>
      </trkpt>
      <trkpt lat="37.18946" lon="-7.352785">
        <ele>48.79999999999999</ele>
        <time>2013-01-07T13:18:19.30</time>
      </trkpt>
      <trkpt lat="37.189461666666666" lon="-7.352871666666666">
        <ele>48.69999999999999</ele>
        <time>2013-01-07T13:18:20.30</time>
      </trkpt>
      <trkpt lat="37.18947" lon="-7.352963333333333">
        <ele>48.79999999999999</ele>
        <time>2013-01-07T13:18:21.30</time>
      </trkpt>
      <trkpt lat="37.189476666666664" lon="-7.35305">
        <ele>49.09999999999999</ele>
        <time>2013-01-07T13:18:22.30</time>
      </trkpt>
      <trkpt lat="37.18948" lon="-7.353138333333334">
        <ele>49.399999999999984</ele>
        <time>2013-01-07T13:18:23.30</time>
      </trkpt>
      <trkpt lat="37.189483333333335" lon="-7.353221666666666">
        <ele>49.399999999999984</ele>
        <time>2013-01-07T13:18:24.30</time>
      </trkpt>
      <trkpt lat="37.18948833333334" lon="-7.353308333333334">
        <ele>49.399999999999984</ele>
        <time>2013-01-07T13:18:25.30</time>
      </trkpt>
      <trkpt lat="37.18949166666667" lon="-7.353391666666667">
        <ele>49.59999999999999</ele>
        <time>2013-01-07T13:18:26.30</time>
      </trkpt>
      <trkpt lat="37.18949666666666" lon="-7.3534733333333335">
        <ele>49.59999999999999</ele>
        <time>2013-01-07T13:18:27.30</time>
      </trkpt>
      <trkpt lat="37.189495" lon="-7.353548333333333">
        <ele>48.79999999999999</ele>
        <time>2013-01-07T13:18:28.30</time>
      </trkpt>
      <trkpt lat="37.18949833333333" lon="-7.353628333333333">
        <ele>48.99999999999999</ele>
        <time>2013-01-07T13:18:29.30</time>
      </trkpt>
      <trkpt lat="37.1895" lon="-7.3537083333333335">
        <ele>49.099999999999994</ele>
        <time>2013-01-07T13:18:30.30</time>
      </trkpt>
      <trkpt lat="37.189503333333334" lon="-7.353795">
        <ele>49.3</ele>
        <time>2013-01-07T13:18:31.30</time>
      </trkpt>
      <trkpt lat="37.189508333333336" lon="-7.35388">
        <ele>48.8</ele>
        <time>2013-01-07T13:18:32.30</time>
      </trkpt>
      <trkpt lat="37.189505" lon="-7.353965">
        <ele>48.5</ele>
        <time>2013-01-07T13:18:33.30</time>
      </trkpt>
      <trkpt lat="37.1895" lon="-7.354041666666666">
        <ele>48.5</ele>
        <time>2013-01-07T13:18:34.30</time>
      </trkpt>
      <trkpt lat="37.1895" lon="-7.354125">
        <ele>48.5</ele>
        <time>2013-01-07T13:18:35.30</time>
      </trkpt>
      <trkpt lat="37.1895" lon="-7.354205">
        <ele>48.2</ele>
        <time>2013-01-07T13:18:36.30</time>
      </trkpt>
      <trkpt lat="37.18949833333333" lon="-7.35429">
        <ele>48.2</ele>
        <time>2013-01-07T13:18:37.30</time>
      </trkpt>
      <trkpt lat="37.189495" lon="-7.354373333333333">
        <ele>48</ele>
        <time>2013-01-07T13:18:38.33</time>
      </trkpt>
      <trkpt lat="37.189495" lon="-7.354455">
        <ele>47.8</ele>
        <time>2013-01-07T13:18:39.30</time>
      </trkpt>
      <trkpt lat="37.18949166666667" lon="-7.354536666666666">
        <ele>48</ele>
        <time>2013-01-07T13:18:40.30</time>
      </trkpt>
      <trkpt lat="37.18949" lon="-7.3546233333333335">
        <ele>48.3</ele>
        <time>2013-01-07T13:18:41.30</time>
      </trkpt>
      <trkpt lat="37.18949166666667" lon="-7.354706666666667">
        <ele>47.9</ele>
        <time>2013-01-07T13:18:42.30</time>
      </trkpt>
      <trkpt lat="37.18948833333334" lon="-7.354796666666667">
        <ele>47.8</ele>
        <time>2013-01-07T13:18:43.30</time>
      </trkpt>
      <trkpt lat="37.18948833333334" lon="-7.3548816666666665">
        <ele>47.4</ele>
        <time>2013-01-07T13:18:44.30</time>
      </trkpt>
      <trkpt lat="37.18948833333334" lon="-7.354965">
        <ele>47.3</ele>
        <time>2013-01-07T13:18:45.30</time>
      </trkpt>
      <trkpt lat="37.18949" lon="-7.355045">
        <ele>47.699999999999996</ele>
        <time>2013-01-07T13:18:46.30</time>
      </trkpt>
      <trkpt lat="37.18948666666667" lon="-7.35513">
        <ele>47.699999999999996</ele>
        <time>2013-01-07T13:18:47.30</time>
      </trkpt>
      <trkpt lat="37.18949" lon="-7.355221666666667">
        <ele>47.9</ele>
        <time>2013-01-07T13:18:48.30</time>
      </trkpt>
      <trkpt lat="37.18948833333334" lon="-7.355306666666666">
        <ele>48.1</ele>
        <time>2013-01-07T13:18:49.30</time>
      </trkpt>
      <trkpt lat="37.18948833333334" lon="-7.35539">
        <ele>48.300000000000004</ele>
        <time>2013-01-07T13:18:50.30</time>
      </trkpt>
      <trkpt lat="37.18948833333334" lon="-7.355471666666666">
        <ele>48.300000000000004</ele>
        <time>2013-01-07T13:18:51.30</time>
      </trkpt>
      <trkpt lat="37.189483333333335" lon="-7.355546666666666">
        <ele>48.400000000000006</ele>
        <time>2013-01-07T13:18:52.30</time>
      </trkpt>
      <trkpt lat="37.189476666666664" lon="-7.355628333333334">
        <ele>48.300000000000004</ele>
        <time>2013-01-07T13:18:53.30</time>
      </trkpt>
      <trkpt lat="37.189476666666664" lon="-7.355716666666667">
        <ele>48.50000000000001</ele>
        <time>2013-01-07T13:18:54.30</time>
      </trkpt>
      <trkpt lat="37.189476666666664" lon="-7.355795">
        <ele>48.300000000000004</ele>
        <time>2013-01-07T13:18:55.30</time>
      </trkpt>
      <trkpt lat="37.18946666666667" lon="-7.35588">
        <ele>48.1</ele>
        <time>2013-01-07T13:18:56.30</time>
      </trkpt>
      <trkpt lat="37.18946" lon="-7.355965">
        <ele>47.9</ele>
        <time>2013-01-07T13:18:57.30</time>
      </trkpt>
      <trkpt lat="37.18944833333333" lon="-7.356045">
        <ele>47.3</ele>
        <time>2013-01-07T13:18:58.30</time>
      </trkpt>
      <trkpt lat="37.18944" lon="-7.35612">
        <ele>47</ele>
        <time>2013-01-07T13:18:59.30</time>
      </trkpt>
      <trkpt lat="37.189433333333334" lon="-7.356208333333333">
        <ele>47.6</ele>
        <time>2013-01-07T13:19:00.30</time>
      </trkpt>
      <trkpt lat="37.18942666666667" lon="-7.356301666666667">
        <ele>47.300000000000004</ele>
        <time>2013-01-07T13:19:01.30</time>
      </trkpt>
      <trkpt lat="37.18942" lon="-7.3563833333333335">
        <ele>47.400000000000006</ele>
        <time>2013-01-07T13:19:02.30</time>
      </trkpt>
      <trkpt lat="37.189418333333336" lon="-7.356473333333334">
        <ele>47.2</ele>
        <time>2013-01-07T13:19:03.30</time>
      </trkpt>
      <trkpt lat="37.189411666666665" lon="-7.35656">
        <ele>47.2</ele>
        <time>2013-01-07T13:19:04.30</time>
      </trkpt>
      <trkpt lat="37.189405" lon="-7.356646666666666">
        <ele>47.2</ele>
        <time>2013-01-07T13:19:05.33</time>
      </trkpt>
      <trkpt lat="37.18939666666667" lon="-7.356726666666667">
        <ele>47.1</ele>
        <time>2013-01-07T13:19:06.30</time>
      </trkpt>
      <trkpt lat="37.18939" lon="-7.356803333333334">
        <ele>47.5</ele>
        <time>2013-01-07T13:19:07.29</time>
      </trkpt>
      <trkpt lat="37.18938333333333" lon="-7.356881666666666">
        <ele>47.6</ele>
        <time>2013-01-07T13:19:08.30</time>
      </trkpt>
      <trkpt lat="37.189371666666666" lon="-7.35696">
        <ele>47.7</ele>
        <time>2013-01-07T13:19:09.30</time>
      </trkpt>
      <trkpt lat="37.189366666666665" lon="-7.357038333333334">
        <ele>47.400000000000006</ele>
        <time>2013-01-07T13:19:10.30</time>
      </trkpt>
      <trkpt lat="37.18936" lon="-7.357126666666667">
        <ele>47.400000000000006</ele>
        <time>2013-01-07T13:19:11.30</time>
      </trkpt>
      <trkpt lat="37.18935333333334" lon="-7.357208333333333">
        <ele>47.50000000000001</ele>
        <time>2013-01-07T13:19:12.30</time>
      </trkpt>
      <trkpt lat="37.18934333333333" lon="-7.35728">
        <ele>47.50000000000001</ele>
        <time>2013-01-07T13:19:13.30</time>
      </trkpt>
      <trkpt lat="37.18933" lon="-7.357338333333334">
        <ele>48.20000000000001</ele>
        <time>2013-01-07T13:19:14.29</time>
      </trkpt>
      <trkpt lat="37.189323333333334" lon="-7.35743">
        <ele>47.00000000000001</ele>
        <time>2013-01-07T13:19:15.29</time>
      </trkpt>
      <trkpt lat="37.18932" lon="-7.35753">
        <ele>47.300000000000004</ele>
        <time>2013-01-07T13:19:16.29</time>
      </trkpt>
      <trkpt lat="37.18930666666667" lon="-7.357598333333334">
        <ele>47.2</ele>
        <time>2013-01-07T13:19:17.29</time>
      </trkpt>
      <trkpt lat="37.189295" lon="-7.357681666666666">
        <ele>47.2</ele>
        <time>2013-01-07T13:19:18.29</time>
      </trkpt>
      <trkpt lat="37.18928833333333" lon="-7.357758333333333">
        <ele>46.7</ele>
        <time>2013-01-07T13:19:19.29</time>
      </trkpt>
      <trkpt lat="37.18926166666667" lon="-7.357796666666666">
        <ele>48.1</ele>
        <time>2013-01-07T13:19:20.29</time>
      </trkpt>
      <trkpt lat="37.189251666666664" lon="-7.357863333333333">
        <ele>48.6</ele>
        <time>2013-01-07T13:19:21.29</time>
      </trkpt>
      <trkpt lat="37.18924333333333" lon="-7.35795">
        <ele>48.300000000000004</ele>
        <time>2013-01-07T13:19:22.29</time>
      </trkpt>
      <trkpt lat="37.189233333333334" lon="-7.358021666666667">
        <ele>49.00000000000001</ele>
        <time>2013-01-07T13:19:23.29</time>
      </trkpt>
      <trkpt lat="37.18922666666667" lon="-7.358103333333333">
        <ele>48.400000000000006</ele>
        <time>2013-01-07T13:19:24.29</time>
      </trkpt>
      <trkpt lat="37.189218333333336" lon="-7.3581883333333336">
        <ele>47.800000000000004</ele>
        <time>2013-01-07T13:19:25.29</time>
      </trkpt>
      <trkpt lat="37.1892" lon="-7.358273333333333">
        <ele>49.1</ele>
        <time>2013-01-07T13:19:26.29</time>
      </trkpt>
      <trkpt lat="37.189186666666664" lon="-7.3583533333333335">
        <ele>49</ele>
        <time>2013-01-07T13:19:27.29</time>
      </trkpt>
      <trkpt lat="37.189175" lon="-7.358436666666667">
        <ele>49.2</ele>
        <time>2013-01-07T13:19:28.29</time>
      </trkpt>
      <trkpt lat="37.189165" lon="-7.358516666666667">
        <ele>49.2</ele>
        <time>2013-01-07T13:19:29.29</time>
      </trkpt>
      <trkpt lat="37.189155" lon="-7.358595">
        <ele>49.400000000000006</ele>
        <time>2013-01-07T13:19:30.27</time>
      </trkpt>
      <trkpt lat="37.189141666666664" lon="-7.358671666666667">
        <ele>49.10000000000001</ele>
        <time>2013-01-07T13:19:31.30</time>
      </trkpt>
      <trkpt lat="37.189121666666665" lon="-7.358763333333333">
        <ele>48.80000000000001</ele>
        <time>2013-01-07T13:19:32.30</time>
      </trkpt>
      <trkpt lat="37.189101666666666" lon="-7.358805">
        <ele>52.40000000000001</ele>
        <time>2013-01-07T13:19:33.31</time>
      </trkpt>
      <trkpt lat="37.18908166666667" lon="-7.358886666666667">
        <ele>53.100000000000016</ele>
        <time>2013-01-07T13:19:34.31</time>
      </trkpt>
      <trkpt lat="37.18907" lon="-7.358956666666667">
        <ele>52.80000000000002</ele>
        <time>2013-01-07T13:19:35.28</time>
      </trkpt>
      <trkpt lat="37.189053333333334" lon="-7.359038333333333">
        <ele>52.70000000000002</ele>
        <time>2013-01-07T13:19:36.30</time>
      </trkpt>
      <trkpt lat="37.18904" lon="-7.359126666666667">
        <ele>52.500000000000014</ele>
        <time>2013-01-07T13:19:37.30</time>
      </trkpt>
      <trkpt lat="37.18902333333333" lon="-7.3592">
        <ele>53.000000000000014</ele>
        <time>2013-01-07T13:19:38.30</time>
      </trkpt>
      <trkpt lat="37.189008333333334" lon="-7.359278333333333">
        <ele>53.000000000000014</ele>
        <time>2013-01-07T13:19:39.30</time>
      </trkpt>
      <trkpt lat="37.18899833333333" lon="-7.35935">
        <ele>53.30000000000001</ele>
        <time>2013-01-07T13:19:40.30</time>
      </trkpt>
      <trkpt lat="37.188985" lon="-7.359431666666667">
        <ele>53.40000000000001</ele>
        <time>2013-01-07T13:19:41.30</time>
      </trkpt>
      <trkpt lat="37.18897" lon="-7.35951">
        <ele>53.70000000000001</ele>
        <time>2013-01-07T13:19:42.30</time>
      </trkpt>
      <trkpt lat="37.18895833333333" lon="-7.359588333333333">
        <ele>53.80000000000001</ele>
        <time>2013-01-07T13:19:43.30</time>
      </trkpt>
      <trkpt lat="37.188943333333334" lon="-7.35967">
        <ele>53.000000000000014</ele>
        <time>2013-01-07T13:19:44.30</time>
      </trkpt>
      <trkpt lat="37.188923333333335" lon="-7.35974">
        <ele>52.600000000000016</ele>
        <time>2013-01-07T13:19:45.30</time>
      </trkpt>
      <trkpt lat="37.188905" lon="-7.35981">
        <ele>53.000000000000014</ele>
        <time>2013-01-07T13:19:46.30</time>
      </trkpt>
      <trkpt lat="37.18888833333333" lon="-7.359883333333333">
        <ele>52.40000000000001</ele>
        <time>2013-01-07T13:19:47.30</time>
      </trkpt>
      <trkpt lat="37.18887" lon="-7.359955">
        <ele>52.20000000000001</ele>
        <time>2013-01-07T13:19:48.30</time>
      </trkpt>
      <trkpt lat="37.188853333333334" lon="-7.360026666666666">
        <ele>52.00000000000001</ele>
        <time>2013-01-07T13:19:49.30</time>
      </trkpt>
      <trkpt lat="37.18883666666667" lon="-7.3601">
        <ele>51.60000000000001</ele>
        <time>2013-01-07T13:19:50.30</time>
      </trkpt>
      <trkpt lat="37.18881666666667" lon="-7.360176666666667">
        <ele>51.70000000000001</ele>
        <time>2013-01-07T13:19:51.30</time>
      </trkpt>
      <trkpt lat="37.18879833333333" lon="-7.360248333333334">
        <ele>51.50000000000001</ele>
        <time>2013-01-07T13:19:52.30</time>
      </trkpt>
      <trkpt lat="37.18878" lon="-7.360321666666667">
        <ele>51.70000000000001</ele>
        <time>2013-01-07T13:19:53.30</time>
      </trkpt>
      <trkpt lat="37.18875833333333" lon="-7.3603966666666665">
        <ele>51.80000000000001</ele>
        <time>2013-01-07T13:19:54.30</time>
      </trkpt>
      <trkpt lat="37.18873833333333" lon="-7.360473333333333">
        <ele>51.90000000000001</ele>
        <time>2013-01-07T13:19:55.30</time>
      </trkpt>
      <trkpt lat="37.188721666666666" lon="-7.36055">
        <ele>52.100000000000016</ele>
        <time>2013-01-07T13:19:56.30</time>
      </trkpt>
      <trkpt lat="37.1887" lon="-7.360625">
        <ele>52.100000000000016</ele>
        <time>2013-01-07T13:19:57.30</time>
      </trkpt>
      <trkpt lat="37.18868" lon="-7.360696666666667">
        <ele>52.20000000000002</ele>
        <time>2013-01-07T13:19:58.30</time>
      </trkpt>
      <trkpt lat="37.188658333333336" lon="-7.360778333333333">
        <ele>51.80000000000002</ele>
        <time>2013-01-07T13:19:59.30</time>
      </trkpt>
      <trkpt lat="37.18863833333333" lon="-7.360853333333333">
        <ele>51.70000000000002</ele>
        <time>2013-01-07T13:20:00.30</time>
      </trkpt>
      <trkpt lat="37.18861833333333" lon="-7.360926666666667">
        <ele>51.80000000000002</ele>
        <time>2013-01-07T13:20:01.30</time>
      </trkpt>
      <trkpt lat="37.18860166666666" lon="-7.360996666666667">
        <ele>51.600000000000016</ele>
        <time>2013-01-07T13:20:02.30</time>
      </trkpt>
      <trkpt lat="37.18858" lon="-7.361071666666667">
        <ele>51.600000000000016</ele>
        <time>2013-01-07T13:20:03.30</time>
      </trkpt>
      <trkpt lat="37.18856" lon="-7.361145">
        <ele>51.600000000000016</ele>
        <time>2013-01-07T13:20:04.30</time>
      </trkpt>
      <trkpt lat="37.18854" lon="-7.361221666666666">
        <ele>51.70000000000002</ele>
        <time>2013-01-07T13:20:05.31</time>
      </trkpt>
      <trkpt lat="37.18852" lon="-7.361296666666667">
        <ele>51.70000000000002</ele>
        <time>2013-01-07T13:20:06.31</time>
      </trkpt>
      <trkpt lat="37.188493333333334" lon="-7.361373333333334">
        <ele>51.80000000000002</ele>
        <time>2013-01-07T13:20:07.30</time>
      </trkpt>
      <trkpt lat="37.188471666666665" lon="-7.361455">
        <ele>51.80000000000002</ele>
        <time>2013-01-07T13:20:08.30</time>
      </trkpt>
      <trkpt lat="37.188446666666664" lon="-7.361535">
        <ele>52.00000000000002</ele>
        <time>2013-01-07T13:20:09.30</time>
      </trkpt>
      <trkpt lat="37.18842" lon="-7.361611666666667">
        <ele>51.700000000000024</ele>
        <time>2013-01-07T13:20:10.30</time>
      </trkpt>
      <trkpt lat="37.18839666666667" lon="-7.361691666666666">
        <ele>51.800000000000026</ele>
        <time>2013-01-07T13:20:11.30</time>
      </trkpt>
      <trkpt lat="37.18836833333334" lon="-7.361766666666667">
        <ele>51.90000000000003</ele>
        <time>2013-01-07T13:20:12.30</time>
      </trkpt>
      <trkpt lat="37.188338333333334" lon="-7.361841666666667">
        <ele>52.300000000000026</ele>
        <time>2013-01-07T13:20:13.30</time>
      </trkpt>
      <trkpt lat="37.18831333333333" lon="-7.361925">
        <ele>52.300000000000026</ele>
        <time>2013-01-07T13:20:14.31</time>
      </trkpt>
      <trkpt lat="37.18828166666667" lon="-7.362016666666666">
        <ele>52.300000000000026</ele>
        <time>2013-01-07T13:20:15.31</time>
      </trkpt>
      <trkpt lat="37.188265" lon="-7.362101666666667">
        <ele>51.90000000000003</ele>
        <time>2013-01-07T13:20:16.30</time>
      </trkpt>
      <trkpt lat="37.188233333333336" lon="-7.362176666666667">
        <ele>52.10000000000003</ele>
        <time>2013-01-07T13:20:17.30</time>
      </trkpt>
      <trkpt lat="37.18821" lon="-7.362251666666666">
        <ele>52.30000000000003</ele>
        <time>2013-01-07T13:20:18.30</time>
      </trkpt>
      <trkpt lat="37.18818" lon="-7.362335">
        <ele>52.30000000000003</ele>
        <time>2013-01-07T13:20:19.30</time>
      </trkpt>
      <trkpt lat="37.188155" lon="-7.36242">
        <ele>52.30000000000003</ele>
        <time>2013-01-07T13:20:20.30</time>
      </trkpt>
      <trkpt lat="37.18812" lon="-7.362503333333334">
        <ele>51.80000000000003</ele>
        <time>2013-01-07T13:20:21.30</time>
      </trkpt>
      <trkpt lat="37.18808833333333" lon="-7.36259">
        <ele>51.80000000000003</ele>
        <time>2013-01-07T13:20:22.30</time>
      </trkpt>
      <trkpt lat="37.18806333333333" lon="-7.362678333333333">
        <ele>51.70000000000003</ele>
        <time>2013-01-07T13:20:23.30</time>
      </trkpt>
      <trkpt lat="37.18803333333334" lon="-7.362756666666667">
        <ele>51.30000000000003</ele>
        <time>2013-01-07T13:20:24.30</time>
      </trkpt>
      <trkpt lat="37.188006666666666" lon="-7.362841666666666">
        <ele>51.20000000000003</ele>
        <time>2013-01-07T13:20:25.30</time>
      </trkpt>
      <trkpt lat="37.187975" lon="-7.362921666666667">
        <ele>50.80000000000003</ele>
        <time>2013-01-07T13:20:26.30</time>
      </trkpt>
      <trkpt lat="37.18794166666667" lon="-7.363005">
        <ele>50.60000000000003</ele>
        <time>2013-01-07T13:20:27.30</time>
      </trkpt>
      <trkpt lat="37.187915" lon="-7.36309">
        <ele>50.90000000000003</ele>
        <time>2013-01-07T13:20:28.30</time>
      </trkpt>
      <trkpt lat="37.187885" lon="-7.363175">
        <ele>51.10000000000003</ele>
        <time>2013-01-07T13:20:29.33</time>
      </trkpt>
      <trkpt lat="37.18785" lon="-7.3632583333333335">
        <ele>51.10000000000003</ele>
        <time>2013-01-07T13:20:30.30</time>
      </trkpt>
      <trkpt lat="37.18781833333333" lon="-7.363338333333333">
        <ele>50.60000000000003</ele>
        <time>2013-01-07T13:20:31.30</time>
      </trkpt>
      <trkpt lat="37.187785" lon="-7.363426666666666">
        <ele>50.20000000000003</ele>
        <time>2013-01-07T13:20:32.30</time>
      </trkpt>
      <trkpt lat="37.18775333333333" lon="-7.363508333333334">
        <ele>50.00000000000003</ele>
        <time>2013-01-07T13:20:33.30</time>
      </trkpt>
      <trkpt lat="37.18771" lon="-7.36359">
        <ele>50.00000000000003</ele>
        <time>2013-01-07T13:20:34.41</time>
      </trkpt>
      <trkpt lat="37.187673333333336" lon="-7.363668333333333">
        <ele>50.20000000000003</ele>
        <time>2013-01-07T13:20:35.32</time>
      </trkpt>
      <trkpt lat="37.187635" lon="-7.363748333333334">
        <ele>49.80000000000003</ele>
        <time>2013-01-07T13:20:36.29</time>
      </trkpt>
      <trkpt lat="37.187596666666664" lon="-7.363828333333333">
        <ele>49.80000000000003</ele>
        <time>2013-01-07T13:20:37.31</time>
      </trkpt>
      <trkpt lat="37.18756333333334" lon="-7.363908333333334">
        <ele>49.70000000000003</ele>
        <time>2013-01-07T13:20:38.31</time>
      </trkpt>
      <trkpt lat="37.18753" lon="-7.363995">
        <ele>49.60000000000003</ele>
        <time>2013-01-07T13:20:39.30</time>
      </trkpt>
      <trkpt lat="37.18749666666667" lon="-7.364068333333333">
        <ele>49.40000000000003</ele>
        <time>2013-01-07T13:20:40.30</time>
      </trkpt>
      <trkpt lat="37.18746" lon="-7.364146666666667">
        <ele>49.50000000000003</ele>
        <time>2013-01-07T13:20:41.30</time>
      </trkpt>
      <trkpt lat="37.187425" lon="-7.36422">
        <ele>50.00000000000003</ele>
        <time>2013-01-07T13:20:42.30</time>
      </trkpt>
      <trkpt lat="37.18739333333333" lon="-7.364295">
        <ele>50.20000000000003</ele>
        <time>2013-01-07T13:20:43.30</time>
      </trkpt>
      <trkpt lat="37.18736" lon="-7.364371666666667">
        <ele>50.400000000000034</ele>
        <time>2013-01-07T13:20:44.30</time>
      </trkpt>
      <trkpt lat="37.18732166666667" lon="-7.36445">
        <ele>50.000000000000036</ele>
        <time>2013-01-07T13:20:45.30</time>
      </trkpt>
      <trkpt lat="37.18729" lon="-7.364528333333333">
        <ele>49.70000000000004</ele>
        <time>2013-01-07T13:20:46.30</time>
      </trkpt>
      <trkpt lat="37.18726" lon="-7.364603333333333">
        <ele>50.000000000000036</ele>
        <time>2013-01-07T13:20:47.30</time>
      </trkpt>
      <trkpt lat="37.18723166666667" lon="-7.364676666666667">
        <ele>50.000000000000036</ele>
        <time>2013-01-07T13:20:48.30</time>
      </trkpt>
      <trkpt lat="37.187203333333336" lon="-7.36474">
        <ele>50.20000000000004</ele>
        <time>2013-01-07T13:20:49.30</time>
      </trkpt>
      <trkpt lat="37.18716833333333" lon="-7.36481">
        <ele>50.000000000000036</ele>
        <time>2013-01-07T13:20:50.30</time>
      </trkpt>
      <trkpt lat="37.18713833333333" lon="-7.36488">
        <ele>49.70000000000004</ele>
        <time>2013-01-07T13:20:51.30</time>
      </trkpt>
      <trkpt lat="37.18711" lon="-7.364948333333333">
        <ele>49.70000000000004</ele>
        <time>2013-01-07T13:20:52.30</time>
      </trkpt>
      <trkpt lat="37.18708" lon="-7.3650183333333334">
        <ele>49.40000000000004</ele>
        <time>2013-01-07T13:20:53.30</time>
      </trkpt>
      <trkpt lat="37.18705" lon="-7.365093333333333">
        <ele>49.30000000000004</ele>
        <time>2013-01-07T13:20:54.30</time>
      </trkpt>
      <trkpt lat="37.18702" lon="-7.36516">
        <ele>49.40000000000004</ele>
        <time>2013-01-07T13:20:55.29</time>
      </trkpt>
      <trkpt lat="37.18698666666667" lon="-7.365231666666666">
        <ele>49.600000000000044</ele>
        <time>2013-01-07T13:20:56.30</time>
      </trkpt>
      <trkpt lat="37.18695666666667" lon="-7.365301666666666">
        <ele>50.00000000000004</ele>
        <time>2013-01-07T13:20:57.30</time>
      </trkpt>
      <trkpt lat="37.186926666666665" lon="-7.365373333333333">
        <ele>50.30000000000004</ele>
        <time>2013-01-07T13:20:58.30</time>
      </trkpt>
      <trkpt lat="37.18689666666667" lon="-7.365445">
        <ele>50.40000000000004</ele>
        <time>2013-01-07T13:20:59.30</time>
      </trkpt>
      <trkpt lat="37.18687" lon="-7.3655116666666665">
        <ele>50.100000000000044</ele>
        <time>2013-01-07T13:21:00.30</time>
      </trkpt>
      <trkpt lat="37.186841666666666" lon="-7.3655816666666665">
        <ele>50.30000000000005</ele>
        <time>2013-01-07T13:21:01.30</time>
      </trkpt>
      <trkpt lat="37.18681333333333" lon="-7.3656516666666665">
        <ele>50.50000000000005</ele>
        <time>2013-01-07T13:21:02.30</time>
      </trkpt>
      <trkpt lat="37.186785" lon="-7.365723333333333">
        <ele>50.80000000000005</ele>
        <time>2013-01-07T13:21:03.30</time>
      </trkpt>
      <trkpt lat="37.186753333333336" lon="-7.365793333333333">
        <ele>51.00000000000005</ele>
        <time>2013-01-07T13:21:04.30</time>
      </trkpt>
      <trkpt lat="37.18672333333333" lon="-7.365865">
        <ele>51.10000000000005</ele>
        <time>2013-01-07T13:21:05.30</time>
      </trkpt>
      <trkpt lat="37.186695" lon="-7.365933333333333">
        <ele>51.50000000000005</ele>
        <time>2013-01-07T13:21:06.30</time>
      </trkpt>
      <trkpt lat="37.18666666666667" lon="-7.366005">
        <ele>51.20000000000005</ele>
        <time>2013-01-07T13:21:07.30</time>
      </trkpt>
      <trkpt lat="37.186635" lon="-7.366075">
        <ele>51.20000000000005</ele>
        <time>2013-01-07T13:21:08.30</time>
      </trkpt>
      <trkpt lat="37.186605" lon="-7.3661433333333335">
        <ele>51.10000000000005</ele>
        <time>2013-01-07T13:21:09.30</time>
      </trkpt>
      <trkpt lat="37.186575" lon="-7.366211666666667">
        <ele>51.10000000000005</ele>
        <time>2013-01-07T13:21:10.30</time>
      </trkpt>
      <trkpt lat="37.186548333333334" lon="-7.36628">
        <ele>51.00000000000005</ele>
        <time>2013-01-07T13:21:11.30</time>
      </trkpt>
      <trkpt lat="37.18651833333333" lon="-7.366341666666667">
        <ele>51.20000000000005</ele>
        <time>2013-01-07T13:21:12.30</time>
      </trkpt>
      <trkpt lat="37.18648666666667" lon="-7.366403333333333">
        <ele>51.10000000000005</ele>
        <time>2013-01-07T13:21:13.30</time>
      </trkpt>
      <trkpt lat="37.186461666666666" lon="-7.3665">
        <ele>50.50000000000005</ele>
        <time>2013-01-07T13:21:14.30</time>
      </trkpt>
      <trkpt lat="37.18642833333333" lon="-7.366568333333333">
        <ele>50.40000000000005</ele>
        <time>2013-01-07T13:21:15.30</time>
      </trkpt>
      <trkpt lat="37.18639833333334" lon="-7.36663">
        <ele>50.80000000000005</ele>
        <time>2013-01-07T13:21:16.30</time>
      </trkpt>
      <trkpt lat="37.18636" lon="-7.366691666666667">
        <ele>50.700000000000045</ele>
        <time>2013-01-07T13:21:17.30</time>
      </trkpt>
      <trkpt lat="37.18633" lon="-7.366758333333333">
        <ele>50.40000000000005</ele>
        <time>2013-01-07T13:21:18.31</time>
      </trkpt>
      <trkpt lat="37.18631" lon="-7.366815">
        <ele>50.50000000000005</ele>
        <time>2013-01-07T13:21:19.30</time>
      </trkpt>
      <trkpt lat="37.18628" lon="-7.366848333333333">
        <ele>50.70000000000005</ele>
        <time>2013-01-07T13:21:20.30</time>
      </trkpt>
      <trkpt lat="37.186251666666664" lon="-7.366891666666667">
        <ele>50.900000000000055</ele>
        <time>2013-01-07T13:21:21.30</time>
      </trkpt>
      <trkpt lat="37.18623" lon="-7.366943333333333">
        <ele>50.50000000000006</ele>
        <time>2013-01-07T13:21:22.30</time>
      </trkpt>
      <trkpt lat="37.18620666666666" lon="-7.367008333333334">
        <ele>50.70000000000006</ele>
        <time>2013-01-07T13:21:23.30</time>
      </trkpt>
      <trkpt lat="37.18618333333333" lon="-7.367085">
        <ele>51.20000000000006</ele>
        <time>2013-01-07T13:21:24.30</time>
      </trkpt>
      <trkpt lat="37.18616" lon="-7.367196666666667">
        <ele>51.40000000000006</ele>
        <time>2013-01-07T13:21:25.30</time>
      </trkpt>
      <trkpt lat="37.18612" lon="-7.367281666666667">
        <ele>51.500000000000064</ele>
        <time>2013-01-07T13:21:26.30</time>
      </trkpt>
      <trkpt lat="37.18609" lon="-7.367371666666667">
        <ele>51.70000000000007</ele>
        <time>2013-01-07T13:21:27.30</time>
      </trkpt>
      <trkpt lat="37.186053333333334" lon="-7.3674566666666665">
        <ele>51.500000000000064</ele>
        <time>2013-01-07T13:21:28.30</time>
      </trkpt>
      <trkpt lat="37.186033333333334" lon="-7.367543333333334">
        <ele>51.90000000000006</ele>
        <time>2013-01-07T13:21:29.30</time>
      </trkpt>
      <trkpt lat="37.186005" lon="-7.367626666666666">
        <ele>51.70000000000006</ele>
        <time>2013-01-07T13:21:30.30</time>
      </trkpt>
      <trkpt lat="37.185975" lon="-7.367705">
        <ele>51.60000000000006</ele>
        <time>2013-01-07T13:21:31.30</time>
      </trkpt>
      <trkpt lat="37.18595" lon="-7.367805">
        <ele>51.900000000000055</ele>
        <time>2013-01-07T13:21:32.30</time>
      </trkpt>
      <trkpt lat="37.185923333333335" lon="-7.367896666666667">
        <ele>51.50000000000006</ele>
        <time>2013-01-07T13:21:33.30</time>
      </trkpt>
      <trkpt lat="37.18589333333333" lon="-7.367976666666666">
        <ele>51.50000000000006</ele>
        <time>2013-01-07T13:21:34.30</time>
      </trkpt>
      <trkpt lat="37.18587" lon="-7.368061666666667">
        <ele>51.60000000000006</ele>
        <time>2013-01-07T13:21:35.30</time>
      </trkpt>
      <trkpt lat="37.18584666666667" lon="-7.36814">
        <ele>51.400000000000055</ele>
        <time>2013-01-07T13:21:36.30</time>
      </trkpt>
      <trkpt lat="37.18582333333333" lon="-7.368233333333333">
        <ele>51.20000000000005</ele>
        <time>2013-01-07T13:21:37.30</time>
      </trkpt>
      <trkpt lat="37.185813333333336" lon="-7.368336666666667">
        <ele>51.00000000000005</ele>
        <time>2013-01-07T13:21:38.30</time>
      </trkpt>
      <trkpt lat="37.1858" lon="-7.368438333333334">
        <ele>50.40000000000005</ele>
        <time>2013-01-07T13:21:39.30</time>
      </trkpt>
      <trkpt lat="37.18578" lon="-7.368528333333333">
        <ele>50.60000000000005</ele>
        <time>2013-01-07T13:21:40.30</time>
      </trkpt>
      <trkpt lat="37.18575" lon="-7.368571666666667">
        <ele>50.40000000000005</ele>
        <time>2013-01-07T13:21:41.31</time>
      </trkpt>
      <trkpt lat="37.185723333333335" lon="-7.368646666666667">
        <ele>50.50000000000005</ele>
        <time>2013-01-07T13:21:42.31</time>
      </trkpt>
      <trkpt lat="37.18570833333333" lon="-7.368725">
        <ele>50.50000000000005</ele>
        <time>2013-01-07T13:21:43.30</time>
      </trkpt>
      <trkpt lat="37.185698333333335" lon="-7.368811666666667">
        <ele>50.60000000000005</ele>
        <time>2013-01-07T13:21:44.29</time>
      </trkpt>
      <trkpt lat="37.185678333333335" lon="-7.3688883333333335">
        <ele>50.10000000000005</ele>
        <time>2013-01-07T13:21:45.29</time>
      </trkpt>
      <trkpt lat="37.18566833333333" lon="-7.368966666666667">
        <ele>49.90000000000005</ele>
        <time>2013-01-07T13:21:46.30</time>
      </trkpt>
      <trkpt lat="37.185653333333335" lon="-7.369043333333333">
        <ele>49.80000000000005</ele>
        <time>2013-01-07T13:21:47.29</time>
      </trkpt>
      <trkpt lat="37.185633333333335" lon="-7.369133333333333">
        <ele>49.600000000000044</ele>
        <time>2013-01-07T13:21:48.29</time>
      </trkpt>
      <trkpt lat="37.18562333333333" lon="-7.3692166666666665">
        <ele>50.200000000000045</ele>
        <time>2013-01-07T13:21:49.30</time>
      </trkpt>
      <trkpt lat="37.18561666666667" lon="-7.369303333333334">
        <ele>50.50000000000004</ele>
        <time>2013-01-07T13:21:50.30</time>
      </trkpt>
      <trkpt lat="37.18559833333333" lon="-7.369385">
        <ele>50.100000000000044</ele>
        <time>2013-01-07T13:21:51.30</time>
      </trkpt>
      <trkpt lat="37.185588333333335" lon="-7.369475">
        <ele>50.100000000000044</ele>
        <time>2013-01-07T13:21:52.30</time>
      </trkpt>
      <trkpt lat="37.185581666666664" lon="-7.369565">
        <ele>50.40000000000004</ele>
        <time>2013-01-07T13:21:53.29</time>
      </trkpt>
      <trkpt lat="37.185566666666666" lon="-7.36965">
        <ele>50.40000000000004</ele>
        <time>2013-01-07T13:21:54.30</time>
      </trkpt>
      <trkpt lat="37.18555333333333" lon="-7.3697333333333335">
        <ele>50.600000000000044</ele>
        <time>2013-01-07T13:21:55.30</time>
      </trkpt>
      <trkpt lat="37.18554833333334" lon="-7.369838333333333">
        <ele>50.00000000000004</ele>
        <time>2013-01-07T13:21:56.30</time>
      </trkpt>
      <trkpt lat="37.18554666666667" lon="-7.369928333333333">
        <ele>50.40000000000004</ele>
        <time>2013-01-07T13:21:57.30</time>
      </trkpt>
      <trkpt lat="37.185536666666664" lon="-7.37001">
        <ele>50.80000000000004</ele>
        <time>2013-01-07T13:21:58.30</time>
      </trkpt>
      <trkpt lat="37.18552833333333" lon="-7.370095">
        <ele>50.80000000000004</ele>
        <time>2013-01-07T13:21:59.30</time>
      </trkpt>
      <trkpt lat="37.185525" lon="-7.37019">
        <ele>50.80000000000004</ele>
        <time>2013-01-07T13:22:00.30</time>
      </trkpt>
      <trkpt lat="37.185516666666665" lon="-7.37028">
        <ele>51.00000000000004</ele>
        <time>2013-01-07T13:22:01.30</time>
      </trkpt>
      <trkpt lat="37.18550833333333" lon="-7.370368333333333">
        <ele>50.80000000000004</ele>
        <time>2013-01-07T13:22:02.30</time>
      </trkpt>
      <trkpt lat="37.18550666666667" lon="-7.370456666666667">
        <ele>50.70000000000004</ele>
        <time>2013-01-07T13:22:03.30</time>
      </trkpt>
      <trkpt lat="37.18550666666667" lon="-7.370558333333333">
        <ele>51.000000000000036</ele>
        <time>2013-01-07T13:22:04.30</time>
      </trkpt>
      <trkpt lat="37.18550166666667" lon="-7.37065">
        <ele>50.60000000000004</ele>
        <time>2013-01-07T13:22:05.36</time>
      </trkpt>
      <trkpt lat="37.185498333333335" lon="-7.370733333333333">
        <ele>50.80000000000004</ele>
        <time>2013-01-07T13:22:06.30</time>
      </trkpt>
      <trkpt lat="37.18550333333334" lon="-7.370818333333333">
        <ele>51.20000000000004</ele>
        <time>2013-01-07T13:22:07.30</time>
      </trkpt>
      <trkpt lat="37.18550833333333" lon="-7.370903333333334">
        <ele>51.500000000000036</ele>
        <time>2013-01-07T13:22:08.30</time>
      </trkpt>
      <trkpt lat="37.185505" lon="-7.37099">
        <ele>51.400000000000034</ele>
        <time>2013-01-07T13:22:09.30</time>
      </trkpt>
      <trkpt lat="37.1855" lon="-7.371078333333333">
        <ele>51.60000000000004</ele>
        <time>2013-01-07T13:22:10.30</time>
      </trkpt>
      <trkpt lat="37.1855" lon="-7.371161666666667">
        <ele>51.900000000000034</ele>
        <time>2013-01-07T13:22:11.30</time>
      </trkpt>
      <trkpt lat="37.185498333333335" lon="-7.371246666666667">
        <ele>51.500000000000036</ele>
        <time>2013-01-07T13:22:12.30</time>
      </trkpt>
      <trkpt lat="37.185505" lon="-7.37133">
        <ele>51.80000000000003</ele>
        <time>2013-01-07T13:22:13.33</time>
      </trkpt>
      <trkpt lat="37.18551166666666" lon="-7.37142">
        <ele>51.60000000000003</ele>
        <time>2013-01-07T13:22:14.31</time>
      </trkpt>
      <trkpt lat="37.18551333333333" lon="-7.371501666666667">
        <ele>51.90000000000003</ele>
        <time>2013-01-07T13:22:15.29</time>
      </trkpt>
      <trkpt lat="37.18552" lon="-7.3715866666666665">
        <ele>52.200000000000024</ele>
        <time>2013-01-07T13:22:16.30</time>
      </trkpt>
      <trkpt lat="37.185523333333336" lon="-7.371671666666667">
        <ele>51.90000000000003</ele>
        <time>2013-01-07T13:22:17.30</time>
      </trkpt>
      <trkpt lat="37.18553" lon="-7.371753333333333">
        <ele>52.50000000000003</ele>
        <time>2013-01-07T13:22:18.30</time>
      </trkpt>
      <trkpt lat="37.185536666666664" lon="-7.371838333333334">
        <ele>52.60000000000003</ele>
        <time>2013-01-07T13:22:19.30</time>
      </trkpt>
      <trkpt lat="37.185543333333335" lon="-7.371918333333333">
        <ele>52.90000000000003</ele>
        <time>2013-01-07T13:22:20.30</time>
      </trkpt>
      <trkpt lat="37.18555" lon="-7.371996666666667">
        <ele>52.60000000000003</ele>
        <time>2013-01-07T13:22:21.30</time>
      </trkpt>
      <trkpt lat="37.185555" lon="-7.3720783333333335">
        <ele>52.40000000000003</ele>
        <time>2013-01-07T13:22:22.30</time>
      </trkpt>
      <trkpt lat="37.185563333333334" lon="-7.372161666666667">
        <ele>52.40000000000003</ele>
        <time>2013-01-07T13:22:23.30</time>
      </trkpt>
      <trkpt lat="37.18557166666667" lon="-7.372246666666666">
        <ele>52.200000000000024</ele>
        <time>2013-01-07T13:22:24.30</time>
      </trkpt>
      <trkpt lat="37.18558" lon="-7.372328333333333">
        <ele>52.00000000000002</ele>
        <time>2013-01-07T13:22:25.30</time>
      </trkpt>
      <trkpt lat="37.18559166666667" lon="-7.372401666666667">
        <ele>51.80000000000002</ele>
        <time>2013-01-07T13:22:26.30</time>
      </trkpt>
      <trkpt lat="37.18560333333333" lon="-7.372485">
        <ele>51.90000000000002</ele>
        <time>2013-01-07T13:22:27.30</time>
      </trkpt>
      <trkpt lat="37.18561666666667" lon="-7.37256">
        <ele>51.70000000000002</ele>
        <time>2013-01-07T13:22:28.30</time>
      </trkpt>
      <trkpt lat="37.18563" lon="-7.37264">
        <ele>51.80000000000002</ele>
        <time>2013-01-07T13:22:29.30</time>
      </trkpt>
      <trkpt lat="37.18564666666666" lon="-7.372716666666666">
        <ele>51.50000000000002</ele>
        <time>2013-01-07T13:22:30.30</time>
      </trkpt>
      <trkpt lat="37.18566" lon="-7.372791666666667">
        <ele>51.50000000000002</ele>
        <time>2013-01-07T13:22:31.30</time>
      </trkpt>
      <trkpt lat="37.185675" lon="-7.372871666666667">
        <ele>51.40000000000002</ele>
        <time>2013-01-07T13:22:32.30</time>
      </trkpt>
      <trkpt lat="37.18568833333333" lon="-7.372951666666666">
        <ele>51.20000000000002</ele>
        <time>2013-01-07T13:22:33.30</time>
      </trkpt>
      <trkpt lat="37.1857" lon="-7.373026666666667">
        <ele>51.30000000000002</ele>
        <time>2013-01-07T13:22:34.31</time>
      </trkpt>
      <trkpt lat="37.185715" lon="-7.373101666666667">
        <ele>51.40000000000002</ele>
        <time>2013-01-07T13:22:35.30</time>
      </trkpt>
      <trkpt lat="37.18573333333333" lon="-7.373183333333333">
        <ele>51.50000000000002</ele>
        <time>2013-01-07T13:22:36.30</time>
      </trkpt>
      <trkpt lat="37.18574666666667" lon="-7.373258333333333">
        <ele>51.40000000000002</ele>
        <time>2013-01-07T13:22:37.30</time>
      </trkpt>
      <trkpt lat="37.185763333333334" lon="-7.37334">
        <ele>51.20000000000002</ele>
        <time>2013-01-07T13:22:38.30</time>
      </trkpt>
      <trkpt lat="37.18578333333333" lon="-7.373415">
        <ele>50.70000000000002</ele>
        <time>2013-01-07T13:22:39.30</time>
      </trkpt>
      <trkpt lat="37.18580333333333" lon="-7.373496666666667">
        <ele>50.90000000000002</ele>
        <time>2013-01-07T13:22:40.30</time>
      </trkpt>
      <trkpt lat="37.18582833333333" lon="-7.373576666666667">
        <ele>50.90000000000002</ele>
        <time>2013-01-07T13:22:41.31</time>
      </trkpt>
      <trkpt lat="37.185853333333334" lon="-7.373653333333333">
        <ele>50.50000000000002</ele>
        <time>2013-01-07T13:22:42.30</time>
      </trkpt>
      <trkpt lat="37.185878333333335" lon="-7.373731666666667">
        <ele>50.700000000000024</ele>
        <time>2013-01-07T13:22:43.30</time>
      </trkpt>
      <trkpt lat="37.185903333333336" lon="-7.373811666666667">
        <ele>50.60000000000002</ele>
        <time>2013-01-07T13:22:44.30</time>
      </trkpt>
      <trkpt lat="37.185925" lon="-7.373901666666667">
        <ele>50.60000000000002</ele>
        <time>2013-01-07T13:22:45.30</time>
      </trkpt>
      <trkpt lat="37.185961666666664" lon="-7.373981666666666">
        <ele>50.50000000000002</ele>
        <time>2013-01-07T13:22:46.30</time>
      </trkpt>
      <trkpt lat="37.185988333333334" lon="-7.37407">
        <ele>50.80000000000002</ele>
        <time>2013-01-07T13:22:47.30</time>
      </trkpt>
      <trkpt lat="37.18602" lon="-7.374156666666667">
        <ele>50.90000000000002</ele>
        <time>2013-01-07T13:22:48.36</time>
      </trkpt>
      <trkpt lat="37.186053333333334" lon="-7.374241666666666">
        <ele>50.90000000000002</ele>
        <time>2013-01-07T13:22:49.30</time>
      </trkpt>
      <trkpt lat="37.18608666666667" lon="-7.374328333333334">
        <ele>50.30000000000002</ele>
        <time>2013-01-07T13:22:50.30</time>
      </trkpt>
      <trkpt lat="37.18611666666666" lon="-7.374413333333333">
        <ele>50.00000000000002</ele>
        <time>2013-01-07T13:22:51.30</time>
      </trkpt>
      <trkpt lat="37.186148333333335" lon="-7.3745">
        <ele>50.00000000000002</ele>
        <time>2013-01-07T13:22:52.30</time>
      </trkpt>
      <trkpt lat="37.18618166666667" lon="-7.37459">
        <ele>49.90000000000002</ele>
        <time>2013-01-07T13:22:53.30</time>
      </trkpt>
      <trkpt lat="37.18621" lon="-7.374678333333334">
        <ele>49.70000000000002</ele>
        <time>2013-01-07T13:22:54.30</time>
      </trkpt>
      <trkpt lat="37.18624" lon="-7.374766666666667">
        <ele>49.80000000000002</ele>
        <time>2013-01-07T13:22:55.30</time>
      </trkpt>
      <trkpt lat="37.186276666666664" lon="-7.3748466666666666">
        <ele>49.90000000000002</ele>
        <time>2013-01-07T13:22:56.30</time>
      </trkpt>
      <trkpt lat="37.186308333333336" lon="-7.374931666666667">
        <ele>49.80000000000002</ele>
        <time>2013-01-07T13:22:57.30</time>
      </trkpt>
      <trkpt lat="37.18634333333333" lon="-7.37502">
        <ele>49.80000000000002</ele>
        <time>2013-01-07T13:22:58.30</time>
      </trkpt>
      <trkpt lat="37.18638" lon="-7.375103333333334">
        <ele>49.70000000000002</ele>
        <time>2013-01-07T13:22:59.30</time>
      </trkpt>
      <trkpt lat="37.186415" lon="-7.375188333333333">
        <ele>49.80000000000002</ele>
        <time>2013-01-07T13:23:00.30</time>
      </trkpt>
      <trkpt lat="37.18645333333333" lon="-7.375275">
        <ele>49.600000000000016</ele>
        <time>2013-01-07T13:23:01.30</time>
      </trkpt>
      <trkpt lat="37.18648666666667" lon="-7.375365">
        <ele>49.500000000000014</ele>
        <time>2013-01-07T13:23:02.30</time>
      </trkpt>
      <trkpt lat="37.186515" lon="-7.375443333333333">
        <ele>49.000000000000014</ele>
        <time>2013-01-07T13:23:03.30</time>
      </trkpt>
      <trkpt lat="37.186555" lon="-7.375521666666667">
        <ele>49.500000000000014</ele>
        <time>2013-01-07T13:23:04.30</time>
      </trkpt>
      <trkpt lat="37.186585" lon="-7.375595">
        <ele>49.40000000000001</ele>
        <time>2013-01-07T13:23:05.30</time>
      </trkpt>
      <trkpt lat="37.186616666666666" lon="-7.375673333333333">
        <ele>49.30000000000001</ele>
        <time>2013-01-07T13:23:06.30</time>
      </trkpt>
      <trkpt lat="37.18665166666667" lon="-7.3757616666666665">
        <ele>49.20000000000001</ele>
        <time>2013-01-07T13:23:07.30</time>
      </trkpt>
      <trkpt lat="37.18668666666667" lon="-7.375845">
        <ele>49.50000000000001</ele>
        <time>2013-01-07T13:23:08.30</time>
      </trkpt>
      <trkpt lat="37.18671833333333" lon="-7.3759266666666665">
        <ele>49.70000000000001</ele>
        <time>2013-01-07T13:23:09.30</time>
      </trkpt>
      <trkpt lat="37.18675" lon="-7.376006666666667">
        <ele>49.70000000000001</ele>
        <time>2013-01-07T13:23:10.30</time>
      </trkpt>
      <trkpt lat="37.186778333333336" lon="-7.376086666666667">
        <ele>50.00000000000001</ele>
        <time>2013-01-07T13:23:11.30</time>
      </trkpt>
      <trkpt lat="37.18680333333333" lon="-7.376166666666666">
        <ele>50.00000000000001</ele>
        <time>2013-01-07T13:23:12.30</time>
      </trkpt>
      <trkpt lat="37.186836666666665" lon="-7.376255">
        <ele>50.00000000000001</ele>
        <time>2013-01-07T13:23:13.30</time>
      </trkpt>
      <trkpt lat="37.18687" lon="-7.376335">
        <ele>49.60000000000001</ele>
        <time>2013-01-07T13:23:14.30</time>
      </trkpt>
      <trkpt lat="37.186895" lon="-7.376435">
        <ele>48.70000000000001</ele>
        <time>2013-01-07T13:23:15.30</time>
      </trkpt>
      <trkpt lat="37.186935" lon="-7.376531666666667">
        <ele>48.40000000000001</ele>
        <time>2013-01-07T13:23:16.30</time>
      </trkpt>
      <trkpt lat="37.18698" lon="-7.3766316666666665">
        <ele>48.40000000000001</ele>
        <time>2013-01-07T13:23:17.30</time>
      </trkpt>
      <trkpt lat="37.187016666666665" lon="-7.376726666666666">
        <ele>48.500000000000014</ele>
        <time>2013-01-07T13:23:18.30</time>
      </trkpt>
      <trkpt lat="37.18705833333333" lon="-7.376823333333333">
        <ele>48.40000000000001</ele>
        <time>2013-01-07T13:23:19.30</time>
      </trkpt>
      <trkpt lat="37.18709166666667" lon="-7.376891666666666">
        <ele>48.000000000000014</ele>
        <time>2013-01-07T13:23:20.30</time>
      </trkpt>
      <trkpt lat="37.187126666666664" lon="-7.376956666666667">
        <ele>47.90000000000001</ele>
        <time>2013-01-07T13:23:21.30</time>
      </trkpt>
      <trkpt lat="37.18715" lon="-7.377041666666667">
        <ele>48.20000000000001</ele>
        <time>2013-01-07T13:23:22.30</time>
      </trkpt>
      <trkpt lat="37.187176666666666" lon="-7.377121666666667">
        <ele>48.30000000000001</ele>
        <time>2013-01-07T13:23:23.30</time>
      </trkpt>
      <trkpt lat="37.18719166666666" lon="-7.377185">
        <ele>48.40000000000001</ele>
        <time>2013-01-07T13:23:24.30</time>
      </trkpt>
      <trkpt lat="37.18723" lon="-7.377256666666667">
        <ele>48.30000000000001</ele>
        <time>2013-01-07T13:23:25.30</time>
      </trkpt>
      <trkpt lat="37.18725166666667" lon="-7.377306666666667">
        <ele>48.30000000000001</ele>
        <time>2013-01-07T13:23:26.30</time>
      </trkpt>
      <trkpt lat="37.187265" lon="-7.377328333333334">
        <ele>48.10000000000001</ele>
        <time>2013-01-07T13:23:27.30</time>
      </trkpt>
      <trkpt lat="37.187288333333335" lon="-7.377398333333334">
        <ele>48.00000000000001</ele>
        <time>2013-01-07T13:23:28.30</time>
      </trkpt>
      <trkpt lat="37.187311666666666" lon="-7.377471666666667">
        <ele>47.900000000000006</ele>
        <time>2013-01-07T13:23:29.30</time>
      </trkpt>
      <trkpt lat="37.187333333333335" lon="-7.377536666666667">
        <ele>48.10000000000001</ele>
        <time>2013-01-07T13:23:30.30</time>
      </trkpt>
      <trkpt lat="37.187358333333336" lon="-7.377631666666667">
        <ele>47.400000000000006</ele>
        <time>2013-01-07T13:23:31.30</time>
      </trkpt>
      <trkpt lat="37.187395" lon="-7.377715">
        <ele>47.400000000000006</ele>
        <time>2013-01-07T13:23:32.30</time>
      </trkpt>
      <trkpt lat="37.18743833333333" lon="-7.377808333333333">
        <ele>47.50000000000001</ele>
        <time>2013-01-07T13:23:33.29</time>
      </trkpt>
      <trkpt lat="37.18747166666667" lon="-7.377891666666667">
        <ele>47.800000000000004</ele>
        <time>2013-01-07T13:23:34.30</time>
      </trkpt>
      <trkpt lat="37.187505" lon="-7.377973333333333">
        <ele>47.7</ele>
        <time>2013-01-07T13:23:35.30</time>
      </trkpt>
      <trkpt lat="37.18752833333333" lon="-7.378053333333333">
        <ele>47.400000000000006</ele>
        <time>2013-01-07T13:23:36.30</time>
      </trkpt>
      <trkpt lat="37.18756" lon="-7.378136666666666">
        <ele>47.900000000000006</ele>
        <time>2013-01-07T13:23:37.30</time>
      </trkpt>
      <trkpt lat="37.18759" lon="-7.378215">
        <ele>48.00000000000001</ele>
        <time>2013-01-07T13:23:38.30</time>
      </trkpt>
      <trkpt lat="37.187623333333335" lon="-7.378288333333333">
        <ele>48.10000000000001</ele>
        <time>2013-01-07T13:23:39.30</time>
      </trkpt>
      <trkpt lat="37.18765666666667" lon="-7.378381666666667">
        <ele>47.900000000000006</ele>
        <time>2013-01-07T13:23:40.30</time>
      </trkpt>
      <trkpt lat="37.187686666666664" lon="-7.3784616666666665">
        <ele>48.10000000000001</ele>
        <time>2013-01-07T13:23:41.30</time>
      </trkpt>
      <trkpt lat="37.18771666666667" lon="-7.378543333333333">
        <ele>48.00000000000001</ele>
        <time>2013-01-07T13:23:42.30</time>
      </trkpt>
      <trkpt lat="37.187755" lon="-7.378625">
        <ele>48.300000000000004</ele>
        <time>2013-01-07T13:23:43.31</time>
      </trkpt>
      <trkpt lat="37.18778833333333" lon="-7.378701666666666">
        <ele>48.6</ele>
        <time>2013-01-07T13:23:44.30</time>
      </trkpt>
      <trkpt lat="37.187821666666665" lon="-7.3787883333333335">
        <ele>48.6</ele>
        <time>2013-01-07T13:23:45.30</time>
      </trkpt>
      <trkpt lat="37.18785333333334" lon="-7.378866666666666">
        <ele>48.4</ele>
        <time>2013-01-07T13:23:46.30</time>
      </trkpt>
      <trkpt lat="37.18788333333333" lon="-7.378945">
        <ele>48.1</ele>
        <time>2013-01-07T13:23:47.30</time>
      </trkpt>
      <trkpt lat="37.187915" lon="-7.379025">
        <ele>48.2</ele>
        <time>2013-01-07T13:23:48.30</time>
      </trkpt>
      <trkpt lat="37.18794166666667" lon="-7.379103333333333">
        <ele>48.6</ele>
        <time>2013-01-07T13:23:49.30</time>
      </trkpt>
      <trkpt lat="37.187976666666664" lon="-7.379181666666667">
        <ele>48.4</ele>
        <time>2013-01-07T13:23:50.30</time>
      </trkpt>
      <trkpt lat="37.188006666666666" lon="-7.379263333333333">
        <ele>48.6</ele>
        <time>2013-01-07T13:23:51.30</time>
      </trkpt>
      <trkpt lat="37.188035" lon="-7.37935">
        <ele>48.7</ele>
        <time>2013-01-07T13:23:52.30</time>
      </trkpt>
      <trkpt lat="37.188066666666664" lon="-7.379428333333333">
        <ele>48.900000000000006</ele>
        <time>2013-01-07T13:23:53.31</time>
      </trkpt>
      <trkpt lat="37.18810166666667" lon="-7.379505">
        <ele>49.00000000000001</ele>
        <time>2013-01-07T13:23:54.30</time>
      </trkpt>
      <trkpt lat="37.18813333333333" lon="-7.379585">
        <ele>49.00000000000001</ele>
        <time>2013-01-07T13:23:55.30</time>
      </trkpt>
      <trkpt lat="37.188165" lon="-7.379653333333334">
        <ele>48.900000000000006</ele>
        <time>2013-01-07T13:23:56.30</time>
      </trkpt>
      <trkpt lat="37.1882" lon="-7.379738333333333">
        <ele>49.10000000000001</ele>
        <time>2013-01-07T13:23:57.30</time>
      </trkpt>
      <trkpt lat="37.188235" lon="-7.379818333333334">
        <ele>49.400000000000006</ele>
        <time>2013-01-07T13:23:58.30</time>
      </trkpt>
      <trkpt lat="37.188271666666665" lon="-7.3799">
        <ele>49.400000000000006</ele>
        <time>2013-01-07T13:23:59.30</time>
      </trkpt>
      <trkpt lat="37.188305" lon="-7.379983333333334">
        <ele>49.900000000000006</ele>
        <time>2013-01-07T13:24:00.30</time>
      </trkpt>
      <trkpt lat="37.188338333333334" lon="-7.380071666666667">
        <ele>50.00000000000001</ele>
        <time>2013-01-07T13:24:01.36</time>
      </trkpt>
      <trkpt lat="37.18837" lon="-7.380151666666666">
        <ele>49.900000000000006</ele>
        <time>2013-01-07T13:24:02.30</time>
      </trkpt>
      <trkpt lat="37.188401666666664" lon="-7.380233333333333">
        <ele>49.900000000000006</ele>
        <time>2013-01-07T13:24:03.31</time>
      </trkpt>
      <trkpt lat="37.188431666666666" lon="-7.38031">
        <ele>50.10000000000001</ele>
        <time>2013-01-07T13:24:04.30</time>
      </trkpt>
      <trkpt lat="37.18846666666666" lon="-7.380388333333333">
        <ele>50.50000000000001</ele>
        <time>2013-01-07T13:24:05.30</time>
      </trkpt>
      <trkpt lat="37.188498333333335" lon="-7.380465">
        <ele>50.300000000000004</ele>
        <time>2013-01-07T13:24:06.30</time>
      </trkpt>
      <trkpt lat="37.18853" lon="-7.380546666666667">
        <ele>49.900000000000006</ele>
        <time>2013-01-07T13:24:07.30</time>
      </trkpt>
      <trkpt lat="37.18855666666666" lon="-7.380626666666666">
        <ele>50.300000000000004</ele>
        <time>2013-01-07T13:24:08.30</time>
      </trkpt>
      <trkpt lat="37.188588333333335" lon="-7.380703333333333">
        <ele>50.400000000000006</ele>
        <time>2013-01-07T13:24:09.30</time>
      </trkpt>
      <trkpt lat="37.18861833333333" lon="-7.380786666666666">
        <ele>50.50000000000001</ele>
        <time>2013-01-07T13:24:10.30</time>
      </trkpt>
      <trkpt lat="37.188645" lon="-7.38088">
        <ele>50.20000000000001</ele>
        <time>2013-01-07T13:24:11.30</time>
      </trkpt>
      <trkpt lat="37.188676666666666" lon="-7.380961666666667">
        <ele>49.90000000000001</ele>
        <time>2013-01-07T13:24:12.30</time>
      </trkpt>
      <trkpt lat="37.188703333333336" lon="-7.381043333333333">
        <ele>49.80000000000001</ele>
        <time>2013-01-07T13:24:13.30</time>
      </trkpt>
      <trkpt lat="37.18873166666667" lon="-7.381125">
        <ele>49.70000000000001</ele>
        <time>2013-01-07T13:24:14.31</time>
      </trkpt>
      <trkpt lat="37.188765" lon="-7.381205">
        <ele>49.50000000000001</ele>
        <time>2013-01-07T13:24:15.30</time>
      </trkpt>
      <trkpt lat="37.18879666666667" lon="-7.381286666666667">
        <ele>49.400000000000006</ele>
        <time>2013-01-07T13:24:16.30</time>
      </trkpt>
      <trkpt lat="37.18883" lon="-7.381366666666667">
        <ele>49.400000000000006</ele>
        <time>2013-01-07T13:24:17.30</time>
      </trkpt>
      <trkpt lat="37.188858333333336" lon="-7.381451666666667">
        <ele>49.60000000000001</ele>
        <time>2013-01-07T13:24:18.28</time>
      </trkpt>
      <trkpt lat="37.18889" lon="-7.381531666666667">
        <ele>49.60000000000001</ele>
        <time>2013-01-07T13:24:19.29</time>
      </trkpt>
      <trkpt lat="37.18893" lon="-7.381613333333333">
        <ele>48.900000000000006</ele>
        <time>2013-01-07T13:24:20.29</time>
      </trkpt>
      <trkpt lat="37.188966666666666" lon="-7.381683333333333">
        <ele>49.300000000000004</ele>
        <time>2013-01-07T13:24:21.29</time>
      </trkpt>
      <trkpt lat="37.18899666666667" lon="-7.381766666666667">
        <ele>49.400000000000006</ele>
        <time>2013-01-07T13:24:22.27</time>
      </trkpt>
      <trkpt lat="37.189025" lon="-7.381841666666666">
        <ele>49.400000000000006</ele>
        <time>2013-01-07T13:24:23.29</time>
      </trkpt>
      <trkpt lat="37.189055" lon="-7.381928333333334">
        <ele>49.800000000000004</ele>
        <time>2013-01-07T13:24:24.29</time>
      </trkpt>
      <trkpt lat="37.189083333333336" lon="-7.382">
        <ele>49.900000000000006</ele>
        <time>2013-01-07T13:24:25.29</time>
      </trkpt>
      <trkpt lat="37.189115" lon="-7.382081666666667">
        <ele>50.00000000000001</ele>
        <time>2013-01-07T13:24:26.30</time>
      </trkpt>
      <trkpt lat="37.189145" lon="-7.382158333333333">
        <ele>50.00000000000001</ele>
        <time>2013-01-07T13:24:27.30</time>
      </trkpt>
      <trkpt lat="37.18917" lon="-7.382236666666667">
        <ele>50.10000000000001</ele>
        <time>2013-01-07T13:24:28.30</time>
      </trkpt>
      <trkpt lat="37.18920166666667" lon="-7.382321666666667">
        <ele>50.10000000000001</ele>
        <time>2013-01-07T13:24:29.30</time>
      </trkpt>
      <trkpt lat="37.189233333333334" lon="-7.3824">
        <ele>50.10000000000001</ele>
        <time>2013-01-07T13:24:30.30</time>
      </trkpt>
      <trkpt lat="37.18926333333334" lon="-7.382481666666667">
        <ele>50.10000000000001</ele>
        <time>2013-01-07T13:24:31.30</time>
      </trkpt>
      <trkpt lat="37.18929166666667" lon="-7.382561666666667">
        <ele>50.00000000000001</ele>
        <time>2013-01-07T13:24:32.30</time>
      </trkpt>
      <trkpt lat="37.189321666666665" lon="-7.382641666666666">
        <ele>49.800000000000004</ele>
        <time>2013-01-07T13:24:33.30</time>
      </trkpt>
      <trkpt lat="37.189346666666665" lon="-7.382723333333334">
        <ele>49.6</ele>
        <time>2013-01-07T13:24:34.30</time>
      </trkpt>
      <trkpt lat="37.189373333333336" lon="-7.382803333333333">
        <ele>49.6</ele>
        <time>2013-01-07T13:24:35.30</time>
      </trkpt>
      <trkpt lat="37.1894" lon="-7.382885">
        <ele>49.6</ele>
        <time>2013-01-07T13:24:36.30</time>
      </trkpt>
      <trkpt lat="37.18942333333333" lon="-7.3829666666666665">
        <ele>49.6</ele>
        <time>2013-01-07T13:24:37.30</time>
      </trkpt>
      <trkpt lat="37.18944166666667" lon="-7.383048333333333">
        <ele>49.7</ele>
        <time>2013-01-07T13:24:38.30</time>
      </trkpt>
      <trkpt lat="37.189463333333336" lon="-7.3831283333333335">
        <ele>49.5</ele>
        <time>2013-01-07T13:24:39.30</time>
      </trkpt>
      <trkpt lat="37.189495" lon="-7.383205">
        <ele>49.5</ele>
        <time>2013-01-07T13:24:40.30</time>
      </trkpt>
      <trkpt lat="37.18951833333333" lon="-7.383288333333334">
        <ele>49.3</ele>
        <time>2013-01-07T13:24:41.30</time>
      </trkpt>
      <trkpt lat="37.18953833333333" lon="-7.38337">
        <ele>49.4</ele>
        <time>2013-01-07T13:24:42.29</time>
      </trkpt>
      <trkpt lat="37.18956166666667" lon="-7.383445">
        <ele>49</ele>
        <time>2013-01-07T13:24:43.29</time>
      </trkpt>
      <trkpt lat="37.18959" lon="-7.3835283333333335">
        <ele>48.7</ele>
        <time>2013-01-07T13:24:44.30</time>
      </trkpt>
      <trkpt lat="37.189611666666664" lon="-7.383618333333334">
        <ele>48.400000000000006</ele>
        <time>2013-01-07T13:24:45.30</time>
      </trkpt>
      <trkpt lat="37.189658333333334" lon="-7.38366">
        <ele>48.60000000000001</ele>
        <time>2013-01-07T13:24:46.30</time>
      </trkpt>
      <trkpt lat="37.189703333333334" lon="-7.383713333333334">
        <ele>49.10000000000001</ele>
        <time>2013-01-07T13:24:47.34</time>
      </trkpt>
      <trkpt lat="37.18975" lon="-7.3837383333333335">
        <ele>49.400000000000006</ele>
        <time>2013-01-07T13:24:48.30</time>
      </trkpt>
      <trkpt lat="37.18980333333333" lon="-7.383761666666667">
        <ele>49.900000000000006</ele>
        <time>2013-01-07T13:24:49.30</time>
      </trkpt>
      <trkpt lat="37.189855" lon="-7.383791666666666">
        <ele>50.10000000000001</ele>
        <time>2013-01-07T13:24:50.30</time>
      </trkpt>
      <trkpt lat="37.189908333333335" lon="-7.383861666666666">
        <ele>49.60000000000001</ele>
        <time>2013-01-07T13:24:51.30</time>
      </trkpt>
      <trkpt lat="37.18995833333334" lon="-7.383906666666666">
        <ele>49.50000000000001</ele>
        <time>2013-01-07T13:24:52.30</time>
      </trkpt>
      <trkpt lat="37.189995" lon="-7.38397">
        <ele>49.400000000000006</ele>
        <time>2013-01-07T13:24:53.30</time>
      </trkpt>
      <trkpt lat="37.19000166666667" lon="-7.384058333333333">
        <ele>49.60000000000001</ele>
        <time>2013-01-07T13:24:54.30</time>
      </trkpt>
      <trkpt lat="37.190015" lon="-7.384131666666667">
        <ele>49.50000000000001</ele>
        <time>2013-01-07T13:24:55.29</time>
      </trkpt>
      <trkpt lat="37.190023333333336" lon="-7.384211666666666">
        <ele>50.10000000000001</ele>
        <time>2013-01-07T13:24:56.30</time>
      </trkpt>
      <trkpt lat="37.190036666666664" lon="-7.384286666666667">
        <ele>50.30000000000001</ele>
        <time>2013-01-07T13:24:57.30</time>
      </trkpt>
      <trkpt lat="37.19005333333333" lon="-7.384353333333333">
        <ele>50.60000000000001</ele>
        <time>2013-01-07T13:24:58.30</time>
      </trkpt>
      <trkpt lat="37.19009666666667" lon="-7.384433333333333">
        <ele>51.10000000000001</ele>
        <time>2013-01-07T13:24:59.30</time>
      </trkpt>
      <trkpt lat="37.190128333333334" lon="-7.384505">
        <ele>50.900000000000006</ele>
        <time>2013-01-07T13:25:00.30</time>
      </trkpt>
      <trkpt lat="37.190158333333336" lon="-7.38458">
        <ele>51.10000000000001</ele>
        <time>2013-01-07T13:25:01.29</time>
      </trkpt>
      <trkpt lat="37.19019" lon="-7.38464">
        <ele>50.70000000000001</ele>
        <time>2013-01-07T13:25:02.30</time>
      </trkpt>
      <trkpt lat="37.190218333333334" lon="-7.384705">
        <ele>50.60000000000001</ele>
        <time>2013-01-07T13:25:03.30</time>
      </trkpt>
      <trkpt lat="37.19024833333334" lon="-7.384768333333334">
        <ele>50.20000000000001</ele>
        <time>2013-01-07T13:25:04.30</time>
      </trkpt>
      <trkpt lat="37.190275" lon="-7.384836666666667">
        <ele>50.20000000000001</ele>
        <time>2013-01-07T13:25:05.30</time>
      </trkpt>
      <trkpt lat="37.19029666666667" lon="-7.384908333333334">
        <ele>50.00000000000001</ele>
        <time>2013-01-07T13:25:06.30</time>
      </trkpt>
      <trkpt lat="37.190325" lon="-7.384971666666667">
        <ele>50.400000000000006</ele>
        <time>2013-01-07T13:25:07.30</time>
      </trkpt>
      <trkpt lat="37.190351666666665" lon="-7.385048333333334">
        <ele>50.800000000000004</ele>
        <time>2013-01-07T13:25:08.30</time>
      </trkpt>
      <trkpt lat="37.19038" lon="-7.385115">
        <ele>50.2</ele>
        <time>2013-01-07T13:25:09.30</time>
      </trkpt>
      <trkpt lat="37.19041" lon="-7.385183333333333">
        <ele>50.400000000000006</ele>
        <time>2013-01-07T13:25:10.30</time>
      </trkpt>
      <trkpt lat="37.19043666666666" lon="-7.385253333333333">
        <ele>50.50000000000001</ele>
        <time>2013-01-07T13:25:11.30</time>
      </trkpt>
      <trkpt lat="37.19046" lon="-7.385323333333333">
        <ele>51.00000000000001</ele>
        <time>2013-01-07T13:25:12.30</time>
      </trkpt>
      <trkpt lat="37.190488333333334" lon="-7.385401666666667">
        <ele>51.20000000000001</ele>
        <time>2013-01-07T13:25:13.30</time>
      </trkpt>
      <trkpt lat="37.19051833333333" lon="-7.3854766666666665">
        <ele>51.60000000000001</ele>
        <time>2013-01-07T13:25:14.30</time>
      </trkpt>
      <trkpt lat="37.19054666666667" lon="-7.385541666666667">
        <ele>52.20000000000001</ele>
        <time>2013-01-07T13:25:15.30</time>
      </trkpt>
      <trkpt lat="37.190575" lon="-7.385601666666667">
        <ele>52.00000000000001</ele>
        <time>2013-01-07T13:25:16.30</time>
      </trkpt>
      <trkpt lat="37.190603333333335" lon="-7.385668333333333">
        <ele>51.400000000000006</ele>
        <time>2013-01-07T13:25:17.30</time>
      </trkpt>
      <trkpt lat="37.19063" lon="-7.385731666666667">
        <ele>52.10000000000001</ele>
        <time>2013-01-07T13:25:18.31</time>
      </trkpt>
      <trkpt lat="37.19066" lon="-7.3858033333333335">
        <ele>52.10000000000001</ele>
        <time>2013-01-07T13:25:19.30</time>
      </trkpt>
      <trkpt lat="37.190686666666664" lon="-7.385871666666667">
        <ele>52.50000000000001</ele>
        <time>2013-01-07T13:25:20.29</time>
      </trkpt>
      <trkpt lat="37.190713333333335" lon="-7.38594">
        <ele>52.800000000000004</ele>
        <time>2013-01-07T13:25:21.30</time>
      </trkpt>
      <trkpt lat="37.19074" lon="-7.386005">
        <ele>53.00000000000001</ele>
        <time>2013-01-07T13:25:22.30</time>
      </trkpt>
      <trkpt lat="37.19076666666667" lon="-7.386075">
        <ele>52.900000000000006</ele>
        <time>2013-01-07T13:25:23.30</time>
      </trkpt>
      <trkpt lat="37.19079333333333" lon="-7.386143333333333">
        <ele>53.00000000000001</ele>
        <time>2013-01-07T13:25:24.30</time>
      </trkpt>
      <trkpt lat="37.190823333333334" lon="-7.386208333333333">
        <ele>52.800000000000004</ele>
        <time>2013-01-07T13:25:25.28</time>
      </trkpt>
      <trkpt lat="37.190855" lon="-7.386278333333333">
        <ele>52.900000000000006</ele>
        <time>2013-01-07T13:25:26.30</time>
      </trkpt>
      <trkpt lat="37.19088166666667" lon="-7.38635">
        <ele>52.900000000000006</ele>
        <time>2013-01-07T13:25:27.30</time>
      </trkpt>
      <trkpt lat="37.19090666666666" lon="-7.38642">
        <ele>52.400000000000006</ele>
        <time>2013-01-07T13:25:28.30</time>
      </trkpt>
      <trkpt lat="37.190931666666664" lon="-7.386486666666666">
        <ele>52.50000000000001</ele>
        <time>2013-01-07T13:25:29.30</time>
      </trkpt>
      <trkpt lat="37.19096" lon="-7.3865533333333335">
        <ele>52.50000000000001</ele>
        <time>2013-01-07T13:25:30.30</time>
      </trkpt>
      <trkpt lat="37.19098666666667" lon="-7.386625">
        <ele>52.300000000000004</ele>
        <time>2013-01-07T13:25:31.30</time>
      </trkpt>
      <trkpt lat="37.19101833333333" lon="-7.386688333333334">
        <ele>50.900000000000006</ele>
        <time>2013-01-07T13:25:32.30</time>
      </trkpt>
      <trkpt lat="37.19104333333333" lon="-7.386758333333334">
        <ele>50.50000000000001</ele>
        <time>2013-01-07T13:25:33.29</time>
      </trkpt>
      <trkpt lat="37.191071666666666" lon="-7.38683">
        <ele>50.400000000000006</ele>
        <time>2013-01-07T13:25:34.31</time>
      </trkpt>
      <trkpt lat="37.191091666666665" lon="-7.386901666666667">
        <ele>50.400000000000006</ele>
        <time>2013-01-07T13:25:35.30</time>
      </trkpt>
      <trkpt lat="37.191115" lon="-7.38696">
        <ele>51.300000000000004</ele>
        <time>2013-01-07T13:25:36.29</time>
      </trkpt>
      <trkpt lat="37.19114166666667" lon="-7.38703">
        <ele>51.6</ele>
        <time>2013-01-07T13:25:37.31</time>
      </trkpt>
      <trkpt lat="37.19117" lon="-7.387095">
        <ele>51.7</ele>
        <time>2013-01-07T13:25:38.30</time>
      </trkpt>
      <trkpt lat="37.19119166666667" lon="-7.387158333333334">
        <ele>51.800000000000004</ele>
        <time>2013-01-07T13:25:39.30</time>
      </trkpt>
      <trkpt lat="37.19121333333333" lon="-7.387221666666667">
        <ele>52.00000000000001</ele>
        <time>2013-01-07T13:25:40.30</time>
      </trkpt>
      <trkpt lat="37.19123333333334" lon="-7.387276666666667">
        <ele>52.00000000000001</ele>
        <time>2013-01-07T13:25:41.30</time>
      </trkpt>
      <trkpt lat="37.191255" lon="-7.387325">
        <ele>52.20000000000001</ele>
        <time>2013-01-07T13:25:42.30</time>
      </trkpt>
      <trkpt lat="37.19127" lon="-7.387396666666667">
        <ele>52.30000000000001</ele>
        <time>2013-01-07T13:25:43.30</time>
      </trkpt>
      <trkpt lat="37.19129" lon="-7.387475">
        <ele>52.10000000000001</ele>
        <time>2013-01-07T13:25:44.30</time>
      </trkpt>
      <trkpt lat="37.191316666666665" lon="-7.387543333333333">
        <ele>52.00000000000001</ele>
        <time>2013-01-07T13:25:45.30</time>
      </trkpt>
      <trkpt lat="37.19134666666667" lon="-7.387613333333333">
        <ele>52.400000000000006</ele>
        <time>2013-01-07T13:25:46.31</time>
      </trkpt>
      <trkpt lat="37.19138" lon="-7.387695">
        <ele>52.50000000000001</ele>
        <time>2013-01-07T13:25:47.30</time>
      </trkpt>
      <trkpt lat="37.191405" lon="-7.387766666666667">
        <ele>52.60000000000001</ele>
        <time>2013-01-07T13:25:48.30</time>
      </trkpt>
      <trkpt lat="37.191428333333334" lon="-7.3878433333333335">
        <ele>53.80000000000001</ele>
        <time>2013-01-07T13:25:49.30</time>
      </trkpt>
      <trkpt lat="37.19145833333334" lon="-7.3879383333333335">
        <ele>53.70000000000001</ele>
        <time>2013-01-07T13:25:50.30</time>
      </trkpt>
      <trkpt lat="37.191485" lon="-7.388003333333334">
        <ele>53.70000000000001</ele>
        <time>2013-01-07T13:25:51.32</time>
      </trkpt>
      <trkpt lat="37.19151" lon="-7.38807">
        <ele>53.60000000000001</ele>
        <time>2013-01-07T13:25:52.30</time>
      </trkpt>
      <trkpt lat="37.191535" lon="-7.388136666666667">
        <ele>53.60000000000001</ele>
        <time>2013-01-07T13:25:53.30</time>
      </trkpt>
      <trkpt lat="37.191568333333336" lon="-7.388206666666667">
        <ele>53.70000000000001</ele>
        <time>2013-01-07T13:25:54.30</time>
      </trkpt>
      <trkpt lat="37.191606666666665" lon="-7.388271666666666">
        <ele>53.30000000000001</ele>
        <time>2013-01-07T13:25:55.30</time>
      </trkpt>
      <trkpt lat="37.19163666666667" lon="-7.388341666666666">
        <ele>53.10000000000001</ele>
        <time>2013-01-07T13:25:56.30</time>
      </trkpt>
      <trkpt lat="37.19167" lon="-7.388423333333333">
        <ele>53.10000000000001</ele>
        <time>2013-01-07T13:25:57.31</time>
      </trkpt>
      <trkpt lat="37.191698333333335" lon="-7.388496666666667">
        <ele>53.20000000000001</ele>
        <time>2013-01-07T13:25:58.31</time>
      </trkpt>
      <trkpt lat="37.19172" lon="-7.3885716666666665">
        <ele>53.10000000000001</ele>
        <time>2013-01-07T13:25:59.30</time>
      </trkpt>
      <trkpt lat="37.191745" lon="-7.3886433333333335">
        <ele>53.400000000000006</ele>
        <time>2013-01-07T13:26:00.30</time>
      </trkpt>
      <trkpt lat="37.191768333333336" lon="-7.388711666666667">
        <ele>53.10000000000001</ele>
        <time>2013-01-07T13:26:01.31</time>
      </trkpt>
      <trkpt lat="37.19180333333333" lon="-7.38877">
        <ele>53.00000000000001</ele>
        <time>2013-01-07T13:26:02.30</time>
      </trkpt>
      <trkpt lat="37.19184666666666" lon="-7.388841666666667">
        <ele>52.800000000000004</ele>
        <time>2013-01-07T13:26:03.30</time>
      </trkpt>
      <trkpt lat="37.19186833333333" lon="-7.38891">
        <ele>53.1</ele>
        <time>2013-01-07T13:26:04.30</time>
      </trkpt>
      <trkpt lat="37.191895" lon="-7.388983333333333">
        <ele>53.6</ele>
        <time>2013-01-07T13:26:05.30</time>
      </trkpt>
      <trkpt lat="37.191915" lon="-7.389043333333333">
        <ele>53.4</ele>
        <time>2013-01-07T13:26:06.30</time>
      </trkpt>
      <trkpt lat="37.19193333333333" lon="-7.389108333333334">
        <ele>53.1</ele>
        <time>2013-01-07T13:26:07.30</time>
      </trkpt>
      <trkpt lat="37.191955" lon="-7.389176666666667">
        <ele>53.1</ele>
        <time>2013-01-07T13:26:08.30</time>
      </trkpt>
      <trkpt lat="37.191988333333335" lon="-7.3892516666666666">
        <ele>53.2</ele>
        <time>2013-01-07T13:26:09.30</time>
      </trkpt>
      <trkpt lat="37.192005" lon="-7.389318333333334">
        <ele>53.400000000000006</ele>
        <time>2013-01-07T13:26:10.30</time>
      </trkpt>
      <trkpt lat="37.192038333333336" lon="-7.389391666666667">
        <ele>53.400000000000006</ele>
        <time>2013-01-07T13:26:11.30</time>
      </trkpt>
      <trkpt lat="37.19206" lon="-7.389461666666667">
        <ele>52.900000000000006</ele>
        <time>2013-01-07T13:26:12.30</time>
      </trkpt>
      <trkpt lat="37.192095" lon="-7.389523333333333">
        <ele>53.00000000000001</ele>
        <time>2013-01-07T13:26:13.31</time>
      </trkpt>
      <trkpt lat="37.19213" lon="-7.389586666666666">
        <ele>53.00000000000001</ele>
        <time>2013-01-07T13:26:14.30</time>
      </trkpt>
      <trkpt lat="37.19216" lon="-7.389648333333334">
        <ele>53.20000000000001</ele>
        <time>2013-01-07T13:26:15.30</time>
      </trkpt>
      <trkpt lat="37.19218166666667" lon="-7.389716666666667">
        <ele>53.10000000000001</ele>
        <time>2013-01-07T13:26:16.30</time>
      </trkpt>
      <trkpt lat="37.19220166666667" lon="-7.389786666666667">
        <ele>53.10000000000001</ele>
        <time>2013-01-07T13:26:17.30</time>
      </trkpt>
      <trkpt lat="37.19222666666667" lon="-7.3898616666666666">
        <ele>53.10000000000001</ele>
        <time>2013-01-07T13:26:18.29</time>
      </trkpt>
      <trkpt lat="37.19224666666667" lon="-7.3899333333333335">
        <ele>53.00000000000001</ele>
        <time>2013-01-07T13:26:19.29</time>
      </trkpt>
      <trkpt lat="37.19226666666667" lon="-7.389996666666667">
        <ele>53.00000000000001</ele>
        <time>2013-01-07T13:26:20.30</time>
      </trkpt>
      <trkpt lat="37.192275" lon="-7.3900483333333336">
        <ele>52.60000000000001</ele>
        <time>2013-01-07T13:26:21.29</time>
      </trkpt>
      <trkpt lat="37.19230833333334" lon="-7.3901216666666665">
        <ele>53.10000000000001</ele>
        <time>2013-01-07T13:26:22.29</time>
      </trkpt>
      <trkpt lat="37.192321666666665" lon="-7.390183333333334">
        <ele>53.50000000000001</ele>
        <time>2013-01-07T13:26:23.29</time>
      </trkpt>
      <trkpt lat="37.19235666666667" lon="-7.39026">
        <ele>53.400000000000006</ele>
        <time>2013-01-07T13:26:24.29</time>
      </trkpt>
      <trkpt lat="37.192393333333335" lon="-7.3903316666666665">
        <ele>53.300000000000004</ele>
        <time>2013-01-07T13:26:25.29</time>
      </trkpt>
      <trkpt lat="37.192418333333336" lon="-7.3904">
        <ele>52.900000000000006</ele>
        <time>2013-01-07T13:26:26.29</time>
      </trkpt>
      <trkpt lat="37.192436666666666" lon="-7.390465">
        <ele>53.10000000000001</ele>
        <time>2013-01-07T13:26:27.29</time>
      </trkpt>
      <trkpt lat="37.192463333333336" lon="-7.390536666666667">
        <ele>52.50000000000001</ele>
        <time>2013-01-07T13:26:28.29</time>
      </trkpt>
      <trkpt lat="37.192503333333335" lon="-7.39061">
        <ele>52.400000000000006</ele>
        <time>2013-01-07T13:26:29.29</time>
      </trkpt>
      <trkpt lat="37.192535" lon="-7.390673333333333">
        <ele>52.60000000000001</ele>
        <time>2013-01-07T13:26:30.29</time>
      </trkpt>
      <trkpt lat="37.19255666666667" lon="-7.390738333333333">
        <ele>52.20000000000001</ele>
        <time>2013-01-07T13:26:31.29</time>
      </trkpt>
      <trkpt lat="37.19260166666667" lon="-7.390816666666667">
        <ele>52.40000000000001</ele>
        <time>2013-01-07T13:26:32.29</time>
      </trkpt>
      <trkpt lat="37.19264" lon="-7.39089">
        <ele>52.20000000000001</ele>
        <time>2013-01-07T13:26:33.29</time>
      </trkpt>
      <trkpt lat="37.19266" lon="-7.390948333333333">
        <ele>52.20000000000001</ele>
        <time>2013-01-07T13:26:34.29</time>
      </trkpt>
      <trkpt lat="37.192683333333335" lon="-7.391023333333333">
        <ele>52.00000000000001</ele>
        <time>2013-01-07T13:26:35.29</time>
      </trkpt>
      <trkpt lat="37.19271333333333" lon="-7.391086666666666">
        <ele>52.50000000000001</ele>
        <time>2013-01-07T13:26:36.29</time>
      </trkpt>
      <trkpt lat="37.192746666666665" lon="-7.3911533333333335">
        <ele>52.60000000000001</ele>
        <time>2013-01-07T13:26:37.29</time>
      </trkpt>
      <trkpt lat="37.19278" lon="-7.39122">
        <ele>53.00000000000001</ele>
        <time>2013-01-07T13:26:38.29</time>
      </trkpt>
      <trkpt lat="37.19280833333333" lon="-7.39129">
        <ele>53.10000000000001</ele>
        <time>2013-01-07T13:26:39.30</time>
      </trkpt>
      <trkpt lat="37.19282833333333" lon="-7.391356666666667">
        <ele>52.900000000000006</ele>
        <time>2013-01-07T13:26:40.30</time>
      </trkpt>
      <trkpt lat="37.19285333333333" lon="-7.391428333333334">
        <ele>52.400000000000006</ele>
        <time>2013-01-07T13:26:41.28</time>
      </trkpt>
      <trkpt lat="37.19287333333333" lon="-7.3914816666666665">
        <ele>53.00000000000001</ele>
        <time>2013-01-07T13:26:42.29</time>
      </trkpt>
      <trkpt lat="37.192906666666666" lon="-7.391556666666666">
        <ele>52.10000000000001</ele>
        <time>2013-01-07T13:26:43.30</time>
      </trkpt>
      <trkpt lat="37.19293166666667" lon="-7.391625">
        <ele>52.00000000000001</ele>
        <time>2013-01-07T13:26:44.30</time>
      </trkpt>
      <trkpt lat="37.192971666666665" lon="-7.391696666666666">
        <ele>51.900000000000006</ele>
        <time>2013-01-07T13:26:45.30</time>
      </trkpt>
      <trkpt lat="37.193" lon="-7.391771666666667">
        <ele>52.300000000000004</ele>
        <time>2013-01-07T13:26:46.30</time>
      </trkpt>
      <trkpt lat="37.193015" lon="-7.39184">
        <ele>53.00000000000001</ele>
        <time>2013-01-07T13:26:47.30</time>
      </trkpt>
      <trkpt lat="37.19304666666667" lon="-7.391916666666667">
        <ele>52.50000000000001</ele>
        <time>2013-01-07T13:26:48.30</time>
      </trkpt>
      <trkpt lat="37.19307666666667" lon="-7.391978333333333">
        <ele>52.800000000000004</ele>
        <time>2013-01-07T13:26:49.30</time>
      </trkpt>
      <trkpt lat="37.1931" lon="-7.392045">
        <ele>53.6</ele>
        <time>2013-01-07T13:26:50.33</time>
      </trkpt>
      <trkpt lat="37.19313666666667" lon="-7.392136666666667">
        <ele>53</ele>
        <time>2013-01-07T13:26:51.29</time>
      </trkpt>
      <trkpt lat="37.19316833333333" lon="-7.39221">
        <ele>53.2</ele>
        <time>2013-01-07T13:26:52.29</time>
      </trkpt>
      <trkpt lat="37.193196666666665" lon="-7.392276666666667">
        <ele>53.6</ele>
        <time>2013-01-07T13:26:53.30</time>
      </trkpt>
      <trkpt lat="37.193225" lon="-7.392351666666666">
        <ele>53.2</ele>
        <time>2013-01-07T13:26:54.30</time>
      </trkpt>
      <trkpt lat="37.19325666666667" lon="-7.39243">
        <ele>53.5</ele>
        <time>2013-01-07T13:26:55.30</time>
      </trkpt>
      <trkpt lat="37.19328" lon="-7.3924916666666665">
        <ele>52.9</ele>
        <time>2013-01-07T13:26:56.30</time>
      </trkpt>
      <trkpt lat="37.19329333333334" lon="-7.392558333333334">
        <ele>52.4</ele>
        <time>2013-01-07T13:26:57.30</time>
      </trkpt>
      <trkpt lat="37.19331833333333" lon="-7.392636666666666">
        <ele>50.3</ele>
        <time>2013-01-07T13:26:58.30</time>
      </trkpt>
      <trkpt lat="37.19334" lon="-7.392706666666666">
        <ele>49.8</ele>
        <time>2013-01-07T13:26:59.30</time>
      </trkpt>
      <trkpt lat="37.19336666666667" lon="-7.39277">
        <ele>49.199999999999996</ele>
        <time>2013-01-07T13:27:00.30</time>
      </trkpt>
      <trkpt lat="37.19339166666666" lon="-7.39284">
        <ele>49.699999999999996</ele>
        <time>2013-01-07T13:27:01.30</time>
      </trkpt>
      <trkpt lat="37.193425" lon="-7.392905">
        <ele>50.8</ele>
        <time>2013-01-07T13:27:02.30</time>
      </trkpt>
      <trkpt lat="37.19345" lon="-7.392975">
        <ele>50.699999999999996</ele>
        <time>2013-01-07T13:27:03.30</time>
      </trkpt>
      <trkpt lat="37.19347833333333" lon="-7.393046666666667">
        <ele>50.49999999999999</ele>
        <time>2013-01-07T13:27:04.30</time>
      </trkpt>
      <trkpt lat="37.193506666666664" lon="-7.393113333333333">
        <ele>50.49999999999999</ele>
        <time>2013-01-07T13:27:05.30</time>
      </trkpt>
      <trkpt lat="37.19352166666667" lon="-7.39318">
        <ele>50.49999999999999</ele>
        <time>2013-01-07T13:27:06.30</time>
      </trkpt>
      <trkpt lat="37.193545" lon="-7.393245">
        <ele>50.699999999999996</ele>
        <time>2013-01-07T13:27:07.30</time>
      </trkpt>
      <trkpt lat="37.19357" lon="-7.3933116666666665">
        <ele>51.099999999999994</ele>
        <time>2013-01-07T13:27:08.30</time>
      </trkpt>
      <trkpt lat="37.193603333333336" lon="-7.3933816666666665">
        <ele>51.3</ele>
        <time>2013-01-07T13:27:09.28</time>
      </trkpt>
      <trkpt lat="37.193623333333335" lon="-7.393445">
        <ele>52.3</ele>
        <time>2013-01-07T13:27:10.29</time>
      </trkpt>
      <trkpt lat="37.193655" lon="-7.393511666666667">
        <ele>52.8</ele>
        <time>2013-01-07T13:27:11.30</time>
      </trkpt>
      <trkpt lat="37.19367833333333" lon="-7.393585">
        <ele>52.9</ele>
        <time>2013-01-07T13:27:12.30</time>
      </trkpt>
      <trkpt lat="37.1937" lon="-7.39365">
        <ele>52.9</ele>
        <time>2013-01-07T13:27:13.30</time>
      </trkpt>
      <trkpt lat="37.19373" lon="-7.393716666666666">
        <ele>53.1</ele>
        <time>2013-01-07T13:27:14.30</time>
      </trkpt>
      <trkpt lat="37.19376" lon="-7.393786666666666">
        <ele>53.1</ele>
        <time>2013-01-07T13:27:15.30</time>
      </trkpt>
      <trkpt lat="37.193785" lon="-7.393855">
        <ele>52.9</ele>
        <time>2013-01-07T13:27:16.30</time>
      </trkpt>
      <trkpt lat="37.19382" lon="-7.393918333333334">
        <ele>53.3</ele>
        <time>2013-01-07T13:27:17.30</time>
      </trkpt>
      <trkpt lat="37.193848333333335" lon="-7.39398">
        <ele>53.4</ele>
        <time>2013-01-07T13:27:18.30</time>
      </trkpt>
      <trkpt lat="37.193885" lon="-7.394056666666667">
        <ele>53.5</ele>
        <time>2013-01-07T13:27:19.30</time>
      </trkpt>
      <trkpt lat="37.19392166666667" lon="-7.3941333333333334">
        <ele>53.8</ele>
        <time>2013-01-07T13:27:20.30</time>
      </trkpt>
      <trkpt lat="37.193945" lon="-7.394208333333333">
        <ele>53.599999999999994</ele>
        <time>2013-01-07T13:27:21.30</time>
      </trkpt>
      <trkpt lat="37.19397" lon="-7.394275">
        <ele>53.49999999999999</ele>
        <time>2013-01-07T13:27:22.30</time>
      </trkpt>
      <trkpt lat="37.194" lon="-7.394353333333333">
        <ele>54.099999999999994</ele>
        <time>2013-01-07T13:27:23.30</time>
      </trkpt>
      <trkpt lat="37.194041666666664" lon="-7.394423333333333">
        <ele>54.49999999999999</ele>
        <time>2013-01-07T13:27:24.30</time>
      </trkpt>
      <trkpt lat="37.194075" lon="-7.394491666666666">
        <ele>54.599999999999994</ele>
        <time>2013-01-07T13:27:25.30</time>
      </trkpt>
      <trkpt lat="37.194093333333335" lon="-7.394558333333333">
        <ele>54.89999999999999</ele>
        <time>2013-01-07T13:27:26.30</time>
      </trkpt>
      <trkpt lat="37.194125" lon="-7.394636666666667">
        <ele>55.099999999999994</ele>
        <time>2013-01-07T13:27:27.30</time>
      </trkpt>
      <trkpt lat="37.194156666666665" lon="-7.394706666666667">
        <ele>55.199999999999996</ele>
        <time>2013-01-07T13:27:28.32</time>
      </trkpt>
      <trkpt lat="37.194181666666665" lon="-7.394775">
        <ele>55.49999999999999</ele>
        <time>2013-01-07T13:27:29.30</time>
      </trkpt>
      <trkpt lat="37.194206666666666" lon="-7.394846666666667">
        <ele>54.89999999999999</ele>
        <time>2013-01-07T13:27:30.30</time>
      </trkpt>
      <trkpt lat="37.19423833333333" lon="-7.394916666666667">
        <ele>55.099999999999994</ele>
        <time>2013-01-07T13:27:31.30</time>
      </trkpt>
      <trkpt lat="37.19426833333333" lon="-7.394985">
        <ele>55.39999999999999</ele>
        <time>2013-01-07T13:27:32.30</time>
      </trkpt>
      <trkpt lat="37.194293333333334" lon="-7.395051666666666">
        <ele>55.39999999999999</ele>
        <time>2013-01-07T13:27:33.31</time>
      </trkpt>
      <trkpt lat="37.19432666666667" lon="-7.395121666666666">
        <ele>55.49999999999999</ele>
        <time>2013-01-07T13:27:34.30</time>
      </trkpt>
      <trkpt lat="37.19436833333334" lon="-7.395176666666667">
        <ele>55.49999999999999</ele>
        <time>2013-01-07T13:27:35.30</time>
      </trkpt>
      <trkpt lat="37.194428333333335" lon="-7.3952116666666665">
        <ele>55.89999999999999</ele>
        <time>2013-01-07T13:27:36.30</time>
      </trkpt>
      <trkpt lat="37.194473333333335" lon="-7.39526">
        <ele>55.19999999999999</ele>
        <time>2013-01-07T13:27:37.30</time>
      </trkpt>
      <trkpt lat="37.194505" lon="-7.395323333333334">
        <ele>55.09999999999999</ele>
        <time>2013-01-07T13:27:38.30</time>
      </trkpt>
      <trkpt lat="37.19452833333333" lon="-7.395396666666667">
        <ele>55.29999999999999</ele>
        <time>2013-01-07T13:27:39.30</time>
      </trkpt>
      <trkpt lat="37.194538333333334" lon="-7.395475">
        <ele>55.69999999999999</ele>
        <time>2013-01-07T13:27:40.30</time>
      </trkpt>
      <trkpt lat="37.19453166666667" lon="-7.39555">
        <ele>55.69999999999999</ele>
        <time>2013-01-07T13:27:41.30</time>
      </trkpt>
      <trkpt lat="37.19452666666667" lon="-7.395626666666667">
        <ele>55.59999999999999</ele>
        <time>2013-01-07T13:27:42.37</time>
      </trkpt>
      <trkpt lat="37.19455833333333" lon="-7.3957">
        <ele>55.59999999999999</ele>
        <time>2013-01-07T13:27:43.30</time>
      </trkpt>
      <trkpt lat="37.194585000000004" lon="-7.395771666666667">
        <ele>55.499999999999986</ele>
        <time>2013-01-07T13:27:44.30</time>
      </trkpt>
      <trkpt lat="37.194613333333336" lon="-7.395845">
        <ele>55.19999999999999</ele>
        <time>2013-01-07T13:27:45.30</time>
      </trkpt>
      <trkpt lat="37.19464333333333" lon="-7.395918333333333">
        <ele>54.999999999999986</ele>
        <time>2013-01-07T13:27:46.30</time>
      </trkpt>
      <trkpt lat="37.19466833333333" lon="-7.39599">
        <ele>54.79999999999998</ele>
        <time>2013-01-07T13:27:47.30</time>
      </trkpt>
      <trkpt lat="37.194695" lon="-7.39606">
        <ele>54.59999999999998</ele>
        <time>2013-01-07T13:27:48.30</time>
      </trkpt>
      <trkpt lat="37.19472" lon="-7.396133333333333">
        <ele>54.69999999999998</ele>
        <time>2013-01-07T13:27:49.30</time>
      </trkpt>
      <trkpt lat="37.194743333333335" lon="-7.396203333333333">
        <ele>54.69999999999998</ele>
        <time>2013-01-07T13:27:50.30</time>
      </trkpt>
      <trkpt lat="37.194775" lon="-7.396273333333333">
        <ele>54.69999999999998</ele>
        <time>2013-01-07T13:27:51.30</time>
      </trkpt>
      <trkpt lat="37.1948" lon="-7.396345">
        <ele>54.49999999999998</ele>
        <time>2013-01-07T13:27:52.30</time>
      </trkpt>
      <trkpt lat="37.194825" lon="-7.396413333333333">
        <ele>54.89999999999998</ele>
        <time>2013-01-07T13:27:53.30</time>
      </trkpt>
      <trkpt lat="37.194851666666665" lon="-7.396483333333333">
        <ele>54.799999999999976</ele>
        <time>2013-01-07T13:27:54.30</time>
      </trkpt>
      <trkpt lat="37.19488" lon="-7.396553333333333">
        <ele>54.699999999999974</ele>
        <time>2013-01-07T13:27:55.30</time>
      </trkpt>
      <trkpt lat="37.19490666666667" lon="-7.39662">
        <ele>54.99999999999997</ele>
        <time>2013-01-07T13:27:56.30</time>
      </trkpt>
      <trkpt lat="37.19493166666667" lon="-7.396685">
        <ele>54.99999999999997</ele>
        <time>2013-01-07T13:27:57.30</time>
      </trkpt>
      <trkpt lat="37.19495833333333" lon="-7.396755">
        <ele>54.99999999999997</ele>
        <time>2013-01-07T13:27:58.30</time>
      </trkpt>
      <trkpt lat="37.194985" lon="-7.396821666666667">
        <ele>55.09999999999997</ele>
        <time>2013-01-07T13:27:59.30</time>
      </trkpt>
      <trkpt lat="37.195011666666666" lon="-7.39689">
        <ele>54.799999999999976</ele>
        <time>2013-01-07T13:28:00.30</time>
      </trkpt>
      <trkpt lat="37.19503666666667" lon="-7.39696">
        <ele>54.99999999999998</ele>
        <time>2013-01-07T13:28:01.30</time>
      </trkpt>
      <trkpt lat="37.19506333333333" lon="-7.397038333333334">
        <ele>54.99999999999998</ele>
        <time>2013-01-07T13:28:02.30</time>
      </trkpt>
      <trkpt lat="37.19509333333333" lon="-7.397101666666667">
        <ele>54.89999999999998</ele>
        <time>2013-01-07T13:28:03.30</time>
      </trkpt>
      <trkpt lat="37.195121666666665" lon="-7.397173333333333">
        <ele>54.799999999999976</ele>
        <time>2013-01-07T13:28:04.30</time>
      </trkpt>
      <trkpt lat="37.195148333333336" lon="-7.397243333333333">
        <ele>54.699999999999974</ele>
        <time>2013-01-07T13:28:05.31</time>
      </trkpt>
      <trkpt lat="37.19517333333334" lon="-7.397311666666667">
        <ele>54.699999999999974</ele>
        <time>2013-01-07T13:28:06.30</time>
      </trkpt>
      <trkpt lat="37.19520166666667" lon="-7.397385">
        <ele>54.699999999999974</ele>
        <time>2013-01-07T13:28:07.30</time>
      </trkpt>
      <trkpt lat="37.19523" lon="-7.397465">
        <ele>54.59999999999997</ele>
        <time>2013-01-07T13:28:08.30</time>
      </trkpt>
      <trkpt lat="37.19526166666667" lon="-7.397541666666666">
        <ele>54.49999999999997</ele>
        <time>2013-01-07T13:28:09.30</time>
      </trkpt>
      <trkpt lat="37.19529333333333" lon="-7.397613333333333">
        <ele>54.59999999999997</ele>
        <time>2013-01-07T13:28:10.30</time>
      </trkpt>
      <trkpt lat="37.195321666666665" lon="-7.397693333333334">
        <ele>54.699999999999974</ele>
        <time>2013-01-07T13:28:11.30</time>
      </trkpt>
      <trkpt lat="37.19535666666667" lon="-7.397771666666666">
        <ele>54.699999999999974</ele>
        <time>2013-01-07T13:28:12.31</time>
      </trkpt>
      <trkpt lat="37.195385" lon="-7.397851666666667">
        <ele>55.09999999999997</ele>
        <time>2013-01-07T13:28:13.30</time>
      </trkpt>
      <trkpt lat="37.195413333333335" lon="-7.397928333333334">
        <ele>54.99999999999997</ele>
        <time>2013-01-07T13:28:14.30</time>
      </trkpt>
      <trkpt lat="37.19544333333333" lon="-7.398">
        <ele>54.59999999999997</ele>
        <time>2013-01-07T13:28:15.30</time>
      </trkpt>
      <trkpt lat="37.19547333333333" lon="-7.398078333333333">
        <ele>54.799999999999976</ele>
        <time>2013-01-07T13:28:16.30</time>
      </trkpt>
      <trkpt lat="37.195505" lon="-7.398153333333333">
        <ele>54.799999999999976</ele>
        <time>2013-01-07T13:28:17.30</time>
      </trkpt>
      <trkpt lat="37.19553833333333" lon="-7.398226666666667">
        <ele>55.299999999999976</ele>
        <time>2013-01-07T13:28:18.30</time>
      </trkpt>
      <trkpt lat="37.195573333333336" lon="-7.398301666666667">
        <ele>55.59999999999997</ele>
        <time>2013-01-07T13:28:19.30</time>
      </trkpt>
      <trkpt lat="37.19560166666667" lon="-7.398391666666667">
        <ele>55.199999999999974</ele>
        <time>2013-01-07T13:28:20.30</time>
      </trkpt>
      <trkpt lat="37.195631666666664" lon="-7.398475">
        <ele>55.199999999999974</ele>
        <time>2013-01-07T13:28:21.30</time>
      </trkpt>
      <trkpt lat="37.195663333333336" lon="-7.398548333333333">
        <ele>55.299999999999976</ele>
        <time>2013-01-07T13:28:22.30</time>
      </trkpt>
      <trkpt lat="37.19569166666667" lon="-7.398626666666667">
        <ele>55.299999999999976</ele>
        <time>2013-01-07T13:28:23.30</time>
      </trkpt>
      <trkpt lat="37.195721666666664" lon="-7.398708333333333">
        <ele>55.49999999999998</ele>
        <time>2013-01-07T13:28:24.30</time>
      </trkpt>
      <trkpt lat="37.19575" lon="-7.398785">
        <ele>55.49999999999998</ele>
        <time>2013-01-07T13:28:25.31</time>
      </trkpt>
      <trkpt lat="37.19577833333334" lon="-7.398855">
        <ele>55.69999999999998</ele>
        <time>2013-01-07T13:28:26.30</time>
      </trkpt>
      <trkpt lat="37.19580166666667" lon="-7.398925">
        <ele>55.59999999999998</ele>
        <time>2013-01-07T13:28:27.30</time>
      </trkpt>
      <trkpt lat="37.195825" lon="-7.399013333333333">
        <ele>56.29999999999998</ele>
        <time>2013-01-07T13:28:28.30</time>
      </trkpt>
      <trkpt lat="37.19585" lon="-7.399088333333333">
        <ele>55.899999999999984</ele>
        <time>2013-01-07T13:28:29.30</time>
      </trkpt>
      <trkpt lat="37.19587833333333" lon="-7.399161666666667">
        <ele>55.69999999999998</ele>
        <time>2013-01-07T13:28:30.30</time>
      </trkpt>
      <trkpt lat="37.195905" lon="-7.399228333333333">
        <ele>55.99999999999998</ele>
        <time>2013-01-07T13:28:31.30</time>
      </trkpt>
      <trkpt lat="37.19593166666667" lon="-7.399305">
        <ele>55.89999999999998</ele>
        <time>2013-01-07T13:28:32.30</time>
      </trkpt>
      <trkpt lat="37.19596166666667" lon="-7.399378333333333">
        <ele>55.89999999999998</ele>
        <time>2013-01-07T13:28:33.30</time>
      </trkpt>
      <trkpt lat="37.195991666666664" lon="-7.399455">
        <ele>55.699999999999974</ele>
        <time>2013-01-07T13:28:34.30</time>
      </trkpt>
      <trkpt lat="37.19602666666667" lon="-7.399535">
        <ele>55.59999999999997</ele>
        <time>2013-01-07T13:28:35.30</time>
      </trkpt>
      <trkpt lat="37.19605333333333" lon="-7.39961">
        <ele>55.49999999999997</ele>
        <time>2013-01-07T13:28:36.30</time>
      </trkpt>
      <trkpt lat="37.196083333333334" lon="-7.39968">
        <ele>55.49999999999997</ele>
        <time>2013-01-07T13:28:37.30</time>
      </trkpt>
      <trkpt lat="37.19611" lon="-7.399753333333333">
        <ele>55.99999999999997</ele>
        <time>2013-01-07T13:28:38.30</time>
      </trkpt>
      <trkpt lat="37.196145" lon="-7.399836666666666">
        <ele>56.39999999999997</ele>
        <time>2013-01-07T13:28:39.30</time>
      </trkpt>
      <trkpt lat="37.19618166666667" lon="-7.399906666666666">
        <ele>55.79999999999997</ele>
        <time>2013-01-07T13:28:40.30</time>
      </trkpt>
      <trkpt lat="37.196241666666666" lon="-7.399941666666667">
        <ele>55.69999999999997</ele>
        <time>2013-01-07T13:28:41.30</time>
      </trkpt>
      <trkpt lat="37.19629833333333" lon="-7.399991666666667">
        <ele>55.999999999999964</ele>
        <time>2013-01-07T13:28:42.30</time>
      </trkpt>
      <trkpt lat="37.196353333333334" lon="-7.400046666666666">
        <ele>55.499999999999964</ele>
        <time>2013-01-07T13:28:43.30</time>
      </trkpt>
      <trkpt lat="37.196398333333335" lon="-7.400118333333333">
        <ele>55.099999999999966</ele>
        <time>2013-01-07T13:28:44.30</time>
      </trkpt>
      <trkpt lat="37.196421666666666" lon="-7.400201666666667">
        <ele>54.999999999999964</ele>
        <time>2013-01-07T13:28:45.30</time>
      </trkpt>
      <trkpt lat="37.196443333333335" lon="-7.400285">
        <ele>55.099999999999966</ele>
        <time>2013-01-07T13:28:46.30</time>
      </trkpt>
      <trkpt lat="37.196475" lon="-7.40037">
        <ele>54.999999999999964</ele>
        <time>2013-01-07T13:28:47.30</time>
      </trkpt>
      <trkpt lat="37.196525" lon="-7.400446666666666">
        <ele>54.69999999999997</ele>
        <time>2013-01-07T13:28:48.30</time>
      </trkpt>
      <trkpt lat="37.196575" lon="-7.400511666666667">
        <ele>54.499999999999964</ele>
        <time>2013-01-07T13:28:49.31</time>
      </trkpt>
      <trkpt lat="37.19663" lon="-7.400568333333333">
        <ele>54.19999999999997</ele>
        <time>2013-01-07T13:28:50.31</time>
      </trkpt>
      <trkpt lat="37.196685" lon="-7.40063">
        <ele>53.599999999999966</ele>
        <time>2013-01-07T13:28:51.30</time>
      </trkpt>
      <trkpt lat="37.19674666666667" lon="-7.400688333333333">
        <ele>53.499999999999964</ele>
        <time>2013-01-07T13:28:52.30</time>
      </trkpt>
      <trkpt lat="37.19681" lon="-7.400738333333333">
        <ele>53.29999999999996</ele>
        <time>2013-01-07T13:28:53.30</time>
      </trkpt>
      <trkpt lat="37.196875" lon="-7.40079">
        <ele>53.499999999999964</ele>
        <time>2013-01-07T13:28:54.30</time>
      </trkpt>
      <trkpt lat="37.196938333333335" lon="-7.40084">
        <ele>53.69999999999997</ele>
        <time>2013-01-07T13:28:55.29</time>
      </trkpt>
      <trkpt lat="37.197001666666665" lon="-7.400881666666667">
        <ele>53.499999999999964</ele>
        <time>2013-01-07T13:28:56.30</time>
      </trkpt>
      <trkpt lat="37.197068333333334" lon="-7.400918333333333">
        <ele>53.499999999999964</ele>
        <time>2013-01-07T13:28:57.30</time>
      </trkpt>
      <trkpt lat="37.197136666666665" lon="-7.400953333333334">
        <ele>53.79999999999996</ele>
        <time>2013-01-07T13:28:58.30</time>
      </trkpt>
      <trkpt lat="37.197205" lon="-7.40099">
        <ele>54.09999999999996</ele>
        <time>2013-01-07T13:28:59.30</time>
      </trkpt>
      <trkpt lat="37.197275" lon="-7.401016666666667">
        <ele>54.19999999999996</ele>
        <time>2013-01-07T13:29:00.30</time>
      </trkpt>
      <trkpt lat="37.197345" lon="-7.401043333333333">
        <ele>54.39999999999996</ele>
        <time>2013-01-07T13:29:01.30</time>
      </trkpt>
      <trkpt lat="37.19741833333333" lon="-7.401065">
        <ele>54.099999999999966</ele>
        <time>2013-01-07T13:29:02.30</time>
      </trkpt>
      <trkpt lat="37.197491666666664" lon="-7.401085">
        <ele>54.099999999999966</ele>
        <time>2013-01-07T13:29:03.30</time>
      </trkpt>
      <trkpt lat="37.197563333333335" lon="-7.4011">
        <ele>54.099999999999966</ele>
        <time>2013-01-07T13:29:04.30</time>
      </trkpt>
      <trkpt lat="37.19763666666667" lon="-7.401113333333333">
        <ele>54.29999999999997</ele>
        <time>2013-01-07T13:29:05.31</time>
      </trkpt>
      <trkpt lat="37.19771" lon="-7.401116666666667">
        <ele>54.39999999999997</ele>
        <time>2013-01-07T13:29:06.31</time>
      </trkpt>
      <trkpt lat="37.197783333333334" lon="-7.401121666666667">
        <ele>54.89999999999997</ele>
        <time>2013-01-07T13:29:07.30</time>
      </trkpt>
      <trkpt lat="37.197855" lon="-7.4011233333333335">
        <ele>55.29999999999997</ele>
        <time>2013-01-07T13:29:08.30</time>
      </trkpt>
      <trkpt lat="37.19792833333333" lon="-7.4011233333333335">
        <ele>55.49999999999997</ele>
        <time>2013-01-07T13:29:09.30</time>
      </trkpt>
      <trkpt lat="37.197995" lon="-7.401121666666667">
        <ele>55.39999999999997</ele>
        <time>2013-01-07T13:29:10.30</time>
      </trkpt>
      <trkpt lat="37.198055" lon="-7.40112">
        <ele>55.39999999999997</ele>
        <time>2013-01-07T13:29:11.30</time>
      </trkpt>
      <trkpt lat="37.198125" lon="-7.40111">
        <ele>55.59999999999997</ele>
        <time>2013-01-07T13:29:12.30</time>
      </trkpt>
      <trkpt lat="37.198193333333336" lon="-7.4011">
        <ele>55.49999999999997</ele>
        <time>2013-01-07T13:29:13.30</time>
      </trkpt>
      <trkpt lat="37.19826" lon="-7.401093333333334">
        <ele>55.699999999999974</ele>
        <time>2013-01-07T13:29:14.30</time>
      </trkpt>
      <trkpt lat="37.19832666666667" lon="-7.401083333333333">
        <ele>55.699999999999974</ele>
        <time>2013-01-07T13:29:15.29</time>
      </trkpt>
      <trkpt lat="37.198393333333335" lon="-7.401073333333334">
        <ele>55.799999999999976</ele>
        <time>2013-01-07T13:29:16.30</time>
      </trkpt>
      <trkpt lat="37.198456666666665" lon="-7.401063333333333">
        <ele>55.799999999999976</ele>
        <time>2013-01-07T13:29:17.30</time>
      </trkpt>
      <trkpt lat="37.198523333333334" lon="-7.401048333333334">
        <ele>56.39999999999998</ele>
        <time>2013-01-07T13:29:18.30</time>
      </trkpt>
      <trkpt lat="37.198591666666665" lon="-7.401023333333334">
        <ele>56.89999999999998</ele>
        <time>2013-01-07T13:29:19.30</time>
      </trkpt>
      <trkpt lat="37.19865" lon="-7.400975">
        <ele>57.59999999999998</ele>
        <time>2013-01-07T13:29:20.30</time>
      </trkpt>
      <trkpt lat="37.198706666666666" lon="-7.400926666666667">
        <ele>57.19999999999998</ele>
        <time>2013-01-07T13:29:21.31</time>
      </trkpt>
      <trkpt lat="37.198768333333334" lon="-7.400898333333333">
        <ele>57.19999999999998</ele>
        <time>2013-01-07T13:29:22.31</time>
      </trkpt>
      <trkpt lat="37.19883333333333" lon="-7.400876666666667">
        <ele>57.29999999999998</ele>
        <time>2013-01-07T13:29:23.35</time>
      </trkpt>
      <trkpt lat="37.198905" lon="-7.400896666666666">
        <ele>56.29999999999998</ele>
        <time>2013-01-07T13:29:24.29</time>
      </trkpt>
      <trkpt lat="37.198975" lon="-7.4009">
        <ele>56.69999999999998</ele>
        <time>2013-01-07T13:29:25.27</time>
      </trkpt>
      <trkpt lat="37.199036666666665" lon="-7.400918333333333">
        <ele>56.29999999999998</ele>
        <time>2013-01-07T13:29:26.29</time>
      </trkpt>
      <trkpt lat="37.199106666666665" lon="-7.400923333333333">
        <ele>56.399999999999984</ele>
        <time>2013-01-07T13:29:27.29</time>
      </trkpt>
      <trkpt lat="37.199171666666665" lon="-7.400915">
        <ele>56.399999999999984</ele>
        <time>2013-01-07T13:29:28.29</time>
      </trkpt>
      <trkpt lat="37.19924" lon="-7.400903333333333">
        <ele>56.399999999999984</ele>
        <time>2013-01-07T13:29:29.30</time>
      </trkpt>
      <trkpt lat="37.199295" lon="-7.40088">
        <ele>56.19999999999998</ele>
        <time>2013-01-07T13:29:30.32</time>
      </trkpt>
      <trkpt lat="37.19935" lon="-7.400863333333334">
        <ele>55.99999999999998</ele>
        <time>2013-01-07T13:29:31.29</time>
      </trkpt>
      <trkpt lat="37.199405" lon="-7.400836666666667">
        <ele>56.09999999999998</ele>
        <time>2013-01-07T13:29:32.29</time>
      </trkpt>
      <trkpt lat="37.19945833333333" lon="-7.400816666666667">
        <ele>56.19999999999998</ele>
        <time>2013-01-07T13:29:33.29</time>
      </trkpt>
      <trkpt lat="37.19949833333333" lon="-7.40081">
        <ele>59.399999999999984</ele>
        <time>2013-01-07T13:29:34.30</time>
      </trkpt>
      <trkpt lat="37.199551666666665" lon="-7.40078">
        <ele>59.59999999999999</ele>
        <time>2013-01-07T13:29:35.30</time>
      </trkpt>
      <trkpt lat="37.19961833333333" lon="-7.400756666666667">
        <ele>59.69999999999999</ele>
        <time>2013-01-07T13:29:36.30</time>
      </trkpt>
      <trkpt lat="37.199666666666666" lon="-7.40075">
        <ele>61.09999999999999</ele>
        <time>2013-01-07T13:29:37.30</time>
      </trkpt>
      <trkpt lat="37.19972666666666" lon="-7.400736666666667">
        <ele>61.399999999999984</ele>
        <time>2013-01-07T13:29:38.30</time>
      </trkpt>
      <trkpt lat="37.199778333333335" lon="-7.400728333333333">
        <ele>61.69999999999998</ele>
        <time>2013-01-07T13:29:39.41</time>
      </trkpt>
      <trkpt lat="37.19983166666667" lon="-7.40072">
        <ele>61.69999999999998</ele>
        <time>2013-01-07T13:29:40.30</time>
      </trkpt>
      <trkpt lat="37.19988" lon="-7.400716666666667">
        <ele>61.49999999999998</ele>
        <time>2013-01-07T13:29:41.30</time>
      </trkpt>
      <trkpt lat="37.199933333333334" lon="-7.40071">
        <ele>61.799999999999976</ele>
        <time>2013-01-07T13:29:42.30</time>
      </trkpt>
      <trkpt lat="37.19998833333333" lon="-7.400705">
        <ele>62.39999999999998</ele>
        <time>2013-01-07T13:29:43.31</time>
      </trkpt>
      <trkpt lat="37.20003833333333" lon="-7.400693333333333">
        <ele>62.39999999999998</ele>
        <time>2013-01-07T13:29:44.30</time>
      </trkpt>
      <trkpt lat="37.200086666666664" lon="-7.400686666666667">
        <ele>62.299999999999976</ele>
        <time>2013-01-07T13:29:45.30</time>
      </trkpt>
      <trkpt lat="37.200136666666666" lon="-7.400676666666667">
        <ele>62.39999999999998</ele>
        <time>2013-01-07T13:29:46.30</time>
      </trkpt>
      <trkpt lat="37.20018833333334" lon="-7.40067">
        <ele>62.09999999999998</ele>
        <time>2013-01-07T13:29:47.30</time>
      </trkpt>
      <trkpt lat="37.20023666666667" lon="-7.400665">
        <ele>62.29999999999998</ele>
        <time>2013-01-07T13:29:48.31</time>
      </trkpt>
      <trkpt lat="37.20029" lon="-7.4006533333333335">
        <ele>62.19999999999998</ele>
        <time>2013-01-07T13:29:49.30</time>
      </trkpt>
      <trkpt lat="37.20034" lon="-7.400648333333334">
        <ele>61.99999999999998</ele>
        <time>2013-01-07T13:29:50.30</time>
      </trkpt>
      <trkpt lat="37.200395" lon="-7.400641666666667">
        <ele>62.49999999999998</ele>
        <time>2013-01-07T13:29:51.30</time>
      </trkpt>
      <trkpt lat="37.20045" lon="-7.400636666666666">
        <ele>62.39999999999998</ele>
        <time>2013-01-07T13:29:52.30</time>
      </trkpt>
      <trkpt lat="37.20050333333333" lon="-7.4006316666666665">
        <ele>62.299999999999976</ele>
        <time>2013-01-07T13:29:53.30</time>
      </trkpt>
      <trkpt lat="37.200555" lon="-7.400626666666667">
        <ele>62.39999999999998</ele>
        <time>2013-01-07T13:29:54.30</time>
      </trkpt>
      <trkpt lat="37.20061" lon="-7.400616666666667">
        <ele>61.699999999999974</ele>
        <time>2013-01-07T13:29:55.30</time>
      </trkpt>
      <trkpt lat="37.200665" lon="-7.4006083333333335">
        <ele>61.49999999999997</ele>
        <time>2013-01-07T13:29:56.30</time>
      </trkpt>
      <trkpt lat="37.20072666666667" lon="-7.400605">
        <ele>61.29999999999997</ele>
        <time>2013-01-07T13:29:57.30</time>
      </trkpt>
      <trkpt lat="37.200788333333335" lon="-7.400601666666667">
        <ele>61.49999999999997</ele>
        <time>2013-01-07T13:29:58.30</time>
      </trkpt>
      <trkpt lat="37.20084833333333" lon="-7.400593333333333">
        <ele>61.39999999999997</ele>
        <time>2013-01-07T13:29:59.30</time>
      </trkpt>
      <trkpt lat="37.20091333333333" lon="-7.40059">
        <ele>60.99999999999997</ele>
        <time>2013-01-07T13:30:00.30</time>
      </trkpt>
      <trkpt lat="37.20097833333333" lon="-7.400585">
        <ele>60.699999999999974</ele>
        <time>2013-01-07T13:30:01.30</time>
      </trkpt>
      <trkpt lat="37.20104833333333" lon="-7.400588333333333">
        <ele>60.199999999999974</ele>
        <time>2013-01-07T13:30:02.30</time>
      </trkpt>
      <trkpt lat="37.20111333333333" lon="-7.400598333333333">
        <ele>59.99999999999997</ele>
        <time>2013-01-07T13:30:03.35</time>
      </trkpt>
      <trkpt lat="37.20117833333333" lon="-7.400613333333333">
        <ele>60.199999999999974</ele>
        <time>2013-01-07T13:30:04.30</time>
      </trkpt>
      <trkpt lat="37.201245" lon="-7.400625">
        <ele>60.199999999999974</ele>
        <time>2013-01-07T13:30:05.30</time>
      </trkpt>
      <trkpt lat="37.20131166666667" lon="-7.40065">
        <ele>60.39999999999998</ele>
        <time>2013-01-07T13:30:06.30</time>
      </trkpt>
      <trkpt lat="37.20138333333333" lon="-7.400685">
        <ele>59.89999999999998</ele>
        <time>2013-01-07T13:30:07.30</time>
      </trkpt>
      <trkpt lat="37.201451666666664" lon="-7.400715">
        <ele>59.99999999999998</ele>
        <time>2013-01-07T13:30:08.30</time>
      </trkpt>
      <trkpt lat="37.201535" lon="-7.400755">
        <ele>59.59999999999998</ele>
        <time>2013-01-07T13:30:09.30</time>
      </trkpt>
      <trkpt lat="37.201611666666665" lon="-7.400791666666667">
        <ele>59.69999999999998</ele>
        <time>2013-01-07T13:30:10.30</time>
      </trkpt>
      <trkpt lat="37.20168833333334" lon="-7.400828333333333">
        <ele>59.69999999999998</ele>
        <time>2013-01-07T13:30:11.30</time>
      </trkpt>
      <trkpt lat="37.20176333333333" lon="-7.400868333333333">
        <ele>59.69999999999998</ele>
        <time>2013-01-07T13:30:12.30</time>
      </trkpt>
      <trkpt lat="37.201836666666665" lon="-7.400905">
        <ele>59.69999999999998</ele>
        <time>2013-01-07T13:30:13.30</time>
      </trkpt>
      <trkpt lat="37.201925" lon="-7.400943333333333">
        <ele>58.69999999999998</ele>
        <time>2013-01-07T13:30:14.30</time>
      </trkpt>
      <trkpt lat="37.201995" lon="-7.400978333333334">
        <ele>59.19999999999998</ele>
        <time>2013-01-07T13:30:15.30</time>
      </trkpt>
      <trkpt lat="37.20207333333333" lon="-7.40102">
        <ele>58.899999999999984</ele>
        <time>2013-01-07T13:30:16.30</time>
      </trkpt>
      <trkpt lat="37.20214166666667" lon="-7.401058333333333">
        <ele>58.999999999999986</ele>
        <time>2013-01-07T13:30:17.30</time>
      </trkpt>
      <trkpt lat="37.20221166666666" lon="-7.401098333333334">
        <ele>58.899999999999984</ele>
        <time>2013-01-07T13:30:18.30</time>
      </trkpt>
      <trkpt lat="37.202285" lon="-7.401141666666667">
        <ele>58.399999999999984</ele>
        <time>2013-01-07T13:30:19.30</time>
      </trkpt>
      <trkpt lat="37.20235666666667" lon="-7.401173333333333">
        <ele>58.399999999999984</ele>
        <time>2013-01-07T13:30:20.30</time>
      </trkpt>
      <trkpt lat="37.20242" lon="-7.401205">
        <ele>58.79999999999998</ele>
        <time>2013-01-07T13:30:21.29</time>
      </trkpt>
      <trkpt lat="37.20247833333333" lon="-7.401215">
        <ele>58.59999999999998</ele>
        <time>2013-01-07T13:30:22.30</time>
      </trkpt>
      <trkpt lat="37.20253666666667" lon="-7.40122">
        <ele>58.49999999999998</ele>
        <time>2013-01-07T13:30:23.30</time>
      </trkpt>
      <trkpt lat="37.20259166666666" lon="-7.401248333333333">
        <ele>58.49999999999998</ele>
        <time>2013-01-07T13:30:24.31</time>
      </trkpt>
      <trkpt lat="37.202655" lon="-7.401285">
        <ele>58.89999999999998</ele>
        <time>2013-01-07T13:30:25.30</time>
      </trkpt>
      <trkpt lat="37.20271" lon="-7.401325">
        <ele>58.99999999999998</ele>
        <time>2013-01-07T13:30:26.30</time>
      </trkpt>
      <trkpt lat="37.20276666666667" lon="-7.401348333333333">
        <ele>58.799999999999976</ele>
        <time>2013-01-07T13:30:27.30</time>
      </trkpt>
      <trkpt lat="37.202841666666664" lon="-7.401321666666667">
        <ele>57.699999999999974</ele>
        <time>2013-01-07T13:30:28.31</time>
      </trkpt>
      <trkpt lat="37.20291666666667" lon="-7.4013">
        <ele>56.199999999999974</ele>
        <time>2013-01-07T13:30:29.31</time>
      </trkpt>
      <trkpt lat="37.20296833333333" lon="-7.401266666666666">
        <ele>57.99999999999997</ele>
        <time>2013-01-07T13:30:30.30</time>
      </trkpt>
      <trkpt lat="37.20301" lon="-7.4012183333333335">
        <ele>57.89999999999997</ele>
        <time>2013-01-07T13:30:31.30</time>
      </trkpt>
      <trkpt lat="37.203048333333335" lon="-7.401163333333334">
        <ele>57.69999999999997</ele>
        <time>2013-01-07T13:30:32.30</time>
      </trkpt>
      <trkpt lat="37.20308166666667" lon="-7.4011016666666665">
        <ele>57.69999999999997</ele>
        <time>2013-01-07T13:30:33.30</time>
      </trkpt>
      <trkpt lat="37.20309666666667" lon="-7.401035">
        <ele>58.19999999999997</ele>
        <time>2013-01-07T13:30:34.30</time>
      </trkpt>
      <trkpt lat="37.203118333333336" lon="-7.400975">
        <ele>58.099999999999966</ele>
        <time>2013-01-07T13:30:35.30</time>
      </trkpt>
      <trkpt lat="37.20314833333333" lon="-7.400918333333333">
        <ele>58.19999999999997</ele>
        <time>2013-01-07T13:30:36.30</time>
      </trkpt>
      <trkpt lat="37.203176666666664" lon="-7.400865">
        <ele>58.29999999999997</ele>
        <time>2013-01-07T13:30:37.30</time>
      </trkpt>
      <trkpt lat="37.203203333333335" lon="-7.400811666666667">
        <ele>58.39999999999997</ele>
        <time>2013-01-07T13:30:38.30</time>
      </trkpt>
      <trkpt lat="37.203228333333335" lon="-7.400751666666666">
        <ele>58.49999999999997</ele>
        <time>2013-01-07T13:30:39.30</time>
      </trkpt>
      <trkpt lat="37.20325" lon="-7.4007">
        <ele>58.49999999999997</ele>
        <time>2013-01-07T13:30:40.30</time>
      </trkpt>
      <trkpt lat="37.203293333333335" lon="-7.400656666666666">
        <ele>58.79999999999997</ele>
        <time>2013-01-07T13:30:41.30</time>
      </trkpt>
      <trkpt lat="37.20332833333333" lon="-7.400616666666667">
        <ele>58.39999999999997</ele>
        <time>2013-01-07T13:30:42.30</time>
      </trkpt>
      <trkpt lat="37.203355" lon="-7.400558333333334">
        <ele>58.59999999999997</ele>
        <time>2013-01-07T13:30:43.30</time>
      </trkpt>
      <trkpt lat="37.203385" lon="-7.400495">
        <ele>58.799999999999976</ele>
        <time>2013-01-07T13:30:44.30</time>
      </trkpt>
      <trkpt lat="37.203408333333336" lon="-7.400441666666667">
        <ele>59.199999999999974</ele>
        <time>2013-01-07T13:30:45.30</time>
      </trkpt>
      <trkpt lat="37.20343" lon="-7.400388333333333">
        <ele>59.39999999999998</ele>
        <time>2013-01-07T13:30:46.33</time>
      </trkpt>
      <trkpt lat="37.20345666666667" lon="-7.400343333333334">
        <ele>59.39999999999998</ele>
        <time>2013-01-07T13:30:47.30</time>
      </trkpt>
      <trkpt lat="37.20349" lon="-7.400271666666667">
        <ele>59.49999999999998</ele>
        <time>2013-01-07T13:30:48.30</time>
      </trkpt>
      <trkpt lat="37.203516666666665" lon="-7.400183333333334">
        <ele>58.89999999999998</ele>
        <time>2013-01-07T13:30:49.30</time>
      </trkpt>
      <trkpt lat="37.203563333333335" lon="-7.40013">
        <ele>58.299999999999976</ele>
        <time>2013-01-07T13:30:50.30</time>
      </trkpt>
      <trkpt lat="37.20358" lon="-7.40006">
        <ele>57.99999999999998</ele>
        <time>2013-01-07T13:30:51.31</time>
      </trkpt>
      <trkpt lat="37.203615" lon="-7.400011666666667">
        <ele>58.799999999999976</ele>
        <time>2013-01-07T13:30:52.30</time>
      </trkpt>
      <trkpt lat="37.20366" lon="-7.39993">
        <ele>59.799999999999976</ele>
        <time>2013-01-07T13:30:53.29</time>
      </trkpt>
      <trkpt lat="37.203696666666666" lon="-7.39986">
        <ele>60.299999999999976</ele>
        <time>2013-01-07T13:30:54.30</time>
      </trkpt>
      <trkpt lat="37.20372" lon="-7.399798333333333">
        <ele>60.99999999999998</ele>
        <time>2013-01-07T13:30:55.30</time>
      </trkpt>
      <trkpt lat="37.203741666666666" lon="-7.39973">
        <ele>60.799999999999976</ele>
        <time>2013-01-07T13:30:56.30</time>
      </trkpt>
      <trkpt lat="37.20377" lon="-7.399671666666666">
        <ele>60.799999999999976</ele>
        <time>2013-01-07T13:30:57.30</time>
      </trkpt>
      <trkpt lat="37.203806666666665" lon="-7.399596666666667">
        <ele>60.799999999999976</ele>
        <time>2013-01-07T13:30:58.30</time>
      </trkpt>
      <trkpt lat="37.20384333333333" lon="-7.39953">
        <ele>61.39999999999998</ele>
        <time>2013-01-07T13:30:59.30</time>
      </trkpt>
      <trkpt lat="37.203876666666666" lon="-7.39946">
        <ele>61.39999999999998</ele>
        <time>2013-01-07T13:31:00.30</time>
      </trkpt>
      <trkpt lat="37.20391166666667" lon="-7.399386666666667">
        <ele>60.799999999999976</ele>
        <time>2013-01-07T13:31:01.30</time>
      </trkpt>
      <trkpt lat="37.20395" lon="-7.399328333333333">
        <ele>60.699999999999974</ele>
        <time>2013-01-07T13:31:02.30</time>
      </trkpt>
      <trkpt lat="37.20398" lon="-7.39925">
        <ele>60.39999999999998</ele>
        <time>2013-01-07T13:31:03.30</time>
      </trkpt>
      <trkpt lat="37.204008333333334" lon="-7.399183333333333">
        <ele>60.49999999999998</ele>
        <time>2013-01-07T13:31:04.30</time>
      </trkpt>
      <trkpt lat="37.20404" lon="-7.399115">
        <ele>60.49999999999998</ele>
        <time>2013-01-07T13:31:05.30</time>
      </trkpt>
      <trkpt lat="37.20406833333333" lon="-7.399046666666667">
        <ele>60.799999999999976</ele>
        <time>2013-01-07T13:31:06.30</time>
      </trkpt>
      <trkpt lat="37.20408833333333" lon="-7.398976666666667">
        <ele>60.49999999999998</ele>
        <time>2013-01-07T13:31:07.31</time>
      </trkpt>
      <trkpt lat="37.204121666666666" lon="-7.398913333333334">
        <ele>60.39999999999998</ele>
        <time>2013-01-07T13:31:08.31</time>
      </trkpt>
      <trkpt lat="37.204148333333336" lon="-7.398836666666667">
        <ele>60.39999999999998</ele>
        <time>2013-01-07T13:31:09.30</time>
      </trkpt>
      <trkpt lat="37.20418166666666" lon="-7.398773333333334">
        <ele>60.39999999999998</ele>
        <time>2013-01-07T13:31:10.30</time>
      </trkpt>
      <trkpt lat="37.20421833333333" lon="-7.398698333333333">
        <ele>60.699999999999974</ele>
        <time>2013-01-07T13:31:11.30</time>
      </trkpt>
      <trkpt lat="37.20425" lon="-7.398631666666667">
        <ele>60.39999999999998</ele>
        <time>2013-01-07T13:31:12.30</time>
      </trkpt>
      <trkpt lat="37.20428166666667" lon="-7.39857">
        <ele>60.299999999999976</ele>
        <time>2013-01-07T13:31:13.30</time>
      </trkpt>
      <trkpt lat="37.20430833333333" lon="-7.398501666666666">
        <ele>60.699999999999974</ele>
        <time>2013-01-07T13:31:14.30</time>
      </trkpt>
      <trkpt lat="37.20434" lon="-7.39843">
        <ele>61.09999999999997</ele>
        <time>2013-01-07T13:31:15.30</time>
      </trkpt>
      <trkpt lat="37.204373333333336" lon="-7.398366666666667">
        <ele>60.89999999999997</ele>
        <time>2013-01-07T13:31:16.30</time>
      </trkpt>
      <trkpt lat="37.20440166666667" lon="-7.39831">
        <ele>60.69999999999997</ele>
        <time>2013-01-07T13:31:17.30</time>
      </trkpt>
      <trkpt lat="37.20442666666667" lon="-7.398246666666667">
        <ele>60.39999999999997</ele>
        <time>2013-01-07T13:31:18.30</time>
      </trkpt>
      <trkpt lat="37.204455" lon="-7.39817">
        <ele>59.99999999999997</ele>
        <time>2013-01-07T13:31:19.30</time>
      </trkpt>
      <trkpt lat="37.20448" lon="-7.398116666666667">
        <ele>59.89999999999997</ele>
        <time>2013-01-07T13:31:20.30</time>
      </trkpt>
      <trkpt lat="37.20450833333334" lon="-7.3980516666666665">
        <ele>59.69999999999997</ele>
        <time>2013-01-07T13:31:21.30</time>
      </trkpt>
      <trkpt lat="37.204548333333335" lon="-7.397991666666667">
        <ele>59.69999999999997</ele>
        <time>2013-01-07T13:31:22.30</time>
      </trkpt>
      <trkpt lat="37.20457833333333" lon="-7.397921666666667">
        <ele>59.999999999999964</ele>
        <time>2013-01-07T13:31:23.30</time>
      </trkpt>
      <trkpt lat="37.204613333333334" lon="-7.3978633333333335">
        <ele>60.499999999999964</ele>
        <time>2013-01-07T13:31:24.31</time>
      </trkpt>
      <trkpt lat="37.20464833333333" lon="-7.397796666666666">
        <ele>60.499999999999964</ele>
        <time>2013-01-07T13:31:25.30</time>
      </trkpt>
      <trkpt lat="37.20469666666666" lon="-7.397735">
        <ele>60.29999999999996</ele>
        <time>2013-01-07T13:31:26.30</time>
      </trkpt>
      <trkpt lat="37.20474333333333" lon="-7.3976733333333335">
        <ele>59.79999999999996</ele>
        <time>2013-01-07T13:31:27.30</time>
      </trkpt>
      <trkpt lat="37.204786666666664" lon="-7.397605">
        <ele>59.09999999999996</ele>
        <time>2013-01-07T13:31:28.30</time>
      </trkpt>
      <trkpt lat="37.204831666666664" lon="-7.397548333333333">
        <ele>58.399999999999956</ele>
        <time>2013-01-07T13:31:29.30</time>
      </trkpt>
      <trkpt lat="37.204885" lon="-7.397498333333333">
        <ele>58.49999999999996</ele>
        <time>2013-01-07T13:31:30.30</time>
      </trkpt>
      <trkpt lat="37.20494" lon="-7.397461666666667">
        <ele>58.69999999999996</ele>
        <time>2013-01-07T13:31:31.30</time>
      </trkpt>
      <trkpt lat="37.20500166666667" lon="-7.397433333333334">
        <ele>58.99999999999996</ele>
        <time>2013-01-07T13:31:32.30</time>
      </trkpt>
      <trkpt lat="37.20505333333333" lon="-7.397398333333333">
        <ele>58.69999999999996</ele>
        <time>2013-01-07T13:31:33.30</time>
      </trkpt>
      <trkpt lat="37.205115" lon="-7.397373333333333">
        <ele>58.39999999999996</ele>
        <time>2013-01-07T13:31:34.30</time>
      </trkpt>
      <trkpt lat="37.205171666666665" lon="-7.39736">
        <ele>58.499999999999964</ele>
        <time>2013-01-07T13:31:35.30</time>
      </trkpt>
      <trkpt lat="37.205243333333335" lon="-7.397331666666667">
        <ele>58.89999999999996</ele>
        <time>2013-01-07T13:31:36.30</time>
      </trkpt>
      <trkpt lat="37.20530333333333" lon="-7.39732">
        <ele>60.099999999999966</ele>
        <time>2013-01-07T13:31:37.30</time>
      </trkpt>
      <trkpt lat="37.20536333333333" lon="-7.397316666666667">
        <ele>60.29999999999997</ele>
        <time>2013-01-07T13:31:38.30</time>
      </trkpt>
      <trkpt lat="37.20542" lon="-7.397321666666667">
        <ele>61.099999999999966</ele>
        <time>2013-01-07T13:31:39.30</time>
      </trkpt>
      <trkpt lat="37.205481666666664" lon="-7.397315">
        <ele>60.79999999999997</ele>
        <time>2013-01-07T13:31:40.30</time>
      </trkpt>
      <trkpt lat="37.205545" lon="-7.397308333333333">
        <ele>58.69999999999997</ele>
        <time>2013-01-07T13:31:41.30</time>
      </trkpt>
      <trkpt lat="37.205605" lon="-7.397313333333333">
        <ele>58.499999999999964</ele>
        <time>2013-01-07T13:31:42.30</time>
      </trkpt>
      <trkpt lat="37.20567166666667" lon="-7.397313333333333">
        <ele>57.599999999999966</ele>
        <time>2013-01-07T13:31:43.30</time>
      </trkpt>
      <trkpt lat="37.205725" lon="-7.397305">
        <ele>56.79999999999997</ele>
        <time>2013-01-07T13:31:44.30</time>
      </trkpt>
      <trkpt lat="37.20578666666667" lon="-7.3972983333333335">
        <ele>57.49999999999997</ele>
        <time>2013-01-07T13:31:45.30</time>
      </trkpt>
      <trkpt lat="37.20585333333333" lon="-7.39729">
        <ele>58.49999999999997</ele>
        <time>2013-01-07T13:31:46.31</time>
      </trkpt>
      <trkpt lat="37.20591833333334" lon="-7.397288333333333">
        <ele>58.39999999999997</ele>
        <time>2013-01-07T13:31:47.30</time>
      </trkpt>
      <trkpt lat="37.205978333333334" lon="-7.397278333333333">
        <ele>58.79999999999997</ele>
        <time>2013-01-07T13:31:48.30</time>
      </trkpt>
      <trkpt lat="37.20604" lon="-7.397273333333334">
        <ele>58.99999999999997</ele>
        <time>2013-01-07T13:31:49.30</time>
      </trkpt>
      <trkpt lat="37.20611" lon="-7.397271666666667">
        <ele>58.59999999999997</ele>
        <time>2013-01-07T13:31:50.30</time>
      </trkpt>
      <trkpt lat="37.20617333333333" lon="-7.397266666666667">
        <ele>58.49999999999997</ele>
        <time>2013-01-07T13:31:51.30</time>
      </trkpt>
      <trkpt lat="37.20623833333333" lon="-7.397261666666667">
        <ele>58.49999999999997</ele>
        <time>2013-01-07T13:31:52.30</time>
      </trkpt>
      <trkpt lat="37.20630333333333" lon="-7.397256666666666">
        <ele>58.49999999999997</ele>
        <time>2013-01-07T13:31:53.30</time>
      </trkpt>
      <trkpt lat="37.206365" lon="-7.397251666666667">
        <ele>58.09999999999997</ele>
        <time>2013-01-07T13:31:54.30</time>
      </trkpt>
      <trkpt lat="37.20643" lon="-7.397245">
        <ele>58.199999999999974</ele>
        <time>2013-01-07T13:31:55.30</time>
      </trkpt>
      <trkpt lat="37.206496666666666" lon="-7.397243333333333">
        <ele>58.299999999999976</ele>
        <time>2013-01-07T13:31:56.30</time>
      </trkpt>
      <trkpt lat="37.20656" lon="-7.397235">
        <ele>59.39999999999998</ele>
        <time>2013-01-07T13:31:57.39</time>
      </trkpt>
      <trkpt lat="37.20662333333333" lon="-7.39723">
        <ele>58.99999999999998</ele>
        <time>2013-01-07T13:31:58.38</time>
      </trkpt>
      <trkpt lat="37.206691666666664" lon="-7.397225">
        <ele>58.99999999999998</ele>
        <time>2013-01-07T13:31:59.30</time>
      </trkpt>
      <trkpt lat="37.20675833333333" lon="-7.397223333333334">
        <ele>59.19999999999998</ele>
        <time>2013-01-07T13:32:00.29</time>
      </trkpt>
      <trkpt lat="37.20682333333333" lon="-7.397218333333333">
        <ele>59.49999999999998</ele>
        <time>2013-01-07T13:32:01.30</time>
      </trkpt>
      <trkpt lat="37.20688833333333" lon="-7.397213333333333">
        <ele>59.99999999999998</ele>
        <time>2013-01-07T13:32:02.30</time>
      </trkpt>
      <trkpt lat="37.20695" lon="-7.397211666666666">
        <ele>59.89999999999998</ele>
        <time>2013-01-07T13:32:03.30</time>
      </trkpt>
      <trkpt lat="37.207013333333336" lon="-7.397213333333333">
        <ele>59.799999999999976</ele>
        <time>2013-01-07T13:32:04.32</time>
      </trkpt>
      <trkpt lat="37.20708" lon="-7.397211666666666">
        <ele>59.699999999999974</ele>
        <time>2013-01-07T13:32:05.34</time>
      </trkpt>
      <trkpt lat="37.207141666666665" lon="-7.397211666666666">
        <ele>59.59999999999997</ele>
        <time>2013-01-07T13:32:06.30</time>
      </trkpt>
      <trkpt lat="37.207208333333334" lon="-7.397196666666667">
        <ele>59.799999999999976</ele>
        <time>2013-01-07T13:32:07.30</time>
      </trkpt>
      <trkpt lat="37.20726833333333" lon="-7.397183333333333">
        <ele>60.299999999999976</ele>
        <time>2013-01-07T13:32:08.30</time>
      </trkpt>
      <trkpt lat="37.207323333333335" lon="-7.397188333333333">
        <ele>60.299999999999976</ele>
        <time>2013-01-07T13:32:09.30</time>
      </trkpt>
      <trkpt lat="37.207375" lon="-7.397186666666666">
        <ele>60.199999999999974</ele>
        <time>2013-01-07T13:32:10.30</time>
      </trkpt>
      <trkpt lat="37.20742833333333" lon="-7.397176666666667">
        <ele>60.09999999999997</ele>
        <time>2013-01-07T13:32:11.30</time>
      </trkpt>
      <trkpt lat="37.20749" lon="-7.397188333333333">
        <ele>60.09999999999997</ele>
        <time>2013-01-07T13:32:12.31</time>
      </trkpt>
      <trkpt lat="37.207545" lon="-7.397198333333334">
        <ele>59.89999999999997</ele>
        <time>2013-01-07T13:32:13.30</time>
      </trkpt>
      <trkpt lat="37.207605" lon="-7.397221666666667">
        <ele>59.89999999999997</ele>
        <time>2013-01-07T13:32:14.32</time>
      </trkpt>
      <trkpt lat="37.20764833333333" lon="-7.397281666666666">
        <ele>59.59999999999997</ele>
        <time>2013-01-07T13:32:15.30</time>
      </trkpt>
      <trkpt lat="37.20769666666666" lon="-7.39732">
        <ele>59.09999999999997</ele>
        <time>2013-01-07T13:32:16.30</time>
      </trkpt>
      <trkpt lat="37.20773666666667" lon="-7.397388333333334">
        <ele>57.299999999999976</ele>
        <time>2013-01-07T13:32:17.30</time>
      </trkpt>
      <trkpt lat="37.207768333333334" lon="-7.397455">
        <ele>56.699999999999974</ele>
        <time>2013-01-07T13:32:18.30</time>
      </trkpt>
      <trkpt lat="37.20776" lon="-7.397541666666666">
        <ele>55.799999999999976</ele>
        <time>2013-01-07T13:32:19.30</time>
      </trkpt>
      <trkpt lat="37.20775166666667" lon="-7.397615">
        <ele>55.59999999999997</ele>
        <time>2013-01-07T13:32:20.30</time>
      </trkpt>
      <trkpt lat="37.20774333333333" lon="-7.39769">
        <ele>55.299999999999976</ele>
        <time>2013-01-07T13:32:21.29</time>
      </trkpt>
      <trkpt lat="37.20773666666667" lon="-7.397776666666666">
        <ele>55.299999999999976</ele>
        <time>2013-01-07T13:32:22.30</time>
      </trkpt>
      <trkpt lat="37.207723333333334" lon="-7.397856666666667">
        <ele>54.699999999999974</ele>
        <time>2013-01-07T13:32:23.30</time>
      </trkpt>
      <trkpt lat="37.20771666666667" lon="-7.397925">
        <ele>54.99999999999997</ele>
        <time>2013-01-07T13:32:24.32</time>
      </trkpt>
      <trkpt lat="37.207705" lon="-7.398001666666667">
        <ele>55.09999999999997</ele>
        <time>2013-01-07T13:32:25.30</time>
      </trkpt>
      <trkpt lat="37.20769166666667" lon="-7.398081666666666">
        <ele>55.09999999999997</ele>
        <time>2013-01-07T13:32:26.30</time>
      </trkpt>
      <trkpt lat="37.20767333333333" lon="-7.39816">
        <ele>55.09999999999997</ele>
        <time>2013-01-07T13:32:27.31</time>
      </trkpt>
      <trkpt lat="37.207656666666665" lon="-7.398245">
        <ele>54.699999999999974</ele>
        <time>2013-01-07T13:32:28.30</time>
      </trkpt>
      <trkpt lat="37.20764166666667" lon="-7.398325">
        <ele>54.699999999999974</ele>
        <time>2013-01-07T13:32:29.30</time>
      </trkpt>
      <trkpt lat="37.207625" lon="-7.398406666666666">
        <ele>54.59999999999997</ele>
        <time>2013-01-07T13:32:30.30</time>
      </trkpt>
      <trkpt lat="37.207605" lon="-7.398498333333333">
        <ele>54.199999999999974</ele>
        <time>2013-01-07T13:32:31.30</time>
      </trkpt>
      <trkpt lat="37.20759666666667" lon="-7.398556666666667">
        <ele>55.299999999999976</ele>
        <time>2013-01-07T13:32:32.30</time>
      </trkpt>
      <trkpt lat="37.20758333333333" lon="-7.398631666666667">
        <ele>55.299999999999976</ele>
        <time>2013-01-07T13:32:33.33</time>
      </trkpt>
      <trkpt lat="37.20757833333333" lon="-7.398715">
        <ele>54.99999999999998</ele>
        <time>2013-01-07T13:32:34.35</time>
      </trkpt>
      <trkpt lat="37.20756166666666" lon="-7.398793333333334">
        <ele>54.49999999999998</ele>
        <time>2013-01-07T13:32:35.30</time>
      </trkpt>
      <trkpt lat="37.207543333333334" lon="-7.398876666666666">
        <ele>54.09999999999998</ele>
        <time>2013-01-07T13:32:36.30</time>
      </trkpt>
      <trkpt lat="37.207528333333336" lon="-7.398948333333333">
        <ele>53.39999999999998</ele>
        <time>2013-01-07T13:32:37.30</time>
      </trkpt>
      <trkpt lat="37.207515" lon="-7.399021666666667">
        <ele>53.59999999999998</ele>
        <time>2013-01-07T13:32:38.31</time>
      </trkpt>
      <trkpt lat="37.207503333333335" lon="-7.399093333333333">
        <ele>53.19999999999998</ele>
        <time>2013-01-07T13:32:39.30</time>
      </trkpt>
      <trkpt lat="37.20749" lon="-7.39916">
        <ele>53.29999999999998</ele>
        <time>2013-01-07T13:32:40.30</time>
      </trkpt>
      <trkpt lat="37.207485" lon="-7.399226666666666">
        <ele>53.499999999999986</ele>
        <time>2013-01-07T13:32:41.30</time>
      </trkpt>
      <trkpt lat="37.207478333333334" lon="-7.399306666666667">
        <ele>53.499999999999986</ele>
        <time>2013-01-07T13:32:42.30</time>
      </trkpt>
      <trkpt lat="37.20747333333333" lon="-7.39938">
        <ele>53.59999999999999</ele>
        <time>2013-01-07T13:32:43.30</time>
      </trkpt>
      <trkpt lat="37.20749166666667" lon="-7.399448333333333">
        <ele>53.69999999999999</ele>
        <time>2013-01-07T13:32:44.30</time>
      </trkpt>
      <trkpt lat="37.207496666666664" lon="-7.399541666666667">
        <ele>53.79999999999999</ele>
        <time>2013-01-07T13:32:45.31</time>
      </trkpt>
      <trkpt lat="37.20751333333333" lon="-7.399626666666666">
        <ele>53.49999999999999</ele>
        <time>2013-01-07T13:32:46.30</time>
      </trkpt>
      <trkpt lat="37.20752" lon="-7.399708333333334">
        <ele>53.29999999999999</ele>
        <time>2013-01-07T13:32:47.30</time>
      </trkpt>
      <trkpt lat="37.20753333333333" lon="-7.399785">
        <ele>52.59999999999999</ele>
        <time>2013-01-07T13:32:48.30</time>
      </trkpt>
      <trkpt lat="37.20754" lon="-7.399866666666667">
        <ele>52.69999999999999</ele>
        <time>2013-01-07T13:32:49.33</time>
      </trkpt>
      <trkpt lat="37.207555" lon="-7.399941666666667">
        <ele>52.79999999999999</ele>
        <time>2013-01-07T13:32:50.33</time>
      </trkpt>
      <trkpt lat="37.207588333333334" lon="-7.40002">
        <ele>52.89999999999999</ele>
        <time>2013-01-07T13:32:51.30</time>
      </trkpt>
      <trkpt lat="37.20760666666666" lon="-7.400096666666666">
        <ele>52.89999999999999</ele>
        <time>2013-01-07T13:32:52.30</time>
      </trkpt>
      <trkpt lat="37.207631666666664" lon="-7.400165">
        <ele>52.89999999999999</ele>
        <time>2013-01-07T13:32:53.30</time>
      </trkpt>
      <trkpt lat="37.20764833333333" lon="-7.400235">
        <ele>52.79999999999999</ele>
        <time>2013-01-07T13:32:54.30</time>
      </trkpt>
      <trkpt lat="37.207683333333335" lon="-7.4003033333333335">
        <ele>52.89999999999999</ele>
        <time>2013-01-07T13:32:55.30</time>
      </trkpt>
      <trkpt lat="37.207715" lon="-7.400383333333333">
        <ele>53.29999999999999</ele>
        <time>2013-01-07T13:32:56.30</time>
      </trkpt>
      <trkpt lat="37.207741666666664" lon="-7.400456666666667">
        <ele>52.99999999999999</ele>
        <time>2013-01-07T13:32:57.30</time>
      </trkpt>
      <trkpt lat="37.207771666666666" lon="-7.400543333333333">
        <ele>52.79999999999999</ele>
        <time>2013-01-07T13:32:58.30</time>
      </trkpt>
      <trkpt lat="37.20780333333333" lon="-7.40061">
        <ele>52.59999999999999</ele>
        <time>2013-01-07T13:32:59.30</time>
      </trkpt>
      <trkpt lat="37.20782333333333" lon="-7.400673333333334">
        <ele>52.999999999999986</ele>
        <time>2013-01-07T13:33:00.30</time>
      </trkpt>
      <trkpt lat="37.20785166666667" lon="-7.4007483333333335">
        <ele>52.59999999999999</ele>
        <time>2013-01-07T13:33:01.30</time>
      </trkpt>
      <trkpt lat="37.20787833333333" lon="-7.400823333333333">
        <ele>52.79999999999999</ele>
        <time>2013-01-07T13:33:02.30</time>
      </trkpt>
      <trkpt lat="37.20791" lon="-7.40089">
        <ele>52.99999999999999</ele>
        <time>2013-01-07T13:33:03.30</time>
      </trkpt>
      <trkpt lat="37.20794333333333" lon="-7.400953333333334">
        <ele>52.699999999999996</ele>
        <time>2013-01-07T13:33:04.30</time>
      </trkpt>
      <trkpt lat="37.20796166666667" lon="-7.401018333333333">
        <ele>52.599999999999994</ele>
        <time>2013-01-07T13:33:05.33</time>
      </trkpt>
      <trkpt lat="37.20799" lon="-7.4011016666666665">
        <ele>52.3</ele>
        <time>2013-01-07T13:33:06.33</time>
      </trkpt>
      <trkpt lat="37.20802666666667" lon="-7.401155">
        <ele>52.599999999999994</ele>
        <time>2013-01-07T13:33:07.30</time>
      </trkpt>
      <trkpt lat="37.208063333333335" lon="-7.401226666666667">
        <ele>52.599999999999994</ele>
        <time>2013-01-07T13:33:08.30</time>
      </trkpt>
      <trkpt lat="37.20809166666667" lon="-7.401298333333333">
        <ele>51.99999999999999</ele>
        <time>2013-01-07T13:33:09.30</time>
      </trkpt>
      <trkpt lat="37.20812" lon="-7.401348333333333">
        <ele>51.39999999999999</ele>
        <time>2013-01-07T13:33:10.39</time>
      </trkpt>
      <trkpt lat="37.208165" lon="-7.40144">
        <ele>51.29999999999999</ele>
        <time>2013-01-07T13:33:11.30</time>
      </trkpt>
      <trkpt lat="37.20820166666667" lon="-7.401516666666667">
        <ele>51.49999999999999</ele>
        <time>2013-01-07T13:33:12.30</time>
      </trkpt>
      <trkpt lat="37.208243333333336" lon="-7.401613333333334">
        <ele>51.29999999999999</ele>
        <time>2013-01-07T13:33:13.30</time>
      </trkpt>
      <trkpt lat="37.208281666666664" lon="-7.401688333333333">
        <ele>50.89999999999999</ele>
        <time>2013-01-07T13:33:14.30</time>
      </trkpt>
      <trkpt lat="37.208328333333334" lon="-7.401768333333333">
        <ele>51.19999999999999</ele>
        <time>2013-01-07T13:33:15.30</time>
      </trkpt>
      <trkpt lat="37.208375" lon="-7.401836666666667">
        <ele>51.19999999999999</ele>
        <time>2013-01-07T13:33:16.30</time>
      </trkpt>
      <trkpt lat="37.20842833333333" lon="-7.401891666666667">
        <ele>51.39999999999999</ele>
        <time>2013-01-07T13:33:17.31</time>
      </trkpt>
      <trkpt lat="37.208485" lon="-7.401941666666667">
        <ele>51.599999999999994</ele>
        <time>2013-01-07T13:33:18.30</time>
      </trkpt>
      <trkpt lat="37.208535" lon="-7.401995">
        <ele>51.3</ele>
        <time>2013-01-07T13:33:19.30</time>
      </trkpt>
      <trkpt lat="37.20859333333333" lon="-7.40204">
        <ele>51.5</ele>
        <time>2013-01-07T13:33:20.30</time>
      </trkpt>
      <trkpt lat="37.208645" lon="-7.402073333333333">
        <ele>51.7</ele>
        <time>2013-01-07T13:33:21.33</time>
      </trkpt>
      <trkpt lat="37.20870333333333" lon="-7.402105">
        <ele>51.800000000000004</ele>
        <time>2013-01-07T13:33:22.33</time>
      </trkpt>
      <trkpt lat="37.20878" lon="-7.402141666666667">
        <ele>51.800000000000004</ele>
        <time>2013-01-07T13:33:23.30</time>
      </trkpt>
      <trkpt lat="37.208855" lon="-7.402175">
        <ele>51.800000000000004</ele>
        <time>2013-01-07T13:33:24.30</time>
      </trkpt>
      <trkpt lat="37.208915" lon="-7.402201666666667">
        <ele>51.900000000000006</ele>
        <time>2013-01-07T13:33:25.30</time>
      </trkpt>
      <trkpt lat="37.208983333333336" lon="-7.402195">
        <ele>52.00000000000001</ele>
        <time>2013-01-07T13:33:26.30</time>
      </trkpt>
      <trkpt lat="37.209055" lon="-7.4022033333333335">
        <ele>52.10000000000001</ele>
        <time>2013-01-07T13:33:27.29</time>
      </trkpt>
      <trkpt lat="37.20912166666667" lon="-7.4022033333333335">
        <ele>52.30000000000001</ele>
        <time>2013-01-07T13:33:28.30</time>
      </trkpt>
      <trkpt lat="37.209195" lon="-7.402213333333333">
        <ele>52.60000000000001</ele>
        <time>2013-01-07T13:33:29.30</time>
      </trkpt>
      <trkpt lat="37.20927" lon="-7.40223">
        <ele>52.900000000000006</ele>
        <time>2013-01-07T13:33:30.30</time>
      </trkpt>
      <trkpt lat="37.20934166666667" lon="-7.402241666666667">
        <ele>52.900000000000006</ele>
        <time>2013-01-07T13:33:31.30</time>
      </trkpt>
      <trkpt lat="37.20941666666667" lon="-7.402255">
        <ele>53.10000000000001</ele>
        <time>2013-01-07T13:33:32.30</time>
      </trkpt>
      <trkpt lat="37.20948833333333" lon="-7.402261666666667">
        <ele>53.30000000000001</ele>
        <time>2013-01-07T13:33:33.30</time>
      </trkpt>
      <trkpt lat="37.209558333333334" lon="-7.40227">
        <ele>53.30000000000001</ele>
        <time>2013-01-07T13:33:34.29</time>
      </trkpt>
      <trkpt lat="37.20963166666667" lon="-7.402268333333334">
        <ele>53.000000000000014</ele>
        <time>2013-01-07T13:33:35.30</time>
      </trkpt>
      <trkpt lat="37.209698333333336" lon="-7.40227">
        <ele>52.90000000000001</ele>
        <time>2013-01-07T13:33:36.30</time>
      </trkpt>
      <trkpt lat="37.20977" lon="-7.402271666666667">
        <ele>52.80000000000001</ele>
        <time>2013-01-07T13:33:37.33</time>
      </trkpt>
      <trkpt lat="37.20984166666667" lon="-7.4022733333333335">
        <ele>53.10000000000001</ele>
        <time>2013-01-07T13:33:38.34</time>
      </trkpt>
      <trkpt lat="37.20990666666667" lon="-7.402271666666667">
        <ele>53.30000000000001</ele>
        <time>2013-01-07T13:33:39.29</time>
      </trkpt>
      <trkpt lat="37.20997" lon="-7.402276666666666">
        <ele>53.70000000000001</ele>
        <time>2013-01-07T13:33:40.29</time>
      </trkpt>
      <trkpt lat="37.21005" lon="-7.402283333333333">
        <ele>53.60000000000001</ele>
        <time>2013-01-07T13:33:41.29</time>
      </trkpt>
      <trkpt lat="37.21011333333333" lon="-7.402283333333333">
        <ele>53.80000000000001</ele>
        <time>2013-01-07T13:33:42.29</time>
      </trkpt>
      <trkpt lat="37.21017833333333" lon="-7.4022733333333335">
        <ele>54.10000000000001</ele>
        <time>2013-01-07T13:33:43.29</time>
      </trkpt>
      <trkpt lat="37.210256666666666" lon="-7.4022733333333335">
        <ele>53.10000000000001</ele>
        <time>2013-01-07T13:33:44.29</time>
      </trkpt>
      <trkpt lat="37.21032666666667" lon="-7.4022733333333335">
        <ele>52.70000000000001</ele>
        <time>2013-01-07T13:33:45.30</time>
      </trkpt>
      <trkpt lat="37.21039" lon="-7.402265">
        <ele>52.50000000000001</ele>
        <time>2013-01-07T13:33:46.30</time>
      </trkpt>
      <trkpt lat="37.21046333333334" lon="-7.402265">
        <ele>52.50000000000001</ele>
        <time>2013-01-07T13:33:47.30</time>
      </trkpt>
      <trkpt lat="37.21053" lon="-7.4022483333333335">
        <ele>52.300000000000004</ele>
        <time>2013-01-07T13:33:48.29</time>
      </trkpt>
      <trkpt lat="37.210588333333334" lon="-7.402215">
        <ele>52.6</ele>
        <time>2013-01-07T13:33:49.30</time>
      </trkpt>
      <trkpt lat="37.210645" lon="-7.402188333333333">
        <ele>52.7</ele>
        <time>2013-01-07T13:33:50.30</time>
      </trkpt>
      <trkpt lat="37.210703333333335" lon="-7.4021566666666665">
        <ele>53</ele>
        <time>2013-01-07T13:33:51.30</time>
      </trkpt>
      <trkpt lat="37.210765" lon="-7.402138333333333">
        <ele>53.2</ele>
        <time>2013-01-07T13:33:52.30</time>
      </trkpt>
      <trkpt lat="37.210825" lon="-7.402116666666666">
        <ele>53.300000000000004</ele>
        <time>2013-01-07T13:33:53.33</time>
      </trkpt>
      <trkpt lat="37.21089166666667" lon="-7.40209">
        <ele>53.900000000000006</ele>
        <time>2013-01-07T13:33:54.33</time>
      </trkpt>
      <trkpt lat="37.21096" lon="-7.402066666666666">
        <ele>54.2</ele>
        <time>2013-01-07T13:33:55.29</time>
      </trkpt>
      <trkpt lat="37.211016666666666" lon="-7.402051666666667">
        <ele>54</ele>
        <time>2013-01-07T13:33:56.29</time>
      </trkpt>
      <trkpt lat="37.211081666666665" lon="-7.402028333333333">
        <ele>53.3</ele>
        <time>2013-01-07T13:33:57.29</time>
      </trkpt>
      <trkpt lat="37.211148333333334" lon="-7.402006666666667">
        <ele>53.099999999999994</ele>
        <time>2013-01-07T13:33:58.30</time>
      </trkpt>
      <trkpt lat="37.211216666666665" lon="-7.401985">
        <ele>53.39999999999999</ele>
        <time>2013-01-07T13:33:59.30</time>
      </trkpt>
      <trkpt lat="37.21127833333333" lon="-7.401951666666666">
        <ele>53.39999999999999</ele>
        <time>2013-01-07T13:34:00.30</time>
      </trkpt>
      <trkpt lat="37.211333333333336" lon="-7.401916666666667">
        <ele>53.29999999999999</ele>
        <time>2013-01-07T13:34:01.30</time>
      </trkpt>
      <trkpt lat="37.21140666666667" lon="-7.4018983333333335">
        <ele>53.39999999999999</ele>
        <time>2013-01-07T13:34:02.30</time>
      </trkpt>
      <trkpt lat="37.21148" lon="-7.401875">
        <ele>53.099999999999994</ele>
        <time>2013-01-07T13:34:03.30</time>
      </trkpt>
      <trkpt lat="37.211545" lon="-7.40186">
        <ele>53.39999999999999</ele>
        <time>2013-01-07T13:34:04.30</time>
      </trkpt>
      <trkpt lat="37.21161" lon="-7.401841666666667">
        <ele>53.29999999999999</ele>
        <time>2013-01-07T13:34:05.30</time>
      </trkpt>
      <trkpt lat="37.211675" lon="-7.401815">
        <ele>53.49999999999999</ele>
        <time>2013-01-07T13:34:06.30</time>
      </trkpt>
      <trkpt lat="37.211733333333335" lon="-7.401791666666667">
        <ele>53.599999999999994</ele>
        <time>2013-01-07T13:34:07.30</time>
      </trkpt>
      <trkpt lat="37.211796666666665" lon="-7.401751666666667">
        <ele>53.99999999999999</ele>
        <time>2013-01-07T13:34:08.30</time>
      </trkpt>
      <trkpt lat="37.21185" lon="-7.401736666666666">
        <ele>54.099999999999994</ele>
        <time>2013-01-07T13:34:09.33</time>
      </trkpt>
      <trkpt lat="37.21189666666667" lon="-7.401721666666667">
        <ele>54.199999999999996</ele>
        <time>2013-01-07T13:34:10.33</time>
      </trkpt>
      <trkpt lat="37.21195" lon="-7.40168">
        <ele>53.699999999999996</ele>
        <time>2013-01-07T13:34:11.32</time>
      </trkpt>
      <trkpt lat="37.212003333333335" lon="-7.40164">
        <ele>53.8</ele>
        <time>2013-01-07T13:34:12.31</time>
      </trkpt>
      <trkpt lat="37.21207" lon="-7.401613333333334">
        <ele>54.199999999999996</ele>
        <time>2013-01-07T13:34:13.30</time>
      </trkpt>
      <trkpt lat="37.21213" lon="-7.401658333333334">
        <ele>53.8</ele>
        <time>2013-01-07T13:34:14.30</time>
      </trkpt>
      <trkpt lat="37.21220666666667" lon="-7.401695">
        <ele>53.099999999999994</ele>
        <time>2013-01-07T13:34:15.30</time>
      </trkpt>
      <trkpt lat="37.212271666666666" lon="-7.401736666666666">
        <ele>52.199999999999996</ele>
        <time>2013-01-07T13:34:16.30</time>
      </trkpt>
      <trkpt lat="37.212318333333336" lon="-7.401801666666667">
        <ele>52.099999999999994</ele>
        <time>2013-01-07T13:34:17.30</time>
      </trkpt>
      <trkpt lat="37.21234" lon="-7.401888333333333">
        <ele>52.49999999999999</ele>
        <time>2013-01-07T13:34:18.31</time>
      </trkpt>
      <trkpt lat="37.21237166666667" lon="-7.401973333333333">
        <ele>53.29999999999999</ele>
        <time>2013-01-07T13:34:19.30</time>
      </trkpt>
      <trkpt lat="37.212395" lon="-7.40205">
        <ele>53.49999999999999</ele>
        <time>2013-01-07T13:34:20.30</time>
      </trkpt>
      <trkpt lat="37.212408333333336" lon="-7.402098333333333">
        <ele>53.39999999999999</ele>
        <time>2013-01-07T13:34:21.30</time>
      </trkpt>
      <trkpt lat="37.212446666666665" lon="-7.4021316666666666">
        <ele>53.29999999999999</ele>
        <time>2013-01-07T13:34:22.30</time>
      </trkpt>
      <trkpt lat="37.21249666666667" lon="-7.402136666666666">
        <ele>53.39999999999999</ele>
        <time>2013-01-07T13:34:23.30</time>
      </trkpt>
      <trkpt lat="37.212555" lon="-7.402128333333334">
        <ele>53.69999999999999</ele>
        <time>2013-01-07T13:34:24.30</time>
      </trkpt>
      <trkpt lat="37.212601666666664" lon="-7.402098333333333">
        <ele>54.29999999999999</ele>
        <time>2013-01-07T13:34:25.31</time>
      </trkpt>
      <trkpt lat="37.21264333333333" lon="-7.402075">
        <ele>54.69999999999999</ele>
        <time>2013-01-07T13:34:26.31</time>
      </trkpt>
      <trkpt lat="37.212715" lon="-7.402043333333333">
        <ele>54.89999999999999</ele>
        <time>2013-01-07T13:34:27.30</time>
      </trkpt>
      <trkpt lat="37.212781666666665" lon="-7.402021666666666">
        <ele>55.19999999999999</ele>
        <time>2013-01-07T13:34:28.30</time>
      </trkpt>
      <trkpt lat="37.21285" lon="-7.401985">
        <ele>55.59999999999999</ele>
        <time>2013-01-07T13:34:29.29</time>
      </trkpt>
      <trkpt lat="37.21291333333333" lon="-7.401966666666667">
        <ele>55.59999999999999</ele>
        <time>2013-01-07T13:34:30.30</time>
      </trkpt>
      <trkpt lat="37.212983333333334" lon="-7.4019433333333335">
        <ele>55.499999999999986</ele>
        <time>2013-01-07T13:34:31.27</time>
      </trkpt>
      <trkpt lat="37.213045" lon="-7.401888333333333">
        <ele>55.499999999999986</ele>
        <time>2013-01-07T13:34:32.30</time>
      </trkpt>
      <trkpt lat="37.21309" lon="-7.401865">
        <ele>55.79999999999998</ele>
        <time>2013-01-07T13:34:33.29</time>
      </trkpt>
      <trkpt lat="37.213143333333335" lon="-7.401838333333333">
        <ele>55.899999999999984</ele>
        <time>2013-01-07T13:34:34.30</time>
      </trkpt>
      <trkpt lat="37.213205" lon="-7.401825">
        <ele>55.899999999999984</ele>
        <time>2013-01-07T13:34:35.28</time>
      </trkpt>
      <trkpt lat="37.21326333333333" lon="-7.401821666666667">
        <ele>55.79999999999998</ele>
        <time>2013-01-07T13:34:36.28</time>
      </trkpt>
      <trkpt lat="37.213345" lon="-7.401788333333333">
        <ele>55.69999999999998</ele>
        <time>2013-01-07T13:34:37.30</time>
      </trkpt>
      <trkpt lat="37.21340333333333" lon="-7.40175">
        <ele>54.69999999999998</ele>
        <time>2013-01-07T13:34:38.29</time>
      </trkpt>
      <trkpt lat="37.21345" lon="-7.401716666666666">
        <ele>54.49999999999998</ele>
        <time>2013-01-07T13:34:39.27</time>
      </trkpt>
      <trkpt lat="37.213495" lon="-7.401678333333333">
        <ele>53.89999999999998</ele>
        <time>2013-01-07T13:34:40.28</time>
      </trkpt>
      <trkpt lat="37.213545" lon="-7.401643333333333">
        <ele>53.99999999999998</ele>
        <time>2013-01-07T13:34:41.30</time>
      </trkpt>
      <trkpt lat="37.213615" lon="-7.401621666666666">
        <ele>53.69999999999998</ele>
        <time>2013-01-07T13:34:42.30</time>
      </trkpt>
      <trkpt lat="37.213685" lon="-7.401578333333333">
        <ele>53.29999999999998</ele>
        <time>2013-01-07T13:34:43.28</time>
      </trkpt>
      <trkpt lat="37.21373833333333" lon="-7.401533333333333">
        <ele>54.09999999999998</ele>
        <time>2013-01-07T13:34:44.29</time>
      </trkpt>
      <trkpt lat="37.21378333333333" lon="-7.401491666666667">
        <ele>54.29999999999998</ele>
        <time>2013-01-07T13:34:45.30</time>
      </trkpt>
      <trkpt lat="37.21381" lon="-7.401455">
        <ele>53.999999999999986</ele>
        <time>2013-01-07T13:34:46.30</time>
      </trkpt>
      <trkpt lat="37.21383333333333" lon="-7.401403333333334">
        <ele>54.399999999999984</ele>
        <time>2013-01-07T13:34:47.30</time>
      </trkpt>
      <trkpt lat="37.21383333333333" lon="-7.4013366666666665">
        <ele>54.59999999999999</ele>
        <time>2013-01-07T13:34:48.30</time>
      </trkpt>
      <trkpt lat="37.213845" lon="-7.401273333333333">
        <ele>55.499999999999986</ele>
        <time>2013-01-07T13:34:49.30</time>
      </trkpt>
      <trkpt lat="37.21385" lon="-7.401213333333334">
        <ele>55.79999999999998</ele>
        <time>2013-01-07T13:34:50.30</time>
      </trkpt>
      <trkpt lat="37.213861666666666" lon="-7.401155">
        <ele>55.899999999999984</ele>
        <time>2013-01-07T13:34:51.29</time>
      </trkpt>
      <trkpt lat="37.21386833333333" lon="-7.401083333333333">
        <ele>55.79999999999998</ele>
        <time>2013-01-07T13:34:52.30</time>
      </trkpt>
      <trkpt lat="37.21389166666667" lon="-7.401001666666667">
        <ele>56.19999999999998</ele>
        <time>2013-01-07T13:34:53.30</time>
      </trkpt>
      <trkpt lat="37.21392" lon="-7.400925">
        <ele>56.29999999999998</ele>
        <time>2013-01-07T13:34:54.30</time>
      </trkpt>
      <trkpt lat="37.213946666666665" lon="-7.400851666666667">
        <ele>56.29999999999998</ele>
        <time>2013-01-07T13:34:55.30</time>
      </trkpt>
      <trkpt lat="37.21397833333333" lon="-7.400786666666667">
        <ele>56.79999999999998</ele>
        <time>2013-01-07T13:34:56.31</time>
      </trkpt>
      <trkpt lat="37.214013333333334" lon="-7.400716666666667">
        <ele>57.399999999999984</ele>
        <time>2013-01-07T13:34:57.31</time>
      </trkpt>
      <trkpt lat="37.214058333333334" lon="-7.400623333333334">
        <ele>56.69999999999998</ele>
        <time>2013-01-07T13:34:58.31</time>
      </trkpt>
      <trkpt lat="37.21409666666667" lon="-7.400523333333333">
        <ele>56.99999999999998</ele>
        <time>2013-01-07T13:34:59.31</time>
      </trkpt>
      <trkpt lat="37.21413833333333" lon="-7.400446666666666">
        <ele>56.39999999999998</ele>
        <time>2013-01-07T13:35:00.31</time>
      </trkpt>
      <trkpt lat="37.21417" lon="-7.400365">
        <ele>55.699999999999974</ele>
        <time>2013-01-07T13:35:01.31</time>
      </trkpt>
      <trkpt lat="37.214193333333334" lon="-7.400281666666666">
        <ele>55.799999999999976</ele>
        <time>2013-01-07T13:35:02.31</time>
      </trkpt>
      <trkpt lat="37.21420833333333" lon="-7.40021">
        <ele>56.199999999999974</ele>
        <time>2013-01-07T13:35:03.31</time>
      </trkpt>
      <trkpt lat="37.21422666666667" lon="-7.400131666666667">
        <ele>56.59999999999997</ele>
        <time>2013-01-07T13:35:04.31</time>
      </trkpt>
      <trkpt lat="37.21423166666667" lon="-7.40006">
        <ele>56.799999999999976</ele>
        <time>2013-01-07T13:35:05.31</time>
      </trkpt>
      <trkpt lat="37.214236666666665" lon="-7.39998">
        <ele>57.39999999999998</ele>
        <time>2013-01-07T13:35:06.31</time>
      </trkpt>
      <trkpt lat="37.21423333333333" lon="-7.39991">
        <ele>57.09999999999998</ele>
        <time>2013-01-07T13:35:07.32</time>
      </trkpt>
      <trkpt lat="37.214235" lon="-7.399803333333334">
        <ele>55.69999999999998</ele>
        <time>2013-01-07T13:35:08.30</time>
      </trkpt>
      <trkpt lat="37.214236666666665" lon="-7.399703333333333">
        <ele>56.49999999999998</ele>
        <time>2013-01-07T13:35:09.31</time>
      </trkpt>
      <trkpt lat="37.21424" lon="-7.399608333333333">
        <ele>56.799999999999976</ele>
        <time>2013-01-07T13:35:10.31</time>
      </trkpt>
      <trkpt lat="37.21425166666667" lon="-7.399518333333333">
        <ele>57.299999999999976</ele>
        <time>2013-01-07T13:35:11.31</time>
      </trkpt>
      <trkpt lat="37.214255" lon="-7.3994333333333335">
        <ele>57.59999999999997</ele>
        <time>2013-01-07T13:35:12.31</time>
      </trkpt>
      <trkpt lat="37.214255" lon="-7.39935">
        <ele>57.799999999999976</ele>
        <time>2013-01-07T13:35:13.31</time>
      </trkpt>
      <trkpt lat="37.21425333333333" lon="-7.399275">
        <ele>57.799999999999976</ele>
        <time>2013-01-07T13:35:14.31</time>
      </trkpt>
      <trkpt lat="37.21425166666667" lon="-7.3992">
        <ele>57.99999999999998</ele>
        <time>2013-01-07T13:35:15.30</time>
      </trkpt>
      <trkpt lat="37.21425333333333" lon="-7.399123333333334">
        <ele>58.09999999999998</ele>
        <time>2013-01-07T13:35:16.30</time>
      </trkpt>
      <trkpt lat="37.214263333333335" lon="-7.39905">
        <ele>58.29999999999998</ele>
        <time>2013-01-07T13:35:17.30</time>
      </trkpt>
      <trkpt lat="37.21427666666666" lon="-7.3989666666666665">
        <ele>58.59999999999998</ele>
        <time>2013-01-07T13:35:18.30</time>
      </trkpt>
      <trkpt lat="37.214285" lon="-7.398888333333334">
        <ele>58.79999999999998</ele>
        <time>2013-01-07T13:35:19.30</time>
      </trkpt>
      <trkpt lat="37.21429666666667" lon="-7.39881">
        <ele>58.69999999999998</ele>
        <time>2013-01-07T13:35:20.30</time>
      </trkpt>
      <trkpt lat="37.21431166666667" lon="-7.398726666666667">
        <ele>58.399999999999984</ele>
        <time>2013-01-07T13:35:21.30</time>
      </trkpt>
      <trkpt lat="37.21432" lon="-7.398651666666667">
        <ele>58.19999999999998</ele>
        <time>2013-01-07T13:35:22.30</time>
      </trkpt>
      <trkpt lat="37.21433833333333" lon="-7.398565">
        <ele>56.99999999999998</ele>
        <time>2013-01-07T13:35:23.30</time>
      </trkpt>
      <trkpt lat="37.21434333333333" lon="-7.398486666666667">
        <ele>57.19999999999998</ele>
        <time>2013-01-07T13:35:24.30</time>
      </trkpt>
      <trkpt lat="37.214365" lon="-7.39841">
        <ele>57.59999999999998</ele>
        <time>2013-01-07T13:35:25.30</time>
      </trkpt>
      <trkpt lat="37.214385" lon="-7.398335">
        <ele>56.89999999999998</ele>
        <time>2013-01-07T13:35:26.30</time>
      </trkpt>
      <trkpt lat="37.21441" lon="-7.398265">
        <ele>57.09999999999998</ele>
        <time>2013-01-07T13:35:27.30</time>
      </trkpt>
      <trkpt lat="37.21444" lon="-7.398205">
        <ele>57.39999999999998</ele>
        <time>2013-01-07T13:35:28.30</time>
      </trkpt>
      <trkpt lat="37.21446666666667" lon="-7.398133333333333">
        <ele>57.199999999999974</ele>
        <time>2013-01-07T13:35:29.38</time>
      </trkpt>
      <trkpt lat="37.21449333333333" lon="-7.39807">
        <ele>56.89999999999998</ele>
        <time>2013-01-07T13:35:30.34</time>
      </trkpt>
      <trkpt lat="37.21451833333333" lon="-7.398005">
        <ele>56.89999999999998</ele>
        <time>2013-01-07T13:35:31.30</time>
      </trkpt>
      <trkpt lat="37.21454333333333" lon="-7.397928333333334">
        <ele>57.09999999999998</ele>
        <time>2013-01-07T13:35:32.30</time>
      </trkpt>
      <trkpt lat="37.214571666666664" lon="-7.397853333333333">
        <ele>56.29999999999998</ele>
        <time>2013-01-07T13:35:33.30</time>
      </trkpt>
      <trkpt lat="37.2146" lon="-7.397778333333333">
        <ele>55.899999999999984</ele>
        <time>2013-01-07T13:35:34.31</time>
      </trkpt>
      <trkpt lat="37.21463" lon="-7.397711666666667">
        <ele>55.59999999999999</ele>
        <time>2013-01-07T13:35:35.30</time>
      </trkpt>
      <trkpt lat="37.21465333333333" lon="-7.397643333333333">
        <ele>55.899999999999984</ele>
        <time>2013-01-07T13:35:36.30</time>
      </trkpt>
      <trkpt lat="37.21467666666667" lon="-7.39757">
        <ele>55.999999999999986</ele>
        <time>2013-01-07T13:35:37.30</time>
      </trkpt>
      <trkpt lat="37.214695" lon="-7.3975">
        <ele>56.59999999999999</ele>
        <time>2013-01-07T13:35:38.30</time>
      </trkpt>
      <trkpt lat="37.21472166666667" lon="-7.397438333333334">
        <ele>56.79999999999999</ele>
        <time>2013-01-07T13:35:39.30</time>
      </trkpt>
      <trkpt lat="37.214745" lon="-7.397366666666667">
        <ele>56.29999999999999</ele>
        <time>2013-01-07T13:35:40.30</time>
      </trkpt>
      <trkpt lat="37.214771666666664" lon="-7.3973">
        <ele>55.99999999999999</ele>
        <time>2013-01-07T13:35:41.31</time>
      </trkpt>
      <trkpt lat="37.214795" lon="-7.397226666666667">
        <ele>56.599999999999994</ele>
        <time>2013-01-07T13:35:42.27</time>
      </trkpt>
      <trkpt lat="37.21482" lon="-7.397155">
        <ele>56.39999999999999</ele>
        <time>2013-01-07T13:35:43.30</time>
      </trkpt>
      <trkpt lat="37.214845" lon="-7.39708">
        <ele>56.49999999999999</ele>
        <time>2013-01-07T13:35:44.30</time>
      </trkpt>
      <trkpt lat="37.21487166666667" lon="-7.397013333333334">
        <ele>56.699999999999996</ele>
        <time>2013-01-07T13:35:45.33</time>
      </trkpt>
      <trkpt lat="37.21489833333333" lon="-7.39695">
        <ele>57.3</ele>
        <time>2013-01-07T13:35:46.33</time>
      </trkpt>
      <trkpt lat="37.21492833333333" lon="-7.39689">
        <ele>57.4</ele>
        <time>2013-01-07T13:35:47.30</time>
      </trkpt>
      <trkpt lat="37.21495" lon="-7.396826666666667">
        <ele>58.5</ele>
        <time>2013-01-07T13:35:48.30</time>
      </trkpt>
      <trkpt lat="37.21496666666667" lon="-7.396773333333333">
        <ele>59</ele>
        <time>2013-01-07T13:35:49.30</time>
      </trkpt>
      <trkpt lat="37.21498666666667" lon="-7.396711666666667">
        <ele>58.9</ele>
        <time>2013-01-07T13:35:50.30</time>
      </trkpt>
      <trkpt lat="37.21501333333333" lon="-7.396648333333333">
        <ele>59.1</ele>
        <time>2013-01-07T13:35:51.30</time>
      </trkpt>
      <trkpt lat="37.21503833333333" lon="-7.396585">
        <ele>59.5</ele>
        <time>2013-01-07T13:35:52.30</time>
      </trkpt>
      <trkpt lat="37.21506333333333" lon="-7.396523333333334">
        <ele>59.7</ele>
        <time>2013-01-07T13:35:53.30</time>
      </trkpt>
      <trkpt lat="37.21509666666667" lon="-7.396458333333333">
        <ele>59.6</ele>
        <time>2013-01-07T13:35:54.31</time>
      </trkpt>
      <trkpt lat="37.215118333333336" lon="-7.39639">
        <ele>59.9</ele>
        <time>2013-01-07T13:35:55.30</time>
      </trkpt>
      <trkpt lat="37.21515333333333" lon="-7.396305">
        <ele>60.5</ele>
        <time>2013-01-07T13:35:56.30</time>
      </trkpt>
      <trkpt lat="37.21518" lon="-7.396238333333334">
        <ele>60.5</ele>
        <time>2013-01-07T13:35:57.30</time>
      </trkpt>
      <trkpt lat="37.215203333333335" lon="-7.39617">
        <ele>60.3</ele>
        <time>2013-01-07T13:35:58.30</time>
      </trkpt>
      <trkpt lat="37.21523" lon="-7.396098333333334">
        <ele>60.5</ele>
        <time>2013-01-07T13:35:59.30</time>
      </trkpt>
      <trkpt lat="37.21525666666667" lon="-7.396013333333333">
        <ele>60.7</ele>
        <time>2013-01-07T13:36:00.30</time>
      </trkpt>
      <trkpt lat="37.215285" lon="-7.395951666666667">
        <ele>60.300000000000004</ele>
        <time>2013-01-07T13:36:01.34</time>
      </trkpt>
      <trkpt lat="37.21530166666667" lon="-7.395875">
        <ele>59.1</ele>
        <time>2013-01-07T13:36:02.37</time>
      </trkpt>
      <trkpt lat="37.21532333333333" lon="-7.395806666666667">
        <ele>58.800000000000004</ele>
        <time>2013-01-07T13:36:03.30</time>
      </trkpt>
      <trkpt lat="37.215345" lon="-7.395738333333333">
        <ele>58.300000000000004</ele>
        <time>2013-01-07T13:36:04.30</time>
      </trkpt>
      <trkpt lat="37.215375" lon="-7.395665">
        <ele>58.6</ele>
        <time>2013-01-07T13:36:05.30</time>
      </trkpt>
      <trkpt lat="37.215403333333335" lon="-7.395596666666667">
        <ele>58.4</ele>
        <time>2013-01-07T13:36:06.32</time>
      </trkpt>
      <trkpt lat="37.21543166666667" lon="-7.3955383333333335">
        <ele>58.5</ele>
        <time>2013-01-07T13:36:07.29</time>
      </trkpt>
      <trkpt lat="37.215448333333335" lon="-7.395483333333333">
        <ele>59</ele>
        <time>2013-01-07T13:36:08.30</time>
      </trkpt>
      <trkpt lat="37.21545666666667" lon="-7.395435">
        <ele>59.1</ele>
        <time>2013-01-07T13:36:09.30</time>
      </trkpt>
      <trkpt lat="37.21548" lon="-7.39537">
        <ele>59.800000000000004</ele>
        <time>2013-01-07T13:36:10.30</time>
      </trkpt>
      <trkpt lat="37.21550833333333" lon="-7.395313333333333">
        <ele>59.900000000000006</ele>
        <time>2013-01-07T13:36:11.30</time>
      </trkpt>
      <trkpt lat="37.215536666666665" lon="-7.395246666666667">
        <ele>59.50000000000001</ele>
        <time>2013-01-07T13:36:12.30</time>
      </trkpt>
      <trkpt lat="37.215561666666666" lon="-7.395176666666667">
        <ele>59.400000000000006</ele>
        <time>2013-01-07T13:36:13.31</time>
      </trkpt>
      <trkpt lat="37.21559166666667" lon="-7.39511">
        <ele>59.50000000000001</ele>
        <time>2013-01-07T13:36:14.30</time>
      </trkpt>
      <trkpt lat="37.215621666666664" lon="-7.395043333333334">
        <ele>59.70000000000001</ele>
        <time>2013-01-07T13:36:15.30</time>
      </trkpt>
      <trkpt lat="37.21565" lon="-7.3949766666666665">
        <ele>58.90000000000001</ele>
        <time>2013-01-07T13:36:16.37</time>
      </trkpt>
      <trkpt lat="37.21567666666667" lon="-7.3949066666666665">
        <ele>59.100000000000016</ele>
        <time>2013-01-07T13:36:17.30</time>
      </trkpt>
      <trkpt lat="37.21570333333333" lon="-7.394833333333334">
        <ele>59.500000000000014</ele>
        <time>2013-01-07T13:36:18.30</time>
      </trkpt>
      <trkpt lat="37.215736666666665" lon="-7.39476">
        <ele>59.40000000000001</ele>
        <time>2013-01-07T13:36:19.30</time>
      </trkpt>
      <trkpt lat="37.21575333333333" lon="-7.394686666666667">
        <ele>58.80000000000001</ele>
        <time>2013-01-07T13:36:20.30</time>
      </trkpt>
      <trkpt lat="37.215786666666666" lon="-7.39461">
        <ele>58.20000000000001</ele>
        <time>2013-01-07T13:36:21.31</time>
      </trkpt>
      <trkpt lat="37.21581333333334" lon="-7.394521666666667">
        <ele>58.00000000000001</ele>
        <time>2013-01-07T13:36:22.30</time>
      </trkpt>
      <trkpt lat="37.215848333333334" lon="-7.394446666666667">
        <ele>57.60000000000001</ele>
        <time>2013-01-07T13:36:23.30</time>
      </trkpt>
      <trkpt lat="37.21588" lon="-7.394386666666667">
        <ele>58.10000000000001</ele>
        <time>2013-01-07T13:36:24.31</time>
      </trkpt>
      <trkpt lat="37.21591333333333" lon="-7.3943183333333335">
        <ele>57.900000000000006</ele>
        <time>2013-01-07T13:36:25.30</time>
      </trkpt>
      <trkpt lat="37.215941666666666" lon="-7.39426">
        <ele>57.60000000000001</ele>
        <time>2013-01-07T13:36:26.30</time>
      </trkpt>
      <trkpt lat="37.215968333333336" lon="-7.394198333333334">
        <ele>57.60000000000001</ele>
        <time>2013-01-07T13:36:27.30</time>
      </trkpt>
      <trkpt lat="37.21601833333333" lon="-7.394138333333333">
        <ele>57.400000000000006</ele>
        <time>2013-01-07T13:36:28.30</time>
      </trkpt>
      <trkpt lat="37.21605666666667" lon="-7.394073333333333">
        <ele>57.50000000000001</ele>
        <time>2013-01-07T13:36:29.30</time>
      </trkpt>
      <trkpt lat="37.216096666666665" lon="-7.394011666666667">
        <ele>57.20000000000001</ele>
        <time>2013-01-07T13:36:30.30</time>
      </trkpt>
      <trkpt lat="37.21614833333334" lon="-7.3939916666666665">
        <ele>57.30000000000001</ele>
        <time>2013-01-07T13:36:31.30</time>
      </trkpt>
      <trkpt lat="37.216195" lon="-7.3939683333333335">
        <ele>57.40000000000001</ele>
        <time>2013-01-07T13:36:32.30</time>
      </trkpt>
      <trkpt lat="37.21625" lon="-7.3939916666666665">
        <ele>57.100000000000016</ele>
        <time>2013-01-07T13:36:33.34</time>
      </trkpt>
      <trkpt lat="37.21628833333333" lon="-7.39406">
        <ele>58.000000000000014</ele>
        <time>2013-01-07T13:36:34.33</time>
      </trkpt>
      <trkpt lat="37.216335" lon="-7.394105">
        <ele>59.100000000000016</ele>
        <time>2013-01-07T13:36:35.30</time>
      </trkpt>
      <trkpt lat="37.21637666666667" lon="-7.394146666666667">
        <ele>59.30000000000002</ele>
        <time>2013-01-07T13:36:36.30</time>
      </trkpt>
      <trkpt lat="37.216433333333335" lon="-7.3941783333333335">
        <ele>59.40000000000002</ele>
        <time>2013-01-07T13:36:37.30</time>
      </trkpt>
      <trkpt lat="37.216485" lon="-7.394211666666667">
        <ele>59.70000000000002</ele>
        <time>2013-01-07T13:36:38.31</time>
      </trkpt>
      <trkpt lat="37.21653666666667" lon="-7.394215">
        <ele>60.100000000000016</ele>
        <time>2013-01-07T13:36:39.30</time>
      </trkpt>
      <trkpt lat="37.21658166666667" lon="-7.394228333333333">
        <ele>59.40000000000001</ele>
        <time>2013-01-07T13:36:40.30</time>
      </trkpt>
      <trkpt lat="37.216635" lon="-7.394243333333334">
        <ele>59.600000000000016</ele>
        <time>2013-01-07T13:36:41.29</time>
      </trkpt>
      <trkpt lat="37.216703333333335" lon="-7.394265">
        <ele>59.90000000000001</ele>
        <time>2013-01-07T13:36:42.30</time>
      </trkpt>
      <trkpt lat="37.216771666666666" lon="-7.394276666666666">
        <ele>59.500000000000014</ele>
        <time>2013-01-07T13:36:43.31</time>
      </trkpt>
      <trkpt lat="37.21682166666667" lon="-7.39433">
        <ele>59.40000000000001</ele>
        <time>2013-01-07T13:36:44.31</time>
      </trkpt>
      <trkpt lat="37.21687333333333" lon="-7.39435">
        <ele>59.30000000000001</ele>
        <time>2013-01-07T13:36:45.31</time>
      </trkpt>
      <trkpt lat="37.216926666666666" lon="-7.394373333333333">
        <ele>58.80000000000001</ele>
        <time>2013-01-07T13:36:46.31</time>
      </trkpt>
      <trkpt lat="37.21698" lon="-7.394393333333333">
        <ele>59.60000000000001</ele>
        <time>2013-01-07T13:36:47.31</time>
      </trkpt>
      <trkpt lat="37.217038333333335" lon="-7.394423333333333">
        <ele>60.00000000000001</ele>
        <time>2013-01-07T13:36:48.31</time>
      </trkpt>
      <trkpt lat="37.217083333333335" lon="-7.39445">
        <ele>60.300000000000004</ele>
        <time>2013-01-07T13:36:49.31</time>
      </trkpt>
      <trkpt lat="37.217126666666665" lon="-7.394475">
        <ele>60.400000000000006</ele>
        <time>2013-01-07T13:36:50.31</time>
      </trkpt>
      <trkpt lat="37.21718833333333" lon="-7.394493333333333">
        <ele>61.50000000000001</ele>
        <time>2013-01-07T13:36:51.31</time>
      </trkpt>
      <trkpt lat="37.217243333333336" lon="-7.394515">
        <ele>61.00000000000001</ele>
        <time>2013-01-07T13:36:52.31</time>
      </trkpt>
      <trkpt lat="37.21729666666667" lon="-7.394533333333333">
        <ele>61.00000000000001</ele>
        <time>2013-01-07T13:36:53.31</time>
      </trkpt>
      <trkpt lat="37.21734333333333" lon="-7.394555">
        <ele>61.70000000000001</ele>
        <time>2013-01-07T13:36:54.31</time>
      </trkpt>
      <trkpt lat="37.21738833333333" lon="-7.394566666666667">
        <ele>62.20000000000001</ele>
        <time>2013-01-07T13:36:55.31</time>
      </trkpt>
      <trkpt lat="37.217438333333334" lon="-7.394576666666667">
        <ele>62.40000000000001</ele>
        <time>2013-01-07T13:36:56.31</time>
      </trkpt>
      <trkpt lat="37.217481666666664" lon="-7.394595">
        <ele>62.600000000000016</ele>
        <time>2013-01-07T13:36:57.30</time>
      </trkpt>
      <trkpt lat="37.21753" lon="-7.394605">
        <ele>62.600000000000016</ele>
        <time>2013-01-07T13:36:58.30</time>
      </trkpt>
      <trkpt lat="37.21758166666667" lon="-7.394625">
        <ele>62.80000000000002</ele>
        <time>2013-01-07T13:36:59.31</time>
      </trkpt>
      <trkpt lat="37.21764" lon="-7.394638333333333">
        <ele>62.80000000000002</ele>
        <time>2013-01-07T13:37:00.31</time>
      </trkpt>
      <trkpt lat="37.217688333333335" lon="-7.394645">
        <ele>62.40000000000002</ele>
        <time>2013-01-07T13:37:01.31</time>
      </trkpt>
      <trkpt lat="37.21774166666667" lon="-7.394656666666667">
        <ele>63.10000000000002</ele>
        <time>2013-01-07T13:37:02.32</time>
      </trkpt>
      <trkpt lat="37.21778166666667" lon="-7.394678333333333">
        <ele>63.60000000000002</ele>
        <time>2013-01-07T13:37:03.31</time>
      </trkpt>
      <trkpt lat="37.217818333333334" lon="-7.394701666666666">
        <ele>63.800000000000026</ele>
        <time>2013-01-07T13:37:04.31</time>
      </trkpt>
      <trkpt lat="37.21786" lon="-7.39472">
        <ele>63.90000000000003</ele>
        <time>2013-01-07T13:37:05.31</time>
      </trkpt>
      <trkpt lat="37.2179" lon="-7.394735">
        <ele>64.20000000000003</ele>
        <time>2013-01-07T13:37:06.31</time>
      </trkpt>
      <trkpt lat="37.21794166666667" lon="-7.394751666666667">
        <ele>64.70000000000003</ele>
        <time>2013-01-07T13:37:07.31</time>
      </trkpt>
      <trkpt lat="37.21798666666667" lon="-7.394775">
        <ele>65.20000000000003</ele>
        <time>2013-01-07T13:37:08.31</time>
      </trkpt>
      <trkpt lat="37.21803666666667" lon="-7.394803333333333">
        <ele>65.10000000000004</ele>
        <time>2013-01-07T13:37:09.30</time>
      </trkpt>
      <trkpt lat="37.21807833333333" lon="-7.394826666666667">
        <ele>66.10000000000004</ele>
        <time>2013-01-07T13:37:10.34</time>
      </trkpt>
      <trkpt lat="37.218125" lon="-7.394848333333333">
        <ele>66.00000000000004</ele>
        <time>2013-01-07T13:37:11.31</time>
      </trkpt>
      <trkpt lat="37.21817" lon="-7.394863333333333">
        <ele>65.20000000000005</ele>
        <time>2013-01-07T13:37:12.31</time>
      </trkpt>
      <trkpt lat="37.21821166666667" lon="-7.394878333333334">
        <ele>65.80000000000004</ele>
        <time>2013-01-07T13:37:13.32</time>
      </trkpt>
      <trkpt lat="37.218246666666666" lon="-7.394891666666667">
        <ele>65.90000000000003</ele>
        <time>2013-01-07T13:37:14.31</time>
      </trkpt>
      <trkpt lat="37.218285" lon="-7.394905">
        <ele>66.10000000000004</ele>
        <time>2013-01-07T13:37:15.31</time>
      </trkpt>
      <trkpt lat="37.218325" lon="-7.394915">
        <ele>66.10000000000004</ele>
        <time>2013-01-07T13:37:16.31</time>
      </trkpt>
      <trkpt lat="37.21835166666666" lon="-7.394926666666667">
        <ele>66.60000000000004</ele>
        <time>2013-01-07T13:37:17.31</time>
      </trkpt>
      <trkpt lat="37.21839" lon="-7.39494">
        <ele>66.00000000000004</ele>
        <time>2013-01-07T13:37:18.33</time>
      </trkpt>
      <trkpt lat="37.218425" lon="-7.394955">
        <ele>65.90000000000005</ele>
        <time>2013-01-07T13:37:19.31</time>
      </trkpt>
      <trkpt lat="37.21846166666667" lon="-7.394966666666667">
        <ele>65.90000000000005</ele>
        <time>2013-01-07T13:37:20.31</time>
      </trkpt>
      <trkpt lat="37.21850166666667" lon="-7.394995">
        <ele>65.80000000000005</ele>
        <time>2013-01-07T13:37:21.31</time>
      </trkpt>
      <trkpt lat="37.218536666666665" lon="-7.395028333333333">
        <ele>66.10000000000005</ele>
        <time>2013-01-07T13:37:22.31</time>
      </trkpt>
      <trkpt lat="37.218576666666664" lon="-7.395058333333333">
        <ele>66.40000000000005</ele>
        <time>2013-01-07T13:37:23.31</time>
      </trkpt>
      <trkpt lat="37.21861166666667" lon="-7.395088333333334">
        <ele>66.50000000000004</ele>
        <time>2013-01-07T13:37:24.31</time>
      </trkpt>
      <trkpt lat="37.218646666666665" lon="-7.395115">
        <ele>66.80000000000004</ele>
        <time>2013-01-07T13:37:25.31</time>
      </trkpt>
      <trkpt lat="37.21868666666666" lon="-7.395138333333334">
        <ele>66.50000000000004</ele>
        <time>2013-01-07T13:37:26.31</time>
      </trkpt>
      <trkpt lat="37.218725" lon="-7.395175">
        <ele>65.90000000000005</ele>
        <time>2013-01-07T13:37:27.31</time>
      </trkpt>
      <trkpt lat="37.218743333333336" lon="-7.395201666666667">
        <ele>66.30000000000005</ele>
        <time>2013-01-07T13:37:28.31</time>
      </trkpt>
      <trkpt lat="37.218783333333334" lon="-7.395228333333334">
        <ele>66.70000000000006</ele>
        <time>2013-01-07T13:37:29.31</time>
      </trkpt>
      <trkpt lat="37.21881" lon="-7.395266666666667">
        <ele>66.90000000000006</ele>
        <time>2013-01-07T13:37:30.31</time>
      </trkpt>
      <trkpt lat="37.21884" lon="-7.3953">
        <ele>67.10000000000007</ele>
        <time>2013-01-07T13:37:31.31</time>
      </trkpt>
      <trkpt lat="37.21886" lon="-7.395323333333334">
        <ele>67.50000000000007</ele>
        <time>2013-01-07T13:37:32.31</time>
      </trkpt>
      <trkpt lat="37.21888166666667" lon="-7.395355">
        <ele>67.90000000000008</ele>
        <time>2013-01-07T13:37:33.31</time>
      </trkpt>
      <trkpt lat="37.2189" lon="-7.395381666666666">
        <ele>68.50000000000007</ele>
        <time>2013-01-07T13:37:34.31</time>
      </trkpt>
      <trkpt lat="37.21891333333333" lon="-7.395405">
        <ele>69.40000000000008</ele>
        <time>2013-01-07T13:37:35.32</time>
      </trkpt>
      <trkpt lat="37.21893" lon="-7.395438333333333">
        <ele>70.60000000000008</ele>
        <time>2013-01-07T13:37:36.31</time>
      </trkpt>
      <trkpt lat="37.21894833333333" lon="-7.3954683333333335">
        <ele>70.60000000000008</ele>
        <time>2013-01-07T13:37:37.33</time>
      </trkpt>
      <trkpt lat="37.21897166666667" lon="-7.395488333333334">
        <ele>71.10000000000008</ele>
        <time>2013-01-07T13:37:38.31</time>
      </trkpt>
      <trkpt lat="37.21899333333333" lon="-7.395506666666667">
        <ele>71.30000000000008</ele>
        <time>2013-01-07T13:37:39.30</time>
      </trkpt>
      <trkpt lat="37.21901666666667" lon="-7.395528333333333">
        <ele>71.20000000000009</ele>
        <time>2013-01-07T13:37:40.31</time>
      </trkpt>
      <trkpt lat="37.21903666666667" lon="-7.395546666666666">
        <ele>71.00000000000009</ele>
        <time>2013-01-07T13:37:41.31</time>
      </trkpt>
      <trkpt lat="37.21905" lon="-7.395581666666667">
        <ele>70.80000000000008</ele>
        <time>2013-01-07T13:37:42.31</time>
      </trkpt>
      <trkpt lat="37.21906166666667" lon="-7.3956116666666665">
        <ele>70.70000000000009</ele>
        <time>2013-01-07T13:37:43.33</time>
      </trkpt>
      <trkpt lat="37.219065" lon="-7.395651666666667">
        <ele>70.80000000000008</ele>
        <time>2013-01-07T13:37:44.32</time>
      </trkpt>
      <trkpt lat="37.21906833333333" lon="-7.39569">
        <ele>71.30000000000008</ele>
        <time>2013-01-07T13:37:45.31</time>
      </trkpt>
      <trkpt lat="37.21906" lon="-7.395745">
        <ele>70.60000000000008</ele>
        <time>2013-01-07T13:37:46.32</time>
      </trkpt>
      <trkpt lat="37.21905833333334" lon="-7.395791666666667">
        <ele>70.00000000000009</ele>
        <time>2013-01-07T13:37:47.31</time>
      </trkpt>
      <trkpt lat="37.21905666666667" lon="-7.39584">
        <ele>69.60000000000008</ele>
        <time>2013-01-07T13:37:48.31</time>
      </trkpt>
      <trkpt lat="37.21905833333334" lon="-7.395888333333334">
        <ele>69.40000000000008</ele>
        <time>2013-01-07T13:37:49.31</time>
      </trkpt>
      <trkpt lat="37.21907" lon="-7.3959166666666665">
        <ele>69.50000000000007</ele>
        <time>2013-01-07T13:37:50.31</time>
      </trkpt>
      <trkpt lat="37.21909333333333" lon="-7.395965">
        <ele>70.10000000000007</ele>
        <time>2013-01-07T13:37:51.31</time>
      </trkpt>
      <trkpt lat="37.21911" lon="-7.396003333333334">
        <ele>70.60000000000007</ele>
        <time>2013-01-07T13:37:52.31</time>
      </trkpt>
      <trkpt lat="37.219125" lon="-7.396036666666666">
        <ele>71.00000000000007</ele>
        <time>2013-01-07T13:37:53.31</time>
      </trkpt>
      <trkpt lat="37.21912833333333" lon="-7.396065">
        <ele>72.00000000000007</ele>
        <time>2013-01-07T13:37:54.31</time>
      </trkpt>
      <trkpt lat="37.219136666666664" lon="-7.396095">
        <ele>73.00000000000007</ele>
        <time>2013-01-07T13:37:55.31</time>
      </trkpt>
      <trkpt lat="37.21914833333334" lon="-7.396138333333333">
        <ele>72.60000000000007</ele>
        <time>2013-01-07T13:37:56.31</time>
      </trkpt>
      <trkpt lat="37.21916" lon="-7.39618">
        <ele>72.90000000000006</ele>
        <time>2013-01-07T13:37:57.31</time>
      </trkpt>
      <trkpt lat="37.21917166666667" lon="-7.396218333333334">
        <ele>73.30000000000007</ele>
        <time>2013-01-07T13:37:58.31</time>
      </trkpt>
      <trkpt lat="37.219181666666664" lon="-7.396255">
        <ele>73.60000000000007</ele>
        <time>2013-01-07T13:37:59.31</time>
      </trkpt>
      <trkpt lat="37.219186666666666" lon="-7.396296666666666">
        <ele>73.50000000000007</ele>
        <time>2013-01-07T13:38:00.31</time>
      </trkpt>
      <trkpt lat="37.21919833333333" lon="-7.396335">
        <ele>73.50000000000007</ele>
        <time>2013-01-07T13:38:01.31</time>
      </trkpt>
      <trkpt lat="37.219211666666666" lon="-7.396371666666667">
        <ele>73.30000000000007</ele>
        <time>2013-01-07T13:38:02.32</time>
      </trkpt>
      <trkpt lat="37.21922333333333" lon="-7.396413333333333">
        <ele>73.40000000000006</ele>
        <time>2013-01-07T13:38:03.31</time>
      </trkpt>
      <trkpt lat="37.219226666666664" lon="-7.39644">
        <ele>73.80000000000007</ele>
        <time>2013-01-07T13:38:04.31</time>
      </trkpt>
      <trkpt lat="37.219233333333335" lon="-7.39648">
        <ele>74.00000000000007</ele>
        <time>2013-01-07T13:38:05.31</time>
      </trkpt>
      <trkpt lat="37.21924666666666" lon="-7.396516666666667">
        <ele>74.00000000000007</ele>
        <time>2013-01-07T13:38:06.31</time>
      </trkpt>
      <trkpt lat="37.21926" lon="-7.396556666666666">
        <ele>73.90000000000008</ele>
        <time>2013-01-07T13:38:07.31</time>
      </trkpt>
      <trkpt lat="37.21927" lon="-7.3965966666666665">
        <ele>73.90000000000008</ele>
        <time>2013-01-07T13:38:08.31</time>
      </trkpt>
      <trkpt lat="37.219285" lon="-7.396633333333333">
        <ele>74.30000000000008</ele>
        <time>2013-01-07T13:38:09.31</time>
      </trkpt>
      <trkpt lat="37.2193" lon="-7.396678333333333">
        <ele>74.30000000000008</ele>
        <time>2013-01-07T13:38:10.40</time>
      </trkpt>
      <trkpt lat="37.21931166666667" lon="-7.396718333333333">
        <ele>74.90000000000008</ele>
        <time>2013-01-07T13:38:11.31</time>
      </trkpt>
      <trkpt lat="37.219323333333335" lon="-7.396755">
        <ele>75.30000000000008</ele>
        <time>2013-01-07T13:38:12.31</time>
      </trkpt>
      <trkpt lat="37.21933666666666" lon="-7.39679">
        <ele>75.30000000000008</ele>
        <time>2013-01-07T13:38:13.31</time>
      </trkpt>
      <trkpt lat="37.21934666666667" lon="-7.396825">
        <ele>75.30000000000008</ele>
        <time>2013-01-07T13:38:14.31</time>
      </trkpt>
      <trkpt lat="37.21936" lon="-7.39686">
        <ele>75.40000000000008</ele>
        <time>2013-01-07T13:38:15.32</time>
      </trkpt>
      <trkpt lat="37.21937833333333" lon="-7.396896666666667">
        <ele>75.70000000000007</ele>
        <time>2013-01-07T13:38:16.31</time>
      </trkpt>
      <trkpt lat="37.21939166666667" lon="-7.396936666666667">
        <ele>75.90000000000008</ele>
        <time>2013-01-07T13:38:17.31</time>
      </trkpt>
      <trkpt lat="37.21940333333333" lon="-7.396973333333333">
        <ele>76.20000000000007</ele>
        <time>2013-01-07T13:38:18.31</time>
      </trkpt>
      <trkpt lat="37.219411666666666" lon="-7.397001666666666">
        <ele>76.60000000000008</ele>
        <time>2013-01-07T13:38:19.31</time>
      </trkpt>
      <trkpt lat="37.219406666666664" lon="-7.39703">
        <ele>76.90000000000008</ele>
        <time>2013-01-07T13:38:20.31</time>
      </trkpt>
      <trkpt lat="37.2194" lon="-7.397061666666667">
        <ele>77.00000000000007</ele>
        <time>2013-01-07T13:38:21.31</time>
      </trkpt>
      <trkpt lat="37.21939666666667" lon="-7.397091666666666">
        <ele>76.70000000000007</ele>
        <time>2013-01-07T13:38:22.31</time>
      </trkpt>
      <trkpt lat="37.21939666666667" lon="-7.397121666666667">
        <ele>76.60000000000008</ele>
        <time>2013-01-07T13:38:23.31</time>
      </trkpt>
      <trkpt lat="37.21939166666667" lon="-7.397145">
        <ele>76.70000000000007</ele>
        <time>2013-01-07T13:38:24.32</time>
      </trkpt>
      <trkpt lat="37.21937833333333" lon="-7.397173333333333">
        <ele>76.40000000000008</ele>
        <time>2013-01-07T13:38:25.31</time>
      </trkpt>
      <trkpt lat="37.21936" lon="-7.397198333333334">
        <ele>76.30000000000008</ele>
        <time>2013-01-07T13:38:26.31</time>
      </trkpt>
      <trkpt lat="37.21934" lon="-7.397226666666667">
        <ele>76.20000000000009</ele>
        <time>2013-01-07T13:38:27.31</time>
      </trkpt>
      <trkpt lat="37.219316666666664" lon="-7.39725">
        <ele>76.1000000000001</ele>
        <time>2013-01-07T13:38:28.31</time>
      </trkpt>
      <trkpt lat="37.21929333333333" lon="-7.397273333333334">
        <ele>76.1000000000001</ele>
        <time>2013-01-07T13:38:29.31</time>
      </trkpt>
      <trkpt lat="37.21926833333333" lon="-7.397296666666667">
        <ele>76.1000000000001</ele>
        <time>2013-01-07T13:38:30.31</time>
      </trkpt>
      <trkpt lat="37.219233333333335" lon="-7.397338333333333">
        <ele>74.40000000000009</ele>
        <time>2013-01-07T13:38:31.31</time>
      </trkpt>
      <trkpt lat="37.219206666666665" lon="-7.397363333333334">
        <ele>74.40000000000009</ele>
        <time>2013-01-07T13:38:32.31</time>
      </trkpt>
      <trkpt lat="37.21917833333333" lon="-7.39739">
        <ele>74.1000000000001</ele>
        <time>2013-01-07T13:38:33.31</time>
      </trkpt>
      <trkpt lat="37.21915" lon="-7.3974166666666665">
        <ele>73.90000000000009</ele>
        <time>2013-01-07T13:38:34.31</time>
      </trkpt>
      <trkpt lat="37.219121666666666" lon="-7.397438333333334">
        <ele>73.90000000000009</ele>
        <time>2013-01-07T13:38:35.32</time>
      </trkpt>
      <trkpt lat="37.21909333333333" lon="-7.397461666666667">
        <ele>73.90000000000009</ele>
        <time>2013-01-07T13:38:36.31</time>
      </trkpt>
      <trkpt lat="37.21906833333333" lon="-7.39749">
        <ele>73.8000000000001</ele>
        <time>2013-01-07T13:38:37.31</time>
      </trkpt>
      <trkpt lat="37.21904" lon="-7.397515">
        <ele>73.7000000000001</ele>
        <time>2013-01-07T13:38:38.31</time>
      </trkpt>
      <trkpt lat="37.21902" lon="-7.397531666666667">
        <ele>73.7000000000001</ele>
        <time>2013-01-07T13:38:39.31</time>
      </trkpt>
      <trkpt lat="37.219006666666665" lon="-7.39756">
        <ele>74.10000000000011</ele>
        <time>2013-01-07T13:38:40.31</time>
      </trkpt>
      <trkpt lat="37.21899" lon="-7.397571666666667">
        <ele>74.7000000000001</ele>
        <time>2013-01-07T13:38:41.31</time>
      </trkpt>
      <trkpt lat="37.218956666666664" lon="-7.397591666666667">
        <ele>74.5000000000001</ele>
        <time>2013-01-07T13:38:42.31</time>
      </trkpt>
      <trkpt lat="37.21893333333333" lon="-7.397618333333333">
        <ele>74.7000000000001</ele>
        <time>2013-01-07T13:38:43.31</time>
      </trkpt>
      <trkpt lat="37.21890333333333" lon="-7.397641666666667">
        <ele>74.7000000000001</ele>
        <time>2013-01-07T13:38:44.31</time>
      </trkpt>
      <trkpt lat="37.218875" lon="-7.397668333333334">
        <ele>74.8000000000001</ele>
        <time>2013-01-07T13:38:45.31</time>
      </trkpt>
      <trkpt lat="37.21884166666667" lon="-7.397688333333333">
        <ele>74.90000000000009</ele>
        <time>2013-01-07T13:38:46.31</time>
      </trkpt>
      <trkpt lat="37.218815" lon="-7.397705">
        <ele>74.70000000000009</ele>
        <time>2013-01-07T13:38:47.31</time>
      </trkpt>
      <trkpt lat="37.21878666666667" lon="-7.3977216666666665">
        <ele>75.1000000000001</ele>
        <time>2013-01-07T13:38:48.31</time>
      </trkpt>
      <trkpt lat="37.218758333333334" lon="-7.397748333333333">
        <ele>74.5000000000001</ele>
        <time>2013-01-07T13:38:49.31</time>
      </trkpt>
      <trkpt lat="37.21872666666667" lon="-7.39777">
        <ele>74.2000000000001</ele>
        <time>2013-01-07T13:38:50.31</time>
      </trkpt>
      <trkpt lat="37.21868833333333" lon="-7.397803333333333">
        <ele>74.10000000000011</ele>
        <time>2013-01-07T13:38:51.31</time>
      </trkpt>
      <trkpt lat="37.21866166666667" lon="-7.397836666666667">
        <ele>74.00000000000011</ele>
        <time>2013-01-07T13:38:52.31</time>
      </trkpt>
      <trkpt lat="37.21863833333333" lon="-7.397865">
        <ele>74.10000000000011</ele>
        <time>2013-01-07T13:38:53.31</time>
      </trkpt>
      <trkpt lat="37.218605" lon="-7.397891666666666">
        <ele>74.10000000000011</ele>
        <time>2013-01-07T13:38:54.31</time>
      </trkpt>
      <trkpt lat="37.218576666666664" lon="-7.397915">
        <ele>74.10000000000011</ele>
        <time>2013-01-07T13:38:55.31</time>
      </trkpt>
      <trkpt lat="37.21855333333333" lon="-7.397948333333333">
        <ele>73.9000000000001</ele>
        <time>2013-01-07T13:38:56.31</time>
      </trkpt>
      <trkpt lat="37.21852666666667" lon="-7.397971666666667">
        <ele>74.0000000000001</ele>
        <time>2013-01-07T13:38:57.31</time>
      </trkpt>
      <trkpt lat="37.218495" lon="-7.397995">
        <ele>74.1000000000001</ele>
        <time>2013-01-07T13:38:58.31</time>
      </trkpt>
      <trkpt lat="37.218473333333336" lon="-7.398043333333334">
        <ele>72.5000000000001</ele>
        <time>2013-01-07T13:38:59.31</time>
      </trkpt>
      <trkpt lat="37.21847" lon="-7.398081666666666">
        <ele>71.9000000000001</ele>
        <time>2013-01-07T13:39:00.31</time>
      </trkpt>
      <trkpt lat="37.21848333333333" lon="-7.398125">
        <ele>72.10000000000011</ele>
        <time>2013-01-07T13:39:01.31</time>
      </trkpt>
      <trkpt lat="37.21849" lon="-7.39817">
        <ele>71.9000000000001</ele>
        <time>2013-01-07T13:39:02.30</time>
      </trkpt>
      <trkpt lat="37.21850166666667" lon="-7.398205">
        <ele>72.0000000000001</ele>
        <time>2013-01-07T13:39:03.30</time>
      </trkpt>
      <trkpt lat="37.218516666666666" lon="-7.398241666666666">
        <ele>72.5000000000001</ele>
        <time>2013-01-07T13:39:04.31</time>
      </trkpt>
      <trkpt lat="37.218535" lon="-7.3982833333333335">
        <ele>72.4000000000001</ele>
        <time>2013-01-07T13:39:05.31</time>
      </trkpt>
      <trkpt lat="37.218545" lon="-7.398316666666667">
        <ele>72.7000000000001</ele>
        <time>2013-01-07T13:39:06.31</time>
      </trkpt>
      <trkpt lat="37.218556666666665" lon="-7.3983566666666665">
        <ele>72.9000000000001</ele>
        <time>2013-01-07T13:39:07.31</time>
      </trkpt>
      <trkpt lat="37.21856666666667" lon="-7.398398333333334">
        <ele>73.2000000000001</ele>
        <time>2013-01-07T13:39:08.31</time>
      </trkpt>
      <trkpt lat="37.218581666666665" lon="-7.398436666666667">
        <ele>73.4000000000001</ele>
        <time>2013-01-07T13:39:09.31</time>
      </trkpt>
      <trkpt lat="37.21859" lon="-7.398478333333333">
        <ele>73.7000000000001</ele>
        <time>2013-01-07T13:39:10.31</time>
      </trkpt>
      <trkpt lat="37.218601666666665" lon="-7.3985183333333335">
        <ele>73.8000000000001</ele>
        <time>2013-01-07T13:39:11.31</time>
      </trkpt>
      <trkpt lat="37.21861" lon="-7.398558333333333">
        <ele>73.90000000000009</ele>
        <time>2013-01-07T13:39:12.31</time>
      </trkpt>
      <trkpt lat="37.21862333333333" lon="-7.398585">
        <ele>75.50000000000009</ele>
        <time>2013-01-07T13:39:13.32</time>
      </trkpt>
      <trkpt lat="37.218635" lon="-7.39862">
        <ele>75.60000000000008</ele>
        <time>2013-01-07T13:39:14.31</time>
      </trkpt>
      <trkpt lat="37.218645" lon="-7.398658333333334">
        <ele>75.90000000000008</ele>
        <time>2013-01-07T13:39:15.31</time>
      </trkpt>
      <trkpt lat="37.218653333333336" lon="-7.398693333333333">
        <ele>76.20000000000007</ele>
        <time>2013-01-07T13:39:16.31</time>
      </trkpt>
      <trkpt lat="37.218665" lon="-7.398728333333334">
        <ele>76.20000000000007</ele>
        <time>2013-01-07T13:39:17.31</time>
      </trkpt>
      <trkpt lat="37.218673333333335" lon="-7.39876">
        <ele>76.10000000000008</ele>
        <time>2013-01-07T13:39:18.31</time>
      </trkpt>
      <trkpt lat="37.21868666666666" lon="-7.39879">
        <ele>76.60000000000008</ele>
        <time>2013-01-07T13:39:19.31</time>
      </trkpt>
      <trkpt lat="37.2187" lon="-7.39883">
        <ele>76.40000000000008</ele>
        <time>2013-01-07T13:39:20.31</time>
      </trkpt>
      <trkpt lat="37.21871" lon="-7.398866666666667">
        <ele>76.30000000000008</ele>
        <time>2013-01-07T13:39:21.31</time>
      </trkpt>
      <trkpt lat="37.21872333333334" lon="-7.398905">
        <ele>76.40000000000008</ele>
        <time>2013-01-07T13:39:22.31</time>
      </trkpt>
      <trkpt lat="37.218735" lon="-7.398943333333333">
        <ele>76.30000000000008</ele>
        <time>2013-01-07T13:39:23.31</time>
      </trkpt>
      <trkpt lat="37.218745" lon="-7.398978333333333">
        <ele>76.60000000000008</ele>
        <time>2013-01-07T13:39:24.31</time>
      </trkpt>
      <trkpt lat="37.21876" lon="-7.398996666666667">
        <ele>77.30000000000008</ele>
        <time>2013-01-07T13:39:25.31</time>
      </trkpt>
      <trkpt lat="37.218765" lon="-7.3990366666666665">
        <ele>77.50000000000009</ele>
        <time>2013-01-07T13:39:26.31</time>
      </trkpt>
      <trkpt lat="37.21877333333333" lon="-7.39907">
        <ele>77.70000000000009</ele>
        <time>2013-01-07T13:39:27.31</time>
      </trkpt>
      <trkpt lat="37.21877666666666" lon="-7.399095">
        <ele>77.90000000000009</ele>
        <time>2013-01-07T13:39:28.31</time>
      </trkpt>
      <trkpt lat="37.218781666666665" lon="-7.399113333333333">
        <ele>77.6000000000001</ele>
        <time>2013-01-07T13:39:29.31</time>
      </trkpt>
      <trkpt lat="37.218783333333334" lon="-7.399123333333334">
        <ele>77.5000000000001</ele>
        <time>2013-01-07T13:39:30.31</time>
      </trkpt>
      <trkpt lat="37.21878666666667" lon="-7.399113333333333">
        <ele>77.8</ele>
        <time>2013-01-07T13:39:37.31</time>
      </trkpt>
      <trkpt lat="37.21878666666667" lon="-7.399113333333333">
        <ele>77.8</ele>
        <time>2013-01-07T13:39:46.0</time>
      </trkpt>
    </trkseg>
  </trk>
</gpx>